<?xml version="1.0" encoding="UTF-8" standalone="no" ?>
<gpx xmlns="http://www.topografix.com/GPX/1/1" xmlns:xsi="http://www.w3.org/2001/XMLSchema-instance" xsi:schemaLocation="http://www.topografix.com/GPX/1/1 http://www.topografix.com/GPX/1/1/gpx.xsd" version="1.1" creator="VisuGPX - https://www.visugpx.com">
  <metadata>
    <name>RANDO COMLONBRIERES</name>
    <desc><![CDATA[Montées sur large sentier , descentes et montées sur single parfois technique , bon parcours ,acceuille sympa]]></desc>
  </metadata>
  <trk>
    <name><![CDATA[10-OCT-10 13:07:01]]></name>
    <trkseg>
      <trkpt lat="43.23828" lon="6.30973">
        <ele>176.06</ele>
        <time>2010-10-10T06:41:54Z</time>
      </trkpt>
      <trkpt lat="43.23828" lon="6.30973">
        <ele>171.25</ele>
        <time>2010-10-10T06:41:56Z</time>
      </trkpt>
      <trkpt lat="43.23828" lon="6.30973">
        <ele>174.14</ele>
        <time>2010-10-10T06:42:06Z</time>
      </trkpt>
      <trkpt lat="43.23828" lon="6.30973">
        <ele>173.66</ele>
        <time>2010-10-10T06:42:20Z</time>
      </trkpt>
      <trkpt lat="43.23828" lon="6.30973">
        <ele>174.14</ele>
        <time>2010-10-10T06:42:36Z</time>
      </trkpt>
      <trkpt lat="43.23828" lon="6.30973">
        <ele>173.66</ele>
        <time>2010-10-10T06:42:51Z</time>
      </trkpt>
      <trkpt lat="43.23828" lon="6.30973">
        <ele>173.17</ele>
        <time>2010-10-10T06:43:03Z</time>
      </trkpt>
      <trkpt lat="43.23828" lon="6.30973">
        <ele>175.1</ele>
        <time>2010-10-10T06:43:06Z</time>
      </trkpt>
      <trkpt lat="43.23828" lon="6.30973">
        <ele>174.62</ele>
        <time>2010-10-10T06:43:21Z</time>
      </trkpt>
      <trkpt lat="43.23828" lon="6.30973">
        <ele>173.66</ele>
        <time>2010-10-10T06:43:37Z</time>
      </trkpt>
      <trkpt lat="43.23827" lon="6.3097">
        <ele>174.14</ele>
        <time>2010-10-10T06:43:39Z</time>
      </trkpt>
      <trkpt lat="43.23813" lon="6.30956">
        <ele>173.17</ele>
        <time>2010-10-10T06:43:47Z</time>
      </trkpt>
      <trkpt lat="43.23811" lon="6.30951">
        <ele>173.66</ele>
        <time>2010-10-10T06:43:48Z</time>
      </trkpt>
      <trkpt lat="43.2381" lon="6.30944">
        <ele>173.66</ele>
        <time>2010-10-10T06:43:50Z</time>
      </trkpt>
      <trkpt lat="43.23812" lon="6.30939">
        <ele>173.17</ele>
        <time>2010-10-10T06:43:52Z</time>
      </trkpt>
      <trkpt lat="43.23805" lon="6.30935">
        <ele>173.17</ele>
        <time>2010-10-10T06:43:56Z</time>
      </trkpt>
      <trkpt lat="43.23797" lon="6.30937">
        <ele>172.69</ele>
        <time>2010-10-10T06:44:00Z</time>
      </trkpt>
      <trkpt lat="43.23794" lon="6.30934">
        <ele>173.17</ele>
        <time>2010-10-10T06:44:01Z</time>
      </trkpt>
      <trkpt lat="43.23777" lon="6.30911">
        <ele>173.66</ele>
        <time>2010-10-10T06:44:08Z</time>
      </trkpt>
      <trkpt lat="43.23771" lon="6.30905">
        <ele>174.14</ele>
        <time>2010-10-10T06:44:12Z</time>
      </trkpt>
      <trkpt lat="43.23762" lon="6.3091">
        <ele>174.62</ele>
        <time>2010-10-10T06:44:16Z</time>
      </trkpt>
      <trkpt lat="43.23736" lon="6.30941">
        <ele>176.54</ele>
        <time>2010-10-10T06:44:26Z</time>
      </trkpt>
      <trkpt lat="43.23732" lon="6.30941">
        <ele>176.54</ele>
        <time>2010-10-10T06:44:27Z</time>
      </trkpt>
      <trkpt lat="43.23723" lon="6.30937">
        <ele>176.54</ele>
        <time>2010-10-10T06:44:30Z</time>
      </trkpt>
      <trkpt lat="43.23713" lon="6.30923">
        <ele>176.54</ele>
        <time>2010-10-10T06:44:37Z</time>
      </trkpt>
      <trkpt lat="43.23709" lon="6.3092">
        <ele>174.14</ele>
        <time>2010-10-10T06:44:43Z</time>
      </trkpt>
      <trkpt lat="43.23709" lon="6.3092">
        <ele>170.29</ele>
        <time>2010-10-10T06:44:46Z</time>
      </trkpt>
      <trkpt lat="43.23709" lon="6.3092">
        <ele>177.02</ele>
        <time>2010-10-10T06:44:47Z</time>
      </trkpt>
      <trkpt lat="43.23709" lon="6.3092">
        <ele>176.54</ele>
        <time>2010-10-10T06:44:48Z</time>
      </trkpt>
      <trkpt lat="43.23709" lon="6.3092">
        <ele>172.69</ele>
        <time>2010-10-10T06:44:51Z</time>
      </trkpt>
      <trkpt lat="43.23709" lon="6.3092">
        <ele>175.58</ele>
        <time>2010-10-10T06:44:52Z</time>
      </trkpt>
      <trkpt lat="43.23709" lon="6.3092">
        <ele>176.06</ele>
        <time>2010-10-10T06:44:54Z</time>
      </trkpt>
      <trkpt lat="43.23709" lon="6.3092">
        <ele>177.02</ele>
        <time>2010-10-10T06:45:02Z</time>
      </trkpt>
      <trkpt lat="43.23702" lon="6.30916">
        <ele>176.06</ele>
        <time>2010-10-10T06:45:07Z</time>
      </trkpt>
      <trkpt lat="43.2369" lon="6.30895">
        <ele>174.62</ele>
        <time>2010-10-10T06:45:13Z</time>
      </trkpt>
      <trkpt lat="43.23678" lon="6.30885">
        <ele>174.62</ele>
        <time>2010-10-10T06:45:18Z</time>
      </trkpt>
      <trkpt lat="43.23676" lon="6.30887">
        <ele>174.62</ele>
        <time>2010-10-10T06:45:25Z</time>
      </trkpt>
      <trkpt lat="43.23676" lon="6.30887">
        <ele>174.62</ele>
        <time>2010-10-10T06:45:38Z</time>
      </trkpt>
      <trkpt lat="43.23676" lon="6.30887">
        <ele>174.62</ele>
        <time>2010-10-10T06:45:50Z</time>
      </trkpt>
      <trkpt lat="43.23676" lon="6.30887">
        <ele>175.1</ele>
        <time>2010-10-10T06:46:01Z</time>
      </trkpt>
      <trkpt lat="43.23676" lon="6.30888">
        <ele>174.14</ele>
        <time>2010-10-10T06:46:10Z</time>
      </trkpt>
      <trkpt lat="43.23675" lon="6.3089">
        <ele>173.66</ele>
        <time>2010-10-10T06:46:12Z</time>
      </trkpt>
      <trkpt lat="43.23673" lon="6.30918">
        <ele>174.62</ele>
        <time>2010-10-10T06:46:19Z</time>
      </trkpt>
      <trkpt lat="43.23673" lon="6.30931">
        <ele>177.98</ele>
        <time>2010-10-10T06:46:22Z</time>
      </trkpt>
      <trkpt lat="43.23673" lon="6.30936">
        <ele>177.98</ele>
        <time>2010-10-10T06:46:23Z</time>
      </trkpt>
      <trkpt lat="43.23671" lon="6.30968">
        <ele>178.46</ele>
        <time>2010-10-10T06:46:30Z</time>
      </trkpt>
      <trkpt lat="43.23667" lon="6.31004">
        <ele>179.42</ele>
        <time>2010-10-10T06:46:38Z</time>
      </trkpt>
      <trkpt lat="43.2365" lon="6.31025">
        <ele>181.83</ele>
        <time>2010-10-10T06:46:45Z</time>
      </trkpt>
      <trkpt lat="43.23639" lon="6.31031">
        <ele>183.75</ele>
        <time>2010-10-10T06:46:49Z</time>
      </trkpt>
      <trkpt lat="43.23624" lon="6.31021">
        <ele>183.75</ele>
        <time>2010-10-10T06:46:55Z</time>
      </trkpt>
      <trkpt lat="43.23607" lon="6.31013">
        <ele>183.27</ele>
        <time>2010-10-10T06:47:00Z</time>
      </trkpt>
      <trkpt lat="43.23587" lon="6.31004">
        <ele>183.75</ele>
        <time>2010-10-10T06:47:06Z</time>
      </trkpt>
      <trkpt lat="43.23575" lon="6.31004">
        <ele>183.75</ele>
        <time>2010-10-10T06:47:09Z</time>
      </trkpt>
      <trkpt lat="43.2357" lon="6.31004">
        <ele>183.27</ele>
        <time>2010-10-10T06:47:10Z</time>
      </trkpt>
      <trkpt lat="43.23565" lon="6.31003">
        <ele>183.75</ele>
        <time>2010-10-10T06:47:11Z</time>
      </trkpt>
      <trkpt lat="43.23561" lon="6.31002">
        <ele>183.27</ele>
        <time>2010-10-10T06:47:12Z</time>
      </trkpt>
      <trkpt lat="43.23556" lon="6.31">
        <ele>183.75</ele>
        <time>2010-10-10T06:47:13Z</time>
      </trkpt>
      <trkpt lat="43.23552" lon="6.30998">
        <ele>183.27</ele>
        <time>2010-10-10T06:47:14Z</time>
      </trkpt>
      <trkpt lat="43.23543" lon="6.30991">
        <ele>182.31</ele>
        <time>2010-10-10T06:47:16Z</time>
      </trkpt>
      <trkpt lat="43.23535" lon="6.30984">
        <ele>183.27</ele>
        <time>2010-10-10T06:47:18Z</time>
      </trkpt>
      <trkpt lat="43.23531" lon="6.30981">
        <ele>182.31</ele>
        <time>2010-10-10T06:47:19Z</time>
      </trkpt>
      <trkpt lat="43.23489" lon="6.30958">
        <ele>181.35</ele>
        <time>2010-10-10T06:47:28Z</time>
      </trkpt>
      <trkpt lat="43.23462" lon="6.30948">
        <ele>181.35</ele>
        <time>2010-10-10T06:47:34Z</time>
      </trkpt>
      <trkpt lat="43.23458" lon="6.30948">
        <ele>181.35</ele>
        <time>2010-10-10T06:47:35Z</time>
      </trkpt>
      <trkpt lat="43.23454" lon="6.30948">
        <ele>181.35</ele>
        <time>2010-10-10T06:47:36Z</time>
      </trkpt>
      <trkpt lat="43.23442" lon="6.30949">
        <ele>180.38</ele>
        <time>2010-10-10T06:47:39Z</time>
      </trkpt>
      <trkpt lat="43.23425" lon="6.30952">
        <ele>181.35</ele>
        <time>2010-10-10T06:47:43Z</time>
      </trkpt>
      <trkpt lat="43.23403" lon="6.3096">
        <ele>181.83</ele>
        <time>2010-10-10T06:47:48Z</time>
      </trkpt>
      <trkpt lat="43.23399" lon="6.30962">
        <ele>182.31</ele>
        <time>2010-10-10T06:47:49Z</time>
      </trkpt>
      <trkpt lat="43.23395" lon="6.30964">
        <ele>182.31</ele>
        <time>2010-10-10T06:47:50Z</time>
      </trkpt>
      <trkpt lat="43.23374" lon="6.30973">
        <ele>183.75</ele>
        <time>2010-10-10T06:47:57Z</time>
      </trkpt>
      <trkpt lat="43.23364" lon="6.30975">
        <ele>185.67</ele>
        <time>2010-10-10T06:48:03Z</time>
      </trkpt>
      <trkpt lat="43.23353" lon="6.30976">
        <ele>188.08</ele>
        <time>2010-10-10T06:48:10Z</time>
      </trkpt>
      <trkpt lat="43.23352" lon="6.30975">
        <ele>188.56</ele>
        <time>2010-10-10T06:48:11Z</time>
      </trkpt>
      <trkpt lat="43.2335" lon="6.30974">
        <ele>188.56</ele>
        <time>2010-10-10T06:48:12Z</time>
      </trkpt>
      <trkpt lat="43.23339" lon="6.30974">
        <ele>190.48</ele>
        <time>2010-10-10T06:48:18Z</time>
      </trkpt>
      <trkpt lat="43.23324" lon="6.30969">
        <ele>193.36</ele>
        <time>2010-10-10T06:48:27Z</time>
      </trkpt>
      <trkpt lat="43.23312" lon="6.30962">
        <ele>195.28</ele>
        <time>2010-10-10T06:48:34Z</time>
      </trkpt>
      <trkpt lat="43.23302" lon="6.30952">
        <ele>199.13</ele>
        <time>2010-10-10T06:48:42Z</time>
      </trkpt>
      <trkpt lat="43.23293" lon="6.30947">
        <ele>201.05</ele>
        <time>2010-10-10T06:48:48Z</time>
      </trkpt>
      <trkpt lat="43.23281" lon="6.30941">
        <ele>202.01</ele>
        <time>2010-10-10T06:48:55Z</time>
      </trkpt>
      <trkpt lat="43.23271" lon="6.3094">
        <ele>203.94</ele>
        <time>2010-10-10T06:49:01Z</time>
      </trkpt>
      <trkpt lat="43.23262" lon="6.30928">
        <ele>206.34</ele>
        <time>2010-10-10T06:49:10Z</time>
      </trkpt>
      <trkpt lat="43.23257" lon="6.30923">
        <ele>207.3</ele>
        <time>2010-10-10T06:49:15Z</time>
      </trkpt>
      <trkpt lat="43.23246" lon="6.30921">
        <ele>209.22</ele>
        <time>2010-10-10T06:49:23Z</time>
      </trkpt>
      <trkpt lat="43.23236" lon="6.30919">
        <ele>209.7</ele>
        <time>2010-10-10T06:49:30Z</time>
      </trkpt>
      <trkpt lat="43.23229" lon="6.30917">
        <ele>211.63</ele>
        <time>2010-10-10T06:49:38Z</time>
      </trkpt>
      <trkpt lat="43.23221" lon="6.30919">
        <ele>214.99</ele>
        <time>2010-10-10T06:49:46Z</time>
      </trkpt>
      <trkpt lat="43.2322" lon="6.30919">
        <ele>215.47</ele>
        <time>2010-10-10T06:49:47Z</time>
      </trkpt>
      <trkpt lat="43.23218" lon="6.3092">
        <ele>215.95</ele>
        <time>2010-10-10T06:49:49Z</time>
      </trkpt>
      <trkpt lat="43.23212" lon="6.30911">
        <ele>217.88</ele>
        <time>2010-10-10T06:49:58Z</time>
      </trkpt>
      <trkpt lat="43.23212" lon="6.309">
        <ele>219.32</ele>
        <time>2010-10-10T06:50:05Z</time>
      </trkpt>
      <trkpt lat="43.23212" lon="6.30896">
        <ele>220.28</ele>
        <time>2010-10-10T06:50:08Z</time>
      </trkpt>
      <trkpt lat="43.23207" lon="6.30886">
        <ele>222.2</ele>
        <time>2010-10-10T06:50:16Z</time>
      </trkpt>
      <trkpt lat="43.23202" lon="6.30877">
        <ele>222.68</ele>
        <time>2010-10-10T06:50:22Z</time>
      </trkpt>
      <trkpt lat="43.232" lon="6.30873">
        <ele>223.16</ele>
        <time>2010-10-10T06:50:24Z</time>
      </trkpt>
      <trkpt lat="43.23196" lon="6.30868">
        <ele>223.64</ele>
        <time>2010-10-10T06:50:28Z</time>
      </trkpt>
      <trkpt lat="43.23191" lon="6.30862">
        <ele>224.61</ele>
        <time>2010-10-10T06:50:33Z</time>
      </trkpt>
      <trkpt lat="43.23187" lon="6.30853">
        <ele>225.09</ele>
        <time>2010-10-10T06:50:39Z</time>
      </trkpt>
      <trkpt lat="43.23179" lon="6.3084">
        <ele>226.53</ele>
        <time>2010-10-10T06:50:48Z</time>
      </trkpt>
      <trkpt lat="43.23172" lon="6.30825">
        <ele>228.45</ele>
        <time>2010-10-10T06:50:57Z</time>
      </trkpt>
      <trkpt lat="43.23171" lon="6.3081">
        <ele>231.33</ele>
        <time>2010-10-10T06:51:05Z</time>
      </trkpt>
      <trkpt lat="43.23174" lon="6.30792">
        <ele>232.78</ele>
        <time>2010-10-10T06:51:15Z</time>
      </trkpt>
      <trkpt lat="43.23179" lon="6.3078">
        <ele>235.66</ele>
        <time>2010-10-10T06:51:22Z</time>
      </trkpt>
      <trkpt lat="43.23186" lon="6.30768">
        <ele>236.62</ele>
        <time>2010-10-10T06:51:30Z</time>
      </trkpt>
      <trkpt lat="43.23188" lon="6.30765">
        <ele>237.58</ele>
        <time>2010-10-10T06:51:32Z</time>
      </trkpt>
      <trkpt lat="43.23192" lon="6.30757">
        <ele>238.06</ele>
        <time>2010-10-10T06:51:37Z</time>
      </trkpt>
      <trkpt lat="43.23197" lon="6.30752">
        <ele>239.51</ele>
        <time>2010-10-10T06:51:41Z</time>
      </trkpt>
      <trkpt lat="43.23205" lon="6.30749">
        <ele>240.47</ele>
        <time>2010-10-10T06:51:47Z</time>
      </trkpt>
      <trkpt lat="43.23212" lon="6.30744">
        <ele>242.87</ele>
        <time>2010-10-10T06:51:53Z</time>
      </trkpt>
      <trkpt lat="43.23215" lon="6.30741">
        <ele>244.31</ele>
        <time>2010-10-10T06:51:56Z</time>
      </trkpt>
      <trkpt lat="43.23216" lon="6.30737">
        <ele>244.31</ele>
        <time>2010-10-10T06:51:58Z</time>
      </trkpt>
      <trkpt lat="43.23212" lon="6.30733">
        <ele>245.27</ele>
        <time>2010-10-10T06:52:02Z</time>
      </trkpt>
      <trkpt lat="43.23204" lon="6.30734">
        <ele>246.72</ele>
        <time>2010-10-10T06:52:08Z</time>
      </trkpt>
      <trkpt lat="43.23188" lon="6.3074">
        <ele>247.68</ele>
        <time>2010-10-10T06:52:18Z</time>
      </trkpt>
      <trkpt lat="43.23183" lon="6.30741">
        <ele>248.64</ele>
        <time>2010-10-10T06:52:21Z</time>
      </trkpt>
      <trkpt lat="43.23168" lon="6.30745">
        <ele>250.56</ele>
        <time>2010-10-10T06:52:31Z</time>
      </trkpt>
      <trkpt lat="43.23157" lon="6.30749">
        <ele>251.52</ele>
        <time>2010-10-10T06:52:37Z</time>
      </trkpt>
      <trkpt lat="43.23144" lon="6.30755">
        <ele>252.48</ele>
        <time>2010-10-10T06:52:45Z</time>
      </trkpt>
      <trkpt lat="43.23134" lon="6.30762">
        <ele>254.41</ele>
        <time>2010-10-10T06:52:52Z</time>
      </trkpt>
      <trkpt lat="43.23125" lon="6.30768">
        <ele>255.85</ele>
        <time>2010-10-10T06:52:58Z</time>
      </trkpt>
      <trkpt lat="43.23119" lon="6.30773">
        <ele>257.77</ele>
        <time>2010-10-10T06:53:03Z</time>
      </trkpt>
      <trkpt lat="43.2311" lon="6.3078">
        <ele>259.69</ele>
        <time>2010-10-10T06:53:11Z</time>
      </trkpt>
      <trkpt lat="43.23103" lon="6.30787">
        <ele>261.62</ele>
        <time>2010-10-10T06:53:18Z</time>
      </trkpt>
      <trkpt lat="43.23094" lon="6.30797">
        <ele>264.5</ele>
        <time>2010-10-10T06:53:26Z</time>
      </trkpt>
      <trkpt lat="43.23092" lon="6.308">
        <ele>264.5</ele>
        <time>2010-10-10T06:53:28Z</time>
      </trkpt>
      <trkpt lat="43.23088" lon="6.30808">
        <ele>265.94</ele>
        <time>2010-10-10T06:53:35Z</time>
      </trkpt>
      <trkpt lat="43.23087" lon="6.30813">
        <ele>266.42</ele>
        <time>2010-10-10T06:53:38Z</time>
      </trkpt>
      <trkpt lat="43.23088" lon="6.3082">
        <ele>268.83</ele>
        <time>2010-10-10T06:53:43Z</time>
      </trkpt>
      <trkpt lat="43.23086" lon="6.3083">
        <ele>270.27</ele>
        <time>2010-10-10T06:53:49Z</time>
      </trkpt>
      <trkpt lat="43.23083" lon="6.30832">
        <ele>271.23</ele>
        <time>2010-10-10T06:53:52Z</time>
      </trkpt>
      <trkpt lat="43.23075" lon="6.30831">
        <ele>273.63</ele>
        <time>2010-10-10T06:53:59Z</time>
      </trkpt>
      <trkpt lat="43.23069" lon="6.3082">
        <ele>275.07</ele>
        <time>2010-10-10T06:54:07Z</time>
      </trkpt>
      <trkpt lat="43.23069" lon="6.30816">
        <ele>275.56</ele>
        <time>2010-10-10T06:54:09Z</time>
      </trkpt>
      <trkpt lat="43.23066" lon="6.30807">
        <ele>277</ele>
        <time>2010-10-10T06:54:15Z</time>
      </trkpt>
      <trkpt lat="43.23064" lon="6.30804">
        <ele>277.48</ele>
        <time>2010-10-10T06:54:17Z</time>
      </trkpt>
      <trkpt lat="43.23059" lon="6.30798">
        <ele>278.92</ele>
        <time>2010-10-10T06:54:22Z</time>
      </trkpt>
      <trkpt lat="43.23053" lon="6.308">
        <ele>280.84</ele>
        <time>2010-10-10T06:54:28Z</time>
      </trkpt>
      <trkpt lat="43.23046" lon="6.30806">
        <ele>283.73</ele>
        <time>2010-10-10T06:54:37Z</time>
      </trkpt>
      <trkpt lat="43.23036" lon="6.30813">
        <ele>284.69</ele>
        <time>2010-10-10T06:54:45Z</time>
      </trkpt>
      <trkpt lat="43.23034" lon="6.30815">
        <ele>285.65</ele>
        <time>2010-10-10T06:54:47Z</time>
      </trkpt>
      <trkpt lat="43.2303" lon="6.30815">
        <ele>285.65</ele>
        <time>2010-10-10T06:54:50Z</time>
      </trkpt>
      <trkpt lat="43.23018" lon="6.30812">
        <ele>284.69</ele>
        <time>2010-10-10T06:54:56Z</time>
      </trkpt>
      <trkpt lat="43.23012" lon="6.30807">
        <ele>283.25</ele>
        <time>2010-10-10T06:54:58Z</time>
      </trkpt>
      <trkpt lat="43.23001" lon="6.30795">
        <ele>280.36</ele>
        <time>2010-10-10T06:55:01Z</time>
      </trkpt>
      <trkpt lat="43.22998" lon="6.30789">
        <ele>279.4</ele>
        <time>2010-10-10T06:55:02Z</time>
      </trkpt>
      <trkpt lat="43.22995" lon="6.30785">
        <ele>278.44</ele>
        <time>2010-10-10T06:55:03Z</time>
      </trkpt>
      <trkpt lat="43.22992" lon="6.30782">
        <ele>277.96</ele>
        <time>2010-10-10T06:55:04Z</time>
      </trkpt>
      <trkpt lat="43.2299" lon="6.3078">
        <ele>277.48</ele>
        <time>2010-10-10T06:55:05Z</time>
      </trkpt>
      <trkpt lat="43.22989" lon="6.30781">
        <ele>277</ele>
        <time>2010-10-10T06:55:06Z</time>
      </trkpt>
      <trkpt lat="43.22988" lon="6.30783">
        <ele>276.04</ele>
        <time>2010-10-10T06:55:07Z</time>
      </trkpt>
      <trkpt lat="43.22988" lon="6.30785">
        <ele>276.04</ele>
        <time>2010-10-10T06:55:08Z</time>
      </trkpt>
      <trkpt lat="43.22988" lon="6.30789">
        <ele>275.56</ele>
        <time>2010-10-10T06:55:09Z</time>
      </trkpt>
      <trkpt lat="43.22988" lon="6.30793">
        <ele>274.59</ele>
        <time>2010-10-10T06:55:10Z</time>
      </trkpt>
      <trkpt lat="43.22987" lon="6.30798">
        <ele>273.63</ele>
        <time>2010-10-10T06:55:11Z</time>
      </trkpt>
      <trkpt lat="43.22984" lon="6.30803">
        <ele>271.71</ele>
        <time>2010-10-10T06:55:12Z</time>
      </trkpt>
      <trkpt lat="43.2298" lon="6.30807">
        <ele>271.23</ele>
        <time>2010-10-10T06:55:13Z</time>
      </trkpt>
      <trkpt lat="43.22976" lon="6.30808">
        <ele>270.75</ele>
        <time>2010-10-10T06:55:14Z</time>
      </trkpt>
      <trkpt lat="43.22973" lon="6.30805">
        <ele>270.27</ele>
        <time>2010-10-10T06:55:15Z</time>
      </trkpt>
      <trkpt lat="43.22971" lon="6.30801">
        <ele>269.31</ele>
        <time>2010-10-10T06:55:16Z</time>
      </trkpt>
      <trkpt lat="43.22969" lon="6.30796">
        <ele>268.35</ele>
        <time>2010-10-10T06:55:17Z</time>
      </trkpt>
      <trkpt lat="43.2296" lon="6.30765">
        <ele>264.5</ele>
        <time>2010-10-10T06:55:21Z</time>
      </trkpt>
      <trkpt lat="43.22957" lon="6.30758">
        <ele>263.06</ele>
        <time>2010-10-10T06:55:22Z</time>
      </trkpt>
      <trkpt lat="43.22953" lon="6.30751">
        <ele>261.14</ele>
        <time>2010-10-10T06:55:23Z</time>
      </trkpt>
      <trkpt lat="43.22948" lon="6.30744">
        <ele>260.65</ele>
        <time>2010-10-10T06:55:24Z</time>
      </trkpt>
      <trkpt lat="43.22944" lon="6.30737">
        <ele>259.69</ele>
        <time>2010-10-10T06:55:25Z</time>
      </trkpt>
      <trkpt lat="43.22941" lon="6.30729">
        <ele>258.73</ele>
        <time>2010-10-10T06:55:26Z</time>
      </trkpt>
      <trkpt lat="43.22938" lon="6.3072">
        <ele>257.29</ele>
        <time>2010-10-10T06:55:27Z</time>
      </trkpt>
      <trkpt lat="43.22935" lon="6.30711">
        <ele>256.81</ele>
        <time>2010-10-10T06:55:28Z</time>
      </trkpt>
      <trkpt lat="43.22932" lon="6.30701">
        <ele>255.85</ele>
        <time>2010-10-10T06:55:29Z</time>
      </trkpt>
      <trkpt lat="43.2293" lon="6.30691">
        <ele>254.89</ele>
        <time>2010-10-10T06:55:30Z</time>
      </trkpt>
      <trkpt lat="43.22929" lon="6.3066">
        <ele>252.96</ele>
        <time>2010-10-10T06:55:33Z</time>
      </trkpt>
      <trkpt lat="43.22929" lon="6.3065">
        <ele>252</ele>
        <time>2010-10-10T06:55:34Z</time>
      </trkpt>
      <trkpt lat="43.22927" lon="6.3064">
        <ele>251.04</ele>
        <time>2010-10-10T06:55:35Z</time>
      </trkpt>
      <trkpt lat="43.22923" lon="6.30631">
        <ele>250.56</ele>
        <time>2010-10-10T06:55:36Z</time>
      </trkpt>
      <trkpt lat="43.22917" lon="6.30625">
        <ele>249.6</ele>
        <time>2010-10-10T06:55:37Z</time>
      </trkpt>
      <trkpt lat="43.22909" lon="6.3062">
        <ele>248.64</ele>
        <time>2010-10-10T06:55:38Z</time>
      </trkpt>
      <trkpt lat="43.22901" lon="6.30615">
        <ele>247.2</ele>
        <time>2010-10-10T06:55:39Z</time>
      </trkpt>
      <trkpt lat="43.22893" lon="6.3061">
        <ele>245.75</ele>
        <time>2010-10-10T06:55:40Z</time>
      </trkpt>
      <trkpt lat="43.22886" lon="6.30605">
        <ele>245.27</ele>
        <time>2010-10-10T06:55:41Z</time>
      </trkpt>
      <trkpt lat="43.22868" lon="6.30585">
        <ele>243.35</ele>
        <time>2010-10-10T06:55:45Z</time>
      </trkpt>
      <trkpt lat="43.22863" lon="6.30581">
        <ele>242.87</ele>
        <time>2010-10-10T06:55:46Z</time>
      </trkpt>
      <trkpt lat="43.22859" lon="6.30579">
        <ele>242.39</ele>
        <time>2010-10-10T06:55:47Z</time>
      </trkpt>
      <trkpt lat="43.22855" lon="6.30576">
        <ele>241.91</ele>
        <time>2010-10-10T06:55:48Z</time>
      </trkpt>
      <trkpt lat="43.22852" lon="6.30574">
        <ele>241.43</ele>
        <time>2010-10-10T06:55:49Z</time>
      </trkpt>
      <trkpt lat="43.22849" lon="6.30571">
        <ele>240.95</ele>
        <time>2010-10-10T06:55:50Z</time>
      </trkpt>
      <trkpt lat="43.22846" lon="6.30566">
        <ele>239.99</ele>
        <time>2010-10-10T06:55:51Z</time>
      </trkpt>
      <trkpt lat="43.22844" lon="6.30561">
        <ele>239.99</ele>
        <time>2010-10-10T06:55:52Z</time>
      </trkpt>
      <trkpt lat="43.22841" lon="6.30556">
        <ele>239.02</ele>
        <time>2010-10-10T06:55:53Z</time>
      </trkpt>
      <trkpt lat="43.22838" lon="6.30551">
        <ele>238.54</ele>
        <time>2010-10-10T06:55:54Z</time>
      </trkpt>
      <trkpt lat="43.22835" lon="6.30546">
        <ele>238.06</ele>
        <time>2010-10-10T06:55:55Z</time>
      </trkpt>
      <trkpt lat="43.22834" lon="6.3054">
        <ele>237.58</ele>
        <time>2010-10-10T06:55:56Z</time>
      </trkpt>
      <trkpt lat="43.22833" lon="6.30534">
        <ele>236.62</ele>
        <time>2010-10-10T06:55:57Z</time>
      </trkpt>
      <trkpt lat="43.22831" lon="6.30528">
        <ele>236.14</ele>
        <time>2010-10-10T06:55:58Z</time>
      </trkpt>
      <trkpt lat="43.22831" lon="6.30521">
        <ele>235.18</ele>
        <time>2010-10-10T06:55:59Z</time>
      </trkpt>
      <trkpt lat="43.22832" lon="6.30513">
        <ele>234.7</ele>
        <time>2010-10-10T06:56:00Z</time>
      </trkpt>
      <trkpt lat="43.22834" lon="6.30506">
        <ele>233.74</ele>
        <time>2010-10-10T06:56:01Z</time>
      </trkpt>
      <trkpt lat="43.22838" lon="6.30499">
        <ele>233.74</ele>
        <time>2010-10-10T06:56:02Z</time>
      </trkpt>
      <trkpt lat="43.22841" lon="6.30492">
        <ele>232.78</ele>
        <time>2010-10-10T06:56:03Z</time>
      </trkpt>
      <trkpt lat="43.22844" lon="6.30485">
        <ele>232.3</ele>
        <time>2010-10-10T06:56:04Z</time>
      </trkpt>
      <trkpt lat="43.22846" lon="6.30477">
        <ele>231.33</ele>
        <time>2010-10-10T06:56:05Z</time>
      </trkpt>
      <trkpt lat="43.22849" lon="6.30468">
        <ele>230.85</ele>
        <time>2010-10-10T06:56:06Z</time>
      </trkpt>
      <trkpt lat="43.2285" lon="6.3046">
        <ele>229.89</ele>
        <time>2010-10-10T06:56:07Z</time>
      </trkpt>
      <trkpt lat="43.22851" lon="6.30454">
        <ele>229.89</ele>
        <time>2010-10-10T06:56:08Z</time>
      </trkpt>
      <trkpt lat="43.22851" lon="6.30448">
        <ele>228.45</ele>
        <time>2010-10-10T06:56:09Z</time>
      </trkpt>
      <trkpt lat="43.22851" lon="6.30441">
        <ele>228.45</ele>
        <time>2010-10-10T06:56:10Z</time>
      </trkpt>
      <trkpt lat="43.22851" lon="6.30434">
        <ele>227.49</ele>
        <time>2010-10-10T06:56:11Z</time>
      </trkpt>
      <trkpt lat="43.2285" lon="6.30425">
        <ele>227.01</ele>
        <time>2010-10-10T06:56:12Z</time>
      </trkpt>
      <trkpt lat="43.22848" lon="6.30416">
        <ele>225.57</ele>
        <time>2010-10-10T06:56:13Z</time>
      </trkpt>
      <trkpt lat="43.22845" lon="6.30383">
        <ele>221.72</ele>
        <time>2010-10-10T06:56:16Z</time>
      </trkpt>
      <trkpt lat="43.22844" lon="6.30371">
        <ele>220.76</ele>
        <time>2010-10-10T06:56:17Z</time>
      </trkpt>
      <trkpt lat="43.2284" lon="6.30336">
        <ele>218.36</ele>
        <time>2010-10-10T06:56:20Z</time>
      </trkpt>
      <trkpt lat="43.22841" lon="6.30314">
        <ele>216.43</ele>
        <time>2010-10-10T06:56:22Z</time>
      </trkpt>
      <trkpt lat="43.2284" lon="6.30303">
        <ele>215.95</ele>
        <time>2010-10-10T06:56:23Z</time>
      </trkpt>
      <trkpt lat="43.22839" lon="6.30294">
        <ele>215.47</ele>
        <time>2010-10-10T06:56:24Z</time>
      </trkpt>
      <trkpt lat="43.22836" lon="6.30285">
        <ele>214.51</ele>
        <time>2010-10-10T06:56:25Z</time>
      </trkpt>
      <trkpt lat="43.22833" lon="6.30276">
        <ele>213.07</ele>
        <time>2010-10-10T06:56:26Z</time>
      </trkpt>
      <trkpt lat="43.22827" lon="6.30267">
        <ele>211.63</ele>
        <time>2010-10-10T06:56:27Z</time>
      </trkpt>
      <trkpt lat="43.22821" lon="6.30258">
        <ele>211.15</ele>
        <time>2010-10-10T06:56:28Z</time>
      </trkpt>
      <trkpt lat="43.22811" lon="6.30238">
        <ele>209.7</ele>
        <time>2010-10-10T06:56:30Z</time>
      </trkpt>
      <trkpt lat="43.22807" lon="6.30228">
        <ele>209.22</ele>
        <time>2010-10-10T06:56:31Z</time>
      </trkpt>
      <trkpt lat="43.22805" lon="6.30217">
        <ele>208.26</ele>
        <time>2010-10-10T06:56:32Z</time>
      </trkpt>
      <trkpt lat="43.22803" lon="6.30206">
        <ele>206.82</ele>
        <time>2010-10-10T06:56:33Z</time>
      </trkpt>
      <trkpt lat="43.22802" lon="6.30195">
        <ele>205.86</ele>
        <time>2010-10-10T06:56:34Z</time>
      </trkpt>
      <trkpt lat="43.22802" lon="6.30186">
        <ele>204.9</ele>
        <time>2010-10-10T06:56:35Z</time>
      </trkpt>
      <trkpt lat="43.22803" lon="6.30179">
        <ele>204.42</ele>
        <time>2010-10-10T06:56:36Z</time>
      </trkpt>
      <trkpt lat="43.22806" lon="6.30174">
        <ele>203.94</ele>
        <time>2010-10-10T06:56:37Z</time>
      </trkpt>
      <trkpt lat="43.22811" lon="6.30171">
        <ele>203.94</ele>
        <time>2010-10-10T06:56:38Z</time>
      </trkpt>
      <trkpt lat="43.22816" lon="6.3017">
        <ele>202.98</ele>
        <time>2010-10-10T06:56:39Z</time>
      </trkpt>
      <trkpt lat="43.22821" lon="6.30171">
        <ele>202.49</ele>
        <time>2010-10-10T06:56:40Z</time>
      </trkpt>
      <trkpt lat="43.22825" lon="6.30171">
        <ele>202.01</ele>
        <time>2010-10-10T06:56:41Z</time>
      </trkpt>
      <trkpt lat="43.22827" lon="6.30168">
        <ele>200.57</ele>
        <time>2010-10-10T06:56:42Z</time>
      </trkpt>
      <trkpt lat="43.22827" lon="6.30164">
        <ele>200.09</ele>
        <time>2010-10-10T06:56:43Z</time>
      </trkpt>
      <trkpt lat="43.22825" lon="6.30161">
        <ele>199.13</ele>
        <time>2010-10-10T06:56:44Z</time>
      </trkpt>
      <trkpt lat="43.22823" lon="6.30158">
        <ele>197.21</ele>
        <time>2010-10-10T06:56:45Z</time>
      </trkpt>
      <trkpt lat="43.22821" lon="6.30153">
        <ele>196.25</ele>
        <time>2010-10-10T06:56:46Z</time>
      </trkpt>
      <trkpt lat="43.22818" lon="6.30147">
        <ele>193.84</ele>
        <time>2010-10-10T06:56:47Z</time>
      </trkpt>
      <trkpt lat="43.22814" lon="6.30142">
        <ele>191.92</ele>
        <time>2010-10-10T06:56:48Z</time>
      </trkpt>
      <trkpt lat="43.22808" lon="6.30139">
        <ele>190.96</ele>
        <time>2010-10-10T06:56:49Z</time>
      </trkpt>
      <trkpt lat="43.22801" lon="6.30138">
        <ele>190</ele>
        <time>2010-10-10T06:56:50Z</time>
      </trkpt>
      <trkpt lat="43.22794" lon="6.30135">
        <ele>189.04</ele>
        <time>2010-10-10T06:56:51Z</time>
      </trkpt>
      <trkpt lat="43.22782" lon="6.30123">
        <ele>187.11</ele>
        <time>2010-10-10T06:56:54Z</time>
      </trkpt>
      <trkpt lat="43.22778" lon="6.3012">
        <ele>187.11</ele>
        <time>2010-10-10T06:56:57Z</time>
      </trkpt>
      <trkpt lat="43.22765" lon="6.30104">
        <ele>185.19</ele>
        <time>2010-10-10T06:57:02Z</time>
      </trkpt>
      <trkpt lat="43.22754" lon="6.30083">
        <ele>181.83</ele>
        <time>2010-10-10T06:57:05Z</time>
      </trkpt>
      <trkpt lat="43.22746" lon="6.30063">
        <ele>179.9</ele>
        <time>2010-10-10T06:57:07Z</time>
      </trkpt>
      <trkpt lat="43.22744" lon="6.30052">
        <ele>178.46</ele>
        <time>2010-10-10T06:57:08Z</time>
      </trkpt>
      <trkpt lat="43.22737" lon="6.30024">
        <ele>176.54</ele>
        <time>2010-10-10T06:57:11Z</time>
      </trkpt>
      <trkpt lat="43.22734" lon="6.30018">
        <ele>176.06</ele>
        <time>2010-10-10T06:57:12Z</time>
      </trkpt>
      <trkpt lat="43.2273" lon="6.30014">
        <ele>176.54</ele>
        <time>2010-10-10T06:57:13Z</time>
      </trkpt>
      <trkpt lat="43.22703" lon="6.29995">
        <ele>176.54</ele>
        <time>2010-10-10T06:57:21Z</time>
      </trkpt>
      <trkpt lat="43.227" lon="6.29993">
        <ele>176.54</ele>
        <time>2010-10-10T06:57:23Z</time>
      </trkpt>
      <trkpt lat="43.22699" lon="6.29993">
        <ele>177.02</ele>
        <time>2010-10-10T06:57:30Z</time>
      </trkpt>
      <trkpt lat="43.22699" lon="6.29993">
        <ele>176.06</ele>
        <time>2010-10-10T06:57:39Z</time>
      </trkpt>
      <trkpt lat="43.22699" lon="6.29993">
        <ele>176.06</ele>
        <time>2010-10-10T06:57:57Z</time>
      </trkpt>
      <trkpt lat="43.22699" lon="6.29993">
        <ele>177.02</ele>
        <time>2010-10-10T06:58:14Z</time>
      </trkpt>
      <trkpt lat="43.22699" lon="6.29993">
        <ele>177.5</ele>
        <time>2010-10-10T06:58:27Z</time>
      </trkpt>
      <trkpt lat="43.22699" lon="6.29993">
        <ele>176.54</ele>
        <time>2010-10-10T06:58:46Z</time>
      </trkpt>
      <trkpt lat="43.22699" lon="6.29993">
        <ele>176.54</ele>
        <time>2010-10-10T06:59:05Z</time>
      </trkpt>
      <trkpt lat="43.22699" lon="6.29993">
        <ele>175.58</ele>
        <time>2010-10-10T06:59:20Z</time>
      </trkpt>
      <trkpt lat="43.22698" lon="6.29992">
        <ele>176.54</ele>
        <time>2010-10-10T06:59:24Z</time>
      </trkpt>
      <trkpt lat="43.22698" lon="6.29991">
        <ele>176.54</ele>
        <time>2010-10-10T06:59:34Z</time>
      </trkpt>
      <trkpt lat="43.22697" lon="6.29992">
        <ele>176.54</ele>
        <time>2010-10-10T06:59:45Z</time>
      </trkpt>
      <trkpt lat="43.22697" lon="6.29992">
        <ele>175.58</ele>
        <time>2010-10-10T07:00:05Z</time>
      </trkpt>
      <trkpt lat="43.22697" lon="6.29992">
        <ele>176.06</ele>
        <time>2010-10-10T07:00:24Z</time>
      </trkpt>
      <trkpt lat="43.22697" lon="6.29992">
        <ele>175.1</ele>
        <time>2010-10-10T07:00:44Z</time>
      </trkpt>
      <trkpt lat="43.22698" lon="6.29992">
        <ele>175.1</ele>
        <time>2010-10-10T07:01:07Z</time>
      </trkpt>
      <trkpt lat="43.22698" lon="6.29992">
        <ele>176.06</ele>
        <time>2010-10-10T07:01:26Z</time>
      </trkpt>
      <trkpt lat="43.22698" lon="6.29993">
        <ele>175.58</ele>
        <time>2010-10-10T07:01:49Z</time>
      </trkpt>
      <trkpt lat="43.22698" lon="6.29993">
        <ele>175.1</ele>
        <time>2010-10-10T07:02:11Z</time>
      </trkpt>
      <trkpt lat="43.22698" lon="6.29993">
        <ele>174.62</ele>
        <time>2010-10-10T07:02:37Z</time>
      </trkpt>
      <trkpt lat="43.22698" lon="6.29993">
        <ele>174.14</ele>
        <time>2010-10-10T07:02:59Z</time>
      </trkpt>
      <trkpt lat="43.22698" lon="6.29994">
        <ele>174.62</ele>
        <time>2010-10-10T07:03:23Z</time>
      </trkpt>
      <trkpt lat="43.22698" lon="6.29994">
        <ele>174.14</ele>
        <time>2010-10-10T07:03:45Z</time>
      </trkpt>
      <trkpt lat="43.22698" lon="6.29994">
        <ele>173.66</ele>
        <time>2010-10-10T07:04:10Z</time>
      </trkpt>
      <trkpt lat="43.22698" lon="6.29994">
        <ele>173.66</ele>
        <time>2010-10-10T07:04:32Z</time>
      </trkpt>
      <trkpt lat="43.22698" lon="6.29994">
        <ele>172.69</ele>
        <time>2010-10-10T07:04:57Z</time>
      </trkpt>
      <trkpt lat="43.22698" lon="6.29994">
        <ele>173.17</ele>
        <time>2010-10-10T07:05:15Z</time>
      </trkpt>
      <trkpt lat="43.22698" lon="6.29994">
        <ele>172.69</ele>
        <time>2010-10-10T07:05:39Z</time>
      </trkpt>
      <trkpt lat="43.22698" lon="6.29994">
        <ele>172.69</ele>
        <time>2010-10-10T07:06:01Z</time>
      </trkpt>
      <trkpt lat="43.22698" lon="6.29994">
        <ele>172.69</ele>
        <time>2010-10-10T07:06:25Z</time>
      </trkpt>
      <trkpt lat="43.22698" lon="6.29994">
        <ele>172.21</ele>
        <time>2010-10-10T07:06:44Z</time>
      </trkpt>
      <trkpt lat="43.22698" lon="6.29994">
        <ele>171.73</ele>
        <time>2010-10-10T07:07:07Z</time>
      </trkpt>
      <trkpt lat="43.22698" lon="6.29994">
        <ele>172.21</ele>
        <time>2010-10-10T07:07:28Z</time>
      </trkpt>
      <trkpt lat="43.22698" lon="6.29994">
        <ele>175.58</ele>
        <time>2010-10-10T07:07:52Z</time>
      </trkpt>
      <trkpt lat="43.22698" lon="6.29994">
        <ele>172.69</ele>
        <time>2010-10-10T07:08:06Z</time>
      </trkpt>
      <trkpt lat="43.22698" lon="6.29994">
        <ele>172.21</ele>
        <time>2010-10-10T07:08:28Z</time>
      </trkpt>
      <trkpt lat="43.22698" lon="6.29994">
        <ele>172.21</ele>
        <time>2010-10-10T07:08:36Z</time>
      </trkpt>
      <trkpt lat="43.22698" lon="6.29994">
        <ele>172.21</ele>
        <time>2010-10-10T07:08:45Z</time>
      </trkpt>
      <trkpt lat="43.22698" lon="6.29994">
        <ele>172.21</ele>
        <time>2010-10-10T07:09:01Z</time>
      </trkpt>
      <trkpt lat="43.22699" lon="6.29994">
        <ele>172.21</ele>
        <time>2010-10-10T07:09:13Z</time>
      </trkpt>
      <trkpt lat="43.22699" lon="6.29994">
        <ele>171.73</ele>
        <time>2010-10-10T07:09:26Z</time>
      </trkpt>
      <trkpt lat="43.22699" lon="6.29994">
        <ele>172.21</ele>
        <time>2010-10-10T07:09:35Z</time>
      </trkpt>
      <trkpt lat="43.227" lon="6.29997">
        <ele>172.21</ele>
        <time>2010-10-10T07:09:40Z</time>
      </trkpt>
      <trkpt lat="43.22699" lon="6.29999">
        <ele>172.21</ele>
        <time>2010-10-10T07:09:41Z</time>
      </trkpt>
      <trkpt lat="43.22701" lon="6.30018">
        <ele>172.21</ele>
        <time>2010-10-10T07:09:46Z</time>
      </trkpt>
      <trkpt lat="43.227" lon="6.30057">
        <ele>172.21</ele>
        <time>2010-10-10T07:09:54Z</time>
      </trkpt>
      <trkpt lat="43.22713" lon="6.30096">
        <ele>171.73</ele>
        <time>2010-10-10T07:10:02Z</time>
      </trkpt>
      <trkpt lat="43.22725" lon="6.30141">
        <ele>171.73</ele>
        <time>2010-10-10T07:10:11Z</time>
      </trkpt>
      <trkpt lat="43.22723" lon="6.30185">
        <ele>172.21</ele>
        <time>2010-10-10T07:10:19Z</time>
      </trkpt>
      <trkpt lat="43.2271" lon="6.30227">
        <ele>173.66</ele>
        <time>2010-10-10T07:10:27Z</time>
      </trkpt>
      <trkpt lat="43.22696" lon="6.30259">
        <ele>174.14</ele>
        <time>2010-10-10T07:10:34Z</time>
      </trkpt>
      <trkpt lat="43.22681" lon="6.30307">
        <ele>176.06</ele>
        <time>2010-10-10T07:10:44Z</time>
      </trkpt>
      <trkpt lat="43.22667" lon="6.30353">
        <ele>176.54</ele>
        <time>2010-10-10T07:10:53Z</time>
      </trkpt>
      <trkpt lat="43.22666" lon="6.30358">
        <ele>176.54</ele>
        <time>2010-10-10T07:10:54Z</time>
      </trkpt>
      <trkpt lat="43.22653" lon="6.30387">
        <ele>176.54</ele>
        <time>2010-10-10T07:11:00Z</time>
      </trkpt>
      <trkpt lat="43.22622" lon="6.30415">
        <ele>177.02</ele>
        <time>2010-10-10T07:11:09Z</time>
      </trkpt>
      <trkpt lat="43.22616" lon="6.30422">
        <ele>177.98</ele>
        <time>2010-10-10T07:11:11Z</time>
      </trkpt>
      <trkpt lat="43.22613" lon="6.30426">
        <ele>177.5</ele>
        <time>2010-10-10T07:11:12Z</time>
      </trkpt>
      <trkpt lat="43.22583" lon="6.30467">
        <ele>178.46</ele>
        <time>2010-10-10T07:11:22Z</time>
      </trkpt>
      <trkpt lat="43.22579" lon="6.3047">
        <ele>178.46</ele>
        <time>2010-10-10T07:11:23Z</time>
      </trkpt>
      <trkpt lat="43.22571" lon="6.30476">
        <ele>178.46</ele>
        <time>2010-10-10T07:11:25Z</time>
      </trkpt>
      <trkpt lat="43.22567" lon="6.30477">
        <ele>178.46</ele>
        <time>2010-10-10T07:11:26Z</time>
      </trkpt>
      <trkpt lat="43.22563" lon="6.30478">
        <ele>178.46</ele>
        <time>2010-10-10T07:11:27Z</time>
      </trkpt>
      <trkpt lat="43.22559" lon="6.30477">
        <ele>178.94</ele>
        <time>2010-10-10T07:11:28Z</time>
      </trkpt>
      <trkpt lat="43.22556" lon="6.30476">
        <ele>178.94</ele>
        <time>2010-10-10T07:11:29Z</time>
      </trkpt>
      <trkpt lat="43.22552" lon="6.30475">
        <ele>179.42</ele>
        <time>2010-10-10T07:11:30Z</time>
      </trkpt>
      <trkpt lat="43.22529" lon="6.30472">
        <ele>181.35</ele>
        <time>2010-10-10T07:11:37Z</time>
      </trkpt>
      <trkpt lat="43.22512" lon="6.30479">
        <ele>181.35</ele>
        <time>2010-10-10T07:11:43Z</time>
      </trkpt>
      <trkpt lat="43.22499" lon="6.30504">
        <ele>181.83</ele>
        <time>2010-10-10T07:11:49Z</time>
      </trkpt>
      <trkpt lat="43.22494" lon="6.30531">
        <ele>182.31</ele>
        <time>2010-10-10T07:11:55Z</time>
      </trkpt>
      <trkpt lat="43.22489" lon="6.30567">
        <ele>182.79</ele>
        <time>2010-10-10T07:12:01Z</time>
      </trkpt>
      <trkpt lat="43.22489" lon="6.30573">
        <ele>182.79</ele>
        <time>2010-10-10T07:12:02Z</time>
      </trkpt>
      <trkpt lat="43.22483" lon="6.30627">
        <ele>183.27</ele>
        <time>2010-10-10T07:12:10Z</time>
      </trkpt>
      <trkpt lat="43.22476" lon="6.30683">
        <ele>183.75</ele>
        <time>2010-10-10T07:12:19Z</time>
      </trkpt>
      <trkpt lat="43.22474" lon="6.30695">
        <ele>184.23</ele>
        <time>2010-10-10T07:12:21Z</time>
      </trkpt>
      <trkpt lat="43.22473" lon="6.30706">
        <ele>184.71</ele>
        <time>2010-10-10T07:12:23Z</time>
      </trkpt>
      <trkpt lat="43.22472" lon="6.30712">
        <ele>184.71</ele>
        <time>2010-10-10T07:12:24Z</time>
      </trkpt>
      <trkpt lat="43.22464" lon="6.30763">
        <ele>185.67</ele>
        <time>2010-10-10T07:12:33Z</time>
      </trkpt>
      <trkpt lat="43.22463" lon="6.30769">
        <ele>185.67</ele>
        <time>2010-10-10T07:12:34Z</time>
      </trkpt>
      <trkpt lat="43.22463" lon="6.30775">
        <ele>185.67</ele>
        <time>2010-10-10T07:12:35Z</time>
      </trkpt>
      <trkpt lat="43.22462" lon="6.30781">
        <ele>185.67</ele>
        <time>2010-10-10T07:12:36Z</time>
      </trkpt>
      <trkpt lat="43.22457" lon="6.30827">
        <ele>186.15</ele>
        <time>2010-10-10T07:12:44Z</time>
      </trkpt>
      <trkpt lat="43.22456" lon="6.30832">
        <ele>187.11</ele>
        <time>2010-10-10T07:12:45Z</time>
      </trkpt>
      <trkpt lat="43.22454" lon="6.30854">
        <ele>188.08</ele>
        <time>2010-10-10T07:12:49Z</time>
      </trkpt>
      <trkpt lat="43.22452" lon="6.30859">
        <ele>188.56</ele>
        <time>2010-10-10T07:12:50Z</time>
      </trkpt>
      <trkpt lat="43.22451" lon="6.30864">
        <ele>189.04</ele>
        <time>2010-10-10T07:12:51Z</time>
      </trkpt>
      <trkpt lat="43.22449" lon="6.30869">
        <ele>189.04</ele>
        <time>2010-10-10T07:12:52Z</time>
      </trkpt>
      <trkpt lat="43.22449" lon="6.30874">
        <ele>189.52</ele>
        <time>2010-10-10T07:12:53Z</time>
      </trkpt>
      <trkpt lat="43.22449" lon="6.30879">
        <ele>190</ele>
        <time>2010-10-10T07:12:54Z</time>
      </trkpt>
      <trkpt lat="43.22445" lon="6.30908">
        <ele>190.48</ele>
        <time>2010-10-10T07:13:00Z</time>
      </trkpt>
      <trkpt lat="43.22444" lon="6.30944">
        <ele>190.48</ele>
        <time>2010-10-10T07:13:07Z</time>
      </trkpt>
      <trkpt lat="43.22443" lon="6.30968">
        <ele>190.96</ele>
        <time>2010-10-10T07:13:12Z</time>
      </trkpt>
      <trkpt lat="43.22443" lon="6.31002">
        <ele>191.92</ele>
        <time>2010-10-10T07:13:19Z</time>
      </trkpt>
      <trkpt lat="43.22441" lon="6.31032">
        <ele>192.88</ele>
        <time>2010-10-10T07:13:25Z</time>
      </trkpt>
      <trkpt lat="43.22436" lon="6.31065">
        <ele>193.84</ele>
        <time>2010-10-10T07:13:32Z</time>
      </trkpt>
      <trkpt lat="43.22436" lon="6.31098">
        <ele>193.84</ele>
        <time>2010-10-10T07:13:38Z</time>
      </trkpt>
      <trkpt lat="43.22432" lon="6.31147">
        <ele>194.8</ele>
        <time>2010-10-10T07:13:47Z</time>
      </trkpt>
      <trkpt lat="43.22429" lon="6.31188">
        <ele>196.25</ele>
        <time>2010-10-10T07:13:55Z</time>
      </trkpt>
      <trkpt lat="43.22426" lon="6.31231">
        <ele>196.73</ele>
        <time>2010-10-10T07:14:04Z</time>
      </trkpt>
      <trkpt lat="43.22421" lon="6.3127">
        <ele>197.21</ele>
        <time>2010-10-10T07:14:12Z</time>
      </trkpt>
      <trkpt lat="43.22412" lon="6.31306">
        <ele>198.17</ele>
        <time>2010-10-10T07:14:20Z</time>
      </trkpt>
      <trkpt lat="43.22401" lon="6.31324">
        <ele>198.65</ele>
        <time>2010-10-10T07:14:25Z</time>
      </trkpt>
      <trkpt lat="43.22388" lon="6.31352">
        <ele>201.05</ele>
        <time>2010-10-10T07:14:32Z</time>
      </trkpt>
      <trkpt lat="43.22378" lon="6.3138">
        <ele>202.98</ele>
        <time>2010-10-10T07:14:40Z</time>
      </trkpt>
      <trkpt lat="43.22371" lon="6.31404">
        <ele>204.9</ele>
        <time>2010-10-10T07:14:47Z</time>
      </trkpt>
      <trkpt lat="43.22368" lon="6.31426">
        <ele>205.38</ele>
        <time>2010-10-10T07:14:53Z</time>
      </trkpt>
      <trkpt lat="43.22359" lon="6.31449">
        <ele>206.34</ele>
        <time>2010-10-10T07:15:00Z</time>
      </trkpt>
      <trkpt lat="43.22344" lon="6.31471">
        <ele>206.34</ele>
        <time>2010-10-10T07:15:07Z</time>
      </trkpt>
      <trkpt lat="43.22341" lon="6.31479">
        <ele>205.86</ele>
        <time>2010-10-10T07:15:12Z</time>
      </trkpt>
      <trkpt lat="43.22341" lon="6.31481">
        <ele>205.86</ele>
        <time>2010-10-10T07:15:13Z</time>
      </trkpt>
      <trkpt lat="43.22337" lon="6.31503">
        <ele>205.38</ele>
        <time>2010-10-10T07:15:19Z</time>
      </trkpt>
      <trkpt lat="43.2233" lon="6.31528">
        <ele>205.38</ele>
        <time>2010-10-10T07:15:25Z</time>
      </trkpt>
      <trkpt lat="43.22327" lon="6.31533">
        <ele>204.9</ele>
        <time>2010-10-10T07:15:26Z</time>
      </trkpt>
      <trkpt lat="43.22325" lon="6.31537">
        <ele>205.38</ele>
        <time>2010-10-10T07:15:27Z</time>
      </trkpt>
      <trkpt lat="43.22307" lon="6.31579">
        <ele>204.9</ele>
        <time>2010-10-10T07:15:35Z</time>
      </trkpt>
      <trkpt lat="43.223" lon="6.31596">
        <ele>204.9</ele>
        <time>2010-10-10T07:15:38Z</time>
      </trkpt>
      <trkpt lat="43.22297" lon="6.31611">
        <ele>204.9</ele>
        <time>2010-10-10T07:15:41Z</time>
      </trkpt>
      <trkpt lat="43.22296" lon="6.31617">
        <ele>204.9</ele>
        <time>2010-10-10T07:15:42Z</time>
      </trkpt>
      <trkpt lat="43.22297" lon="6.31623">
        <ele>204.9</ele>
        <time>2010-10-10T07:15:43Z</time>
      </trkpt>
      <trkpt lat="43.22297" lon="6.31629">
        <ele>204.42</ele>
        <time>2010-10-10T07:15:44Z</time>
      </trkpt>
      <trkpt lat="43.22298" lon="6.31636">
        <ele>204.42</ele>
        <time>2010-10-10T07:15:45Z</time>
      </trkpt>
      <trkpt lat="43.22299" lon="6.31642">
        <ele>203.94</ele>
        <time>2010-10-10T07:15:46Z</time>
      </trkpt>
      <trkpt lat="43.22298" lon="6.31649">
        <ele>203.46</ele>
        <time>2010-10-10T07:15:47Z</time>
      </trkpt>
      <trkpt lat="43.22297" lon="6.31669">
        <ele>203.46</ele>
        <time>2010-10-10T07:15:52Z</time>
      </trkpt>
      <trkpt lat="43.22299" lon="6.31677">
        <ele>203.46</ele>
        <time>2010-10-10T07:15:56Z</time>
      </trkpt>
      <trkpt lat="43.22299" lon="6.31679">
        <ele>203.46</ele>
        <time>2010-10-10T07:15:57Z</time>
      </trkpt>
      <trkpt lat="43.22297" lon="6.31681">
        <ele>203.46</ele>
        <time>2010-10-10T07:15:58Z</time>
      </trkpt>
      <trkpt lat="43.22284" lon="6.31701">
        <ele>204.42</ele>
        <time>2010-10-10T07:16:06Z</time>
      </trkpt>
      <trkpt lat="43.2227" lon="6.31721">
        <ele>204.9</ele>
        <time>2010-10-10T07:16:12Z</time>
      </trkpt>
      <trkpt lat="43.22252" lon="6.31746">
        <ele>206.34</ele>
        <time>2010-10-10T07:16:19Z</time>
      </trkpt>
      <trkpt lat="43.22239" lon="6.31771">
        <ele>206.34</ele>
        <time>2010-10-10T07:16:25Z</time>
      </trkpt>
      <trkpt lat="43.22224" lon="6.31797">
        <ele>206.82</ele>
        <time>2010-10-10T07:16:31Z</time>
      </trkpt>
      <trkpt lat="43.22219" lon="6.31809">
        <ele>207.3</ele>
        <time>2010-10-10T07:16:36Z</time>
      </trkpt>
      <trkpt lat="43.22219" lon="6.31809">
        <ele>206.82</ele>
        <time>2010-10-10T07:16:41Z</time>
      </trkpt>
      <trkpt lat="43.22221" lon="6.31806">
        <ele>206.82</ele>
        <time>2010-10-10T07:16:42Z</time>
      </trkpt>
      <trkpt lat="43.22223" lon="6.31803">
        <ele>206.34</ele>
        <time>2010-10-10T07:16:43Z</time>
      </trkpt>
      <trkpt lat="43.22226" lon="6.318">
        <ele>206.82</ele>
        <time>2010-10-10T07:16:44Z</time>
      </trkpt>
      <trkpt lat="43.22229" lon="6.31796">
        <ele>206.82</ele>
        <time>2010-10-10T07:16:45Z</time>
      </trkpt>
      <trkpt lat="43.22231" lon="6.31792">
        <ele>206.34</ele>
        <time>2010-10-10T07:16:46Z</time>
      </trkpt>
      <trkpt lat="43.22244" lon="6.31768">
        <ele>206.34</ele>
        <time>2010-10-10T07:16:51Z</time>
      </trkpt>
      <trkpt lat="43.22247" lon="6.31763">
        <ele>206.34</ele>
        <time>2010-10-10T07:16:52Z</time>
      </trkpt>
      <trkpt lat="43.22271" lon="6.31724">
        <ele>205.86</ele>
        <time>2010-10-10T07:16:59Z</time>
      </trkpt>
      <trkpt lat="43.22295" lon="6.31689">
        <ele>204.42</ele>
        <time>2010-10-10T07:17:06Z</time>
      </trkpt>
      <trkpt lat="43.22298" lon="6.31681">
        <ele>203.94</ele>
        <time>2010-10-10T07:17:08Z</time>
      </trkpt>
      <trkpt lat="43.22298" lon="6.31676">
        <ele>204.42</ele>
        <time>2010-10-10T07:17:09Z</time>
      </trkpt>
      <trkpt lat="43.22297" lon="6.31672">
        <ele>204.42</ele>
        <time>2010-10-10T07:17:10Z</time>
      </trkpt>
      <trkpt lat="43.22296" lon="6.31667">
        <ele>203.94</ele>
        <time>2010-10-10T07:17:11Z</time>
      </trkpt>
      <trkpt lat="43.22296" lon="6.31663">
        <ele>203.94</ele>
        <time>2010-10-10T07:17:12Z</time>
      </trkpt>
      <trkpt lat="43.22298" lon="6.31658">
        <ele>204.42</ele>
        <time>2010-10-10T07:17:13Z</time>
      </trkpt>
      <trkpt lat="43.22299" lon="6.31653">
        <ele>204.9</ele>
        <time>2010-10-10T07:17:14Z</time>
      </trkpt>
      <trkpt lat="43.223" lon="6.31649">
        <ele>204.42</ele>
        <time>2010-10-10T07:17:15Z</time>
      </trkpt>
      <trkpt lat="43.223" lon="6.31644">
        <ele>204.9</ele>
        <time>2010-10-10T07:17:16Z</time>
      </trkpt>
      <trkpt lat="43.223" lon="6.31638">
        <ele>204.9</ele>
        <time>2010-10-10T07:17:17Z</time>
      </trkpt>
      <trkpt lat="43.223" lon="6.31605">
        <ele>205.38</ele>
        <time>2010-10-10T07:17:23Z</time>
      </trkpt>
      <trkpt lat="43.22303" lon="6.31594">
        <ele>205.38</ele>
        <time>2010-10-10T07:17:25Z</time>
      </trkpt>
      <trkpt lat="43.22306" lon="6.31588">
        <ele>204.9</ele>
        <time>2010-10-10T07:17:26Z</time>
      </trkpt>
      <trkpt lat="43.22322" lon="6.31556">
        <ele>204.9</ele>
        <time>2010-10-10T07:17:32Z</time>
      </trkpt>
      <trkpt lat="43.22338" lon="6.31514">
        <ele>204.9</ele>
        <time>2010-10-10T07:17:39Z</time>
      </trkpt>
      <trkpt lat="43.22344" lon="6.31483">
        <ele>205.86</ele>
        <time>2010-10-10T07:17:45Z</time>
      </trkpt>
      <trkpt lat="43.22343" lon="6.31479">
        <ele>206.34</ele>
        <time>2010-10-10T07:17:46Z</time>
      </trkpt>
      <trkpt lat="43.22342" lon="6.31476">
        <ele>206.34</ele>
        <time>2010-10-10T07:17:47Z</time>
      </trkpt>
      <trkpt lat="43.22341" lon="6.31474">
        <ele>206.82</ele>
        <time>2010-10-10T07:17:48Z</time>
      </trkpt>
      <trkpt lat="43.22339" lon="6.31471">
        <ele>207.78</ele>
        <time>2010-10-10T07:17:49Z</time>
      </trkpt>
      <trkpt lat="43.22337" lon="6.31469">
        <ele>207.78</ele>
        <time>2010-10-10T07:17:50Z</time>
      </trkpt>
      <trkpt lat="43.22336" lon="6.31468">
        <ele>207.78</ele>
        <time>2010-10-10T07:17:51Z</time>
      </trkpt>
      <trkpt lat="43.22333" lon="6.31467">
        <ele>208.26</ele>
        <time>2010-10-10T07:17:52Z</time>
      </trkpt>
      <trkpt lat="43.22331" lon="6.31466">
        <ele>208.26</ele>
        <time>2010-10-10T07:17:53Z</time>
      </trkpt>
      <trkpt lat="43.22327" lon="6.31465">
        <ele>208.74</ele>
        <time>2010-10-10T07:17:55Z</time>
      </trkpt>
      <trkpt lat="43.22326" lon="6.31465">
        <ele>209.22</ele>
        <time>2010-10-10T07:17:56Z</time>
      </trkpt>
      <trkpt lat="43.22324" lon="6.31466">
        <ele>209.22</ele>
        <time>2010-10-10T07:17:57Z</time>
      </trkpt>
      <trkpt lat="43.22323" lon="6.31468">
        <ele>209.7</ele>
        <time>2010-10-10T07:17:58Z</time>
      </trkpt>
      <trkpt lat="43.22322" lon="6.31471">
        <ele>209.7</ele>
        <time>2010-10-10T07:17:59Z</time>
      </trkpt>
      <trkpt lat="43.22322" lon="6.31473">
        <ele>210.19</ele>
        <time>2010-10-10T07:18:00Z</time>
      </trkpt>
      <trkpt lat="43.22322" lon="6.31482">
        <ele>211.63</ele>
        <time>2010-10-10T07:18:04Z</time>
      </trkpt>
      <trkpt lat="43.22322" lon="6.31504">
        <ele>213.55</ele>
        <time>2010-10-10T07:18:12Z</time>
      </trkpt>
      <trkpt lat="43.22314" lon="6.31523">
        <ele>214.99</ele>
        <time>2010-10-10T07:18:20Z</time>
      </trkpt>
      <trkpt lat="43.22302" lon="6.31539">
        <ele>216.91</ele>
        <time>2010-10-10T07:18:27Z</time>
      </trkpt>
      <trkpt lat="43.22295" lon="6.31547">
        <ele>218.36</ele>
        <time>2010-10-10T07:18:31Z</time>
      </trkpt>
      <trkpt lat="43.22276" lon="6.3156">
        <ele>219.32</ele>
        <time>2010-10-10T07:18:39Z</time>
      </trkpt>
      <trkpt lat="43.22263" lon="6.31572">
        <ele>220.28</ele>
        <time>2010-10-10T07:18:46Z</time>
      </trkpt>
      <trkpt lat="43.2225" lon="6.31583">
        <ele>222.2</ele>
        <time>2010-10-10T07:18:53Z</time>
      </trkpt>
      <trkpt lat="43.22235" lon="6.31596">
        <ele>224.61</ele>
        <time>2010-10-10T07:19:01Z</time>
      </trkpt>
      <trkpt lat="43.22223" lon="6.31608">
        <ele>225.09</ele>
        <time>2010-10-10T07:19:07Z</time>
      </trkpt>
      <trkpt lat="43.22208" lon="6.31623">
        <ele>227.49</ele>
        <time>2010-10-10T07:19:15Z</time>
      </trkpt>
      <trkpt lat="43.22191" lon="6.31638">
        <ele>228.45</ele>
        <time>2010-10-10T07:19:23Z</time>
      </trkpt>
      <trkpt lat="43.22172" lon="6.31648">
        <ele>229.41</ele>
        <time>2010-10-10T07:19:31Z</time>
      </trkpt>
      <trkpt lat="43.22152" lon="6.31648">
        <ele>231.81</ele>
        <time>2010-10-10T07:19:39Z</time>
      </trkpt>
      <trkpt lat="43.22138" lon="6.31644">
        <ele>232.78</ele>
        <time>2010-10-10T07:19:45Z</time>
      </trkpt>
      <trkpt lat="43.22135" lon="6.31645">
        <ele>232.78</ele>
        <time>2010-10-10T07:19:46Z</time>
      </trkpt>
      <trkpt lat="43.22133" lon="6.31645">
        <ele>233.26</ele>
        <time>2010-10-10T07:19:47Z</time>
      </trkpt>
      <trkpt lat="43.2213" lon="6.31644">
        <ele>233.26</ele>
        <time>2010-10-10T07:19:49Z</time>
      </trkpt>
      <trkpt lat="43.22128" lon="6.31646">
        <ele>233.74</ele>
        <time>2010-10-10T07:19:50Z</time>
      </trkpt>
      <trkpt lat="43.22127" lon="6.31648">
        <ele>233.74</ele>
        <time>2010-10-10T07:19:51Z</time>
      </trkpt>
      <trkpt lat="43.22122" lon="6.31672">
        <ele>236.62</ele>
        <time>2010-10-10T07:19:58Z</time>
      </trkpt>
      <trkpt lat="43.22121" lon="6.31693">
        <ele>237.58</ele>
        <time>2010-10-10T07:20:04Z</time>
      </trkpt>
      <trkpt lat="43.22118" lon="6.31723">
        <ele>239.02</ele>
        <time>2010-10-10T07:20:13Z</time>
      </trkpt>
      <trkpt lat="43.22112" lon="6.31748">
        <ele>241.43</ele>
        <time>2010-10-10T07:20:21Z</time>
      </trkpt>
      <trkpt lat="43.22095" lon="6.31767">
        <ele>243.83</ele>
        <time>2010-10-10T07:20:30Z</time>
      </trkpt>
      <trkpt lat="43.22081" lon="6.3178">
        <ele>247.2</ele>
        <time>2010-10-10T07:20:37Z</time>
      </trkpt>
      <trkpt lat="43.22079" lon="6.31781">
        <ele>247.2</ele>
        <time>2010-10-10T07:20:38Z</time>
      </trkpt>
      <trkpt lat="43.22064" lon="6.31789">
        <ele>247.2</ele>
        <time>2010-10-10T07:20:45Z</time>
      </trkpt>
      <trkpt lat="43.22047" lon="6.31798">
        <ele>249.12</ele>
        <time>2010-10-10T07:20:53Z</time>
      </trkpt>
      <trkpt lat="43.22035" lon="6.31803">
        <ele>251.52</ele>
        <time>2010-10-10T07:20:58Z</time>
      </trkpt>
      <trkpt lat="43.2202" lon="6.31808">
        <ele>252</ele>
        <time>2010-10-10T07:21:04Z</time>
      </trkpt>
      <trkpt lat="43.22012" lon="6.31824">
        <ele>252.96</ele>
        <time>2010-10-10T07:21:10Z</time>
      </trkpt>
      <trkpt lat="43.22006" lon="6.31853">
        <ele>253.93</ele>
        <time>2010-10-10T07:21:18Z</time>
      </trkpt>
      <trkpt lat="43.21992" lon="6.31871">
        <ele>255.85</ele>
        <time>2010-10-10T07:21:26Z</time>
      </trkpt>
      <trkpt lat="43.21977" lon="6.31883">
        <ele>257.29</ele>
        <time>2010-10-10T07:21:33Z</time>
      </trkpt>
      <trkpt lat="43.21965" lon="6.31892">
        <ele>259.21</ele>
        <time>2010-10-10T07:21:39Z</time>
      </trkpt>
      <trkpt lat="43.21958" lon="6.31899">
        <ele>260.17</ele>
        <time>2010-10-10T07:21:43Z</time>
      </trkpt>
      <trkpt lat="43.21942" lon="6.31916">
        <ele>262.1</ele>
        <time>2010-10-10T07:21:51Z</time>
      </trkpt>
      <trkpt lat="43.21934" lon="6.3194">
        <ele>263.54</ele>
        <time>2010-10-10T07:21:59Z</time>
      </trkpt>
      <trkpt lat="43.21924" lon="6.31965">
        <ele>264.98</ele>
        <time>2010-10-10T07:22:08Z</time>
      </trkpt>
      <trkpt lat="43.21913" lon="6.31983">
        <ele>265.94</ele>
        <time>2010-10-10T07:22:15Z</time>
      </trkpt>
      <trkpt lat="43.21896" lon="6.31989">
        <ele>267.86</ele>
        <time>2010-10-10T07:22:22Z</time>
      </trkpt>
      <trkpt lat="43.21884" lon="6.31975">
        <ele>268.35</ele>
        <time>2010-10-10T07:22:28Z</time>
      </trkpt>
      <trkpt lat="43.21873" lon="6.31953">
        <ele>270.27</ele>
        <time>2010-10-10T07:22:36Z</time>
      </trkpt>
      <trkpt lat="43.21864" lon="6.31937">
        <ele>271.23</ele>
        <time>2010-10-10T07:22:44Z</time>
      </trkpt>
      <trkpt lat="43.21854" lon="6.31919">
        <ele>273.15</ele>
        <time>2010-10-10T07:22:52Z</time>
      </trkpt>
      <trkpt lat="43.21841" lon="6.31901">
        <ele>275.07</ele>
        <time>2010-10-10T07:23:00Z</time>
      </trkpt>
      <trkpt lat="43.21827" lon="6.31891">
        <ele>276.52</ele>
        <time>2010-10-10T07:23:07Z</time>
      </trkpt>
      <trkpt lat="43.21813" lon="6.31884">
        <ele>277</ele>
        <time>2010-10-10T07:23:14Z</time>
      </trkpt>
      <trkpt lat="43.21796" lon="6.31875">
        <ele>278.92</ele>
        <time>2010-10-10T07:23:22Z</time>
      </trkpt>
      <trkpt lat="43.21778" lon="6.31873">
        <ele>279.88</ele>
        <time>2010-10-10T07:23:29Z</time>
      </trkpt>
      <trkpt lat="43.21761" lon="6.31873">
        <ele>281.8</ele>
        <time>2010-10-10T07:23:36Z</time>
      </trkpt>
      <trkpt lat="43.21744" lon="6.31869">
        <ele>282.77</ele>
        <time>2010-10-10T07:23:44Z</time>
      </trkpt>
      <trkpt lat="43.21728" lon="6.31858">
        <ele>285.65</ele>
        <time>2010-10-10T07:23:52Z</time>
      </trkpt>
      <trkpt lat="43.21719" lon="6.31841">
        <ele>287.09</ele>
        <time>2010-10-10T07:23:59Z</time>
      </trkpt>
      <trkpt lat="43.21715" lon="6.31815">
        <ele>288.53</ele>
        <time>2010-10-10T07:24:07Z</time>
      </trkpt>
      <trkpt lat="43.21707" lon="6.31796">
        <ele>289.49</ele>
        <time>2010-10-10T07:24:14Z</time>
      </trkpt>
      <trkpt lat="43.21699" lon="6.31777">
        <ele>290.94</ele>
        <time>2010-10-10T07:24:21Z</time>
      </trkpt>
      <trkpt lat="43.21691" lon="6.31753">
        <ele>292.38</ele>
        <time>2010-10-10T07:24:28Z</time>
      </trkpt>
      <trkpt lat="43.21682" lon="6.3175">
        <ele>292.86</ele>
        <time>2010-10-10T07:24:32Z</time>
      </trkpt>
      <trkpt lat="43.21668" lon="6.31763">
        <ele>293.34</ele>
        <time>2010-10-10T07:24:39Z</time>
      </trkpt>
      <trkpt lat="43.21662" lon="6.31774">
        <ele>294.78</ele>
        <time>2010-10-10T07:24:43Z</time>
      </trkpt>
      <trkpt lat="43.21652" lon="6.31791">
        <ele>296.22</ele>
        <time>2010-10-10T07:24:49Z</time>
      </trkpt>
      <trkpt lat="43.21651" lon="6.31793">
        <ele>295.74</ele>
        <time>2010-10-10T07:24:50Z</time>
      </trkpt>
      <trkpt lat="43.21649" lon="6.31796">
        <ele>296.22</ele>
        <time>2010-10-10T07:24:51Z</time>
      </trkpt>
      <trkpt lat="43.21648" lon="6.31798">
        <ele>296.22</ele>
        <time>2010-10-10T07:24:52Z</time>
      </trkpt>
      <trkpt lat="43.21646" lon="6.31801">
        <ele>296.22</ele>
        <time>2010-10-10T07:24:53Z</time>
      </trkpt>
      <trkpt lat="43.21644" lon="6.31804">
        <ele>296.7</ele>
        <time>2010-10-10T07:24:54Z</time>
      </trkpt>
      <trkpt lat="43.21643" lon="6.31806">
        <ele>296.7</ele>
        <time>2010-10-10T07:24:55Z</time>
      </trkpt>
      <trkpt lat="43.2163" lon="6.31823">
        <ele>297.67</ele>
        <time>2010-10-10T07:25:02Z</time>
      </trkpt>
      <trkpt lat="43.21626" lon="6.31825">
        <ele>298.63</ele>
        <time>2010-10-10T07:25:04Z</time>
      </trkpt>
      <trkpt lat="43.21611" lon="6.31833">
        <ele>301.03</ele>
        <time>2010-10-10T07:25:10Z</time>
      </trkpt>
      <trkpt lat="43.21596" lon="6.31843">
        <ele>302.47</ele>
        <time>2010-10-10T07:25:17Z</time>
      </trkpt>
      <trkpt lat="43.21576" lon="6.31846">
        <ele>304.39</ele>
        <time>2010-10-10T07:25:25Z</time>
      </trkpt>
      <trkpt lat="43.21557" lon="6.31832">
        <ele>305.84</ele>
        <time>2010-10-10T07:25:33Z</time>
      </trkpt>
      <trkpt lat="43.21546" lon="6.31818">
        <ele>307.28</ele>
        <time>2010-10-10T07:25:39Z</time>
      </trkpt>
      <trkpt lat="43.21526" lon="6.318">
        <ele>309.2</ele>
        <time>2010-10-10T07:25:48Z</time>
      </trkpt>
      <trkpt lat="43.21501" lon="6.31785">
        <ele>312.09</ele>
        <time>2010-10-10T07:25:59Z</time>
      </trkpt>
      <trkpt lat="43.21476" lon="6.31774">
        <ele>314.97</ele>
        <time>2010-10-10T07:26:09Z</time>
      </trkpt>
      <trkpt lat="43.21459" lon="6.31767">
        <ele>317.85</ele>
        <time>2010-10-10T07:26:16Z</time>
      </trkpt>
      <trkpt lat="43.2144" lon="6.31759">
        <ele>318.81</ele>
        <time>2010-10-10T07:26:24Z</time>
      </trkpt>
      <trkpt lat="43.21421" lon="6.31754">
        <ele>320.26</ele>
        <time>2010-10-10T07:26:31Z</time>
      </trkpt>
      <trkpt lat="43.2141" lon="6.31763">
        <ele>320.26</ele>
        <time>2010-10-10T07:26:36Z</time>
      </trkpt>
      <trkpt lat="43.21402" lon="6.31782">
        <ele>321.22</ele>
        <time>2010-10-10T07:26:42Z</time>
      </trkpt>
      <trkpt lat="43.21388" lon="6.31797">
        <ele>321.7</ele>
        <time>2010-10-10T07:26:49Z</time>
      </trkpt>
      <trkpt lat="43.21381" lon="6.31797">
        <ele>322.66</ele>
        <time>2010-10-10T07:26:52Z</time>
      </trkpt>
      <trkpt lat="43.21379" lon="6.31795">
        <ele>323.14</ele>
        <time>2010-10-10T07:26:53Z</time>
      </trkpt>
      <trkpt lat="43.21378" lon="6.31793">
        <ele>323.62</ele>
        <time>2010-10-10T07:26:54Z</time>
      </trkpt>
      <trkpt lat="43.21377" lon="6.3179">
        <ele>324.1</ele>
        <time>2010-10-10T07:26:55Z</time>
      </trkpt>
      <trkpt lat="43.21377" lon="6.31787">
        <ele>324.1</ele>
        <time>2010-10-10T07:26:56Z</time>
      </trkpt>
      <trkpt lat="43.21378" lon="6.31784">
        <ele>324.1</ele>
        <time>2010-10-10T07:26:57Z</time>
      </trkpt>
      <trkpt lat="43.2138" lon="6.31782">
        <ele>324.1</ele>
        <time>2010-10-10T07:26:58Z</time>
      </trkpt>
      <trkpt lat="43.21381" lon="6.31779">
        <ele>324.1</ele>
        <time>2010-10-10T07:26:59Z</time>
      </trkpt>
      <trkpt lat="43.21393" lon="6.31764">
        <ele>325.54</ele>
        <time>2010-10-10T07:27:06Z</time>
      </trkpt>
      <trkpt lat="43.21405" lon="6.31743">
        <ele>326.02</ele>
        <time>2010-10-10T07:27:13Z</time>
      </trkpt>
      <trkpt lat="43.21421" lon="6.31733">
        <ele>327.47</ele>
        <time>2010-10-10T07:27:19Z</time>
      </trkpt>
      <trkpt lat="43.21441" lon="6.31737">
        <ele>328.43</ele>
        <time>2010-10-10T07:27:25Z</time>
      </trkpt>
      <trkpt lat="43.21463" lon="6.31741">
        <ele>330.35</ele>
        <time>2010-10-10T07:27:32Z</time>
      </trkpt>
      <trkpt lat="43.21485" lon="6.31741">
        <ele>333.23</ele>
        <time>2010-10-10T07:27:39Z</time>
      </trkpt>
      <trkpt lat="43.21509" lon="6.31741">
        <ele>334.2</ele>
        <time>2010-10-10T07:27:46Z</time>
      </trkpt>
      <trkpt lat="43.2153" lon="6.31741">
        <ele>335.16</ele>
        <time>2010-10-10T07:27:52Z</time>
      </trkpt>
      <trkpt lat="43.2156" lon="6.31749">
        <ele>336.6</ele>
        <time>2010-10-10T07:28:00Z</time>
      </trkpt>
      <trkpt lat="43.21569" lon="6.31748">
        <ele>336.6</ele>
        <time>2010-10-10T07:28:02Z</time>
      </trkpt>
      <trkpt lat="43.21573" lon="6.31747">
        <ele>337.08</ele>
        <time>2010-10-10T07:28:03Z</time>
      </trkpt>
      <trkpt lat="43.21592" lon="6.31729">
        <ele>337.56</ele>
        <time>2010-10-10T07:28:09Z</time>
      </trkpt>
      <trkpt lat="43.21606" lon="6.31698">
        <ele>340.44</ele>
        <time>2010-10-10T07:28:17Z</time>
      </trkpt>
      <trkpt lat="43.21617" lon="6.31669">
        <ele>341.89</ele>
        <time>2010-10-10T07:28:25Z</time>
      </trkpt>
      <trkpt lat="43.21628" lon="6.31634">
        <ele>343.81</ele>
        <time>2010-10-10T07:28:34Z</time>
      </trkpt>
      <trkpt lat="43.21637" lon="6.31606">
        <ele>345.73</ele>
        <time>2010-10-10T07:28:41Z</time>
      </trkpt>
      <trkpt lat="43.2164" lon="6.31575">
        <ele>346.69</ele>
        <time>2010-10-10T07:28:48Z</time>
      </trkpt>
      <trkpt lat="43.21642" lon="6.31542">
        <ele>348.13</ele>
        <time>2010-10-10T07:28:56Z</time>
      </trkpt>
      <trkpt lat="43.21643" lon="6.31538">
        <ele>348.62</ele>
        <time>2010-10-10T07:28:57Z</time>
      </trkpt>
      <trkpt lat="43.2165" lon="6.3152">
        <ele>349.58</ele>
        <time>2010-10-10T07:29:02Z</time>
      </trkpt>
      <trkpt lat="43.21652" lon="6.31518">
        <ele>350.06</ele>
        <time>2010-10-10T07:29:03Z</time>
      </trkpt>
      <trkpt lat="43.21666" lon="6.31509">
        <ele>351.02</ele>
        <time>2010-10-10T07:29:08Z</time>
      </trkpt>
      <trkpt lat="43.21685" lon="6.31495">
        <ele>351.98</ele>
        <time>2010-10-10T07:29:15Z</time>
      </trkpt>
      <trkpt lat="43.21702" lon="6.31482">
        <ele>353.9</ele>
        <time>2010-10-10T07:29:22Z</time>
      </trkpt>
      <trkpt lat="43.21719" lon="6.31487">
        <ele>354.86</ele>
        <time>2010-10-10T07:29:28Z</time>
      </trkpt>
      <trkpt lat="43.21728" lon="6.31499">
        <ele>355.34</ele>
        <time>2010-10-10T07:29:32Z</time>
      </trkpt>
      <trkpt lat="43.21729" lon="6.31502">
        <ele>355.34</ele>
        <time>2010-10-10T07:29:33Z</time>
      </trkpt>
      <trkpt lat="43.21731" lon="6.31506">
        <ele>355.83</ele>
        <time>2010-10-10T07:29:34Z</time>
      </trkpt>
      <trkpt lat="43.21733" lon="6.31511">
        <ele>355.83</ele>
        <time>2010-10-10T07:29:35Z</time>
      </trkpt>
      <trkpt lat="43.21735" lon="6.31514">
        <ele>355.83</ele>
        <time>2010-10-10T07:29:36Z</time>
      </trkpt>
      <trkpt lat="43.21746" lon="6.31541">
        <ele>356.79</ele>
        <time>2010-10-10T07:29:43Z</time>
      </trkpt>
      <trkpt lat="43.21759" lon="6.31563">
        <ele>357.27</ele>
        <time>2010-10-10T07:29:50Z</time>
      </trkpt>
      <trkpt lat="43.21765" lon="6.31572">
        <ele>361.59</ele>
        <time>2010-10-10T07:29:53Z</time>
      </trkpt>
      <trkpt lat="43.21767" lon="6.31575">
        <ele>361.59</ele>
        <time>2010-10-10T07:29:54Z</time>
      </trkpt>
      <trkpt lat="43.2178" lon="6.31599">
        <ele>362.07</ele>
        <time>2010-10-10T07:30:01Z</time>
      </trkpt>
      <trkpt lat="43.21784" lon="6.31605">
        <ele>364</ele>
        <time>2010-10-10T07:30:03Z</time>
      </trkpt>
      <trkpt lat="43.21796" lon="6.31622">
        <ele>363.52</ele>
        <time>2010-10-10T07:30:09Z</time>
      </trkpt>
      <trkpt lat="43.21803" lon="6.3161">
        <ele>364.96</ele>
        <time>2010-10-10T07:30:14Z</time>
      </trkpt>
      <trkpt lat="43.218" lon="6.31605">
        <ele>366.4</ele>
        <time>2010-10-10T07:30:16Z</time>
      </trkpt>
      <trkpt lat="43.21794" lon="6.31598">
        <ele>368.32</ele>
        <time>2010-10-10T07:30:19Z</time>
      </trkpt>
      <trkpt lat="43.21789" lon="6.31577">
        <ele>368.8</ele>
        <time>2010-10-10T07:30:25Z</time>
      </trkpt>
      <trkpt lat="43.2178" lon="6.31549">
        <ele>370.73</ele>
        <time>2010-10-10T07:30:33Z</time>
      </trkpt>
      <trkpt lat="43.21776" lon="6.31539">
        <ele>372.17</ele>
        <time>2010-10-10T07:30:36Z</time>
      </trkpt>
      <trkpt lat="43.21771" lon="6.31516">
        <ele>373.13</ele>
        <time>2010-10-10T07:30:42Z</time>
      </trkpt>
      <trkpt lat="43.21766" lon="6.31478">
        <ele>375.05</ele>
        <time>2010-10-10T07:30:52Z</time>
      </trkpt>
      <trkpt lat="43.21763" lon="6.3146">
        <ele>375.53</ele>
        <time>2010-10-10T07:30:58Z</time>
      </trkpt>
      <trkpt lat="43.21759" lon="6.31451">
        <ele>374.57</ele>
        <time>2010-10-10T07:31:03Z</time>
      </trkpt>
      <trkpt lat="43.21758" lon="6.31446">
        <ele>374.57</ele>
        <time>2010-10-10T07:31:06Z</time>
      </trkpt>
      <trkpt lat="43.21757" lon="6.31442">
        <ele>374.57</ele>
        <time>2010-10-10T07:31:09Z</time>
      </trkpt>
      <trkpt lat="43.21756" lon="6.31429">
        <ele>374.57</ele>
        <time>2010-10-10T07:31:16Z</time>
      </trkpt>
      <trkpt lat="43.2175" lon="6.31414">
        <ele>375.05</ele>
        <time>2010-10-10T07:31:24Z</time>
      </trkpt>
      <trkpt lat="43.21749" lon="6.31412">
        <ele>375.05</ele>
        <time>2010-10-10T07:31:25Z</time>
      </trkpt>
      <trkpt lat="43.21744" lon="6.31404">
        <ele>376.01</ele>
        <time>2010-10-10T07:31:30Z</time>
      </trkpt>
      <trkpt lat="43.21737" lon="6.31388">
        <ele>377.94</ele>
        <time>2010-10-10T07:31:38Z</time>
      </trkpt>
      <trkpt lat="43.21725" lon="6.31374">
        <ele>379.38</ele>
        <time>2010-10-10T07:31:45Z</time>
      </trkpt>
      <trkpt lat="43.21711" lon="6.31378">
        <ele>381.3</ele>
        <time>2010-10-10T07:31:50Z</time>
      </trkpt>
      <trkpt lat="43.21693" lon="6.31387">
        <ele>383.7</ele>
        <time>2010-10-10T07:31:57Z</time>
      </trkpt>
      <trkpt lat="43.21684" lon="6.3139">
        <ele>385.63</ele>
        <time>2010-10-10T07:32:01Z</time>
      </trkpt>
      <trkpt lat="43.21661" lon="6.31402">
        <ele>387.55</ele>
        <time>2010-10-10T07:32:10Z</time>
      </trkpt>
      <trkpt lat="43.21644" lon="6.31409">
        <ele>387.55</ele>
        <time>2010-10-10T07:32:17Z</time>
      </trkpt>
      <trkpt lat="43.2163" lon="6.31416">
        <ele>388.51</ele>
        <time>2010-10-10T07:32:23Z</time>
      </trkpt>
      <trkpt lat="43.21613" lon="6.31423">
        <ele>389.47</ele>
        <time>2010-10-10T07:32:30Z</time>
      </trkpt>
      <trkpt lat="43.21597" lon="6.31425">
        <ele>390.43</ele>
        <time>2010-10-10T07:32:36Z</time>
      </trkpt>
      <trkpt lat="43.21579" lon="6.31426">
        <ele>392.36</ele>
        <time>2010-10-10T07:32:43Z</time>
      </trkpt>
      <trkpt lat="43.21568" lon="6.31413">
        <ele>394.28</ele>
        <time>2010-10-10T07:32:49Z</time>
      </trkpt>
      <trkpt lat="43.21563" lon="6.31388">
        <ele>395.24</ele>
        <time>2010-10-10T07:32:57Z</time>
      </trkpt>
      <trkpt lat="43.21559" lon="6.31363">
        <ele>397.16</ele>
        <time>2010-10-10T07:33:05Z</time>
      </trkpt>
      <trkpt lat="43.21554" lon="6.31336">
        <ele>398.6</ele>
        <time>2010-10-10T07:33:13Z</time>
      </trkpt>
      <trkpt lat="43.21547" lon="6.31315">
        <ele>400.53</ele>
        <time>2010-10-10T07:33:20Z</time>
      </trkpt>
      <trkpt lat="43.21538" lon="6.31298">
        <ele>401.49</ele>
        <time>2010-10-10T07:33:26Z</time>
      </trkpt>
      <trkpt lat="43.21515" lon="6.31277">
        <ele>403.89</ele>
        <time>2010-10-10T07:33:36Z</time>
      </trkpt>
      <trkpt lat="43.215" lon="6.31264">
        <ele>405.81</ele>
        <time>2010-10-10T07:33:43Z</time>
      </trkpt>
      <trkpt lat="43.21498" lon="6.31261">
        <ele>405.81</ele>
        <time>2010-10-10T07:33:44Z</time>
      </trkpt>
      <trkpt lat="43.21482" lon="6.31237">
        <ele>407.74</ele>
        <time>2010-10-10T07:33:53Z</time>
      </trkpt>
      <trkpt lat="43.21468" lon="6.31215">
        <ele>409.18</ele>
        <time>2010-10-10T07:34:01Z</time>
      </trkpt>
      <trkpt lat="43.21458" lon="6.31193">
        <ele>411.58</ele>
        <time>2010-10-10T07:34:08Z</time>
      </trkpt>
      <trkpt lat="43.21452" lon="6.31179">
        <ele>413.5</ele>
        <time>2010-10-10T07:34:13Z</time>
      </trkpt>
      <trkpt lat="43.21442" lon="6.3115">
        <ele>414.95</ele>
        <time>2010-10-10T07:34:22Z</time>
      </trkpt>
      <trkpt lat="43.21431" lon="6.31132">
        <ele>415.91</ele>
        <time>2010-10-10T07:34:29Z</time>
      </trkpt>
      <trkpt lat="43.21414" lon="6.31112">
        <ele>417.35</ele>
        <time>2010-10-10T07:34:38Z</time>
      </trkpt>
      <trkpt lat="43.21398" lon="6.31107">
        <ele>419.75</ele>
        <time>2010-10-10T07:34:45Z</time>
      </trkpt>
      <trkpt lat="43.2138" lon="6.31112">
        <ele>421.68</ele>
        <time>2010-10-10T07:34:52Z</time>
      </trkpt>
      <trkpt lat="43.21371" lon="6.31117">
        <ele>415.91</ele>
        <time>2010-10-10T07:34:56Z</time>
      </trkpt>
      <trkpt lat="43.21369" lon="6.31119">
        <ele>420.71</ele>
        <time>2010-10-10T07:34:57Z</time>
      </trkpt>
      <trkpt lat="43.21355" lon="6.31136">
        <ele>422.16</ele>
        <time>2010-10-10T07:35:04Z</time>
      </trkpt>
      <trkpt lat="43.21353" lon="6.31139">
        <ele>422.64</ele>
        <time>2010-10-10T07:35:05Z</time>
      </trkpt>
      <trkpt lat="43.21342" lon="6.31164">
        <ele>422.16</ele>
        <time>2010-10-10T07:35:13Z</time>
      </trkpt>
      <trkpt lat="43.21328" lon="6.31184">
        <ele>426</ele>
        <time>2010-10-10T07:35:21Z</time>
      </trkpt>
      <trkpt lat="43.21307" lon="6.31198">
        <ele>424.56</ele>
        <time>2010-10-10T07:35:30Z</time>
      </trkpt>
      <trkpt lat="43.21292" lon="6.31197">
        <ele>426</ele>
        <time>2010-10-10T07:35:36Z</time>
      </trkpt>
      <trkpt lat="43.21286" lon="6.31197">
        <ele>426.96</ele>
        <time>2010-10-10T07:35:38Z</time>
      </trkpt>
      <trkpt lat="43.21268" lon="6.31198">
        <ele>429.37</ele>
        <time>2010-10-10T07:35:45Z</time>
      </trkpt>
      <trkpt lat="43.21248" lon="6.312">
        <ele>430.33</ele>
        <time>2010-10-10T07:35:53Z</time>
      </trkpt>
      <trkpt lat="43.21242" lon="6.31204">
        <ele>431.77</ele>
        <time>2010-10-10T07:35:56Z</time>
      </trkpt>
      <trkpt lat="43.21227" lon="6.3121">
        <ele>432.25</ele>
        <time>2010-10-10T07:36:02Z</time>
      </trkpt>
      <trkpt lat="43.21211" lon="6.31217">
        <ele>431.77</ele>
        <time>2010-10-10T07:36:08Z</time>
      </trkpt>
      <trkpt lat="43.21198" lon="6.31226">
        <ele>432.25</ele>
        <time>2010-10-10T07:36:15Z</time>
      </trkpt>
      <trkpt lat="43.21182" lon="6.31238">
        <ele>433.69</ele>
        <time>2010-10-10T07:36:22Z</time>
      </trkpt>
      <trkpt lat="43.21175" lon="6.31244">
        <ele>435.13</ele>
        <time>2010-10-10T07:36:25Z</time>
      </trkpt>
      <trkpt lat="43.21158" lon="6.3126">
        <ele>437.06</ele>
        <time>2010-10-10T07:36:32Z</time>
      </trkpt>
      <trkpt lat="43.21139" lon="6.31287">
        <ele>438.02</ele>
        <time>2010-10-10T07:36:41Z</time>
      </trkpt>
      <trkpt lat="43.21123" lon="6.31309">
        <ele>438.02</ele>
        <time>2010-10-10T07:36:49Z</time>
      </trkpt>
      <trkpt lat="43.21113" lon="6.31312">
        <ele>438.5</ele>
        <time>2010-10-10T07:36:52Z</time>
      </trkpt>
      <trkpt lat="43.21094" lon="6.31288">
        <ele>441.86</ele>
        <time>2010-10-10T07:37:00Z</time>
      </trkpt>
      <trkpt lat="43.2109" lon="6.31282">
        <ele>442.82</ele>
        <time>2010-10-10T07:37:02Z</time>
      </trkpt>
      <trkpt lat="43.21076" lon="6.31268">
        <ele>443.79</ele>
        <time>2010-10-10T07:37:08Z</time>
      </trkpt>
      <trkpt lat="43.2105" lon="6.31244">
        <ele>447.15</ele>
        <time>2010-10-10T07:37:19Z</time>
      </trkpt>
      <trkpt lat="43.21032" lon="6.31231">
        <ele>449.55</ele>
        <time>2010-10-10T07:37:26Z</time>
      </trkpt>
      <trkpt lat="43.21023" lon="6.31223">
        <ele>451</ele>
        <time>2010-10-10T07:37:30Z</time>
      </trkpt>
      <trkpt lat="43.21005" lon="6.31213">
        <ele>451.48</ele>
        <time>2010-10-10T07:37:37Z</time>
      </trkpt>
      <trkpt lat="43.2099" lon="6.31202">
        <ele>454.36</ele>
        <time>2010-10-10T07:37:43Z</time>
      </trkpt>
      <trkpt lat="43.20972" lon="6.3119">
        <ele>456.28</ele>
        <time>2010-10-10T07:37:51Z</time>
      </trkpt>
      <trkpt lat="43.20955" lon="6.31179">
        <ele>458.21</ele>
        <time>2010-10-10T07:37:58Z</time>
      </trkpt>
      <trkpt lat="43.20941" lon="6.31159">
        <ele>459.65</ele>
        <time>2010-10-10T07:38:05Z</time>
      </trkpt>
      <trkpt lat="43.20931" lon="6.31137">
        <ele>462.53</ele>
        <time>2010-10-10T07:38:12Z</time>
      </trkpt>
      <trkpt lat="43.20918" lon="6.31116">
        <ele>464.45</ele>
        <time>2010-10-10T07:38:20Z</time>
      </trkpt>
      <trkpt lat="43.20914" lon="6.31111">
        <ele>466.38</ele>
        <time>2010-10-10T07:38:22Z</time>
      </trkpt>
      <trkpt lat="43.20898" lon="6.31092">
        <ele>467.82</ele>
        <time>2010-10-10T07:38:30Z</time>
      </trkpt>
      <trkpt lat="43.20881" lon="6.31091">
        <ele>471.66</ele>
        <time>2010-10-10T07:38:37Z</time>
      </trkpt>
      <trkpt lat="43.2086" lon="6.31113">
        <ele>469.74</ele>
        <time>2010-10-10T07:38:46Z</time>
      </trkpt>
      <trkpt lat="43.20842" lon="6.31132">
        <ele>470.7</ele>
        <time>2010-10-10T07:38:54Z</time>
      </trkpt>
      <trkpt lat="43.20818" lon="6.31146">
        <ele>471.66</ele>
        <time>2010-10-10T07:39:02Z</time>
      </trkpt>
      <trkpt lat="43.20814" lon="6.31147">
        <ele>471.18</ele>
        <time>2010-10-10T07:39:03Z</time>
      </trkpt>
      <trkpt lat="43.20786" lon="6.31156">
        <ele>471.18</ele>
        <time>2010-10-10T07:39:11Z</time>
      </trkpt>
      <trkpt lat="43.20753" lon="6.31162">
        <ele>472.63</ele>
        <time>2010-10-10T07:39:19Z</time>
      </trkpt>
      <trkpt lat="43.20749" lon="6.31164">
        <ele>473.11</ele>
        <time>2010-10-10T07:39:20Z</time>
      </trkpt>
      <trkpt lat="43.20745" lon="6.31165">
        <ele>472.63</ele>
        <time>2010-10-10T07:39:21Z</time>
      </trkpt>
      <trkpt lat="43.2074" lon="6.31165">
        <ele>472.63</ele>
        <time>2010-10-10T07:39:22Z</time>
      </trkpt>
      <trkpt lat="43.20736" lon="6.31166">
        <ele>472.14</ele>
        <time>2010-10-10T07:39:23Z</time>
      </trkpt>
      <trkpt lat="43.20732" lon="6.31167">
        <ele>472.14</ele>
        <time>2010-10-10T07:39:24Z</time>
      </trkpt>
      <trkpt lat="43.20727" lon="6.31168">
        <ele>471.66</ele>
        <time>2010-10-10T07:39:25Z</time>
      </trkpt>
      <trkpt lat="43.20698" lon="6.31176">
        <ele>472.14</ele>
        <time>2010-10-10T07:39:32Z</time>
      </trkpt>
      <trkpt lat="43.20668" lon="6.31186">
        <ele>473.11</ele>
        <time>2010-10-10T07:39:40Z</time>
      </trkpt>
      <trkpt lat="43.20648" lon="6.31191">
        <ele>472.63</ele>
        <time>2010-10-10T07:39:45Z</time>
      </trkpt>
      <trkpt lat="43.20644" lon="6.31189">
        <ele>472.14</ele>
        <time>2010-10-10T07:39:46Z</time>
      </trkpt>
      <trkpt lat="43.2064" lon="6.31187">
        <ele>472.14</ele>
        <time>2010-10-10T07:39:47Z</time>
      </trkpt>
      <trkpt lat="43.20633" lon="6.31179">
        <ele>472.14</ele>
        <time>2010-10-10T07:39:49Z</time>
      </trkpt>
      <trkpt lat="43.20622" lon="6.31168">
        <ele>473.11</ele>
        <time>2010-10-10T07:39:52Z</time>
      </trkpt>
      <trkpt lat="43.20619" lon="6.31164">
        <ele>472.63</ele>
        <time>2010-10-10T07:39:53Z</time>
      </trkpt>
      <trkpt lat="43.20589" lon="6.31129">
        <ele>471.66</ele>
        <time>2010-10-10T07:40:01Z</time>
      </trkpt>
      <trkpt lat="43.20556" lon="6.3109">
        <ele>470.22</ele>
        <time>2010-10-10T07:40:10Z</time>
      </trkpt>
      <trkpt lat="43.20552" lon="6.31088">
        <ele>470.22</ele>
        <time>2010-10-10T07:40:11Z</time>
      </trkpt>
      <trkpt lat="43.20513" lon="6.31076">
        <ele>469.74</ele>
        <time>2010-10-10T07:40:19Z</time>
      </trkpt>
      <trkpt lat="43.20497" lon="6.31075">
        <ele>470.7</ele>
        <time>2010-10-10T07:40:22Z</time>
      </trkpt>
      <trkpt lat="43.20491" lon="6.31077">
        <ele>471.66</ele>
        <time>2010-10-10T07:40:23Z</time>
      </trkpt>
      <trkpt lat="43.20486" lon="6.31078">
        <ele>471.66</ele>
        <time>2010-10-10T07:40:24Z</time>
      </trkpt>
      <trkpt lat="43.20475" lon="6.31083">
        <ele>473.11</ele>
        <time>2010-10-10T07:40:26Z</time>
      </trkpt>
      <trkpt lat="43.20465" lon="6.31088">
        <ele>473.11</ele>
        <time>2010-10-10T07:40:28Z</time>
      </trkpt>
      <trkpt lat="43.2046" lon="6.31092">
        <ele>472.63</ele>
        <time>2010-10-10T07:40:29Z</time>
      </trkpt>
      <trkpt lat="43.2045" lon="6.311">
        <ele>473.11</ele>
        <time>2010-10-10T07:40:31Z</time>
      </trkpt>
      <trkpt lat="43.20446" lon="6.31105">
        <ele>473.59</ele>
        <time>2010-10-10T07:40:32Z</time>
      </trkpt>
      <trkpt lat="43.20441" lon="6.31111">
        <ele>473.59</ele>
        <time>2010-10-10T07:40:33Z</time>
      </trkpt>
      <trkpt lat="43.2043" lon="6.31128">
        <ele>472.63</ele>
        <time>2010-10-10T07:40:36Z</time>
      </trkpt>
      <trkpt lat="43.20409" lon="6.31175">
        <ele>474.55</ele>
        <time>2010-10-10T07:40:43Z</time>
      </trkpt>
      <trkpt lat="43.204" lon="6.31194">
        <ele>476.95</ele>
        <time>2010-10-10T07:40:46Z</time>
      </trkpt>
      <trkpt lat="43.20396" lon="6.31199">
        <ele>475.51</ele>
        <time>2010-10-10T07:40:47Z</time>
      </trkpt>
      <trkpt lat="43.20388" lon="6.31209">
        <ele>475.03</ele>
        <time>2010-10-10T07:40:49Z</time>
      </trkpt>
      <trkpt lat="43.20379" lon="6.3122">
        <ele>474.07</ele>
        <time>2010-10-10T07:40:51Z</time>
      </trkpt>
      <trkpt lat="43.20375" lon="6.31225">
        <ele>479.35</ele>
        <time>2010-10-10T07:40:52Z</time>
      </trkpt>
      <trkpt lat="43.20362" lon="6.31248">
        <ele>477.43</ele>
        <time>2010-10-10T07:40:56Z</time>
      </trkpt>
      <trkpt lat="43.20356" lon="6.3126">
        <ele>477.91</ele>
        <time>2010-10-10T07:40:58Z</time>
      </trkpt>
      <trkpt lat="43.20353" lon="6.31266">
        <ele>478.39</ele>
        <time>2010-10-10T07:40:59Z</time>
      </trkpt>
      <trkpt lat="43.20334" lon="6.31302">
        <ele>478.87</ele>
        <time>2010-10-10T07:41:06Z</time>
      </trkpt>
      <trkpt lat="43.20331" lon="6.31306">
        <ele>480.32</ele>
        <time>2010-10-10T07:41:07Z</time>
      </trkpt>
      <trkpt lat="43.20328" lon="6.3131">
        <ele>479.84</ele>
        <time>2010-10-10T07:41:08Z</time>
      </trkpt>
      <trkpt lat="43.20324" lon="6.31314">
        <ele>478.87</ele>
        <time>2010-10-10T07:41:09Z</time>
      </trkpt>
      <trkpt lat="43.2032" lon="6.31317">
        <ele>479.84</ele>
        <time>2010-10-10T07:41:10Z</time>
      </trkpt>
      <trkpt lat="43.20316" lon="6.3132">
        <ele>480.32</ele>
        <time>2010-10-10T07:41:11Z</time>
      </trkpt>
      <trkpt lat="43.20312" lon="6.31323">
        <ele>480.32</ele>
        <time>2010-10-10T07:41:12Z</time>
      </trkpt>
      <trkpt lat="43.20308" lon="6.31324">
        <ele>480.8</ele>
        <time>2010-10-10T07:41:13Z</time>
      </trkpt>
      <trkpt lat="43.20303" lon="6.31325">
        <ele>480.8</ele>
        <time>2010-10-10T07:41:14Z</time>
      </trkpt>
      <trkpt lat="43.20271" lon="6.31337">
        <ele>482.72</ele>
        <time>2010-10-10T07:41:22Z</time>
      </trkpt>
      <trkpt lat="43.2026" lon="6.31356">
        <ele>483.2</ele>
        <time>2010-10-10T07:41:28Z</time>
      </trkpt>
      <trkpt lat="43.20255" lon="6.31377">
        <ele>485.6</ele>
        <time>2010-10-10T07:41:34Z</time>
      </trkpt>
      <trkpt lat="43.20253" lon="6.31398">
        <ele>485.6</ele>
        <time>2010-10-10T07:41:40Z</time>
      </trkpt>
      <trkpt lat="43.20252" lon="6.31423">
        <ele>486.56</ele>
        <time>2010-10-10T07:41:48Z</time>
      </trkpt>
      <trkpt lat="43.20249" lon="6.31455">
        <ele>486.08</ele>
        <time>2010-10-10T07:41:58Z</time>
      </trkpt>
      <trkpt lat="43.20247" lon="6.31482">
        <ele>487.05</ele>
        <time>2010-10-10T07:42:06Z</time>
      </trkpt>
      <trkpt lat="43.20248" lon="6.31514">
        <ele>487.53</ele>
        <time>2010-10-10T07:42:15Z</time>
      </trkpt>
      <trkpt lat="43.20248" lon="6.31543">
        <ele>487.05</ele>
        <time>2010-10-10T07:42:23Z</time>
      </trkpt>
      <trkpt lat="43.2025" lon="6.31573">
        <ele>488.49</ele>
        <time>2010-10-10T07:42:31Z</time>
      </trkpt>
      <trkpt lat="43.20254" lon="6.31611">
        <ele>489.45</ele>
        <time>2010-10-10T07:42:41Z</time>
      </trkpt>
      <trkpt lat="43.20253" lon="6.3165">
        <ele>490.89</ele>
        <time>2010-10-10T07:42:51Z</time>
      </trkpt>
      <trkpt lat="43.20248" lon="6.31678">
        <ele>490.89</ele>
        <time>2010-10-10T07:42:59Z</time>
      </trkpt>
      <trkpt lat="43.20244" lon="6.31706">
        <ele>491.37</ele>
        <time>2010-10-10T07:43:07Z</time>
      </trkpt>
      <trkpt lat="43.20242" lon="6.31737">
        <ele>491.85</ele>
        <time>2010-10-10T07:43:16Z</time>
      </trkpt>
      <trkpt lat="43.20237" lon="6.31768">
        <ele>494.26</ele>
        <time>2010-10-10T07:43:25Z</time>
      </trkpt>
      <trkpt lat="43.20232" lon="6.31791">
        <ele>497.14</ele>
        <time>2010-10-10T07:43:32Z</time>
      </trkpt>
      <trkpt lat="43.20231" lon="6.31794">
        <ele>497.14</ele>
        <time>2010-10-10T07:43:33Z</time>
      </trkpt>
      <trkpt lat="43.20226" lon="6.31821">
        <ele>498.58</ele>
        <time>2010-10-10T07:43:41Z</time>
      </trkpt>
      <trkpt lat="43.20226" lon="6.3185">
        <ele>501.46</ele>
        <time>2010-10-10T07:43:49Z</time>
      </trkpt>
      <trkpt lat="43.20228" lon="6.31868">
        <ele>503.39</ele>
        <time>2010-10-10T07:43:54Z</time>
      </trkpt>
      <trkpt lat="43.2023" lon="6.31899">
        <ele>505.31</ele>
        <time>2010-10-10T07:44:03Z</time>
      </trkpt>
      <trkpt lat="43.20228" lon="6.31931">
        <ele>507.71</ele>
        <time>2010-10-10T07:44:12Z</time>
      </trkpt>
      <trkpt lat="43.20227" lon="6.31938">
        <ele>508.67</ele>
        <time>2010-10-10T07:44:14Z</time>
      </trkpt>
      <trkpt lat="43.20225" lon="6.31949">
        <ele>510.12</ele>
        <time>2010-10-10T07:44:17Z</time>
      </trkpt>
      <trkpt lat="43.20221" lon="6.31973">
        <ele>511.08</ele>
        <time>2010-10-10T07:44:24Z</time>
      </trkpt>
      <trkpt lat="43.20222" lon="6.31976">
        <ele>511.08</ele>
        <time>2010-10-10T07:44:25Z</time>
      </trkpt>
      <trkpt lat="43.20223" lon="6.31979">
        <ele>511.08</ele>
        <time>2010-10-10T07:44:26Z</time>
      </trkpt>
      <trkpt lat="43.20224" lon="6.31982">
        <ele>511.08</ele>
        <time>2010-10-10T07:44:27Z</time>
      </trkpt>
      <trkpt lat="43.20226" lon="6.31984">
        <ele>511.08</ele>
        <time>2010-10-10T07:44:28Z</time>
      </trkpt>
      <trkpt lat="43.20228" lon="6.31985">
        <ele>511.08</ele>
        <time>2010-10-10T07:44:29Z</time>
      </trkpt>
      <trkpt lat="43.20231" lon="6.31986">
        <ele>511.08</ele>
        <time>2010-10-10T07:44:30Z</time>
      </trkpt>
      <trkpt lat="43.20233" lon="6.31986">
        <ele>511.08</ele>
        <time>2010-10-10T07:44:31Z</time>
      </trkpt>
      <trkpt lat="43.20236" lon="6.31985">
        <ele>511.08</ele>
        <time>2010-10-10T07:44:32Z</time>
      </trkpt>
      <trkpt lat="43.20238" lon="6.31985">
        <ele>511.56</ele>
        <time>2010-10-10T07:44:33Z</time>
      </trkpt>
      <trkpt lat="43.20242" lon="6.31985">
        <ele>511.56</ele>
        <time>2010-10-10T07:44:34Z</time>
      </trkpt>
      <trkpt lat="43.2027" lon="6.3198">
        <ele>513.48</ele>
        <time>2010-10-10T07:44:43Z</time>
      </trkpt>
      <trkpt lat="43.20297" lon="6.31982">
        <ele>513.48</ele>
        <time>2010-10-10T07:44:52Z</time>
      </trkpt>
      <trkpt lat="43.20317" lon="6.31995">
        <ele>515.4</ele>
        <time>2010-10-10T07:44:59Z</time>
      </trkpt>
      <trkpt lat="43.20329" lon="6.3202">
        <ele>516.37</ele>
        <time>2010-10-10T07:45:06Z</time>
      </trkpt>
      <trkpt lat="43.20329" lon="6.32047">
        <ele>516.85</ele>
        <time>2010-10-10T07:45:13Z</time>
      </trkpt>
      <trkpt lat="43.20321" lon="6.32087">
        <ele>518.29</ele>
        <time>2010-10-10T07:45:24Z</time>
      </trkpt>
      <trkpt lat="43.20309" lon="6.32117">
        <ele>519.25</ele>
        <time>2010-10-10T07:45:33Z</time>
      </trkpt>
      <trkpt lat="43.20305" lon="6.32142">
        <ele>521.65</ele>
        <time>2010-10-10T07:45:39Z</time>
      </trkpt>
      <trkpt lat="43.20306" lon="6.32146">
        <ele>522.13</ele>
        <time>2010-10-10T07:45:40Z</time>
      </trkpt>
      <trkpt lat="43.2032" lon="6.32167">
        <ele>522.61</ele>
        <time>2010-10-10T07:45:47Z</time>
      </trkpt>
      <trkpt lat="43.20339" lon="6.32181">
        <ele>521.17</ele>
        <time>2010-10-10T07:45:54Z</time>
      </trkpt>
      <trkpt lat="43.20342" lon="6.32183">
        <ele>525.5</ele>
        <time>2010-10-10T07:45:55Z</time>
      </trkpt>
      <trkpt lat="43.20345" lon="6.32185">
        <ele>525.5</ele>
        <time>2010-10-10T07:45:56Z</time>
      </trkpt>
      <trkpt lat="43.20368" lon="6.32209">
        <ele>527.42</ele>
        <time>2010-10-10T07:46:05Z</time>
      </trkpt>
      <trkpt lat="43.20383" lon="6.32226">
        <ele>528.86</ele>
        <time>2010-10-10T07:46:12Z</time>
      </trkpt>
      <trkpt lat="43.20397" lon="6.32245">
        <ele>529.82</ele>
        <time>2010-10-10T07:46:19Z</time>
      </trkpt>
      <trkpt lat="43.204" lon="6.3225">
        <ele>531.27</ele>
        <time>2010-10-10T07:46:21Z</time>
      </trkpt>
      <trkpt lat="43.20409" lon="6.32276">
        <ele>533.19</ele>
        <time>2010-10-10T07:46:29Z</time>
      </trkpt>
      <trkpt lat="43.20412" lon="6.3229">
        <ele>534.15</ele>
        <time>2010-10-10T07:46:33Z</time>
      </trkpt>
      <trkpt lat="43.20413" lon="6.32297">
        <ele>532.71</ele>
        <time>2010-10-10T07:46:35Z</time>
      </trkpt>
      <trkpt lat="43.20417" lon="6.32325">
        <ele>534.63</ele>
        <time>2010-10-10T07:46:44Z</time>
      </trkpt>
      <trkpt lat="43.20418" lon="6.32343">
        <ele>536.07</ele>
        <time>2010-10-10T07:46:50Z</time>
      </trkpt>
      <trkpt lat="43.20418" lon="6.32353">
        <ele>533.67</ele>
        <time>2010-10-10T07:46:53Z</time>
      </trkpt>
      <trkpt lat="43.20409" lon="6.32371">
        <ele>534.15</ele>
        <time>2010-10-10T07:47:00Z</time>
      </trkpt>
      <trkpt lat="43.20397" lon="6.32373">
        <ele>537.51</ele>
        <time>2010-10-10T07:47:05Z</time>
      </trkpt>
      <trkpt lat="43.20395" lon="6.32373">
        <ele>537.51</ele>
        <time>2010-10-10T07:47:06Z</time>
      </trkpt>
      <trkpt lat="43.20382" lon="6.32363">
        <ele>539.44</ele>
        <time>2010-10-10T07:47:12Z</time>
      </trkpt>
      <trkpt lat="43.20369" lon="6.32344">
        <ele>541.84</ele>
        <time>2010-10-10T07:47:19Z</time>
      </trkpt>
      <trkpt lat="43.20352" lon="6.32329">
        <ele>542.32</ele>
        <time>2010-10-10T07:47:27Z</time>
      </trkpt>
      <trkpt lat="43.20331" lon="6.32318">
        <ele>543.28</ele>
        <time>2010-10-10T07:47:35Z</time>
      </trkpt>
      <trkpt lat="43.20314" lon="6.32314">
        <ele>544.24</ele>
        <time>2010-10-10T07:47:42Z</time>
      </trkpt>
      <trkpt lat="43.20292" lon="6.32313">
        <ele>545.69</ele>
        <time>2010-10-10T07:47:51Z</time>
      </trkpt>
      <trkpt lat="43.20273" lon="6.32313">
        <ele>547.13</ele>
        <time>2010-10-10T07:47:59Z</time>
      </trkpt>
      <trkpt lat="43.20254" lon="6.32316">
        <ele>547.61</ele>
        <time>2010-10-10T07:48:07Z</time>
      </trkpt>
      <trkpt lat="43.20249" lon="6.32328">
        <ele>549.05</ele>
        <time>2010-10-10T07:48:11Z</time>
      </trkpt>
      <trkpt lat="43.20249" lon="6.32332">
        <ele>549.53</ele>
        <time>2010-10-10T07:48:12Z</time>
      </trkpt>
      <trkpt lat="43.2025" lon="6.32335">
        <ele>549.05</ele>
        <time>2010-10-10T07:48:13Z</time>
      </trkpt>
      <trkpt lat="43.20251" lon="6.32338">
        <ele>549.53</ele>
        <time>2010-10-10T07:48:14Z</time>
      </trkpt>
      <trkpt lat="43.20252" lon="6.32341">
        <ele>550.49</ele>
        <time>2010-10-10T07:48:15Z</time>
      </trkpt>
      <trkpt lat="43.20254" lon="6.32343">
        <ele>550.97</ele>
        <time>2010-10-10T07:48:16Z</time>
      </trkpt>
      <trkpt lat="43.20258" lon="6.32348">
        <ele>551.93</ele>
        <time>2010-10-10T07:48:18Z</time>
      </trkpt>
      <trkpt lat="43.20268" lon="6.32368">
        <ele>552.41</ele>
        <time>2010-10-10T07:48:25Z</time>
      </trkpt>
      <trkpt lat="43.2028" lon="6.32391">
        <ele>553.86</ele>
        <time>2010-10-10T07:48:33Z</time>
      </trkpt>
      <trkpt lat="43.20291" lon="6.32413">
        <ele>555.3</ele>
        <time>2010-10-10T07:48:41Z</time>
      </trkpt>
      <trkpt lat="43.20293" lon="6.32425">
        <ele>557.22</ele>
        <time>2010-10-10T07:48:45Z</time>
      </trkpt>
      <trkpt lat="43.20292" lon="6.32427">
        <ele>556.26</ele>
        <time>2010-10-10T07:48:46Z</time>
      </trkpt>
      <trkpt lat="43.20291" lon="6.32427">
        <ele>556.74</ele>
        <time>2010-10-10T07:48:47Z</time>
      </trkpt>
      <trkpt lat="43.20289" lon="6.32425">
        <ele>557.22</ele>
        <time>2010-10-10T07:48:48Z</time>
      </trkpt>
      <trkpt lat="43.20288" lon="6.32423">
        <ele>558.18</ele>
        <time>2010-10-10T07:48:49Z</time>
      </trkpt>
      <trkpt lat="43.20287" lon="6.32421">
        <ele>558.66</ele>
        <time>2010-10-10T07:48:50Z</time>
      </trkpt>
      <trkpt lat="43.20286" lon="6.32418">
        <ele>557.7</ele>
        <time>2010-10-10T07:48:51Z</time>
      </trkpt>
      <trkpt lat="43.20284" lon="6.32417">
        <ele>557.7</ele>
        <time>2010-10-10T07:48:52Z</time>
      </trkpt>
      <trkpt lat="43.20282" lon="6.32415">
        <ele>557.7</ele>
        <time>2010-10-10T07:48:53Z</time>
      </trkpt>
      <trkpt lat="43.20281" lon="6.32413">
        <ele>558.18</ele>
        <time>2010-10-10T07:48:54Z</time>
      </trkpt>
      <trkpt lat="43.20268" lon="6.32402">
        <ele>559.14</ele>
        <time>2010-10-10T07:49:00Z</time>
      </trkpt>
      <trkpt lat="43.20251" lon="6.32389">
        <ele>559.62</ele>
        <time>2010-10-10T07:49:08Z</time>
      </trkpt>
      <trkpt lat="43.2023" lon="6.32381">
        <ele>561.07</ele>
        <time>2010-10-10T07:49:16Z</time>
      </trkpt>
      <trkpt lat="43.20215" lon="6.32373">
        <ele>561.55</ele>
        <time>2010-10-10T07:49:22Z</time>
      </trkpt>
      <trkpt lat="43.20196" lon="6.32369">
        <ele>562.03</ele>
        <time>2010-10-10T07:49:29Z</time>
      </trkpt>
      <trkpt lat="43.20181" lon="6.32364">
        <ele>563.47</ele>
        <time>2010-10-10T07:49:36Z</time>
      </trkpt>
      <trkpt lat="43.20171" lon="6.3235">
        <ele>564.43</ele>
        <time>2010-10-10T07:49:42Z</time>
      </trkpt>
      <trkpt lat="43.20169" lon="6.32333">
        <ele>565.39</ele>
        <time>2010-10-10T07:49:47Z</time>
      </trkpt>
      <trkpt lat="43.20166" lon="6.32311">
        <ele>566.35</ele>
        <time>2010-10-10T07:49:53Z</time>
      </trkpt>
      <trkpt lat="43.20169" lon="6.32282">
        <ele>566.35</ele>
        <time>2010-10-10T07:50:01Z</time>
      </trkpt>
      <trkpt lat="43.20173" lon="6.32249">
        <ele>567.8</ele>
        <time>2010-10-10T07:50:10Z</time>
      </trkpt>
      <trkpt lat="43.20174" lon="6.32242">
        <ele>569.24</ele>
        <time>2010-10-10T07:50:12Z</time>
      </trkpt>
      <trkpt lat="43.20177" lon="6.32218">
        <ele>568.76</ele>
        <time>2010-10-10T07:50:18Z</time>
      </trkpt>
      <trkpt lat="43.20177" lon="6.32205">
        <ele>570.2</ele>
        <time>2010-10-10T07:50:21Z</time>
      </trkpt>
      <trkpt lat="43.20167" lon="6.32199">
        <ele>571.16</ele>
        <time>2010-10-10T07:50:25Z</time>
      </trkpt>
      <trkpt lat="43.2016" lon="6.32213">
        <ele>571.64</ele>
        <time>2010-10-10T07:50:29Z</time>
      </trkpt>
      <trkpt lat="43.20159" lon="6.32217">
        <ele>571.64</ele>
        <time>2010-10-10T07:50:30Z</time>
      </trkpt>
      <trkpt lat="43.20155" lon="6.32234">
        <ele>572.6</ele>
        <time>2010-10-10T07:50:34Z</time>
      </trkpt>
      <trkpt lat="43.20148" lon="6.32259">
        <ele>573.56</ele>
        <time>2010-10-10T07:50:40Z</time>
      </trkpt>
      <trkpt lat="43.20139" lon="6.32287">
        <ele>572.6</ele>
        <time>2010-10-10T07:50:47Z</time>
      </trkpt>
      <trkpt lat="43.20133" lon="6.32324">
        <ele>572.6</ele>
        <time>2010-10-10T07:50:55Z</time>
      </trkpt>
      <trkpt lat="43.20136" lon="6.32358">
        <ele>574.53</ele>
        <time>2010-10-10T07:51:03Z</time>
      </trkpt>
      <trkpt lat="43.2014" lon="6.32387">
        <ele>576.45</ele>
        <time>2010-10-10T07:51:10Z</time>
      </trkpt>
      <trkpt lat="43.20153" lon="6.32412">
        <ele>576.45</ele>
        <time>2010-10-10T07:51:17Z</time>
      </trkpt>
      <trkpt lat="43.20161" lon="6.32418">
        <ele>577.89</ele>
        <time>2010-10-10T07:51:20Z</time>
      </trkpt>
      <trkpt lat="43.20183" lon="6.32434">
        <ele>578.37</ele>
        <time>2010-10-10T07:51:28Z</time>
      </trkpt>
      <trkpt lat="43.202" lon="6.3245">
        <ele>579.33</ele>
        <time>2010-10-10T07:51:35Z</time>
      </trkpt>
      <trkpt lat="43.20218" lon="6.32478">
        <ele>581.25</ele>
        <time>2010-10-10T07:51:45Z</time>
      </trkpt>
      <trkpt lat="43.20225" lon="6.32494">
        <ele>582.22</ele>
        <time>2010-10-10T07:51:50Z</time>
      </trkpt>
      <trkpt lat="43.20233" lon="6.32509">
        <ele>582.22</ele>
        <time>2010-10-10T07:51:56Z</time>
      </trkpt>
      <trkpt lat="43.20237" lon="6.3253">
        <ele>582.7</ele>
        <time>2010-10-10T07:52:02Z</time>
      </trkpt>
      <trkpt lat="43.20236" lon="6.32559">
        <ele>584.62</ele>
        <time>2010-10-10T07:52:10Z</time>
      </trkpt>
      <trkpt lat="43.20236" lon="6.32562">
        <ele>585.1</ele>
        <time>2010-10-10T07:52:11Z</time>
      </trkpt>
      <trkpt lat="43.20222" lon="6.32583">
        <ele>584.62</ele>
        <time>2010-10-10T07:52:19Z</time>
      </trkpt>
      <trkpt lat="43.20199" lon="6.32592">
        <ele>585.1</ele>
        <time>2010-10-10T07:52:27Z</time>
      </trkpt>
      <trkpt lat="43.20178" lon="6.32593">
        <ele>585.1</ele>
        <time>2010-10-10T07:52:33Z</time>
      </trkpt>
      <trkpt lat="43.20173" lon="6.32592">
        <ele>586.06</ele>
        <time>2010-10-10T07:52:34Z</time>
      </trkpt>
      <trkpt lat="43.20169" lon="6.32592">
        <ele>585.1</ele>
        <time>2010-10-10T07:52:35Z</time>
      </trkpt>
      <trkpt lat="43.20146" lon="6.32591">
        <ele>584.14</ele>
        <time>2010-10-10T07:52:40Z</time>
      </trkpt>
      <trkpt lat="43.20127" lon="6.32595">
        <ele>583.18</ele>
        <time>2010-10-10T07:52:44Z</time>
      </trkpt>
      <trkpt lat="43.20117" lon="6.32599">
        <ele>583.18</ele>
        <time>2010-10-10T07:52:46Z</time>
      </trkpt>
      <trkpt lat="43.20113" lon="6.32601">
        <ele>583.66</ele>
        <time>2010-10-10T07:52:47Z</time>
      </trkpt>
      <trkpt lat="43.20108" lon="6.32603">
        <ele>583.66</ele>
        <time>2010-10-10T07:52:48Z</time>
      </trkpt>
      <trkpt lat="43.20078" lon="6.32615">
        <ele>582.7</ele>
        <time>2010-10-10T07:52:54Z</time>
      </trkpt>
      <trkpt lat="43.20043" lon="6.32636">
        <ele>581.25</ele>
        <time>2010-10-10T07:53:02Z</time>
      </trkpt>
      <trkpt lat="43.20031" lon="6.32644">
        <ele>582.7</ele>
        <time>2010-10-10T07:53:05Z</time>
      </trkpt>
      <trkpt lat="43.20027" lon="6.32647">
        <ele>582.22</ele>
        <time>2010-10-10T07:53:06Z</time>
      </trkpt>
      <trkpt lat="43.2002" lon="6.32651">
        <ele>582.22</ele>
        <time>2010-10-10T07:53:08Z</time>
      </trkpt>
      <trkpt lat="43.19991" lon="6.3266">
        <ele>585.58</ele>
        <time>2010-10-10T07:53:15Z</time>
      </trkpt>
      <trkpt lat="43.19966" lon="6.32665">
        <ele>586.54</ele>
        <time>2010-10-10T07:53:22Z</time>
      </trkpt>
      <trkpt lat="43.19936" lon="6.3267">
        <ele>587.02</ele>
        <time>2010-10-10T07:53:30Z</time>
      </trkpt>
      <trkpt lat="43.19929" lon="6.32675">
        <ele>586.06</ele>
        <time>2010-10-10T07:53:32Z</time>
      </trkpt>
      <trkpt lat="43.19919" lon="6.32683">
        <ele>587.5</ele>
        <time>2010-10-10T07:53:35Z</time>
      </trkpt>
      <trkpt lat="43.19909" lon="6.32693">
        <ele>588.46</ele>
        <time>2010-10-10T07:53:38Z</time>
      </trkpt>
      <trkpt lat="43.19906" lon="6.32697">
        <ele>588.95</ele>
        <time>2010-10-10T07:53:39Z</time>
      </trkpt>
      <trkpt lat="43.19903" lon="6.327">
        <ele>588.46</ele>
        <time>2010-10-10T07:53:40Z</time>
      </trkpt>
      <trkpt lat="43.199" lon="6.32704">
        <ele>588.95</ele>
        <time>2010-10-10T07:53:41Z</time>
      </trkpt>
      <trkpt lat="43.19897" lon="6.32709">
        <ele>588.46</ele>
        <time>2010-10-10T07:53:42Z</time>
      </trkpt>
      <trkpt lat="43.19889" lon="6.32723">
        <ele>588.46</ele>
        <time>2010-10-10T07:53:45Z</time>
      </trkpt>
      <trkpt lat="43.19888" lon="6.32729">
        <ele>587.98</ele>
        <time>2010-10-10T07:53:46Z</time>
      </trkpt>
      <trkpt lat="43.19887" lon="6.32735">
        <ele>587.98</ele>
        <time>2010-10-10T07:53:47Z</time>
      </trkpt>
      <trkpt lat="43.19884" lon="6.32758">
        <ele>587.5</ele>
        <time>2010-10-10T07:53:51Z</time>
      </trkpt>
      <trkpt lat="43.19872" lon="6.32805">
        <ele>585.1</ele>
        <time>2010-10-10T07:53:59Z</time>
      </trkpt>
      <trkpt lat="43.19872" lon="6.32811">
        <ele>586.54</ele>
        <time>2010-10-10T07:54:00Z</time>
      </trkpt>
      <trkpt lat="43.19874" lon="6.32817">
        <ele>586.54</ele>
        <time>2010-10-10T07:54:01Z</time>
      </trkpt>
      <trkpt lat="43.19876" lon="6.32821">
        <ele>587.5</ele>
        <time>2010-10-10T07:54:02Z</time>
      </trkpt>
      <trkpt lat="43.19879" lon="6.32823">
        <ele>587.5</ele>
        <time>2010-10-10T07:54:03Z</time>
      </trkpt>
      <trkpt lat="43.19883" lon="6.32824">
        <ele>587.5</ele>
        <time>2010-10-10T07:54:04Z</time>
      </trkpt>
      <trkpt lat="43.19886" lon="6.32824">
        <ele>587.98</ele>
        <time>2010-10-10T07:54:05Z</time>
      </trkpt>
      <trkpt lat="43.1989" lon="6.32825">
        <ele>587.5</ele>
        <time>2010-10-10T07:54:06Z</time>
      </trkpt>
      <trkpt lat="43.19893" lon="6.32826">
        <ele>588.95</ele>
        <time>2010-10-10T07:54:07Z</time>
      </trkpt>
      <trkpt lat="43.19897" lon="6.32828">
        <ele>589.43</ele>
        <time>2010-10-10T07:54:08Z</time>
      </trkpt>
      <trkpt lat="43.199" lon="6.3283">
        <ele>587.98</ele>
        <time>2010-10-10T07:54:09Z</time>
      </trkpt>
      <trkpt lat="43.19921" lon="6.32852">
        <ele>589.91</ele>
        <time>2010-10-10T07:54:16Z</time>
      </trkpt>
      <trkpt lat="43.19924" lon="6.32855">
        <ele>589.43</ele>
        <time>2010-10-10T07:54:17Z</time>
      </trkpt>
      <trkpt lat="43.19944" lon="6.32871">
        <ele>591.83</ele>
        <time>2010-10-10T07:54:24Z</time>
      </trkpt>
      <trkpt lat="43.19971" lon="6.32883">
        <ele>593.75</ele>
        <time>2010-10-10T07:54:32Z</time>
      </trkpt>
      <trkpt lat="43.19986" lon="6.3291">
        <ele>595.19</ele>
        <time>2010-10-10T07:54:39Z</time>
      </trkpt>
      <trkpt lat="43.19992" lon="6.32944">
        <ele>597.6</ele>
        <time>2010-10-10T07:54:46Z</time>
      </trkpt>
      <trkpt lat="43.19994" lon="6.32985">
        <ele>597.12</ele>
        <time>2010-10-10T07:54:54Z</time>
      </trkpt>
      <trkpt lat="43.19985" lon="6.33021">
        <ele>597.6</ele>
        <time>2010-10-10T07:55:02Z</time>
      </trkpt>
      <trkpt lat="43.19983" lon="6.33047">
        <ele>595.67</ele>
        <time>2010-10-10T07:55:07Z</time>
      </trkpt>
      <trkpt lat="43.19982" lon="6.33059">
        <ele>594.23</ele>
        <time>2010-10-10T07:55:09Z</time>
      </trkpt>
      <trkpt lat="43.19981" lon="6.331">
        <ele>594.71</ele>
        <time>2010-10-10T07:55:16Z</time>
      </trkpt>
      <trkpt lat="43.19981" lon="6.33107">
        <ele>593.75</ele>
        <time>2010-10-10T07:55:17Z</time>
      </trkpt>
      <trkpt lat="43.19982" lon="6.33113">
        <ele>594.71</ele>
        <time>2010-10-10T07:55:18Z</time>
      </trkpt>
      <trkpt lat="43.19983" lon="6.33119">
        <ele>596.15</ele>
        <time>2010-10-10T07:55:19Z</time>
      </trkpt>
      <trkpt lat="43.19984" lon="6.33125">
        <ele>596.15</ele>
        <time>2010-10-10T07:55:20Z</time>
      </trkpt>
      <trkpt lat="43.19989" lon="6.33141">
        <ele>596.15</ele>
        <time>2010-10-10T07:55:23Z</time>
      </trkpt>
      <trkpt lat="43.19992" lon="6.33145">
        <ele>595.19</ele>
        <time>2010-10-10T07:55:24Z</time>
      </trkpt>
      <trkpt lat="43.19995" lon="6.33149">
        <ele>595.19</ele>
        <time>2010-10-10T07:55:25Z</time>
      </trkpt>
      <trkpt lat="43.19998" lon="6.33152">
        <ele>595.19</ele>
        <time>2010-10-10T07:55:26Z</time>
      </trkpt>
      <trkpt lat="43.20002" lon="6.33155">
        <ele>597.6</ele>
        <time>2010-10-10T07:55:27Z</time>
      </trkpt>
      <trkpt lat="43.20005" lon="6.33157">
        <ele>595.67</ele>
        <time>2010-10-10T07:55:28Z</time>
      </trkpt>
      <trkpt lat="43.20032" lon="6.33172">
        <ele>597.12</ele>
        <time>2010-10-10T07:55:36Z</time>
      </trkpt>
      <trkpt lat="43.20041" lon="6.33177">
        <ele>598.08</ele>
        <time>2010-10-10T07:55:39Z</time>
      </trkpt>
      <trkpt lat="43.20067" lon="6.33194">
        <ele>599.04</ele>
        <time>2010-10-10T07:55:47Z</time>
      </trkpt>
      <trkpt lat="43.20095" lon="6.33213">
        <ele>598.08</ele>
        <time>2010-10-10T07:55:55Z</time>
      </trkpt>
      <trkpt lat="43.20125" lon="6.33228">
        <ele>597.6</ele>
        <time>2010-10-10T07:56:03Z</time>
      </trkpt>
      <trkpt lat="43.20128" lon="6.3323">
        <ele>597.6</ele>
        <time>2010-10-10T07:56:04Z</time>
      </trkpt>
      <trkpt lat="43.20148" lon="6.33246">
        <ele>596.64</ele>
        <time>2010-10-10T07:56:10Z</time>
      </trkpt>
      <trkpt lat="43.20168" lon="6.33262">
        <ele>595.67</ele>
        <time>2010-10-10T07:56:15Z</time>
      </trkpt>
      <trkpt lat="43.20179" lon="6.33275">
        <ele>594.71</ele>
        <time>2010-10-10T07:56:18Z</time>
      </trkpt>
      <trkpt lat="43.20182" lon="6.3328">
        <ele>594.71</ele>
        <time>2010-10-10T07:56:19Z</time>
      </trkpt>
      <trkpt lat="43.20184" lon="6.33287">
        <ele>594.71</ele>
        <time>2010-10-10T07:56:20Z</time>
      </trkpt>
      <trkpt lat="43.20185" lon="6.33295">
        <ele>593.75</ele>
        <time>2010-10-10T07:56:21Z</time>
      </trkpt>
      <trkpt lat="43.20185" lon="6.33304">
        <ele>592.79</ele>
        <time>2010-10-10T07:56:22Z</time>
      </trkpt>
      <trkpt lat="43.20185" lon="6.33312">
        <ele>591.35</ele>
        <time>2010-10-10T07:56:23Z</time>
      </trkpt>
      <trkpt lat="43.20185" lon="6.33322">
        <ele>591.83</ele>
        <time>2010-10-10T07:56:24Z</time>
      </trkpt>
      <trkpt lat="43.20184" lon="6.3333">
        <ele>591.35</ele>
        <time>2010-10-10T07:56:25Z</time>
      </trkpt>
      <trkpt lat="43.20183" lon="6.33339">
        <ele>590.39</ele>
        <time>2010-10-10T07:56:26Z</time>
      </trkpt>
      <trkpt lat="43.2018" lon="6.33346">
        <ele>589.43</ele>
        <time>2010-10-10T07:56:27Z</time>
      </trkpt>
      <trkpt lat="43.20177" lon="6.33353">
        <ele>587.98</ele>
        <time>2010-10-10T07:56:28Z</time>
      </trkpt>
      <trkpt lat="43.20174" lon="6.3336">
        <ele>587.02</ele>
        <time>2010-10-10T07:56:29Z</time>
      </trkpt>
      <trkpt lat="43.20172" lon="6.33367">
        <ele>586.06</ele>
        <time>2010-10-10T07:56:30Z</time>
      </trkpt>
      <trkpt lat="43.20172" lon="6.33374">
        <ele>587.02</ele>
        <time>2010-10-10T07:56:31Z</time>
      </trkpt>
      <trkpt lat="43.20174" lon="6.33381">
        <ele>587.02</ele>
        <time>2010-10-10T07:56:32Z</time>
      </trkpt>
      <trkpt lat="43.20179" lon="6.33385">
        <ele>586.54</ele>
        <time>2010-10-10T07:56:33Z</time>
      </trkpt>
      <trkpt lat="43.20184" lon="6.33387">
        <ele>586.54</ele>
        <time>2010-10-10T07:56:34Z</time>
      </trkpt>
      <trkpt lat="43.2019" lon="6.33386">
        <ele>587.02</ele>
        <time>2010-10-10T07:56:35Z</time>
      </trkpt>
      <trkpt lat="43.20196" lon="6.33386">
        <ele>585.58</ele>
        <time>2010-10-10T07:56:36Z</time>
      </trkpt>
      <trkpt lat="43.20203" lon="6.33386">
        <ele>586.06</ele>
        <time>2010-10-10T07:56:37Z</time>
      </trkpt>
      <trkpt lat="43.2021" lon="6.33388">
        <ele>585.1</ele>
        <time>2010-10-10T07:56:38Z</time>
      </trkpt>
      <trkpt lat="43.20217" lon="6.33392">
        <ele>584.14</ele>
        <time>2010-10-10T07:56:39Z</time>
      </trkpt>
      <trkpt lat="43.20224" lon="6.33397">
        <ele>584.14</ele>
        <time>2010-10-10T07:56:40Z</time>
      </trkpt>
      <trkpt lat="43.20229" lon="6.33404">
        <ele>583.66</ele>
        <time>2010-10-10T07:56:41Z</time>
      </trkpt>
      <trkpt lat="43.20234" lon="6.33412">
        <ele>583.18</ele>
        <time>2010-10-10T07:56:42Z</time>
      </trkpt>
      <trkpt lat="43.20239" lon="6.33421">
        <ele>582.7</ele>
        <time>2010-10-10T07:56:43Z</time>
      </trkpt>
      <trkpt lat="43.20249" lon="6.33438">
        <ele>581.73</ele>
        <time>2010-10-10T07:56:45Z</time>
      </trkpt>
      <trkpt lat="43.20255" lon="6.33446">
        <ele>580.29</ele>
        <time>2010-10-10T07:56:46Z</time>
      </trkpt>
      <trkpt lat="43.20262" lon="6.33453">
        <ele>579.81</ele>
        <time>2010-10-10T07:56:47Z</time>
      </trkpt>
      <trkpt lat="43.20274" lon="6.33468">
        <ele>580.29</ele>
        <time>2010-10-10T07:56:49Z</time>
      </trkpt>
      <trkpt lat="43.20287" lon="6.33479">
        <ele>578.85</ele>
        <time>2010-10-10T07:56:51Z</time>
      </trkpt>
      <trkpt lat="43.20294" lon="6.33483">
        <ele>578.85</ele>
        <time>2010-10-10T07:56:52Z</time>
      </trkpt>
      <trkpt lat="43.20316" lon="6.33493">
        <ele>577.41</ele>
        <time>2010-10-10T07:56:55Z</time>
      </trkpt>
      <trkpt lat="43.20332" lon="6.33497">
        <ele>576.93</ele>
        <time>2010-10-10T07:56:57Z</time>
      </trkpt>
      <trkpt lat="43.20339" lon="6.33498">
        <ele>576.93</ele>
        <time>2010-10-10T07:56:58Z</time>
      </trkpt>
      <trkpt lat="43.20347" lon="6.33497">
        <ele>576.93</ele>
        <time>2010-10-10T07:56:59Z</time>
      </trkpt>
      <trkpt lat="43.20407" lon="6.33484">
        <ele>575.97</ele>
        <time>2010-10-10T07:57:07Z</time>
      </trkpt>
      <trkpt lat="43.20422" lon="6.33483">
        <ele>575.97</ele>
        <time>2010-10-10T07:57:09Z</time>
      </trkpt>
      <trkpt lat="43.20429" lon="6.33485">
        <ele>575.49</ele>
        <time>2010-10-10T07:57:10Z</time>
      </trkpt>
      <trkpt lat="43.20436" lon="6.33489">
        <ele>575.01</ele>
        <time>2010-10-10T07:57:11Z</time>
      </trkpt>
      <trkpt lat="43.20443" lon="6.33494">
        <ele>575.01</ele>
        <time>2010-10-10T07:57:12Z</time>
      </trkpt>
      <trkpt lat="43.20449" lon="6.33501">
        <ele>574.53</ele>
        <time>2010-10-10T07:57:13Z</time>
      </trkpt>
      <trkpt lat="43.20455" lon="6.33507">
        <ele>574.53</ele>
        <time>2010-10-10T07:57:14Z</time>
      </trkpt>
      <trkpt lat="43.20462" lon="6.33512">
        <ele>574.04</ele>
        <time>2010-10-10T07:57:15Z</time>
      </trkpt>
      <trkpt lat="43.20469" lon="6.33515">
        <ele>574.04</ele>
        <time>2010-10-10T07:57:16Z</time>
      </trkpt>
      <trkpt lat="43.20477" lon="6.33516">
        <ele>574.53</ele>
        <time>2010-10-10T07:57:17Z</time>
      </trkpt>
      <trkpt lat="43.20484" lon="6.33516">
        <ele>574.53</ele>
        <time>2010-10-10T07:57:18Z</time>
      </trkpt>
      <trkpt lat="43.20491" lon="6.33515">
        <ele>575.49</ele>
        <time>2010-10-10T07:57:19Z</time>
      </trkpt>
      <trkpt lat="43.20498" lon="6.33513">
        <ele>575.49</ele>
        <time>2010-10-10T07:57:20Z</time>
      </trkpt>
      <trkpt lat="43.20511" lon="6.3351">
        <ele>575.49</ele>
        <time>2010-10-10T07:57:22Z</time>
      </trkpt>
      <trkpt lat="43.20517" lon="6.33509">
        <ele>575.49</ele>
        <time>2010-10-10T07:57:23Z</time>
      </trkpt>
      <trkpt lat="43.20521" lon="6.3351">
        <ele>575.49</ele>
        <time>2010-10-10T07:57:24Z</time>
      </trkpt>
      <trkpt lat="43.20524" lon="6.33513">
        <ele>574.53</ele>
        <time>2010-10-10T07:57:25Z</time>
      </trkpt>
      <trkpt lat="43.20526" lon="6.33517">
        <ele>575.01</ele>
        <time>2010-10-10T07:57:26Z</time>
      </trkpt>
      <trkpt lat="43.20526" lon="6.33522">
        <ele>575.01</ele>
        <time>2010-10-10T07:57:27Z</time>
      </trkpt>
      <trkpt lat="43.20524" lon="6.33525">
        <ele>575.01</ele>
        <time>2010-10-10T07:57:28Z</time>
      </trkpt>
      <trkpt lat="43.20523" lon="6.33529">
        <ele>575.49</ele>
        <time>2010-10-10T07:57:29Z</time>
      </trkpt>
      <trkpt lat="43.2052" lon="6.33532">
        <ele>574.53</ele>
        <time>2010-10-10T07:57:30Z</time>
      </trkpt>
      <trkpt lat="43.20518" lon="6.33535">
        <ele>575.01</ele>
        <time>2010-10-10T07:57:31Z</time>
      </trkpt>
      <trkpt lat="43.20508" lon="6.33561">
        <ele>575.01</ele>
        <time>2010-10-10T07:57:37Z</time>
      </trkpt>
      <trkpt lat="43.20497" lon="6.33603">
        <ele>576.45</ele>
        <time>2010-10-10T07:57:47Z</time>
      </trkpt>
      <trkpt lat="43.20496" lon="6.33607">
        <ele>576.45</ele>
        <time>2010-10-10T07:57:48Z</time>
      </trkpt>
      <trkpt lat="43.20486" lon="6.33627">
        <ele>576.45</ele>
        <time>2010-10-10T07:57:54Z</time>
      </trkpt>
      <trkpt lat="43.20479" lon="6.3364">
        <ele>577.89</ele>
        <time>2010-10-10T07:57:58Z</time>
      </trkpt>
      <trkpt lat="43.20479" lon="6.33644">
        <ele>577.89</ele>
        <time>2010-10-10T07:57:59Z</time>
      </trkpt>
      <trkpt lat="43.20479" lon="6.33648">
        <ele>577.89</ele>
        <time>2010-10-10T07:58:00Z</time>
      </trkpt>
      <trkpt lat="43.20481" lon="6.33652">
        <ele>578.85</ele>
        <time>2010-10-10T07:58:01Z</time>
      </trkpt>
      <trkpt lat="43.20482" lon="6.33655">
        <ele>578.37</ele>
        <time>2010-10-10T07:58:02Z</time>
      </trkpt>
      <trkpt lat="43.20485" lon="6.33657">
        <ele>578.37</ele>
        <time>2010-10-10T07:58:03Z</time>
      </trkpt>
      <trkpt lat="43.20487" lon="6.33659">
        <ele>578.85</ele>
        <time>2010-10-10T07:58:04Z</time>
      </trkpt>
      <trkpt lat="43.20489" lon="6.33661">
        <ele>579.33</ele>
        <time>2010-10-10T07:58:05Z</time>
      </trkpt>
      <trkpt lat="43.20492" lon="6.33663">
        <ele>580.77</ele>
        <time>2010-10-10T07:58:06Z</time>
      </trkpt>
      <trkpt lat="43.20514" lon="6.33679">
        <ele>582.22</ele>
        <time>2010-10-10T07:58:14Z</time>
      </trkpt>
      <trkpt lat="43.20531" lon="6.33693">
        <ele>582.7</ele>
        <time>2010-10-10T07:58:21Z</time>
      </trkpt>
      <trkpt lat="43.20543" lon="6.33704">
        <ele>585.1</ele>
        <time>2010-10-10T07:58:26Z</time>
      </trkpt>
      <trkpt lat="43.20551" lon="6.33716">
        <ele>586.06</ele>
        <time>2010-10-10T07:58:30Z</time>
      </trkpt>
      <trkpt lat="43.20562" lon="6.33744">
        <ele>587.02</ele>
        <time>2010-10-10T07:58:38Z</time>
      </trkpt>
      <trkpt lat="43.20557" lon="6.33762">
        <ele>586.54</ele>
        <time>2010-10-10T07:58:43Z</time>
      </trkpt>
      <trkpt lat="43.20542" lon="6.33779">
        <ele>587.5</ele>
        <time>2010-10-10T07:58:50Z</time>
      </trkpt>
      <trkpt lat="43.20524" lon="6.33795">
        <ele>588.46</ele>
        <time>2010-10-10T07:58:57Z</time>
      </trkpt>
      <trkpt lat="43.20516" lon="6.33802">
        <ele>587.5</ele>
        <time>2010-10-10T07:59:00Z</time>
      </trkpt>
      <trkpt lat="43.20497" lon="6.33832">
        <ele>586.54</ele>
        <time>2010-10-10T07:59:08Z</time>
      </trkpt>
      <trkpt lat="43.20491" lon="6.33842">
        <ele>586.06</ele>
        <time>2010-10-10T07:59:10Z</time>
      </trkpt>
      <trkpt lat="43.20483" lon="6.33859">
        <ele>584.62</ele>
        <time>2010-10-10T07:59:13Z</time>
      </trkpt>
      <trkpt lat="43.20476" lon="6.33877">
        <ele>583.66</ele>
        <time>2010-10-10T07:59:16Z</time>
      </trkpt>
      <trkpt lat="43.20475" lon="6.33884">
        <ele>584.14</ele>
        <time>2010-10-10T07:59:17Z</time>
      </trkpt>
      <trkpt lat="43.20473" lon="6.33925">
        <ele>582.22</ele>
        <time>2010-10-10T07:59:23Z</time>
      </trkpt>
      <trkpt lat="43.20471" lon="6.3394">
        <ele>581.25</ele>
        <time>2010-10-10T07:59:25Z</time>
      </trkpt>
      <trkpt lat="43.20469" lon="6.33962">
        <ele>580.29</ele>
        <time>2010-10-10T07:59:28Z</time>
      </trkpt>
      <trkpt lat="43.20469" lon="6.33978">
        <ele>579.33</ele>
        <time>2010-10-10T07:59:30Z</time>
      </trkpt>
      <trkpt lat="43.20471" lon="6.33985">
        <ele>578.85</ele>
        <time>2010-10-10T07:59:31Z</time>
      </trkpt>
      <trkpt lat="43.20474" lon="6.33992">
        <ele>579.33</ele>
        <time>2010-10-10T07:59:32Z</time>
      </trkpt>
      <trkpt lat="43.20477" lon="6.33999">
        <ele>578.85</ele>
        <time>2010-10-10T07:59:33Z</time>
      </trkpt>
      <trkpt lat="43.2048" lon="6.34006">
        <ele>579.33</ele>
        <time>2010-10-10T07:59:34Z</time>
      </trkpt>
      <trkpt lat="43.20494" lon="6.3404">
        <ele>580.29</ele>
        <time>2010-10-10T07:59:39Z</time>
      </trkpt>
      <trkpt lat="43.20495" lon="6.34048">
        <ele>580.77</ele>
        <time>2010-10-10T07:59:40Z</time>
      </trkpt>
      <trkpt lat="43.20496" lon="6.34055">
        <ele>581.25</ele>
        <time>2010-10-10T07:59:41Z</time>
      </trkpt>
      <trkpt lat="43.20497" lon="6.34062">
        <ele>580.77</ele>
        <time>2010-10-10T07:59:42Z</time>
      </trkpt>
      <trkpt lat="43.20497" lon="6.34069">
        <ele>581.25</ele>
        <time>2010-10-10T07:59:43Z</time>
      </trkpt>
      <trkpt lat="43.20496" lon="6.34075">
        <ele>581.73</ele>
        <time>2010-10-10T07:59:44Z</time>
      </trkpt>
      <trkpt lat="43.20495" lon="6.34081">
        <ele>581.73</ele>
        <time>2010-10-10T07:59:45Z</time>
      </trkpt>
      <trkpt lat="43.20491" lon="6.34099">
        <ele>582.22</ele>
        <time>2010-10-10T07:59:48Z</time>
      </trkpt>
      <trkpt lat="43.20482" lon="6.34123">
        <ele>581.73</ele>
        <time>2010-10-10T07:59:52Z</time>
      </trkpt>
      <trkpt lat="43.20481" lon="6.34129">
        <ele>582.22</ele>
        <time>2010-10-10T07:59:53Z</time>
      </trkpt>
      <trkpt lat="43.2048" lon="6.34136">
        <ele>582.22</ele>
        <time>2010-10-10T07:59:54Z</time>
      </trkpt>
      <trkpt lat="43.20478" lon="6.34174">
        <ele>582.22</ele>
        <time>2010-10-10T08:00:00Z</time>
      </trkpt>
      <trkpt lat="43.20477" lon="6.3418">
        <ele>581.73</ele>
        <time>2010-10-10T08:00:01Z</time>
      </trkpt>
      <trkpt lat="43.20476" lon="6.34185">
        <ele>582.22</ele>
        <time>2010-10-10T08:00:02Z</time>
      </trkpt>
      <trkpt lat="43.20473" lon="6.34195">
        <ele>583.66</ele>
        <time>2010-10-10T08:00:04Z</time>
      </trkpt>
      <trkpt lat="43.20466" lon="6.34222">
        <ele>585.1</ele>
        <time>2010-10-10T08:00:09Z</time>
      </trkpt>
      <trkpt lat="43.2044" lon="6.34262">
        <ele>585.58</ele>
        <time>2010-10-10T08:00:18Z</time>
      </trkpt>
      <trkpt lat="43.20436" lon="6.34286">
        <ele>585.58</ele>
        <time>2010-10-10T08:00:23Z</time>
      </trkpt>
      <trkpt lat="43.20437" lon="6.34295">
        <ele>586.54</ele>
        <time>2010-10-10T08:00:25Z</time>
      </trkpt>
      <trkpt lat="43.20443" lon="6.34315">
        <ele>587.98</ele>
        <time>2010-10-10T08:00:30Z</time>
      </trkpt>
      <trkpt lat="43.20445" lon="6.34318">
        <ele>587.5</ele>
        <time>2010-10-10T08:00:31Z</time>
      </trkpt>
      <trkpt lat="43.20447" lon="6.34322">
        <ele>587.98</ele>
        <time>2010-10-10T08:00:32Z</time>
      </trkpt>
      <trkpt lat="43.20448" lon="6.34326">
        <ele>588.46</ele>
        <time>2010-10-10T08:00:33Z</time>
      </trkpt>
      <trkpt lat="43.2045" lon="6.3433">
        <ele>587.98</ele>
        <time>2010-10-10T08:00:34Z</time>
      </trkpt>
      <trkpt lat="43.20452" lon="6.34333">
        <ele>588.46</ele>
        <time>2010-10-10T08:00:35Z</time>
      </trkpt>
      <trkpt lat="43.20454" lon="6.34337">
        <ele>587.98</ele>
        <time>2010-10-10T08:00:36Z</time>
      </trkpt>
      <trkpt lat="43.20457" lon="6.3434">
        <ele>588.46</ele>
        <time>2010-10-10T08:00:37Z</time>
      </trkpt>
      <trkpt lat="43.2047" lon="6.34362">
        <ele>590.39</ele>
        <time>2010-10-10T08:00:43Z</time>
      </trkpt>
      <trkpt lat="43.20476" lon="6.34388">
        <ele>591.35</ele>
        <time>2010-10-10T08:00:49Z</time>
      </trkpt>
      <trkpt lat="43.20474" lon="6.34409">
        <ele>592.79</ele>
        <time>2010-10-10T08:00:54Z</time>
      </trkpt>
      <trkpt lat="43.20472" lon="6.34412">
        <ele>592.31</ele>
        <time>2010-10-10T08:00:55Z</time>
      </trkpt>
      <trkpt lat="43.20459" lon="6.34434">
        <ele>592.79</ele>
        <time>2010-10-10T08:01:01Z</time>
      </trkpt>
      <trkpt lat="43.2045" lon="6.34457">
        <ele>594.71</ele>
        <time>2010-10-10T08:01:07Z</time>
      </trkpt>
      <trkpt lat="43.20443" lon="6.34483">
        <ele>594.71</ele>
        <time>2010-10-10T08:01:13Z</time>
      </trkpt>
      <trkpt lat="43.20441" lon="6.34514">
        <ele>597.6</ele>
        <time>2010-10-10T08:01:20Z</time>
      </trkpt>
      <trkpt lat="43.20444" lon="6.3454">
        <ele>598.08</ele>
        <time>2010-10-10T08:01:26Z</time>
      </trkpt>
      <trkpt lat="43.20449" lon="6.3456">
        <ele>599.52</ele>
        <time>2010-10-10T08:01:31Z</time>
      </trkpt>
      <trkpt lat="43.20453" lon="6.34572">
        <ele>599.52</ele>
        <time>2010-10-10T08:01:34Z</time>
      </trkpt>
      <trkpt lat="43.20455" lon="6.34576">
        <ele>599.52</ele>
        <time>2010-10-10T08:01:35Z</time>
      </trkpt>
      <trkpt lat="43.20457" lon="6.34579">
        <ele>599.52</ele>
        <time>2010-10-10T08:01:36Z</time>
      </trkpt>
      <trkpt lat="43.20458" lon="6.34583">
        <ele>599.52</ele>
        <time>2010-10-10T08:01:37Z</time>
      </trkpt>
      <trkpt lat="43.2046" lon="6.34587">
        <ele>599.52</ele>
        <time>2010-10-10T08:01:38Z</time>
      </trkpt>
      <trkpt lat="43.20474" lon="6.34616">
        <ele>600.96</ele>
        <time>2010-10-10T08:01:45Z</time>
      </trkpt>
      <trkpt lat="43.20497" lon="6.34633">
        <ele>600</ele>
        <time>2010-10-10T08:01:52Z</time>
      </trkpt>
      <trkpt lat="43.20508" lon="6.34636">
        <ele>601.92</ele>
        <time>2010-10-10T08:01:55Z</time>
      </trkpt>
      <trkpt lat="43.2053" lon="6.34635">
        <ele>601.92</ele>
        <time>2010-10-10T08:02:01Z</time>
      </trkpt>
      <trkpt lat="43.20548" lon="6.34642">
        <ele>602.88</ele>
        <time>2010-10-10T08:02:07Z</time>
      </trkpt>
      <trkpt lat="43.20559" lon="6.34659">
        <ele>603.36</ele>
        <time>2010-10-10T08:02:12Z</time>
      </trkpt>
      <trkpt lat="43.20568" lon="6.34687">
        <ele>603.85</ele>
        <time>2010-10-10T08:02:19Z</time>
      </trkpt>
      <trkpt lat="43.20572" lon="6.34703">
        <ele>607.21</ele>
        <time>2010-10-10T08:02:23Z</time>
      </trkpt>
      <trkpt lat="43.20569" lon="6.34732">
        <ele>606.25</ele>
        <time>2010-10-10T08:02:30Z</time>
      </trkpt>
      <trkpt lat="43.20567" lon="6.34746">
        <ele>608.65</ele>
        <time>2010-10-10T08:02:33Z</time>
      </trkpt>
      <trkpt lat="43.20567" lon="6.34752">
        <ele>606.73</ele>
        <time>2010-10-10T08:02:34Z</time>
      </trkpt>
      <trkpt lat="43.20568" lon="6.34757">
        <ele>605.77</ele>
        <time>2010-10-10T08:02:35Z</time>
      </trkpt>
      <trkpt lat="43.2057" lon="6.34763">
        <ele>605.29</ele>
        <time>2010-10-10T08:02:36Z</time>
      </trkpt>
      <trkpt lat="43.20573" lon="6.34768">
        <ele>605.29</ele>
        <time>2010-10-10T08:02:37Z</time>
      </trkpt>
      <trkpt lat="43.20577" lon="6.34772">
        <ele>604.81</ele>
        <time>2010-10-10T08:02:38Z</time>
      </trkpt>
      <trkpt lat="43.20581" lon="6.34776">
        <ele>605.29</ele>
        <time>2010-10-10T08:02:39Z</time>
      </trkpt>
      <trkpt lat="43.20599" lon="6.34792">
        <ele>602.88</ele>
        <time>2010-10-10T08:02:43Z</time>
      </trkpt>
      <trkpt lat="43.20619" lon="6.34816">
        <ele>598.08</ele>
        <time>2010-10-10T08:02:47Z</time>
      </trkpt>
      <trkpt lat="43.20637" lon="6.34837">
        <ele>595.19</ele>
        <time>2010-10-10T08:02:50Z</time>
      </trkpt>
      <trkpt lat="43.20644" lon="6.34843">
        <ele>593.75</ele>
        <time>2010-10-10T08:02:51Z</time>
      </trkpt>
      <trkpt lat="43.20652" lon="6.34847">
        <ele>592.79</ele>
        <time>2010-10-10T08:02:52Z</time>
      </trkpt>
      <trkpt lat="43.20661" lon="6.34851">
        <ele>593.75</ele>
        <time>2010-10-10T08:02:53Z</time>
      </trkpt>
      <trkpt lat="43.20668" lon="6.34857">
        <ele>593.27</ele>
        <time>2010-10-10T08:02:54Z</time>
      </trkpt>
      <trkpt lat="43.20674" lon="6.34864">
        <ele>593.75</ele>
        <time>2010-10-10T08:02:55Z</time>
      </trkpt>
      <trkpt lat="43.20679" lon="6.34871">
        <ele>594.23</ele>
        <time>2010-10-10T08:02:56Z</time>
      </trkpt>
      <trkpt lat="43.20683" lon="6.34877">
        <ele>594.71</ele>
        <time>2010-10-10T08:02:57Z</time>
      </trkpt>
      <trkpt lat="43.20693" lon="6.349">
        <ele>596.15</ele>
        <time>2010-10-10T08:03:01Z</time>
      </trkpt>
      <trkpt lat="43.20695" lon="6.34905">
        <ele>596.64</ele>
        <time>2010-10-10T08:03:02Z</time>
      </trkpt>
      <trkpt lat="43.20697" lon="6.3491">
        <ele>596.15</ele>
        <time>2010-10-10T08:03:03Z</time>
      </trkpt>
      <trkpt lat="43.20698" lon="6.34915">
        <ele>597.12</ele>
        <time>2010-10-10T08:03:04Z</time>
      </trkpt>
      <trkpt lat="43.207" lon="6.3492">
        <ele>597.6</ele>
        <time>2010-10-10T08:03:05Z</time>
      </trkpt>
      <trkpt lat="43.20701" lon="6.34925">
        <ele>597.12</ele>
        <time>2010-10-10T08:03:06Z</time>
      </trkpt>
      <trkpt lat="43.20714" lon="6.3495">
        <ele>597.6</ele>
        <time>2010-10-10T08:03:11Z</time>
      </trkpt>
      <trkpt lat="43.20717" lon="6.34954">
        <ele>598.08</ele>
        <time>2010-10-10T08:03:12Z</time>
      </trkpt>
      <trkpt lat="43.20721" lon="6.34956">
        <ele>598.56</ele>
        <time>2010-10-10T08:03:13Z</time>
      </trkpt>
      <trkpt lat="43.20725" lon="6.34958">
        <ele>598.56</ele>
        <time>2010-10-10T08:03:14Z</time>
      </trkpt>
      <trkpt lat="43.20729" lon="6.34961">
        <ele>599.04</ele>
        <time>2010-10-10T08:03:15Z</time>
      </trkpt>
      <trkpt lat="43.20733" lon="6.34964">
        <ele>599.04</ele>
        <time>2010-10-10T08:03:16Z</time>
      </trkpt>
      <trkpt lat="43.20736" lon="6.34967">
        <ele>599.52</ele>
        <time>2010-10-10T08:03:17Z</time>
      </trkpt>
      <trkpt lat="43.20739" lon="6.34972">
        <ele>599.04</ele>
        <time>2010-10-10T08:03:18Z</time>
      </trkpt>
      <trkpt lat="43.20742" lon="6.34977">
        <ele>599.04</ele>
        <time>2010-10-10T08:03:19Z</time>
      </trkpt>
      <trkpt lat="43.20748" lon="6.34987">
        <ele>599.04</ele>
        <time>2010-10-10T08:03:21Z</time>
      </trkpt>
      <trkpt lat="43.20752" lon="6.34998">
        <ele>598.56</ele>
        <time>2010-10-10T08:03:23Z</time>
      </trkpt>
      <trkpt lat="43.20755" lon="6.35002">
        <ele>598.56</ele>
        <time>2010-10-10T08:03:24Z</time>
      </trkpt>
      <trkpt lat="43.20763" lon="6.35019">
        <ele>598.56</ele>
        <time>2010-10-10T08:03:27Z</time>
      </trkpt>
      <trkpt lat="43.20765" lon="6.35025">
        <ele>598.56</ele>
        <time>2010-10-10T08:03:28Z</time>
      </trkpt>
      <trkpt lat="43.20774" lon="6.35041">
        <ele>598.56</ele>
        <time>2010-10-10T08:03:31Z</time>
      </trkpt>
      <trkpt lat="43.20777" lon="6.35046">
        <ele>598.56</ele>
        <time>2010-10-10T08:03:32Z</time>
      </trkpt>
      <trkpt lat="43.20782" lon="6.35049">
        <ele>598.08</ele>
        <time>2010-10-10T08:03:33Z</time>
      </trkpt>
      <trkpt lat="43.20787" lon="6.35051">
        <ele>599.04</ele>
        <time>2010-10-10T08:03:34Z</time>
      </trkpt>
      <trkpt lat="43.20792" lon="6.35051">
        <ele>598.08</ele>
        <time>2010-10-10T08:03:35Z</time>
      </trkpt>
      <trkpt lat="43.20797" lon="6.3505">
        <ele>597.12</ele>
        <time>2010-10-10T08:03:36Z</time>
      </trkpt>
      <trkpt lat="43.20802" lon="6.35048">
        <ele>597.6</ele>
        <time>2010-10-10T08:03:37Z</time>
      </trkpt>
      <trkpt lat="43.20812" lon="6.35044">
        <ele>598.56</ele>
        <time>2010-10-10T08:03:39Z</time>
      </trkpt>
      <trkpt lat="43.20817" lon="6.35042">
        <ele>599.04</ele>
        <time>2010-10-10T08:03:40Z</time>
      </trkpt>
      <trkpt lat="43.20822" lon="6.35042">
        <ele>598.56</ele>
        <time>2010-10-10T08:03:41Z</time>
      </trkpt>
      <trkpt lat="43.20827" lon="6.35044">
        <ele>597.6</ele>
        <time>2010-10-10T08:03:42Z</time>
      </trkpt>
      <trkpt lat="43.20832" lon="6.35049">
        <ele>597.6</ele>
        <time>2010-10-10T08:03:43Z</time>
      </trkpt>
      <trkpt lat="43.20836" lon="6.35055">
        <ele>597.6</ele>
        <time>2010-10-10T08:03:44Z</time>
      </trkpt>
      <trkpt lat="43.2084" lon="6.35061">
        <ele>596.64</ele>
        <time>2010-10-10T08:03:45Z</time>
      </trkpt>
      <trkpt lat="43.20847" lon="6.35075">
        <ele>596.15</ele>
        <time>2010-10-10T08:03:47Z</time>
      </trkpt>
      <trkpt lat="43.20849" lon="6.35083">
        <ele>595.67</ele>
        <time>2010-10-10T08:03:48Z</time>
      </trkpt>
      <trkpt lat="43.20851" lon="6.35091">
        <ele>595.67</ele>
        <time>2010-10-10T08:03:49Z</time>
      </trkpt>
      <trkpt lat="43.20857" lon="6.35117">
        <ele>595.19</ele>
        <time>2010-10-10T08:03:52Z</time>
      </trkpt>
      <trkpt lat="43.2086" lon="6.35125">
        <ele>595.19</ele>
        <time>2010-10-10T08:03:53Z</time>
      </trkpt>
      <trkpt lat="43.20867" lon="6.35139">
        <ele>595.67</ele>
        <time>2010-10-10T08:03:55Z</time>
      </trkpt>
      <trkpt lat="43.20871" lon="6.35145">
        <ele>595.19</ele>
        <time>2010-10-10T08:03:56Z</time>
      </trkpt>
      <trkpt lat="43.20875" lon="6.3515">
        <ele>595.19</ele>
        <time>2010-10-10T08:03:57Z</time>
      </trkpt>
      <trkpt lat="43.2088" lon="6.35154">
        <ele>595.67</ele>
        <time>2010-10-10T08:03:58Z</time>
      </trkpt>
      <trkpt lat="43.20885" lon="6.35157">
        <ele>596.15</ele>
        <time>2010-10-10T08:03:59Z</time>
      </trkpt>
      <trkpt lat="43.2089" lon="6.3516">
        <ele>595.67</ele>
        <time>2010-10-10T08:04:00Z</time>
      </trkpt>
      <trkpt lat="43.20895" lon="6.35161">
        <ele>595.19</ele>
        <time>2010-10-10T08:04:01Z</time>
      </trkpt>
      <trkpt lat="43.20901" lon="6.35162">
        <ele>595.67</ele>
        <time>2010-10-10T08:04:02Z</time>
      </trkpt>
      <trkpt lat="43.20906" lon="6.35163">
        <ele>596.64</ele>
        <time>2010-10-10T08:04:03Z</time>
      </trkpt>
      <trkpt lat="43.20911" lon="6.35163">
        <ele>596.64</ele>
        <time>2010-10-10T08:04:04Z</time>
      </trkpt>
      <trkpt lat="43.2092" lon="6.35164">
        <ele>597.6</ele>
        <time>2010-10-10T08:04:06Z</time>
      </trkpt>
      <trkpt lat="43.20929" lon="6.35163">
        <ele>597.6</ele>
        <time>2010-10-10T08:04:08Z</time>
      </trkpt>
      <trkpt lat="43.20937" lon="6.35161">
        <ele>598.56</ele>
        <time>2010-10-10T08:04:10Z</time>
      </trkpt>
      <trkpt lat="43.20945" lon="6.35157">
        <ele>598.56</ele>
        <time>2010-10-10T08:04:12Z</time>
      </trkpt>
      <trkpt lat="43.20949" lon="6.35157">
        <ele>598.56</ele>
        <time>2010-10-10T08:04:13Z</time>
      </trkpt>
      <trkpt lat="43.20954" lon="6.35157">
        <ele>599.04</ele>
        <time>2010-10-10T08:04:14Z</time>
      </trkpt>
      <trkpt lat="43.20958" lon="6.35158">
        <ele>599.04</ele>
        <time>2010-10-10T08:04:15Z</time>
      </trkpt>
      <trkpt lat="43.20961" lon="6.35159">
        <ele>599.52</ele>
        <time>2010-10-10T08:04:16Z</time>
      </trkpt>
      <trkpt lat="43.20981" lon="6.35173">
        <ele>601.44</ele>
        <time>2010-10-10T08:04:22Z</time>
      </trkpt>
      <trkpt lat="43.21003" lon="6.35191">
        <ele>603.85</ele>
        <time>2010-10-10T08:04:29Z</time>
      </trkpt>
      <trkpt lat="43.21006" lon="6.35194">
        <ele>603.85</ele>
        <time>2010-10-10T08:04:30Z</time>
      </trkpt>
      <trkpt lat="43.21009" lon="6.35197">
        <ele>604.33</ele>
        <time>2010-10-10T08:04:31Z</time>
      </trkpt>
      <trkpt lat="43.21012" lon="6.352">
        <ele>604.33</ele>
        <time>2010-10-10T08:04:32Z</time>
      </trkpt>
      <trkpt lat="43.21015" lon="6.35203">
        <ele>603.85</ele>
        <time>2010-10-10T08:04:33Z</time>
      </trkpt>
      <trkpt lat="43.21018" lon="6.35206">
        <ele>604.33</ele>
        <time>2010-10-10T08:04:34Z</time>
      </trkpt>
      <trkpt lat="43.2102" lon="6.35209">
        <ele>604.81</ele>
        <time>2010-10-10T08:04:35Z</time>
      </trkpt>
      <trkpt lat="43.21023" lon="6.35212">
        <ele>604.33</ele>
        <time>2010-10-10T08:04:36Z</time>
      </trkpt>
      <trkpt lat="43.21026" lon="6.35216">
        <ele>604.33</ele>
        <time>2010-10-10T08:04:37Z</time>
      </trkpt>
      <trkpt lat="43.21038" lon="6.3523">
        <ele>606.25</ele>
        <time>2010-10-10T08:04:42Z</time>
      </trkpt>
      <trkpt lat="43.21052" lon="6.35254">
        <ele>608.17</ele>
        <time>2010-10-10T08:04:50Z</time>
      </trkpt>
      <trkpt lat="43.21057" lon="6.35263">
        <ele>610.09</ele>
        <time>2010-10-10T08:04:53Z</time>
      </trkpt>
      <trkpt lat="43.2107" lon="6.35281">
        <ele>610.57</ele>
        <time>2010-10-10T08:04:59Z</time>
      </trkpt>
      <trkpt lat="43.21083" lon="6.35301">
        <ele>612.02</ele>
        <time>2010-10-10T08:05:06Z</time>
      </trkpt>
      <trkpt lat="43.21099" lon="6.35324">
        <ele>612.5</ele>
        <time>2010-10-10T08:05:14Z</time>
      </trkpt>
      <trkpt lat="43.21119" lon="6.35339">
        <ele>613.46</ele>
        <time>2010-10-10T08:05:22Z</time>
      </trkpt>
      <trkpt lat="43.21128" lon="6.35344">
        <ele>614.42</ele>
        <time>2010-10-10T08:05:25Z</time>
      </trkpt>
      <trkpt lat="43.21152" lon="6.35358">
        <ele>614.9</ele>
        <time>2010-10-10T08:05:34Z</time>
      </trkpt>
      <trkpt lat="43.21178" lon="6.35363">
        <ele>615.86</ele>
        <time>2010-10-10T08:05:43Z</time>
      </trkpt>
      <trkpt lat="43.21197" lon="6.35361">
        <ele>616.34</ele>
        <time>2010-10-10T08:05:49Z</time>
      </trkpt>
      <trkpt lat="43.21222" lon="6.35361">
        <ele>616.34</ele>
        <time>2010-10-10T08:05:57Z</time>
      </trkpt>
      <trkpt lat="43.21231" lon="6.35363">
        <ele>614.9</ele>
        <time>2010-10-10T08:06:01Z</time>
      </trkpt>
      <trkpt lat="43.21233" lon="6.35365">
        <ele>615.38</ele>
        <time>2010-10-10T08:06:02Z</time>
      </trkpt>
      <trkpt lat="43.21233" lon="6.35365">
        <ele>614.9</ele>
        <time>2010-10-10T08:06:07Z</time>
      </trkpt>
      <trkpt lat="43.21237" lon="6.35368">
        <ele>615.38</ele>
        <time>2010-10-10T08:06:11Z</time>
      </trkpt>
      <trkpt lat="43.21239" lon="6.3537">
        <ele>614.42</ele>
        <time>2010-10-10T08:06:12Z</time>
      </trkpt>
      <trkpt lat="43.21242" lon="6.35373">
        <ele>613.94</ele>
        <time>2010-10-10T08:06:13Z</time>
      </trkpt>
      <trkpt lat="43.21245" lon="6.35376">
        <ele>613.94</ele>
        <time>2010-10-10T08:06:14Z</time>
      </trkpt>
      <trkpt lat="43.21248" lon="6.35379">
        <ele>613.94</ele>
        <time>2010-10-10T08:06:15Z</time>
      </trkpt>
      <trkpt lat="43.21254" lon="6.35387">
        <ele>613.46</ele>
        <time>2010-10-10T08:06:17Z</time>
      </trkpt>
      <trkpt lat="43.21257" lon="6.35392">
        <ele>612.98</ele>
        <time>2010-10-10T08:06:18Z</time>
      </trkpt>
      <trkpt lat="43.21259" lon="6.35397">
        <ele>613.46</ele>
        <time>2010-10-10T08:06:19Z</time>
      </trkpt>
      <trkpt lat="43.21261" lon="6.35403">
        <ele>613.46</ele>
        <time>2010-10-10T08:06:20Z</time>
      </trkpt>
      <trkpt lat="43.21262" lon="6.3541">
        <ele>613.94</ele>
        <time>2010-10-10T08:06:21Z</time>
      </trkpt>
      <trkpt lat="43.21262" lon="6.35417">
        <ele>613.46</ele>
        <time>2010-10-10T08:06:22Z</time>
      </trkpt>
      <trkpt lat="43.21262" lon="6.35425">
        <ele>612.5</ele>
        <time>2010-10-10T08:06:23Z</time>
      </trkpt>
      <trkpt lat="43.21262" lon="6.35432">
        <ele>612.5</ele>
        <time>2010-10-10T08:06:24Z</time>
      </trkpt>
      <trkpt lat="43.21263" lon="6.35445">
        <ele>613.46</ele>
        <time>2010-10-10T08:06:26Z</time>
      </trkpt>
      <trkpt lat="43.21263" lon="6.35452">
        <ele>612.98</ele>
        <time>2010-10-10T08:06:27Z</time>
      </trkpt>
      <trkpt lat="43.21264" lon="6.35459">
        <ele>612.02</ele>
        <time>2010-10-10T08:06:28Z</time>
      </trkpt>
      <trkpt lat="43.21266" lon="6.35466">
        <ele>612.02</ele>
        <time>2010-10-10T08:06:29Z</time>
      </trkpt>
      <trkpt lat="43.21268" lon="6.35472">
        <ele>612.5</ele>
        <time>2010-10-10T08:06:30Z</time>
      </trkpt>
      <trkpt lat="43.2127" lon="6.35478">
        <ele>612.02</ele>
        <time>2010-10-10T08:06:31Z</time>
      </trkpt>
      <trkpt lat="43.21274" lon="6.3549">
        <ele>611.54</ele>
        <time>2010-10-10T08:06:33Z</time>
      </trkpt>
      <trkpt lat="43.21276" lon="6.35496">
        <ele>611.54</ele>
        <time>2010-10-10T08:06:34Z</time>
      </trkpt>
      <trkpt lat="43.21295" lon="6.3555">
        <ele>610.09</ele>
        <time>2010-10-10T08:06:43Z</time>
      </trkpt>
      <trkpt lat="43.21302" lon="6.35566">
        <ele>610.57</ele>
        <time>2010-10-10T08:06:46Z</time>
      </trkpt>
      <trkpt lat="43.21305" lon="6.35572">
        <ele>611.06</ele>
        <time>2010-10-10T08:06:47Z</time>
      </trkpt>
      <trkpt lat="43.21307" lon="6.35577">
        <ele>611.06</ele>
        <time>2010-10-10T08:06:48Z</time>
      </trkpt>
      <trkpt lat="43.2131" lon="6.35582">
        <ele>611.54</ele>
        <time>2010-10-10T08:06:49Z</time>
      </trkpt>
      <trkpt lat="43.21312" lon="6.35586">
        <ele>611.54</ele>
        <time>2010-10-10T08:06:50Z</time>
      </trkpt>
      <trkpt lat="43.21315" lon="6.35591">
        <ele>611.54</ele>
        <time>2010-10-10T08:06:51Z</time>
      </trkpt>
      <trkpt lat="43.21317" lon="6.35595">
        <ele>611.06</ele>
        <time>2010-10-10T08:06:52Z</time>
      </trkpt>
      <trkpt lat="43.2132" lon="6.356">
        <ele>609.61</ele>
        <time>2010-10-10T08:06:53Z</time>
      </trkpt>
      <trkpt lat="43.21322" lon="6.35605">
        <ele>609.61</ele>
        <time>2010-10-10T08:06:54Z</time>
      </trkpt>
      <trkpt lat="43.21323" lon="6.3561">
        <ele>611.54</ele>
        <time>2010-10-10T08:06:55Z</time>
      </trkpt>
      <trkpt lat="43.21325" lon="6.35616">
        <ele>612.5</ele>
        <time>2010-10-10T08:06:56Z</time>
      </trkpt>
      <trkpt lat="43.21326" lon="6.35622">
        <ele>612.02</ele>
        <time>2010-10-10T08:06:57Z</time>
      </trkpt>
      <trkpt lat="43.21328" lon="6.35634">
        <ele>611.06</ele>
        <time>2010-10-10T08:06:59Z</time>
      </trkpt>
      <trkpt lat="43.21333" lon="6.35652">
        <ele>610.57</ele>
        <time>2010-10-10T08:07:02Z</time>
      </trkpt>
      <trkpt lat="43.21336" lon="6.35658">
        <ele>610.57</ele>
        <time>2010-10-10T08:07:03Z</time>
      </trkpt>
      <trkpt lat="43.21339" lon="6.35664">
        <ele>610.57</ele>
        <time>2010-10-10T08:07:04Z</time>
      </trkpt>
      <trkpt lat="43.21348" lon="6.35679">
        <ele>611.54</ele>
        <time>2010-10-10T08:07:07Z</time>
      </trkpt>
      <trkpt lat="43.2137" lon="6.35712">
        <ele>612.5</ele>
        <time>2010-10-10T08:07:14Z</time>
      </trkpt>
      <trkpt lat="43.21372" lon="6.35717">
        <ele>611.54</ele>
        <time>2010-10-10T08:07:15Z</time>
      </trkpt>
      <trkpt lat="43.21388" lon="6.3576">
        <ele>612.98</ele>
        <time>2010-10-10T08:07:23Z</time>
      </trkpt>
      <trkpt lat="43.21395" lon="6.35782">
        <ele>613.94</ele>
        <time>2010-10-10T08:07:27Z</time>
      </trkpt>
      <trkpt lat="43.21402" lon="6.35796">
        <ele>614.42</ele>
        <time>2010-10-10T08:07:30Z</time>
      </trkpt>
      <trkpt lat="43.21425" lon="6.35831">
        <ele>614.9</ele>
        <time>2010-10-10T08:07:38Z</time>
      </trkpt>
      <trkpt lat="43.21441" lon="6.35865">
        <ele>616.34</ele>
        <time>2010-10-10T08:07:45Z</time>
      </trkpt>
      <trkpt lat="43.21456" lon="6.35897">
        <ele>616.82</ele>
        <time>2010-10-10T08:07:50Z</time>
      </trkpt>
      <trkpt lat="43.21459" lon="6.35902">
        <ele>616.82</ele>
        <time>2010-10-10T08:07:51Z</time>
      </trkpt>
      <trkpt lat="43.21462" lon="6.35908">
        <ele>615.86</ele>
        <time>2010-10-10T08:07:52Z</time>
      </trkpt>
      <trkpt lat="43.21491" lon="6.3595">
        <ele>616.34</ele>
        <time>2010-10-10T08:08:00Z</time>
      </trkpt>
      <trkpt lat="43.21518" lon="6.35996">
        <ele>616.34</ele>
        <time>2010-10-10T08:08:08Z</time>
      </trkpt>
      <trkpt lat="43.21529" lon="6.3602">
        <ele>616.34</ele>
        <time>2010-10-10T08:08:13Z</time>
      </trkpt>
      <trkpt lat="43.21534" lon="6.36029">
        <ele>615.86</ele>
        <time>2010-10-10T08:08:15Z</time>
      </trkpt>
      <trkpt lat="43.2154" lon="6.36039">
        <ele>615.86</ele>
        <time>2010-10-10T08:08:17Z</time>
      </trkpt>
      <trkpt lat="43.21543" lon="6.36044">
        <ele>615.86</ele>
        <time>2010-10-10T08:08:18Z</time>
      </trkpt>
      <trkpt lat="43.2156" lon="6.36076">
        <ele>615.38</ele>
        <time>2010-10-10T08:08:24Z</time>
      </trkpt>
      <trkpt lat="43.21564" lon="6.36081">
        <ele>615.38</ele>
        <time>2010-10-10T08:08:25Z</time>
      </trkpt>
      <trkpt lat="43.21604" lon="6.36126">
        <ele>614.9</ele>
        <time>2010-10-10T08:08:33Z</time>
      </trkpt>
      <trkpt lat="43.21643" lon="6.36163">
        <ele>613.46</ele>
        <time>2010-10-10T08:08:40Z</time>
      </trkpt>
      <trkpt lat="43.2167" lon="6.36191">
        <ele>614.42</ele>
        <time>2010-10-10T08:08:46Z</time>
      </trkpt>
      <trkpt lat="43.21679" lon="6.36198">
        <ele>613.46</ele>
        <time>2010-10-10T08:08:48Z</time>
      </trkpt>
      <trkpt lat="43.21684" lon="6.36199">
        <ele>613.46</ele>
        <time>2010-10-10T08:08:49Z</time>
      </trkpt>
      <trkpt lat="43.21689" lon="6.362">
        <ele>613.94</ele>
        <time>2010-10-10T08:08:50Z</time>
      </trkpt>
      <trkpt lat="43.21693" lon="6.362">
        <ele>613.46</ele>
        <time>2010-10-10T08:08:51Z</time>
      </trkpt>
      <trkpt lat="43.21698" lon="6.36199">
        <ele>613.94</ele>
        <time>2010-10-10T08:08:52Z</time>
      </trkpt>
      <trkpt lat="43.21704" lon="6.36198">
        <ele>613.46</ele>
        <time>2010-10-10T08:08:53Z</time>
      </trkpt>
      <trkpt lat="43.21709" lon="6.36199">
        <ele>613.46</ele>
        <time>2010-10-10T08:08:54Z</time>
      </trkpt>
      <trkpt lat="43.21714" lon="6.36202">
        <ele>613.46</ele>
        <time>2010-10-10T08:08:55Z</time>
      </trkpt>
      <trkpt lat="43.21719" lon="6.36206">
        <ele>614.42</ele>
        <time>2010-10-10T08:08:56Z</time>
      </trkpt>
      <trkpt lat="43.21723" lon="6.36212">
        <ele>613.94</ele>
        <time>2010-10-10T08:08:57Z</time>
      </trkpt>
      <trkpt lat="43.21727" lon="6.36217">
        <ele>613.46</ele>
        <time>2010-10-10T08:08:58Z</time>
      </trkpt>
      <trkpt lat="43.2173" lon="6.36223">
        <ele>613.46</ele>
        <time>2010-10-10T08:08:59Z</time>
      </trkpt>
      <trkpt lat="43.21735" lon="6.36237">
        <ele>612.5</ele>
        <time>2010-10-10T08:09:01Z</time>
      </trkpt>
      <trkpt lat="43.21736" lon="6.36245">
        <ele>612.5</ele>
        <time>2010-10-10T08:09:02Z</time>
      </trkpt>
      <trkpt lat="43.21736" lon="6.36254">
        <ele>612.02</ele>
        <time>2010-10-10T08:09:03Z</time>
      </trkpt>
      <trkpt lat="43.21736" lon="6.36264">
        <ele>611.06</ele>
        <time>2010-10-10T08:09:04Z</time>
      </trkpt>
      <trkpt lat="43.21736" lon="6.36273">
        <ele>611.06</ele>
        <time>2010-10-10T08:09:05Z</time>
      </trkpt>
      <trkpt lat="43.21736" lon="6.36282">
        <ele>610.57</ele>
        <time>2010-10-10T08:09:06Z</time>
      </trkpt>
      <trkpt lat="43.21735" lon="6.36291">
        <ele>609.61</ele>
        <time>2010-10-10T08:09:07Z</time>
      </trkpt>
      <trkpt lat="43.21734" lon="6.36309">
        <ele>609.13</ele>
        <time>2010-10-10T08:09:09Z</time>
      </trkpt>
      <trkpt lat="43.2173" lon="6.36359">
        <ele>607.21</ele>
        <time>2010-10-10T08:09:15Z</time>
      </trkpt>
      <trkpt lat="43.21728" lon="6.36367">
        <ele>606.25</ele>
        <time>2010-10-10T08:09:16Z</time>
      </trkpt>
      <trkpt lat="43.21726" lon="6.36375">
        <ele>606.25</ele>
        <time>2010-10-10T08:09:17Z</time>
      </trkpt>
      <trkpt lat="43.21725" lon="6.36383">
        <ele>605.29</ele>
        <time>2010-10-10T08:09:18Z</time>
      </trkpt>
      <trkpt lat="43.21726" lon="6.3639">
        <ele>604.33</ele>
        <time>2010-10-10T08:09:19Z</time>
      </trkpt>
      <trkpt lat="43.21728" lon="6.36398">
        <ele>603.85</ele>
        <time>2010-10-10T08:09:20Z</time>
      </trkpt>
      <trkpt lat="43.21732" lon="6.36404">
        <ele>602.88</ele>
        <time>2010-10-10T08:09:21Z</time>
      </trkpt>
      <trkpt lat="43.21738" lon="6.36409">
        <ele>601.92</ele>
        <time>2010-10-10T08:09:22Z</time>
      </trkpt>
      <trkpt lat="43.21744" lon="6.36411">
        <ele>601.92</ele>
        <time>2010-10-10T08:09:23Z</time>
      </trkpt>
      <trkpt lat="43.21751" lon="6.36412">
        <ele>601.92</ele>
        <time>2010-10-10T08:09:24Z</time>
      </trkpt>
      <trkpt lat="43.21758" lon="6.36413">
        <ele>602.4</ele>
        <time>2010-10-10T08:09:25Z</time>
      </trkpt>
      <trkpt lat="43.21765" lon="6.36414">
        <ele>601.92</ele>
        <time>2010-10-10T08:09:26Z</time>
      </trkpt>
      <trkpt lat="43.21772" lon="6.36417">
        <ele>601.44</ele>
        <time>2010-10-10T08:09:27Z</time>
      </trkpt>
      <trkpt lat="43.21779" lon="6.36421">
        <ele>600.96</ele>
        <time>2010-10-10T08:09:28Z</time>
      </trkpt>
      <trkpt lat="43.21786" lon="6.36426">
        <ele>600.48</ele>
        <time>2010-10-10T08:09:29Z</time>
      </trkpt>
      <trkpt lat="43.21792" lon="6.36432">
        <ele>600.96</ele>
        <time>2010-10-10T08:09:30Z</time>
      </trkpt>
      <trkpt lat="43.21796" lon="6.36439">
        <ele>600.48</ele>
        <time>2010-10-10T08:09:31Z</time>
      </trkpt>
      <trkpt lat="43.21799" lon="6.36448">
        <ele>600.48</ele>
        <time>2010-10-10T08:09:32Z</time>
      </trkpt>
      <trkpt lat="43.21802" lon="6.36457">
        <ele>600</ele>
        <time>2010-10-10T08:09:33Z</time>
      </trkpt>
      <trkpt lat="43.21806" lon="6.36465">
        <ele>599.04</ele>
        <time>2010-10-10T08:09:34Z</time>
      </trkpt>
      <trkpt lat="43.21811" lon="6.36472">
        <ele>598.56</ele>
        <time>2010-10-10T08:09:35Z</time>
      </trkpt>
      <trkpt lat="43.21817" lon="6.36476">
        <ele>599.04</ele>
        <time>2010-10-10T08:09:36Z</time>
      </trkpt>
      <trkpt lat="43.21823" lon="6.36478">
        <ele>599.04</ele>
        <time>2010-10-10T08:09:37Z</time>
      </trkpt>
      <trkpt lat="43.2183" lon="6.36479">
        <ele>598.08</ele>
        <time>2010-10-10T08:09:38Z</time>
      </trkpt>
      <trkpt lat="43.2185" lon="6.36483">
        <ele>597.12</ele>
        <time>2010-10-10T08:09:41Z</time>
      </trkpt>
      <trkpt lat="43.21856" lon="6.36487">
        <ele>597.12</ele>
        <time>2010-10-10T08:09:42Z</time>
      </trkpt>
      <trkpt lat="43.2186" lon="6.36493">
        <ele>597.12</ele>
        <time>2010-10-10T08:09:43Z</time>
      </trkpt>
      <trkpt lat="43.21862" lon="6.36499">
        <ele>597.12</ele>
        <time>2010-10-10T08:09:44Z</time>
      </trkpt>
      <trkpt lat="43.21862" lon="6.36507">
        <ele>597.12</ele>
        <time>2010-10-10T08:09:45Z</time>
      </trkpt>
      <trkpt lat="43.21862" lon="6.36515">
        <ele>596.15</ele>
        <time>2010-10-10T08:09:46Z</time>
      </trkpt>
      <trkpt lat="43.21864" lon="6.36522">
        <ele>595.67</ele>
        <time>2010-10-10T08:09:47Z</time>
      </trkpt>
      <trkpt lat="43.21867" lon="6.36528">
        <ele>595.67</ele>
        <time>2010-10-10T08:09:48Z</time>
      </trkpt>
      <trkpt lat="43.21871" lon="6.36533">
        <ele>595.19</ele>
        <time>2010-10-10T08:09:49Z</time>
      </trkpt>
      <trkpt lat="43.21876" lon="6.36537">
        <ele>594.71</ele>
        <time>2010-10-10T08:09:50Z</time>
      </trkpt>
      <trkpt lat="43.21881" lon="6.3654">
        <ele>594.23</ele>
        <time>2010-10-10T08:09:51Z</time>
      </trkpt>
      <trkpt lat="43.21886" lon="6.36542">
        <ele>594.23</ele>
        <time>2010-10-10T08:09:52Z</time>
      </trkpt>
      <trkpt lat="43.21903" lon="6.36549">
        <ele>592.79</ele>
        <time>2010-10-10T08:09:55Z</time>
      </trkpt>
      <trkpt lat="43.21909" lon="6.36553">
        <ele>592.79</ele>
        <time>2010-10-10T08:09:56Z</time>
      </trkpt>
      <trkpt lat="43.21918" lon="6.36565">
        <ele>592.31</ele>
        <time>2010-10-10T08:09:58Z</time>
      </trkpt>
      <trkpt lat="43.21923" lon="6.36572">
        <ele>591.83</ele>
        <time>2010-10-10T08:09:59Z</time>
      </trkpt>
      <trkpt lat="43.21926" lon="6.36579">
        <ele>591.35</ele>
        <time>2010-10-10T08:10:00Z</time>
      </trkpt>
      <trkpt lat="43.21927" lon="6.36587">
        <ele>590.87</ele>
        <time>2010-10-10T08:10:01Z</time>
      </trkpt>
      <trkpt lat="43.21927" lon="6.36594">
        <ele>590.39</ele>
        <time>2010-10-10T08:10:02Z</time>
      </trkpt>
      <trkpt lat="43.21925" lon="6.36601">
        <ele>590.39</ele>
        <time>2010-10-10T08:10:03Z</time>
      </trkpt>
      <trkpt lat="43.21923" lon="6.36608">
        <ele>589.91</ele>
        <time>2010-10-10T08:10:04Z</time>
      </trkpt>
      <trkpt lat="43.21915" lon="6.36637">
        <ele>589.91</ele>
        <time>2010-10-10T08:10:08Z</time>
      </trkpt>
      <trkpt lat="43.2191" lon="6.36666">
        <ele>592.31</ele>
        <time>2010-10-10T08:10:13Z</time>
      </trkpt>
      <trkpt lat="43.21908" lon="6.36664">
        <ele>592.79</ele>
        <time>2010-10-10T08:10:15Z</time>
      </trkpt>
      <trkpt lat="43.21909" lon="6.36662">
        <ele>591.83</ele>
        <time>2010-10-10T08:10:20Z</time>
      </trkpt>
      <trkpt lat="43.2191" lon="6.3666">
        <ele>590.87</ele>
        <time>2010-10-10T08:10:27Z</time>
      </trkpt>
      <trkpt lat="43.21912" lon="6.3666">
        <ele>590.39</ele>
        <time>2010-10-10T08:10:31Z</time>
      </trkpt>
      <trkpt lat="43.21913" lon="6.36662">
        <ele>590.87</ele>
        <time>2010-10-10T08:10:32Z</time>
      </trkpt>
      <trkpt lat="43.21914" lon="6.36663">
        <ele>590.87</ele>
        <time>2010-10-10T08:10:33Z</time>
      </trkpt>
      <trkpt lat="43.21915" lon="6.36664">
        <ele>591.83</ele>
        <time>2010-10-10T08:10:34Z</time>
      </trkpt>
      <trkpt lat="43.2192" lon="6.36674">
        <ele>594.23</ele>
        <time>2010-10-10T08:10:41Z</time>
      </trkpt>
      <trkpt lat="43.21929" lon="6.36676">
        <ele>595.19</ele>
        <time>2010-10-10T08:10:48Z</time>
      </trkpt>
      <trkpt lat="43.21931" lon="6.36676">
        <ele>595.67</ele>
        <time>2010-10-10T08:10:50Z</time>
      </trkpt>
      <trkpt lat="43.21936" lon="6.36678">
        <ele>595.19</ele>
        <time>2010-10-10T08:10:57Z</time>
      </trkpt>
      <trkpt lat="43.21938" lon="6.36679">
        <ele>596.15</ele>
        <time>2010-10-10T08:11:04Z</time>
      </trkpt>
      <trkpt lat="43.21938" lon="6.36678">
        <ele>596.15</ele>
        <time>2010-10-10T08:11:11Z</time>
      </trkpt>
      <trkpt lat="43.21938" lon="6.36678">
        <ele>596.15</ele>
        <time>2010-10-10T08:11:25Z</time>
      </trkpt>
      <trkpt lat="43.21939" lon="6.36678">
        <ele>596.64</ele>
        <time>2010-10-10T08:11:36Z</time>
      </trkpt>
      <trkpt lat="43.21942" lon="6.36677">
        <ele>596.64</ele>
        <time>2010-10-10T08:11:44Z</time>
      </trkpt>
      <trkpt lat="43.21942" lon="6.36674">
        <ele>595.19</ele>
        <time>2010-10-10T08:11:51Z</time>
      </trkpt>
      <trkpt lat="43.21943" lon="6.36673">
        <ele>593.27</ele>
        <time>2010-10-10T08:11:57Z</time>
      </trkpt>
      <trkpt lat="43.21944" lon="6.36672">
        <ele>593.75</ele>
        <time>2010-10-10T08:11:58Z</time>
      </trkpt>
      <trkpt lat="43.21947" lon="6.36673">
        <ele>592.31</ele>
        <time>2010-10-10T08:12:01Z</time>
      </trkpt>
      <trkpt lat="43.21951" lon="6.36674">
        <ele>593.27</ele>
        <time>2010-10-10T08:12:04Z</time>
      </trkpt>
      <trkpt lat="43.21953" lon="6.36674">
        <ele>593.27</ele>
        <time>2010-10-10T08:12:07Z</time>
      </trkpt>
      <trkpt lat="43.21956" lon="6.36674">
        <ele>591.83</ele>
        <time>2010-10-10T08:12:14Z</time>
      </trkpt>
      <trkpt lat="43.21956" lon="6.36674">
        <ele>592.31</ele>
        <time>2010-10-10T08:12:22Z</time>
      </trkpt>
      <trkpt lat="43.21956" lon="6.36674">
        <ele>590.39</ele>
        <time>2010-10-10T08:12:30Z</time>
      </trkpt>
      <trkpt lat="43.21967" lon="6.36673">
        <ele>587.98</ele>
        <time>2010-10-10T08:12:36Z</time>
      </trkpt>
      <trkpt lat="43.21974" lon="6.36669">
        <ele>586.54</ele>
        <time>2010-10-10T08:12:40Z</time>
      </trkpt>
      <trkpt lat="43.2198" lon="6.36667">
        <ele>583.18</ele>
        <time>2010-10-10T08:12:43Z</time>
      </trkpt>
      <trkpt lat="43.21987" lon="6.36662">
        <ele>579.81</ele>
        <time>2010-10-10T08:12:46Z</time>
      </trkpt>
      <trkpt lat="43.2199" lon="6.36661">
        <ele>578.85</ele>
        <time>2010-10-10T08:12:47Z</time>
      </trkpt>
      <trkpt lat="43.21996" lon="6.36657">
        <ele>575.49</ele>
        <time>2010-10-10T08:12:51Z</time>
      </trkpt>
      <trkpt lat="43.21999" lon="6.36648">
        <ele>572.6</ele>
        <time>2010-10-10T08:12:56Z</time>
      </trkpt>
      <trkpt lat="43.22007" lon="6.36644">
        <ele>569.24</ele>
        <time>2010-10-10T08:13:00Z</time>
      </trkpt>
      <trkpt lat="43.22009" lon="6.36641">
        <ele>567.8</ele>
        <time>2010-10-10T08:13:01Z</time>
      </trkpt>
      <trkpt lat="43.22011" lon="6.36636">
        <ele>566.35</ele>
        <time>2010-10-10T08:13:02Z</time>
      </trkpt>
      <trkpt lat="43.22015" lon="6.36621">
        <ele>562.99</ele>
        <time>2010-10-10T08:13:06Z</time>
      </trkpt>
      <trkpt lat="43.22017" lon="6.36615">
        <ele>561.55</ele>
        <time>2010-10-10T08:13:08Z</time>
      </trkpt>
      <trkpt lat="43.22027" lon="6.36611">
        <ele>557.22</ele>
        <time>2010-10-10T08:13:14Z</time>
      </trkpt>
      <trkpt lat="43.22029" lon="6.36609">
        <ele>556.74</ele>
        <time>2010-10-10T08:13:15Z</time>
      </trkpt>
      <trkpt lat="43.22035" lon="6.36606">
        <ele>554.34</ele>
        <time>2010-10-10T08:13:17Z</time>
      </trkpt>
      <trkpt lat="43.22044" lon="6.36608">
        <ele>550.01</ele>
        <time>2010-10-10T08:13:23Z</time>
      </trkpt>
      <trkpt lat="43.22045" lon="6.36607">
        <ele>546.65</ele>
        <time>2010-10-10T08:13:25Z</time>
      </trkpt>
      <trkpt lat="43.22057" lon="6.36597">
        <ele>541.84</ele>
        <time>2010-10-10T08:13:29Z</time>
      </trkpt>
      <trkpt lat="43.22068" lon="6.36597">
        <ele>538.48</ele>
        <time>2010-10-10T08:13:33Z</time>
      </trkpt>
      <trkpt lat="43.22074" lon="6.36601">
        <ele>537.03</ele>
        <time>2010-10-10T08:13:35Z</time>
      </trkpt>
      <trkpt lat="43.22075" lon="6.36602">
        <ele>536.55</ele>
        <time>2010-10-10T08:13:36Z</time>
      </trkpt>
      <trkpt lat="43.22082" lon="6.36605">
        <ele>535.11</ele>
        <time>2010-10-10T08:13:38Z</time>
      </trkpt>
      <trkpt lat="43.22086" lon="6.36609">
        <ele>533.19</ele>
        <time>2010-10-10T08:13:40Z</time>
      </trkpt>
      <trkpt lat="43.22101" lon="6.36628">
        <ele>532.23</ele>
        <time>2010-10-10T08:13:47Z</time>
      </trkpt>
      <trkpt lat="43.22118" lon="6.36638">
        <ele>528.86</ele>
        <time>2010-10-10T08:13:52Z</time>
      </trkpt>
      <trkpt lat="43.22129" lon="6.36645">
        <ele>525.5</ele>
        <time>2010-10-10T08:13:55Z</time>
      </trkpt>
      <trkpt lat="43.22135" lon="6.36647">
        <ele>524.06</ele>
        <time>2010-10-10T08:13:57Z</time>
      </trkpt>
      <trkpt lat="43.22145" lon="6.3665">
        <ele>522.61</ele>
        <time>2010-10-10T08:13:59Z</time>
      </trkpt>
      <trkpt lat="43.2215" lon="6.36652">
        <ele>521.65</ele>
        <time>2010-10-10T08:14:00Z</time>
      </trkpt>
      <trkpt lat="43.22163" lon="6.36664">
        <ele>518.29</ele>
        <time>2010-10-10T08:14:05Z</time>
      </trkpt>
      <trkpt lat="43.22165" lon="6.36666">
        <ele>518.29</ele>
        <time>2010-10-10T08:14:06Z</time>
      </trkpt>
      <trkpt lat="43.2218" lon="6.36675">
        <ele>514.92</ele>
        <time>2010-10-10T08:14:11Z</time>
      </trkpt>
      <trkpt lat="43.22183" lon="6.36677">
        <ele>514.92</ele>
        <time>2010-10-10T08:14:12Z</time>
      </trkpt>
      <trkpt lat="43.22199" lon="6.36679">
        <ele>513</ele>
        <time>2010-10-10T08:14:18Z</time>
      </trkpt>
      <trkpt lat="43.22212" lon="6.36679">
        <ele>511.08</ele>
        <time>2010-10-10T08:14:24Z</time>
      </trkpt>
      <trkpt lat="43.22226" lon="6.36683">
        <ele>509.16</ele>
        <time>2010-10-10T08:14:30Z</time>
      </trkpt>
      <trkpt lat="43.22241" lon="6.36685">
        <ele>505.79</ele>
        <time>2010-10-10T08:14:35Z</time>
      </trkpt>
      <trkpt lat="43.22245" lon="6.36685">
        <ele>505.79</ele>
        <time>2010-10-10T08:14:36Z</time>
      </trkpt>
      <trkpt lat="43.22256" lon="6.36688">
        <ele>503.39</ele>
        <time>2010-10-10T08:14:41Z</time>
      </trkpt>
      <trkpt lat="43.22259" lon="6.36687">
        <ele>502.91</ele>
        <time>2010-10-10T08:14:42Z</time>
      </trkpt>
      <trkpt lat="43.22261" lon="6.36686">
        <ele>501.95</ele>
        <time>2010-10-10T08:14:43Z</time>
      </trkpt>
      <trkpt lat="43.22263" lon="6.36686">
        <ele>500.98</ele>
        <time>2010-10-10T08:14:44Z</time>
      </trkpt>
      <trkpt lat="43.22266" lon="6.36686">
        <ele>500.5</ele>
        <time>2010-10-10T08:14:45Z</time>
      </trkpt>
      <trkpt lat="43.22268" lon="6.36687">
        <ele>500.02</ele>
        <time>2010-10-10T08:14:46Z</time>
      </trkpt>
      <trkpt lat="43.22271" lon="6.36687">
        <ele>498.58</ele>
        <time>2010-10-10T08:14:47Z</time>
      </trkpt>
      <trkpt lat="43.22273" lon="6.36687">
        <ele>498.1</ele>
        <time>2010-10-10T08:14:48Z</time>
      </trkpt>
      <trkpt lat="43.22276" lon="6.36688">
        <ele>497.14</ele>
        <time>2010-10-10T08:14:49Z</time>
      </trkpt>
      <trkpt lat="43.22279" lon="6.36688">
        <ele>496.66</ele>
        <time>2010-10-10T08:14:50Z</time>
      </trkpt>
      <trkpt lat="43.2228" lon="6.36689">
        <ele>495.7</ele>
        <time>2010-10-10T08:14:51Z</time>
      </trkpt>
      <trkpt lat="43.22283" lon="6.3669">
        <ele>495.22</ele>
        <time>2010-10-10T08:14:52Z</time>
      </trkpt>
      <trkpt lat="43.22286" lon="6.3669">
        <ele>494.26</ele>
        <time>2010-10-10T08:14:53Z</time>
      </trkpt>
      <trkpt lat="43.22289" lon="6.36691">
        <ele>493.77</ele>
        <time>2010-10-10T08:14:54Z</time>
      </trkpt>
      <trkpt lat="43.22297" lon="6.36694">
        <ele>491.37</ele>
        <time>2010-10-10T08:14:57Z</time>
      </trkpt>
      <trkpt lat="43.223" lon="6.36695">
        <ele>490.89</ele>
        <time>2010-10-10T08:14:58Z</time>
      </trkpt>
      <trkpt lat="43.2231" lon="6.36698">
        <ele>488.49</ele>
        <time>2010-10-10T08:15:01Z</time>
      </trkpt>
      <trkpt lat="43.22316" lon="6.36698">
        <ele>487.05</ele>
        <time>2010-10-10T08:15:03Z</time>
      </trkpt>
      <trkpt lat="43.22319" lon="6.36698">
        <ele>486.56</ele>
        <time>2010-10-10T08:15:04Z</time>
      </trkpt>
      <trkpt lat="43.22333" lon="6.36699">
        <ele>483.68</ele>
        <time>2010-10-10T08:15:09Z</time>
      </trkpt>
      <trkpt lat="43.22343" lon="6.36707">
        <ele>481.76</ele>
        <time>2010-10-10T08:15:13Z</time>
      </trkpt>
      <trkpt lat="43.22355" lon="6.36716">
        <ele>482.24</ele>
        <time>2010-10-10T08:15:18Z</time>
      </trkpt>
      <trkpt lat="43.22375" lon="6.36722">
        <ele>479.35</ele>
        <time>2010-10-10T08:15:25Z</time>
      </trkpt>
      <trkpt lat="43.22379" lon="6.36723">
        <ele>478.87</ele>
        <time>2010-10-10T08:15:26Z</time>
      </trkpt>
      <trkpt lat="43.22384" lon="6.36725">
        <ele>478.87</ele>
        <time>2010-10-10T08:15:27Z</time>
      </trkpt>
      <trkpt lat="43.22389" lon="6.36728">
        <ele>477.43</ele>
        <time>2010-10-10T08:15:28Z</time>
      </trkpt>
      <trkpt lat="43.22394" lon="6.36731">
        <ele>476.95</ele>
        <time>2010-10-10T08:15:29Z</time>
      </trkpt>
      <trkpt lat="43.22399" lon="6.36735">
        <ele>476.47</ele>
        <time>2010-10-10T08:15:30Z</time>
      </trkpt>
      <trkpt lat="43.22418" lon="6.36751">
        <ele>475.03</ele>
        <time>2010-10-10T08:15:34Z</time>
      </trkpt>
      <trkpt lat="43.22434" lon="6.3677">
        <ele>472.63</ele>
        <time>2010-10-10T08:15:39Z</time>
      </trkpt>
      <trkpt lat="43.22443" lon="6.36775">
        <ele>470.22</ele>
        <time>2010-10-10T08:15:41Z</time>
      </trkpt>
      <trkpt lat="43.22447" lon="6.36776">
        <ele>469.74</ele>
        <time>2010-10-10T08:15:42Z</time>
      </trkpt>
      <trkpt lat="43.22458" lon="6.36779">
        <ele>468.78</ele>
        <time>2010-10-10T08:15:44Z</time>
      </trkpt>
      <trkpt lat="43.22463" lon="6.36781">
        <ele>468.3</ele>
        <time>2010-10-10T08:15:45Z</time>
      </trkpt>
      <trkpt lat="43.22475" lon="6.36782">
        <ele>465.9</ele>
        <time>2010-10-10T08:15:48Z</time>
      </trkpt>
      <trkpt lat="43.22479" lon="6.36783">
        <ele>465.9</ele>
        <time>2010-10-10T08:15:49Z</time>
      </trkpt>
      <trkpt lat="43.22484" lon="6.36786">
        <ele>465.42</ele>
        <time>2010-10-10T08:15:50Z</time>
      </trkpt>
      <trkpt lat="43.22487" lon="6.36788">
        <ele>465.42</ele>
        <time>2010-10-10T08:15:51Z</time>
      </trkpt>
      <trkpt lat="43.2249" lon="6.36791">
        <ele>465.42</ele>
        <time>2010-10-10T08:15:52Z</time>
      </trkpt>
      <trkpt lat="43.22493" lon="6.36793">
        <ele>465.42</ele>
        <time>2010-10-10T08:15:53Z</time>
      </trkpt>
      <trkpt lat="43.22496" lon="6.36794">
        <ele>465.9</ele>
        <time>2010-10-10T08:15:54Z</time>
      </trkpt>
      <trkpt lat="43.22513" lon="6.36802">
        <ele>463.97</ele>
        <time>2010-10-10T08:16:00Z</time>
      </trkpt>
      <trkpt lat="43.22529" lon="6.368">
        <ele>462.05</ele>
        <time>2010-10-10T08:16:04Z</time>
      </trkpt>
      <trkpt lat="43.22532" lon="6.36798">
        <ele>461.57</ele>
        <time>2010-10-10T08:16:05Z</time>
      </trkpt>
      <trkpt lat="43.22535" lon="6.36796">
        <ele>460.61</ele>
        <time>2010-10-10T08:16:06Z</time>
      </trkpt>
      <trkpt lat="43.22539" lon="6.36793">
        <ele>460.61</ele>
        <time>2010-10-10T08:16:07Z</time>
      </trkpt>
      <trkpt lat="43.22543" lon="6.36789">
        <ele>459.65</ele>
        <time>2010-10-10T08:16:08Z</time>
      </trkpt>
      <trkpt lat="43.22558" lon="6.3678">
        <ele>456.76</ele>
        <time>2010-10-10T08:16:14Z</time>
      </trkpt>
      <trkpt lat="43.22571" lon="6.36773">
        <ele>454.36</ele>
        <time>2010-10-10T08:16:19Z</time>
      </trkpt>
      <trkpt lat="43.22584" lon="6.36761">
        <ele>451</ele>
        <time>2010-10-10T08:16:25Z</time>
      </trkpt>
      <trkpt lat="43.22592" lon="6.36756">
        <ele>450.03</ele>
        <time>2010-10-10T08:16:29Z</time>
      </trkpt>
      <trkpt lat="43.22593" lon="6.36754">
        <ele>449.55</ele>
        <time>2010-10-10T08:16:30Z</time>
      </trkpt>
      <trkpt lat="43.22596" lon="6.36751">
        <ele>448.59</ele>
        <time>2010-10-10T08:16:32Z</time>
      </trkpt>
      <trkpt lat="43.22607" lon="6.36739">
        <ele>445.71</ele>
        <time>2010-10-10T08:16:39Z</time>
      </trkpt>
      <trkpt lat="43.22607" lon="6.36738">
        <ele>445.23</ele>
        <time>2010-10-10T08:16:50Z</time>
      </trkpt>
      <trkpt lat="43.22612" lon="6.36732">
        <ele>444.75</ele>
        <time>2010-10-10T08:16:54Z</time>
      </trkpt>
      <trkpt lat="43.22615" lon="6.36728">
        <ele>444.27</ele>
        <time>2010-10-10T08:16:58Z</time>
      </trkpt>
      <trkpt lat="43.2262" lon="6.36721">
        <ele>444.75</ele>
        <time>2010-10-10T08:17:05Z</time>
      </trkpt>
      <trkpt lat="43.22622" lon="6.36717">
        <ele>444.75</ele>
        <time>2010-10-10T08:17:10Z</time>
      </trkpt>
      <trkpt lat="43.22627" lon="6.367">
        <ele>443.31</ele>
        <time>2010-10-10T08:17:17Z</time>
      </trkpt>
      <trkpt lat="43.22632" lon="6.36681">
        <ele>442.34</ele>
        <time>2010-10-10T08:17:24Z</time>
      </trkpt>
      <trkpt lat="43.22639" lon="6.36652">
        <ele>439.46</ele>
        <time>2010-10-10T08:17:31Z</time>
      </trkpt>
      <trkpt lat="43.22642" lon="6.36645">
        <ele>438.5</ele>
        <time>2010-10-10T08:17:33Z</time>
      </trkpt>
      <trkpt lat="43.22647" lon="6.36633">
        <ele>436.1</ele>
        <time>2010-10-10T08:17:37Z</time>
      </trkpt>
      <trkpt lat="43.22649" lon="6.36626">
        <ele>436.1</ele>
        <time>2010-10-10T08:17:40Z</time>
      </trkpt>
      <trkpt lat="43.22658" lon="6.36619">
        <ele>434.65</ele>
        <time>2010-10-10T08:17:46Z</time>
      </trkpt>
      <trkpt lat="43.2267" lon="6.36602">
        <ele>434.65</ele>
        <time>2010-10-10T08:17:52Z</time>
      </trkpt>
      <trkpt lat="43.22673" lon="6.36599">
        <ele>438.02</ele>
        <time>2010-10-10T08:17:53Z</time>
      </trkpt>
      <trkpt lat="43.22675" lon="6.36595">
        <ele>434.65</ele>
        <time>2010-10-10T08:17:54Z</time>
      </trkpt>
      <trkpt lat="43.22684" lon="6.36586">
        <ele>433.69</ele>
        <time>2010-10-10T08:17:57Z</time>
      </trkpt>
      <trkpt lat="43.22706" lon="6.36576">
        <ele>434.65</ele>
        <time>2010-10-10T08:18:05Z</time>
      </trkpt>
      <trkpt lat="43.22719" lon="6.3657">
        <ele>436.1</ele>
        <time>2010-10-10T08:18:10Z</time>
      </trkpt>
      <trkpt lat="43.22733" lon="6.36558">
        <ele>436.58</ele>
        <time>2010-10-10T08:18:15Z</time>
      </trkpt>
      <trkpt lat="43.22736" lon="6.36555">
        <ele>436.1</ele>
        <time>2010-10-10T08:18:16Z</time>
      </trkpt>
      <trkpt lat="43.2275" lon="6.36551">
        <ele>435.61</ele>
        <time>2010-10-10T08:18:20Z</time>
      </trkpt>
      <trkpt lat="43.22761" lon="6.36551">
        <ele>434.65</ele>
        <time>2010-10-10T08:18:24Z</time>
      </trkpt>
      <trkpt lat="43.22783" lon="6.36556">
        <ele>434.17</ele>
        <time>2010-10-10T08:18:31Z</time>
      </trkpt>
      <trkpt lat="43.22805" lon="6.36562">
        <ele>434.65</ele>
        <time>2010-10-10T08:18:38Z</time>
      </trkpt>
      <trkpt lat="43.22816" lon="6.36564">
        <ele>435.61</ele>
        <time>2010-10-10T08:18:42Z</time>
      </trkpt>
      <trkpt lat="43.22842" lon="6.36567">
        <ele>435.61</ele>
        <time>2010-10-10T08:18:49Z</time>
      </trkpt>
      <trkpt lat="43.22864" lon="6.36565">
        <ele>436.58</ele>
        <time>2010-10-10T08:18:55Z</time>
      </trkpt>
      <trkpt lat="43.22885" lon="6.36566">
        <ele>436.58</ele>
        <time>2010-10-10T08:19:01Z</time>
      </trkpt>
      <trkpt lat="43.22906" lon="6.36569">
        <ele>436.1</ele>
        <time>2010-10-10T08:19:07Z</time>
      </trkpt>
      <trkpt lat="43.22924" lon="6.36567">
        <ele>434.17</ele>
        <time>2010-10-10T08:19:12Z</time>
      </trkpt>
      <trkpt lat="43.22946" lon="6.3657">
        <ele>433.21</ele>
        <time>2010-10-10T08:19:17Z</time>
      </trkpt>
      <trkpt lat="43.22966" lon="6.36576">
        <ele>430.81</ele>
        <time>2010-10-10T08:19:22Z</time>
      </trkpt>
      <trkpt lat="43.22977" lon="6.36579">
        <ele>427.44</ele>
        <time>2010-10-10T08:19:25Z</time>
      </trkpt>
      <trkpt lat="43.22991" lon="6.36586">
        <ele>425.04</ele>
        <time>2010-10-10T08:19:29Z</time>
      </trkpt>
      <trkpt lat="43.23005" lon="6.36594">
        <ele>422.16</ele>
        <time>2010-10-10T08:19:33Z</time>
      </trkpt>
      <trkpt lat="43.23022" lon="6.36606">
        <ele>419.27</ele>
        <time>2010-10-10T08:19:38Z</time>
      </trkpt>
      <trkpt lat="43.23032" lon="6.36621">
        <ele>415.43</ele>
        <time>2010-10-10T08:19:42Z</time>
      </trkpt>
      <trkpt lat="43.2304" lon="6.36638">
        <ele>412.06</ele>
        <time>2010-10-10T08:19:46Z</time>
      </trkpt>
      <trkpt lat="43.2305" lon="6.36655">
        <ele>408.7</ele>
        <time>2010-10-10T08:19:50Z</time>
      </trkpt>
      <trkpt lat="43.2306" lon="6.36663">
        <ele>405.81</ele>
        <time>2010-10-10T08:19:54Z</time>
      </trkpt>
      <trkpt lat="43.23081" lon="6.36666">
        <ele>401.97</ele>
        <time>2010-10-10T08:20:00Z</time>
      </trkpt>
      <trkpt lat="43.23097" lon="6.36671">
        <ele>398.12</ele>
        <time>2010-10-10T08:20:04Z</time>
      </trkpt>
      <trkpt lat="43.23102" lon="6.36671">
        <ele>397.64</ele>
        <time>2010-10-10T08:20:05Z</time>
      </trkpt>
      <trkpt lat="43.23117" lon="6.36673">
        <ele>394.76</ele>
        <time>2010-10-10T08:20:08Z</time>
      </trkpt>
      <trkpt lat="43.23121" lon="6.36672">
        <ele>394.28</ele>
        <time>2010-10-10T08:20:09Z</time>
      </trkpt>
      <trkpt lat="43.2313" lon="6.36669">
        <ele>391.87</ele>
        <time>2010-10-10T08:20:11Z</time>
      </trkpt>
      <trkpt lat="43.23135" lon="6.36668">
        <ele>390.91</ele>
        <time>2010-10-10T08:20:12Z</time>
      </trkpt>
      <trkpt lat="43.23139" lon="6.36666">
        <ele>390.43</ele>
        <time>2010-10-10T08:20:13Z</time>
      </trkpt>
      <trkpt lat="43.23148" lon="6.36661">
        <ele>388.99</ele>
        <time>2010-10-10T08:20:15Z</time>
      </trkpt>
      <trkpt lat="43.23157" lon="6.36657">
        <ele>386.11</ele>
        <time>2010-10-10T08:20:17Z</time>
      </trkpt>
      <trkpt lat="43.23161" lon="6.36654">
        <ele>385.63</ele>
        <time>2010-10-10T08:20:18Z</time>
      </trkpt>
      <trkpt lat="43.23164" lon="6.3665">
        <ele>384.18</ele>
        <time>2010-10-10T08:20:19Z</time>
      </trkpt>
      <trkpt lat="43.23167" lon="6.36647">
        <ele>383.7</ele>
        <time>2010-10-10T08:20:20Z</time>
      </trkpt>
      <trkpt lat="43.23171" lon="6.36644">
        <ele>382.26</ele>
        <time>2010-10-10T08:20:21Z</time>
      </trkpt>
      <trkpt lat="43.23174" lon="6.36642">
        <ele>381.3</ele>
        <time>2010-10-10T08:20:22Z</time>
      </trkpt>
      <trkpt lat="43.23178" lon="6.36639">
        <ele>380.34</ele>
        <time>2010-10-10T08:20:23Z</time>
      </trkpt>
      <trkpt lat="43.23183" lon="6.36636">
        <ele>379.38</ele>
        <time>2010-10-10T08:20:24Z</time>
      </trkpt>
      <trkpt lat="43.23188" lon="6.36631">
        <ele>377.94</ele>
        <time>2010-10-10T08:20:25Z</time>
      </trkpt>
      <trkpt lat="43.23193" lon="6.36627">
        <ele>376.49</ele>
        <time>2010-10-10T08:20:26Z</time>
      </trkpt>
      <trkpt lat="43.23205" lon="6.36618">
        <ele>373.61</ele>
        <time>2010-10-10T08:20:28Z</time>
      </trkpt>
      <trkpt lat="43.23216" lon="6.3661">
        <ele>371.69</ele>
        <time>2010-10-10T08:20:30Z</time>
      </trkpt>
      <trkpt lat="43.2322" lon="6.36604">
        <ele>371.69</ele>
        <time>2010-10-10T08:20:31Z</time>
      </trkpt>
      <trkpt lat="43.23224" lon="6.36598">
        <ele>371.21</ele>
        <time>2010-10-10T08:20:32Z</time>
      </trkpt>
      <trkpt lat="43.23236" lon="6.36581">
        <ele>368.8</ele>
        <time>2010-10-10T08:20:35Z</time>
      </trkpt>
      <trkpt lat="43.2324" lon="6.36575">
        <ele>368.32</ele>
        <time>2010-10-10T08:20:36Z</time>
      </trkpt>
      <trkpt lat="43.23249" lon="6.36556">
        <ele>366.88</ele>
        <time>2010-10-10T08:20:39Z</time>
      </trkpt>
      <trkpt lat="43.23253" lon="6.36545">
        <ele>365.92</ele>
        <time>2010-10-10T08:20:42Z</time>
      </trkpt>
      <trkpt lat="43.23252" lon="6.36543">
        <ele>365.44</ele>
        <time>2010-10-10T08:20:43Z</time>
      </trkpt>
      <trkpt lat="43.23251" lon="6.36542">
        <ele>365.44</ele>
        <time>2010-10-10T08:20:44Z</time>
      </trkpt>
      <trkpt lat="43.23249" lon="6.36542">
        <ele>364.96</ele>
        <time>2010-10-10T08:20:45Z</time>
      </trkpt>
      <trkpt lat="43.23247" lon="6.36543">
        <ele>364.96</ele>
        <time>2010-10-10T08:20:46Z</time>
      </trkpt>
      <trkpt lat="43.23245" lon="6.36544">
        <ele>360.63</ele>
        <time>2010-10-10T08:20:47Z</time>
      </trkpt>
      <trkpt lat="43.23242" lon="6.36545">
        <ele>366.4</ele>
        <time>2010-10-10T08:20:48Z</time>
      </trkpt>
      <trkpt lat="43.23236" lon="6.36547">
        <ele>366.88</ele>
        <time>2010-10-10T08:20:52Z</time>
      </trkpt>
      <trkpt lat="43.23235" lon="6.36547">
        <ele>366.4</ele>
        <time>2010-10-10T08:20:53Z</time>
      </trkpt>
      <trkpt lat="43.23233" lon="6.36548">
        <ele>366.4</ele>
        <time>2010-10-10T08:21:01Z</time>
      </trkpt>
      <trkpt lat="43.23233" lon="6.36548">
        <ele>367.36</ele>
        <time>2010-10-10T08:21:15Z</time>
      </trkpt>
      <trkpt lat="43.2323" lon="6.36549">
        <ele>366.88</ele>
        <time>2010-10-10T08:21:19Z</time>
      </trkpt>
      <trkpt lat="43.23227" lon="6.3655">
        <ele>366.88</ele>
        <time>2010-10-10T08:21:20Z</time>
      </trkpt>
      <trkpt lat="43.23225" lon="6.36551">
        <ele>366.88</ele>
        <time>2010-10-10T08:21:21Z</time>
      </trkpt>
      <trkpt lat="43.23204" lon="6.36556">
        <ele>366.4</ele>
        <time>2010-10-10T08:21:27Z</time>
      </trkpt>
      <trkpt lat="43.23196" lon="6.36557">
        <ele>367.36</ele>
        <time>2010-10-10T08:21:29Z</time>
      </trkpt>
      <trkpt lat="43.23192" lon="6.36556">
        <ele>367.36</ele>
        <time>2010-10-10T08:21:30Z</time>
      </trkpt>
      <trkpt lat="43.23188" lon="6.36556">
        <ele>367.36</ele>
        <time>2010-10-10T08:21:31Z</time>
      </trkpt>
      <trkpt lat="43.23159" lon="6.36557">
        <ele>366.4</ele>
        <time>2010-10-10T08:21:39Z</time>
      </trkpt>
      <trkpt lat="43.2315" lon="6.36557">
        <ele>366.88</ele>
        <time>2010-10-10T08:21:42Z</time>
      </trkpt>
      <trkpt lat="43.23147" lon="6.36537">
        <ele>367.84</ele>
        <time>2010-10-10T08:21:47Z</time>
      </trkpt>
      <trkpt lat="43.23151" lon="6.36494">
        <ele>367.84</ele>
        <time>2010-10-10T08:21:56Z</time>
      </trkpt>
      <trkpt lat="43.23152" lon="6.36449">
        <ele>368.8</ele>
        <time>2010-10-10T08:22:04Z</time>
      </trkpt>
      <trkpt lat="43.23142" lon="6.36422">
        <ele>368.8</ele>
        <time>2010-10-10T08:22:10Z</time>
      </trkpt>
      <trkpt lat="43.23123" lon="6.36417">
        <ele>369.76</ele>
        <time>2010-10-10T08:22:15Z</time>
      </trkpt>
      <trkpt lat="43.23099" lon="6.36416">
        <ele>370.73</ele>
        <time>2010-10-10T08:22:22Z</time>
      </trkpt>
      <trkpt lat="43.23077" lon="6.36416">
        <ele>371.21</ele>
        <time>2010-10-10T08:22:28Z</time>
      </trkpt>
      <trkpt lat="43.23075" lon="6.36413">
        <ele>371.21</ele>
        <time>2010-10-10T08:22:29Z</time>
      </trkpt>
      <trkpt lat="43.23073" lon="6.36408">
        <ele>371.69</ele>
        <time>2010-10-10T08:22:30Z</time>
      </trkpt>
      <trkpt lat="43.23072" lon="6.36405">
        <ele>371.69</ele>
        <time>2010-10-10T08:22:31Z</time>
      </trkpt>
      <trkpt lat="43.23071" lon="6.36402">
        <ele>372.17</ele>
        <time>2010-10-10T08:22:32Z</time>
      </trkpt>
      <trkpt lat="43.23062" lon="6.36384">
        <ele>373.13</ele>
        <time>2010-10-10T08:22:38Z</time>
      </trkpt>
      <trkpt lat="43.23047" lon="6.36371">
        <ele>374.57</ele>
        <time>2010-10-10T08:22:44Z</time>
      </trkpt>
      <trkpt lat="43.23035" lon="6.36359">
        <ele>375.05</ele>
        <time>2010-10-10T08:22:50Z</time>
      </trkpt>
      <trkpt lat="43.23017" lon="6.36351">
        <ele>376.01</ele>
        <time>2010-10-10T08:22:57Z</time>
      </trkpt>
      <trkpt lat="43.22998" lon="6.36357">
        <ele>377.45</ele>
        <time>2010-10-10T08:23:03Z</time>
      </trkpt>
      <trkpt lat="43.22972" lon="6.36378">
        <ele>378.42</ele>
        <time>2010-10-10T08:23:12Z</time>
      </trkpt>
      <trkpt lat="43.22949" lon="6.36392">
        <ele>379.38</ele>
        <time>2010-10-10T08:23:20Z</time>
      </trkpt>
      <trkpt lat="43.2293" lon="6.36399">
        <ele>380.34</ele>
        <time>2010-10-10T08:23:26Z</time>
      </trkpt>
      <trkpt lat="43.22911" lon="6.36406">
        <ele>380.34</ele>
        <time>2010-10-10T08:23:33Z</time>
      </trkpt>
      <trkpt lat="43.22891" lon="6.3641">
        <ele>381.3</ele>
        <time>2010-10-10T08:23:39Z</time>
      </trkpt>
      <trkpt lat="43.22883" lon="6.364">
        <ele>381.78</ele>
        <time>2010-10-10T08:23:42Z</time>
      </trkpt>
      <trkpt lat="43.22882" lon="6.36396">
        <ele>381.3</ele>
        <time>2010-10-10T08:23:43Z</time>
      </trkpt>
      <trkpt lat="43.22882" lon="6.36392">
        <ele>381.3</ele>
        <time>2010-10-10T08:23:44Z</time>
      </trkpt>
      <trkpt lat="43.22883" lon="6.36388">
        <ele>381.3</ele>
        <time>2010-10-10T08:23:45Z</time>
      </trkpt>
      <trkpt lat="43.22885" lon="6.36385">
        <ele>381.78</ele>
        <time>2010-10-10T08:23:46Z</time>
      </trkpt>
      <trkpt lat="43.22887" lon="6.36383">
        <ele>382.26</ele>
        <time>2010-10-10T08:23:47Z</time>
      </trkpt>
      <trkpt lat="43.22889" lon="6.36381">
        <ele>382.26</ele>
        <time>2010-10-10T08:23:48Z</time>
      </trkpt>
      <trkpt lat="43.22891" lon="6.36379">
        <ele>382.26</ele>
        <time>2010-10-10T08:23:49Z</time>
      </trkpt>
      <trkpt lat="43.22893" lon="6.36376">
        <ele>382.74</ele>
        <time>2010-10-10T08:23:50Z</time>
      </trkpt>
      <trkpt lat="43.22907" lon="6.3635">
        <ele>383.22</ele>
        <time>2010-10-10T08:23:59Z</time>
      </trkpt>
      <trkpt lat="43.22911" lon="6.36345">
        <ele>383.7</ele>
        <time>2010-10-10T08:24:01Z</time>
      </trkpt>
      <trkpt lat="43.22913" lon="6.36342">
        <ele>383.22</ele>
        <time>2010-10-10T08:24:02Z</time>
      </trkpt>
      <trkpt lat="43.22925" lon="6.36324">
        <ele>384.18</ele>
        <time>2010-10-10T08:24:09Z</time>
      </trkpt>
      <trkpt lat="43.22933" lon="6.36313">
        <ele>384.66</ele>
        <time>2010-10-10T08:24:13Z</time>
      </trkpt>
      <trkpt lat="43.22935" lon="6.3631">
        <ele>384.66</ele>
        <time>2010-10-10T08:24:14Z</time>
      </trkpt>
      <trkpt lat="43.22936" lon="6.36307">
        <ele>384.66</ele>
        <time>2010-10-10T08:24:15Z</time>
      </trkpt>
      <trkpt lat="43.22936" lon="6.36304">
        <ele>384.66</ele>
        <time>2010-10-10T08:24:16Z</time>
      </trkpt>
      <trkpt lat="43.22936" lon="6.36301">
        <ele>385.15</ele>
        <time>2010-10-10T08:24:17Z</time>
      </trkpt>
      <trkpt lat="43.22935" lon="6.36297">
        <ele>385.15</ele>
        <time>2010-10-10T08:24:18Z</time>
      </trkpt>
      <trkpt lat="43.22935" lon="6.36293">
        <ele>385.63</ele>
        <time>2010-10-10T08:24:19Z</time>
      </trkpt>
      <trkpt lat="43.22935" lon="6.36289">
        <ele>385.15</ele>
        <time>2010-10-10T08:24:20Z</time>
      </trkpt>
      <trkpt lat="43.22935" lon="6.36285">
        <ele>386.11</ele>
        <time>2010-10-10T08:24:21Z</time>
      </trkpt>
      <trkpt lat="43.22936" lon="6.36282">
        <ele>386.11</ele>
        <time>2010-10-10T08:24:22Z</time>
      </trkpt>
      <trkpt lat="43.22936" lon="6.36279">
        <ele>386.59</ele>
        <time>2010-10-10T08:24:23Z</time>
      </trkpt>
      <trkpt lat="43.22942" lon="6.36259">
        <ele>387.55</ele>
        <time>2010-10-10T08:24:29Z</time>
      </trkpt>
      <trkpt lat="43.22946" lon="6.3625">
        <ele>387.55</ele>
        <time>2010-10-10T08:24:32Z</time>
      </trkpt>
      <trkpt lat="43.22947" lon="6.36248">
        <ele>387.55</ele>
        <time>2010-10-10T08:24:33Z</time>
      </trkpt>
      <trkpt lat="43.22949" lon="6.36245">
        <ele>388.03</ele>
        <time>2010-10-10T08:24:34Z</time>
      </trkpt>
      <trkpt lat="43.22951" lon="6.36242">
        <ele>388.51</ele>
        <time>2010-10-10T08:24:35Z</time>
      </trkpt>
      <trkpt lat="43.22954" lon="6.36239">
        <ele>388.51</ele>
        <time>2010-10-10T08:24:36Z</time>
      </trkpt>
      <trkpt lat="43.22956" lon="6.36237">
        <ele>388.99</ele>
        <time>2010-10-10T08:24:37Z</time>
      </trkpt>
      <trkpt lat="43.22962" lon="6.36229">
        <ele>389.47</ele>
        <time>2010-10-10T08:24:40Z</time>
      </trkpt>
      <trkpt lat="43.22964" lon="6.36223">
        <ele>389.47</ele>
        <time>2010-10-10T08:24:42Z</time>
      </trkpt>
      <trkpt lat="43.22966" lon="6.36193">
        <ele>390.91</ele>
        <time>2010-10-10T08:24:50Z</time>
      </trkpt>
      <trkpt lat="43.22968" lon="6.36168">
        <ele>391.87</ele>
        <time>2010-10-10T08:24:57Z</time>
      </trkpt>
      <trkpt lat="43.2297" lon="6.36148">
        <ele>391.87</ele>
        <time>2010-10-10T08:25:03Z</time>
      </trkpt>
      <trkpt lat="43.22973" lon="6.36147">
        <ele>392.36</ele>
        <time>2010-10-10T08:25:04Z</time>
      </trkpt>
      <trkpt lat="43.22975" lon="6.36146">
        <ele>392.36</ele>
        <time>2010-10-10T08:25:05Z</time>
      </trkpt>
      <trkpt lat="43.22994" lon="6.36147">
        <ele>391.87</ele>
        <time>2010-10-10T08:25:12Z</time>
      </trkpt>
      <trkpt lat="43.23" lon="6.36146">
        <ele>393.32</ele>
        <time>2010-10-10T08:25:15Z</time>
      </trkpt>
      <trkpt lat="43.23019" lon="6.36148">
        <ele>393.32</ele>
        <time>2010-10-10T08:25:21Z</time>
      </trkpt>
      <trkpt lat="43.23034" lon="6.36152">
        <ele>393.8</ele>
        <time>2010-10-10T08:25:27Z</time>
      </trkpt>
      <trkpt lat="43.23053" lon="6.36152">
        <ele>393.8</ele>
        <time>2010-10-10T08:25:33Z</time>
      </trkpt>
      <trkpt lat="43.23072" lon="6.3615">
        <ele>394.76</ele>
        <time>2010-10-10T08:25:40Z</time>
      </trkpt>
      <trkpt lat="43.23092" lon="6.36151">
        <ele>397.16</ele>
        <time>2010-10-10T08:25:47Z</time>
      </trkpt>
      <trkpt lat="43.23115" lon="6.36141">
        <ele>398.12</ele>
        <time>2010-10-10T08:25:54Z</time>
      </trkpt>
      <trkpt lat="43.23129" lon="6.36116">
        <ele>400.05</ele>
        <time>2010-10-10T08:26:01Z</time>
      </trkpt>
      <trkpt lat="43.23135" lon="6.36092">
        <ele>401.49</ele>
        <time>2010-10-10T08:26:07Z</time>
      </trkpt>
      <trkpt lat="43.2314" lon="6.36059">
        <ele>403.41</ele>
        <time>2010-10-10T08:26:15Z</time>
      </trkpt>
      <trkpt lat="43.23141" lon="6.36032">
        <ele>404.37</ele>
        <time>2010-10-10T08:26:22Z</time>
      </trkpt>
      <trkpt lat="43.23144" lon="6.36">
        <ele>405.33</ele>
        <time>2010-10-10T08:26:30Z</time>
      </trkpt>
      <trkpt lat="43.23144" lon="6.35993">
        <ele>406.77</ele>
        <time>2010-10-10T08:26:35Z</time>
      </trkpt>
      <trkpt lat="43.23145" lon="6.35985">
        <ele>406.29</ele>
        <time>2010-10-10T08:26:40Z</time>
      </trkpt>
      <trkpt lat="43.23145" lon="6.35983">
        <ele>406.77</ele>
        <time>2010-10-10T08:26:41Z</time>
      </trkpt>
      <trkpt lat="43.23145" lon="6.35981">
        <ele>401.97</ele>
        <time>2010-10-10T08:26:43Z</time>
      </trkpt>
      <trkpt lat="43.23145" lon="6.35981">
        <ele>407.26</ele>
        <time>2010-10-10T08:26:44Z</time>
      </trkpt>
      <trkpt lat="43.23145" lon="6.3598">
        <ele>408.22</ele>
        <time>2010-10-10T08:26:46Z</time>
      </trkpt>
      <trkpt lat="43.23145" lon="6.35979">
        <ele>407.74</ele>
        <time>2010-10-10T08:26:55Z</time>
      </trkpt>
      <trkpt lat="43.23145" lon="6.35978">
        <ele>406.77</ele>
        <time>2010-10-10T08:27:03Z</time>
      </trkpt>
      <trkpt lat="43.23145" lon="6.35978">
        <ele>406.77</ele>
        <time>2010-10-10T08:27:20Z</time>
      </trkpt>
      <trkpt lat="43.23145" lon="6.35978">
        <ele>405.81</ele>
        <time>2010-10-10T08:27:35Z</time>
      </trkpt>
      <trkpt lat="43.23145" lon="6.35978">
        <ele>406.29</ele>
        <time>2010-10-10T08:27:53Z</time>
      </trkpt>
      <trkpt lat="43.23145" lon="6.35978">
        <ele>406.29</ele>
        <time>2010-10-10T08:28:08Z</time>
      </trkpt>
      <trkpt lat="43.23144" lon="6.35975">
        <ele>407.26</ele>
        <time>2010-10-10T08:28:19Z</time>
      </trkpt>
      <trkpt lat="43.23143" lon="6.35968">
        <ele>406.77</ele>
        <time>2010-10-10T08:28:22Z</time>
      </trkpt>
      <trkpt lat="43.23142" lon="6.35948">
        <ele>406.77</ele>
        <time>2010-10-10T08:28:28Z</time>
      </trkpt>
      <trkpt lat="43.23137" lon="6.35922">
        <ele>407.74</ele>
        <time>2010-10-10T08:28:35Z</time>
      </trkpt>
      <trkpt lat="43.23136" lon="6.359">
        <ele>407.74</ele>
        <time>2010-10-10T08:28:41Z</time>
      </trkpt>
      <trkpt lat="43.23137" lon="6.35896">
        <ele>407.74</ele>
        <time>2010-10-10T08:28:42Z</time>
      </trkpt>
      <trkpt lat="43.2314" lon="6.35873">
        <ele>409.18</ele>
        <time>2010-10-10T08:28:48Z</time>
      </trkpt>
      <trkpt lat="43.23141" lon="6.35864">
        <ele>409.66</ele>
        <time>2010-10-10T08:28:50Z</time>
      </trkpt>
      <trkpt lat="43.23142" lon="6.35861">
        <ele>409.66</ele>
        <time>2010-10-10T08:28:51Z</time>
      </trkpt>
      <trkpt lat="43.23151" lon="6.3584">
        <ele>412.06</ele>
        <time>2010-10-10T08:28:57Z</time>
      </trkpt>
      <trkpt lat="43.23155" lon="6.35824">
        <ele>412.06</ele>
        <time>2010-10-10T08:29:00Z</time>
      </trkpt>
      <trkpt lat="43.23155" lon="6.3582">
        <ele>412.54</ele>
        <time>2010-10-10T08:29:01Z</time>
      </trkpt>
      <trkpt lat="43.23154" lon="6.35816">
        <ele>413.02</ele>
        <time>2010-10-10T08:29:02Z</time>
      </trkpt>
      <trkpt lat="43.23153" lon="6.35789">
        <ele>413.5</ele>
        <time>2010-10-10T08:29:08Z</time>
      </trkpt>
      <trkpt lat="43.23156" lon="6.35763">
        <ele>414.47</ele>
        <time>2010-10-10T08:29:14Z</time>
      </trkpt>
      <trkpt lat="43.23154" lon="6.35733">
        <ele>414.95</ele>
        <time>2010-10-10T08:29:21Z</time>
      </trkpt>
      <trkpt lat="43.23137" lon="6.35716">
        <ele>416.87</ele>
        <time>2010-10-10T08:29:27Z</time>
      </trkpt>
      <trkpt lat="43.23117" lon="6.3572">
        <ele>415.91</ele>
        <time>2010-10-10T08:29:33Z</time>
      </trkpt>
      <trkpt lat="43.23094" lon="6.35729">
        <ele>416.87</ele>
        <time>2010-10-10T08:29:40Z</time>
      </trkpt>
      <trkpt lat="43.23073" lon="6.35736">
        <ele>417.35</ele>
        <time>2010-10-10T08:29:47Z</time>
      </trkpt>
      <trkpt lat="43.23044" lon="6.35735">
        <ele>418.31</ele>
        <time>2010-10-10T08:29:56Z</time>
      </trkpt>
      <trkpt lat="43.23022" lon="6.35735">
        <ele>419.27</ele>
        <time>2010-10-10T08:30:03Z</time>
      </trkpt>
      <trkpt lat="43.22994" lon="6.35729">
        <ele>419.75</ele>
        <time>2010-10-10T08:30:11Z</time>
      </trkpt>
      <trkpt lat="43.22972" lon="6.35713">
        <ele>419.75</ele>
        <time>2010-10-10T08:30:19Z</time>
      </trkpt>
      <trkpt lat="43.22962" lon="6.3569">
        <ele>420.71</ele>
        <time>2010-10-10T08:30:26Z</time>
      </trkpt>
      <trkpt lat="43.22946" lon="6.35671">
        <ele>421.19</ele>
        <time>2010-10-10T08:30:33Z</time>
      </trkpt>
      <trkpt lat="43.22927" lon="6.3567">
        <ele>420.71</ele>
        <time>2010-10-10T08:30:39Z</time>
      </trkpt>
      <trkpt lat="43.22904" lon="6.35665">
        <ele>421.68</ele>
        <time>2010-10-10T08:30:46Z</time>
      </trkpt>
      <trkpt lat="43.22881" lon="6.35652">
        <ele>422.64</ele>
        <time>2010-10-10T08:30:54Z</time>
      </trkpt>
      <trkpt lat="43.2286" lon="6.35647">
        <ele>423.12</ele>
        <time>2010-10-10T08:31:02Z</time>
      </trkpt>
      <trkpt lat="43.22853" lon="6.35653">
        <ele>423.6</ele>
        <time>2010-10-10T08:31:05Z</time>
      </trkpt>
      <trkpt lat="43.22852" lon="6.35656">
        <ele>424.08</ele>
        <time>2010-10-10T08:31:06Z</time>
      </trkpt>
      <trkpt lat="43.22852" lon="6.3566">
        <ele>424.08</ele>
        <time>2010-10-10T08:31:07Z</time>
      </trkpt>
      <trkpt lat="43.22853" lon="6.35664">
        <ele>424.56</ele>
        <time>2010-10-10T08:31:08Z</time>
      </trkpt>
      <trkpt lat="43.22855" lon="6.35667">
        <ele>424.08</ele>
        <time>2010-10-10T08:31:09Z</time>
      </trkpt>
      <trkpt lat="43.22857" lon="6.3567">
        <ele>424.08</ele>
        <time>2010-10-10T08:31:10Z</time>
      </trkpt>
      <trkpt lat="43.22859" lon="6.35672">
        <ele>424.56</ele>
        <time>2010-10-10T08:31:11Z</time>
      </trkpt>
      <trkpt lat="43.22862" lon="6.35674">
        <ele>424.08</ele>
        <time>2010-10-10T08:31:12Z</time>
      </trkpt>
      <trkpt lat="43.22865" lon="6.35676">
        <ele>424.56</ele>
        <time>2010-10-10T08:31:13Z</time>
      </trkpt>
      <trkpt lat="43.22874" lon="6.35684">
        <ele>425.52</ele>
        <time>2010-10-10T08:31:17Z</time>
      </trkpt>
      <trkpt lat="43.22886" lon="6.35703">
        <ele>427.92</ele>
        <time>2010-10-10T08:31:24Z</time>
      </trkpt>
      <trkpt lat="43.22894" lon="6.35726">
        <ele>429.37</ele>
        <time>2010-10-10T08:31:32Z</time>
      </trkpt>
      <trkpt lat="43.22895" lon="6.3575">
        <ele>429.37</ele>
        <time>2010-10-10T08:31:38Z</time>
      </trkpt>
      <trkpt lat="43.22891" lon="6.35776">
        <ele>430.33</ele>
        <time>2010-10-10T08:31:45Z</time>
      </trkpt>
      <trkpt lat="43.22882" lon="6.35808">
        <ele>431.77</ele>
        <time>2010-10-10T08:31:53Z</time>
      </trkpt>
      <trkpt lat="43.22871" lon="6.3583">
        <ele>432.73</ele>
        <time>2010-10-10T08:32:00Z</time>
      </trkpt>
      <trkpt lat="43.22859" lon="6.35863">
        <ele>433.69</ele>
        <time>2010-10-10T08:32:09Z</time>
      </trkpt>
      <trkpt lat="43.22849" lon="6.35885">
        <ele>432.73</ele>
        <time>2010-10-10T08:32:15Z</time>
      </trkpt>
      <trkpt lat="43.22842" lon="6.35893">
        <ele>433.69</ele>
        <time>2010-10-10T08:32:18Z</time>
      </trkpt>
      <trkpt lat="43.22822" lon="6.3589">
        <ele>434.17</ele>
        <time>2010-10-10T08:32:24Z</time>
      </trkpt>
      <trkpt lat="43.22797" lon="6.35877">
        <ele>435.13</ele>
        <time>2010-10-10T08:32:32Z</time>
      </trkpt>
      <trkpt lat="43.22772" lon="6.35873">
        <ele>436.1</ele>
        <time>2010-10-10T08:32:40Z</time>
      </trkpt>
      <trkpt lat="43.22749" lon="6.35863">
        <ele>436.58</ele>
        <time>2010-10-10T08:32:47Z</time>
      </trkpt>
      <trkpt lat="43.22726" lon="6.35849">
        <ele>436.1</ele>
        <time>2010-10-10T08:32:55Z</time>
      </trkpt>
      <trkpt lat="43.22718" lon="6.35836">
        <ele>437.54</ele>
        <time>2010-10-10T08:33:00Z</time>
      </trkpt>
      <trkpt lat="43.22708" lon="6.35813">
        <ele>438.02</ele>
        <time>2010-10-10T08:33:07Z</time>
      </trkpt>
      <trkpt lat="43.22692" lon="6.35791">
        <ele>438.02</ele>
        <time>2010-10-10T08:33:14Z</time>
      </trkpt>
      <trkpt lat="43.22683" lon="6.35781">
        <ele>438.98</ele>
        <time>2010-10-10T08:33:18Z</time>
      </trkpt>
      <trkpt lat="43.2268" lon="6.35778">
        <ele>438.98</ele>
        <time>2010-10-10T08:33:19Z</time>
      </trkpt>
      <trkpt lat="43.22678" lon="6.35775">
        <ele>438.98</ele>
        <time>2010-10-10T08:33:20Z</time>
      </trkpt>
      <trkpt lat="43.22676" lon="6.35772">
        <ele>438.98</ele>
        <time>2010-10-10T08:33:21Z</time>
      </trkpt>
      <trkpt lat="43.22674" lon="6.35769">
        <ele>439.46</ele>
        <time>2010-10-10T08:33:22Z</time>
      </trkpt>
      <trkpt lat="43.22666" lon="6.35761">
        <ele>438.98</ele>
        <time>2010-10-10T08:33:27Z</time>
      </trkpt>
      <trkpt lat="43.22665" lon="6.35755">
        <ele>438.5</ele>
        <time>2010-10-10T08:33:34Z</time>
      </trkpt>
      <trkpt lat="43.22665" lon="6.35753">
        <ele>437.06</ele>
        <time>2010-10-10T08:33:35Z</time>
      </trkpt>
      <trkpt lat="43.22664" lon="6.35751">
        <ele>436.58</ele>
        <time>2010-10-10T08:33:36Z</time>
      </trkpt>
      <trkpt lat="43.22664" lon="6.35749">
        <ele>436.1</ele>
        <time>2010-10-10T08:33:37Z</time>
      </trkpt>
      <trkpt lat="43.22664" lon="6.35746">
        <ele>435.61</ele>
        <time>2010-10-10T08:33:38Z</time>
      </trkpt>
      <trkpt lat="43.22663" lon="6.35743">
        <ele>433.69</ele>
        <time>2010-10-10T08:33:39Z</time>
      </trkpt>
      <trkpt lat="43.22663" lon="6.35736">
        <ele>432.73</ele>
        <time>2010-10-10T08:33:41Z</time>
      </trkpt>
      <trkpt lat="43.22662" lon="6.35727">
        <ele>431.77</ele>
        <time>2010-10-10T08:33:43Z</time>
      </trkpt>
      <trkpt lat="43.2266" lon="6.35708">
        <ele>431.29</ele>
        <time>2010-10-10T08:33:47Z</time>
      </trkpt>
      <trkpt lat="43.22656" lon="6.35696">
        <ele>430.33</ele>
        <time>2010-10-10T08:33:52Z</time>
      </trkpt>
      <trkpt lat="43.22656" lon="6.35691">
        <ele>431.29</ele>
        <time>2010-10-10T08:33:59Z</time>
      </trkpt>
      <trkpt lat="43.2266" lon="6.35692">
        <ele>431.29</ele>
        <time>2010-10-10T08:34:06Z</time>
      </trkpt>
      <trkpt lat="43.22661" lon="6.35693">
        <ele>431.29</ele>
        <time>2010-10-10T08:34:07Z</time>
      </trkpt>
      <trkpt lat="43.22666" lon="6.35694">
        <ele>428.4</ele>
        <time>2010-10-10T08:34:14Z</time>
      </trkpt>
      <trkpt lat="43.22665" lon="6.35692">
        <ele>427.44</ele>
        <time>2010-10-10T08:34:15Z</time>
      </trkpt>
      <trkpt lat="43.22665" lon="6.3569">
        <ele>427.44</ele>
        <time>2010-10-10T08:34:16Z</time>
      </trkpt>
      <trkpt lat="43.22666" lon="6.35686">
        <ele>426.96</ele>
        <time>2010-10-10T08:34:19Z</time>
      </trkpt>
      <trkpt lat="43.22666" lon="6.35684">
        <ele>426.96</ele>
        <time>2010-10-10T08:34:20Z</time>
      </trkpt>
      <trkpt lat="43.22665" lon="6.35682">
        <ele>426.96</ele>
        <time>2010-10-10T08:34:21Z</time>
      </trkpt>
      <trkpt lat="43.22664" lon="6.35681">
        <ele>427.92</ele>
        <time>2010-10-10T08:34:26Z</time>
      </trkpt>
      <trkpt lat="43.2266" lon="6.35681">
        <ele>429.85</ele>
        <time>2010-10-10T08:34:33Z</time>
      </trkpt>
      <trkpt lat="43.22659" lon="6.35679">
        <ele>430.33</ele>
        <time>2010-10-10T08:34:34Z</time>
      </trkpt>
      <trkpt lat="43.22657" lon="6.35673">
        <ele>430.33</ele>
        <time>2010-10-10T08:34:37Z</time>
      </trkpt>
      <trkpt lat="43.22656" lon="6.3567">
        <ele>429.37</ele>
        <time>2010-10-10T08:34:38Z</time>
      </trkpt>
      <trkpt lat="43.22656" lon="6.35665">
        <ele>428.89</ele>
        <time>2010-10-10T08:34:39Z</time>
      </trkpt>
      <trkpt lat="43.22656" lon="6.35661">
        <ele>428.89</ele>
        <time>2010-10-10T08:34:40Z</time>
      </trkpt>
      <trkpt lat="43.22656" lon="6.35657">
        <ele>428.4</ele>
        <time>2010-10-10T08:34:41Z</time>
      </trkpt>
      <trkpt lat="43.22657" lon="6.35643">
        <ele>427.92</ele>
        <time>2010-10-10T08:34:45Z</time>
      </trkpt>
      <trkpt lat="43.22665" lon="6.35632">
        <ele>428.89</ele>
        <time>2010-10-10T08:34:52Z</time>
      </trkpt>
      <trkpt lat="43.22665" lon="6.35633">
        <ele>428.89</ele>
        <time>2010-10-10T08:34:53Z</time>
      </trkpt>
      <trkpt lat="43.22675" lon="6.35634">
        <ele>427.92</ele>
        <time>2010-10-10T08:35:00Z</time>
      </trkpt>
      <trkpt lat="43.22687" lon="6.35639">
        <ele>428.89</ele>
        <time>2010-10-10T08:35:06Z</time>
      </trkpt>
      <trkpt lat="43.22702" lon="6.35652">
        <ele>432.25</ele>
        <time>2010-10-10T08:35:14Z</time>
      </trkpt>
      <trkpt lat="43.22707" lon="6.35657">
        <ele>432.25</ele>
        <time>2010-10-10T08:35:17Z</time>
      </trkpt>
      <trkpt lat="43.22708" lon="6.35658">
        <ele>433.21</ele>
        <time>2010-10-10T08:35:18Z</time>
      </trkpt>
      <trkpt lat="43.2271" lon="6.3566">
        <ele>432.25</ele>
        <time>2010-10-10T08:35:19Z</time>
      </trkpt>
      <trkpt lat="43.22712" lon="6.35662">
        <ele>432.25</ele>
        <time>2010-10-10T08:35:20Z</time>
      </trkpt>
      <trkpt lat="43.22714" lon="6.35664">
        <ele>433.21</ele>
        <time>2010-10-10T08:35:21Z</time>
      </trkpt>
      <trkpt lat="43.22716" lon="6.35666">
        <ele>433.21</ele>
        <time>2010-10-10T08:35:22Z</time>
      </trkpt>
      <trkpt lat="43.22726" lon="6.35672">
        <ele>433.21</ele>
        <time>2010-10-10T08:35:27Z</time>
      </trkpt>
      <trkpt lat="43.22731" lon="6.35666">
        <ele>434.65</ele>
        <time>2010-10-10T08:35:32Z</time>
      </trkpt>
      <trkpt lat="43.22738" lon="6.35655">
        <ele>435.61</ele>
        <time>2010-10-10T08:35:37Z</time>
      </trkpt>
      <trkpt lat="43.22738" lon="6.35647">
        <ele>434.65</ele>
        <time>2010-10-10T08:35:40Z</time>
      </trkpt>
      <trkpt lat="43.22745" lon="6.35626">
        <ele>433.21</ele>
        <time>2010-10-10T08:35:44Z</time>
      </trkpt>
      <trkpt lat="43.2275" lon="6.356">
        <ele>430.81</ele>
        <time>2010-10-10T08:35:49Z</time>
      </trkpt>
      <trkpt lat="43.22753" lon="6.35594">
        <ele>430.33</ele>
        <time>2010-10-10T08:35:50Z</time>
      </trkpt>
      <trkpt lat="43.22759" lon="6.35581">
        <ele>428.89</ele>
        <time>2010-10-10T08:35:52Z</time>
      </trkpt>
      <trkpt lat="43.22764" lon="6.35563">
        <ele>428.4</ele>
        <time>2010-10-10T08:35:54Z</time>
      </trkpt>
      <trkpt lat="43.22775" lon="6.35538">
        <ele>427.44</ele>
        <time>2010-10-10T08:35:57Z</time>
      </trkpt>
      <trkpt lat="43.2278" lon="6.35531">
        <ele>427.44</ele>
        <time>2010-10-10T08:35:58Z</time>
      </trkpt>
      <trkpt lat="43.22808" lon="6.355">
        <ele>426</ele>
        <time>2010-10-10T08:36:04Z</time>
      </trkpt>
      <trkpt lat="43.22814" lon="6.35497">
        <ele>425.52</ele>
        <time>2010-10-10T08:36:05Z</time>
      </trkpt>
      <trkpt lat="43.2282" lon="6.35496">
        <ele>425.52</ele>
        <time>2010-10-10T08:36:06Z</time>
      </trkpt>
      <trkpt lat="43.22823" lon="6.35498">
        <ele>425.52</ele>
        <time>2010-10-10T08:36:07Z</time>
      </trkpt>
      <trkpt lat="43.22827" lon="6.35499">
        <ele>425.04</ele>
        <time>2010-10-10T08:36:08Z</time>
      </trkpt>
      <trkpt lat="43.22831" lon="6.355">
        <ele>424.56</ele>
        <time>2010-10-10T08:36:09Z</time>
      </trkpt>
      <trkpt lat="43.22847" lon="6.35509">
        <ele>423.6</ele>
        <time>2010-10-10T08:36:13Z</time>
      </trkpt>
      <trkpt lat="43.22878" lon="6.35531">
        <ele>422.64</ele>
        <time>2010-10-10T08:36:20Z</time>
      </trkpt>
      <trkpt lat="43.22888" lon="6.35544">
        <ele>422.16</ele>
        <time>2010-10-10T08:36:23Z</time>
      </trkpt>
      <trkpt lat="43.22894" lon="6.35554">
        <ele>422.16</ele>
        <time>2010-10-10T08:36:25Z</time>
      </trkpt>
      <trkpt lat="43.22898" lon="6.35557">
        <ele>421.68</ele>
        <time>2010-10-10T08:36:26Z</time>
      </trkpt>
      <trkpt lat="43.22906" lon="6.35564">
        <ele>421.19</ele>
        <time>2010-10-10T08:36:28Z</time>
      </trkpt>
      <trkpt lat="43.2291" lon="6.35567">
        <ele>420.71</ele>
        <time>2010-10-10T08:36:29Z</time>
      </trkpt>
      <trkpt lat="43.22914" lon="6.35569">
        <ele>420.23</ele>
        <time>2010-10-10T08:36:30Z</time>
      </trkpt>
      <trkpt lat="43.22918" lon="6.35572">
        <ele>419.75</ele>
        <time>2010-10-10T08:36:31Z</time>
      </trkpt>
      <trkpt lat="43.22922" lon="6.35575">
        <ele>419.75</ele>
        <time>2010-10-10T08:36:32Z</time>
      </trkpt>
      <trkpt lat="43.2293" lon="6.35577">
        <ele>419.27</ele>
        <time>2010-10-10T08:36:34Z</time>
      </trkpt>
      <trkpt lat="43.22933" lon="6.35577">
        <ele>418.79</ele>
        <time>2010-10-10T08:36:35Z</time>
      </trkpt>
      <trkpt lat="43.22937" lon="6.35575">
        <ele>418.79</ele>
        <time>2010-10-10T08:36:36Z</time>
      </trkpt>
      <trkpt lat="43.2294" lon="6.35573">
        <ele>418.79</ele>
        <time>2010-10-10T08:36:37Z</time>
      </trkpt>
      <trkpt lat="43.22942" lon="6.35569">
        <ele>417.83</ele>
        <time>2010-10-10T08:36:38Z</time>
      </trkpt>
      <trkpt lat="43.22944" lon="6.35564">
        <ele>417.35</ele>
        <time>2010-10-10T08:36:39Z</time>
      </trkpt>
      <trkpt lat="43.22945" lon="6.35559">
        <ele>417.35</ele>
        <time>2010-10-10T08:36:40Z</time>
      </trkpt>
      <trkpt lat="43.22946" lon="6.35554">
        <ele>416.87</ele>
        <time>2010-10-10T08:36:41Z</time>
      </trkpt>
      <trkpt lat="43.22946" lon="6.35548">
        <ele>416.39</ele>
        <time>2010-10-10T08:36:42Z</time>
      </trkpt>
      <trkpt lat="43.22945" lon="6.35543">
        <ele>415.91</ele>
        <time>2010-10-10T08:36:43Z</time>
      </trkpt>
      <trkpt lat="43.22945" lon="6.35538">
        <ele>415.43</ele>
        <time>2010-10-10T08:36:44Z</time>
      </trkpt>
      <trkpt lat="43.22945" lon="6.35534">
        <ele>414.95</ele>
        <time>2010-10-10T08:36:45Z</time>
      </trkpt>
      <trkpt lat="43.22946" lon="6.3553">
        <ele>414.47</ele>
        <time>2010-10-10T08:36:46Z</time>
      </trkpt>
      <trkpt lat="43.22946" lon="6.35525">
        <ele>413.98</ele>
        <time>2010-10-10T08:36:47Z</time>
      </trkpt>
      <trkpt lat="43.22945" lon="6.3552">
        <ele>413.5</ele>
        <time>2010-10-10T08:36:48Z</time>
      </trkpt>
      <trkpt lat="43.22945" lon="6.35515">
        <ele>413.02</ele>
        <time>2010-10-10T08:36:49Z</time>
      </trkpt>
      <trkpt lat="43.22944" lon="6.3551">
        <ele>413.02</ele>
        <time>2010-10-10T08:36:50Z</time>
      </trkpt>
      <trkpt lat="43.22944" lon="6.35505">
        <ele>412.54</ele>
        <time>2010-10-10T08:36:51Z</time>
      </trkpt>
      <trkpt lat="43.22943" lon="6.355">
        <ele>411.58</ele>
        <time>2010-10-10T08:36:52Z</time>
      </trkpt>
      <trkpt lat="43.22938" lon="6.35476">
        <ele>410.14</ele>
        <time>2010-10-10T08:36:56Z</time>
      </trkpt>
      <trkpt lat="43.22936" lon="6.3547">
        <ele>409.18</ele>
        <time>2010-10-10T08:36:57Z</time>
      </trkpt>
      <trkpt lat="43.22936" lon="6.35465">
        <ele>409.18</ele>
        <time>2010-10-10T08:36:58Z</time>
      </trkpt>
      <trkpt lat="43.22942" lon="6.35462">
        <ele>408.7</ele>
        <time>2010-10-10T08:37:02Z</time>
      </trkpt>
      <trkpt lat="43.22962" lon="6.35458">
        <ele>407.74</ele>
        <time>2010-10-10T08:37:09Z</time>
      </trkpt>
      <trkpt lat="43.22967" lon="6.35455">
        <ele>407.74</ele>
        <time>2010-10-10T08:37:10Z</time>
      </trkpt>
      <trkpt lat="43.22976" lon="6.35448">
        <ele>406.29</ele>
        <time>2010-10-10T08:37:12Z</time>
      </trkpt>
      <trkpt lat="43.2298" lon="6.35443">
        <ele>405.33</ele>
        <time>2010-10-10T08:37:13Z</time>
      </trkpt>
      <trkpt lat="43.22985" lon="6.35432">
        <ele>404.85</ele>
        <time>2010-10-10T08:37:15Z</time>
      </trkpt>
      <trkpt lat="43.22988" lon="6.35427">
        <ele>404.37</ele>
        <time>2010-10-10T08:37:16Z</time>
      </trkpt>
      <trkpt lat="43.22989" lon="6.35421">
        <ele>403.89</ele>
        <time>2010-10-10T08:37:17Z</time>
      </trkpt>
      <trkpt lat="43.2299" lon="6.35416">
        <ele>403.41</ele>
        <time>2010-10-10T08:37:18Z</time>
      </trkpt>
      <trkpt lat="43.22992" lon="6.35409">
        <ele>402.93</ele>
        <time>2010-10-10T08:37:19Z</time>
      </trkpt>
      <trkpt lat="43.22992" lon="6.35401">
        <ele>401.97</ele>
        <time>2010-10-10T08:37:20Z</time>
      </trkpt>
      <trkpt lat="43.22992" lon="6.35394">
        <ele>401.97</ele>
        <time>2010-10-10T08:37:21Z</time>
      </trkpt>
      <trkpt lat="43.22992" lon="6.35386">
        <ele>401.49</ele>
        <time>2010-10-10T08:37:22Z</time>
      </trkpt>
      <trkpt lat="43.22994" lon="6.3538">
        <ele>401.01</ele>
        <time>2010-10-10T08:37:23Z</time>
      </trkpt>
      <trkpt lat="43.22996" lon="6.35375">
        <ele>401.01</ele>
        <time>2010-10-10T08:37:24Z</time>
      </trkpt>
      <trkpt lat="43.22999" lon="6.3537">
        <ele>401.01</ele>
        <time>2010-10-10T08:37:25Z</time>
      </trkpt>
      <trkpt lat="43.23002" lon="6.35365">
        <ele>400.53</ele>
        <time>2010-10-10T08:37:26Z</time>
      </trkpt>
      <trkpt lat="43.23014" lon="6.35339">
        <ele>400.05</ele>
        <time>2010-10-10T08:37:30Z</time>
      </trkpt>
      <trkpt lat="43.23019" lon="6.3533">
        <ele>400.53</ele>
        <time>2010-10-10T08:37:32Z</time>
      </trkpt>
      <trkpt lat="43.23021" lon="6.35328">
        <ele>400.05</ele>
        <time>2010-10-10T08:37:33Z</time>
      </trkpt>
      <trkpt lat="43.2303" lon="6.35333">
        <ele>401.01</ele>
        <time>2010-10-10T08:37:38Z</time>
      </trkpt>
      <trkpt lat="43.23037" lon="6.35355">
        <ele>401.49</ele>
        <time>2010-10-10T08:37:44Z</time>
      </trkpt>
      <trkpt lat="43.23038" lon="6.35359">
        <ele>401.49</ele>
        <time>2010-10-10T08:37:45Z</time>
      </trkpt>
      <trkpt lat="43.2305" lon="6.35384">
        <ele>402.45</ele>
        <time>2010-10-10T08:37:52Z</time>
      </trkpt>
      <trkpt lat="43.23069" lon="6.35397">
        <ele>402.45</ele>
        <time>2010-10-10T08:37:59Z</time>
      </trkpt>
      <trkpt lat="43.23082" lon="6.35412">
        <ele>403.41</ele>
        <time>2010-10-10T08:38:05Z</time>
      </trkpt>
      <trkpt lat="43.23092" lon="6.35415">
        <ele>404.85</ele>
        <time>2010-10-10T08:38:09Z</time>
      </trkpt>
      <trkpt lat="43.2311" lon="6.35393">
        <ele>404.85</ele>
        <time>2010-10-10T08:38:17Z</time>
      </trkpt>
      <trkpt lat="43.23126" lon="6.35378">
        <ele>403.41</ele>
        <time>2010-10-10T08:38:23Z</time>
      </trkpt>
      <trkpt lat="43.23129" lon="6.35375">
        <ele>402.45</ele>
        <time>2010-10-10T08:38:24Z</time>
      </trkpt>
      <trkpt lat="43.23133" lon="6.35371">
        <ele>401.49</ele>
        <time>2010-10-10T08:38:25Z</time>
      </trkpt>
      <trkpt lat="43.23148" lon="6.35359">
        <ele>400.05</ele>
        <time>2010-10-10T08:38:28Z</time>
      </trkpt>
      <trkpt lat="43.23153" lon="6.35356">
        <ele>399.57</ele>
        <time>2010-10-10T08:38:29Z</time>
      </trkpt>
      <trkpt lat="43.23158" lon="6.35353">
        <ele>400.05</ele>
        <time>2010-10-10T08:38:30Z</time>
      </trkpt>
      <trkpt lat="43.23161" lon="6.35348">
        <ele>399.57</ele>
        <time>2010-10-10T08:38:31Z</time>
      </trkpt>
      <trkpt lat="43.23162" lon="6.35343">
        <ele>399.08</ele>
        <time>2010-10-10T08:38:32Z</time>
      </trkpt>
      <trkpt lat="43.23163" lon="6.35339">
        <ele>398.12</ele>
        <time>2010-10-10T08:38:33Z</time>
      </trkpt>
      <trkpt lat="43.23162" lon="6.35334">
        <ele>397.64</ele>
        <time>2010-10-10T08:38:34Z</time>
      </trkpt>
      <trkpt lat="43.2316" lon="6.35328">
        <ele>397.16</ele>
        <time>2010-10-10T08:38:35Z</time>
      </trkpt>
      <trkpt lat="43.23154" lon="6.35313">
        <ele>396.2</ele>
        <time>2010-10-10T08:38:38Z</time>
      </trkpt>
      <trkpt lat="43.23145" lon="6.35282">
        <ele>394.76</ele>
        <time>2010-10-10T08:38:43Z</time>
      </trkpt>
      <trkpt lat="43.23143" lon="6.35261">
        <ele>393.8</ele>
        <time>2010-10-10T08:38:46Z</time>
      </trkpt>
      <trkpt lat="43.23142" lon="6.35254">
        <ele>393.32</ele>
        <time>2010-10-10T08:38:47Z</time>
      </trkpt>
      <trkpt lat="43.23143" lon="6.35246">
        <ele>392.36</ele>
        <time>2010-10-10T08:38:48Z</time>
      </trkpt>
      <trkpt lat="43.23144" lon="6.35238">
        <ele>391.87</ele>
        <time>2010-10-10T08:38:49Z</time>
      </trkpt>
      <trkpt lat="43.23146" lon="6.35231">
        <ele>391.39</ele>
        <time>2010-10-10T08:38:50Z</time>
      </trkpt>
      <trkpt lat="43.2315" lon="6.35225">
        <ele>391.39</ele>
        <time>2010-10-10T08:38:51Z</time>
      </trkpt>
      <trkpt lat="43.23154" lon="6.3522">
        <ele>390.91</ele>
        <time>2010-10-10T08:38:52Z</time>
      </trkpt>
      <trkpt lat="43.23158" lon="6.35215">
        <ele>390.91</ele>
        <time>2010-10-10T08:38:53Z</time>
      </trkpt>
      <trkpt lat="43.23163" lon="6.35211">
        <ele>389.95</ele>
        <time>2010-10-10T08:38:54Z</time>
      </trkpt>
      <trkpt lat="43.23173" lon="6.35204">
        <ele>388.51</ele>
        <time>2010-10-10T08:38:56Z</time>
      </trkpt>
      <trkpt lat="43.23178" lon="6.35201">
        <ele>388.51</ele>
        <time>2010-10-10T08:38:57Z</time>
      </trkpt>
      <trkpt lat="43.23193" lon="6.35196">
        <ele>387.07</ele>
        <time>2010-10-10T08:39:00Z</time>
      </trkpt>
      <trkpt lat="43.23213" lon="6.35194">
        <ele>386.11</ele>
        <time>2010-10-10T08:39:05Z</time>
      </trkpt>
      <trkpt lat="43.23227" lon="6.3519">
        <ele>383.7</ele>
        <time>2010-10-10T08:39:11Z</time>
      </trkpt>
      <trkpt lat="43.23256" lon="6.35181">
        <ele>382.26</ele>
        <time>2010-10-10T08:39:18Z</time>
      </trkpt>
      <trkpt lat="43.23269" lon="6.35174">
        <ele>381.3</ele>
        <time>2010-10-10T08:39:21Z</time>
      </trkpt>
      <trkpt lat="43.23273" lon="6.35172">
        <ele>380.34</ele>
        <time>2010-10-10T08:39:22Z</time>
      </trkpt>
      <trkpt lat="43.23293" lon="6.35167">
        <ele>378.9</ele>
        <time>2010-10-10T08:39:28Z</time>
      </trkpt>
      <trkpt lat="43.23306" lon="6.35161">
        <ele>377.94</ele>
        <time>2010-10-10T08:39:32Z</time>
      </trkpt>
      <trkpt lat="43.23309" lon="6.35157">
        <ele>377.45</ele>
        <time>2010-10-10T08:39:33Z</time>
      </trkpt>
      <trkpt lat="43.23312" lon="6.35153">
        <ele>376.97</ele>
        <time>2010-10-10T08:39:34Z</time>
      </trkpt>
      <trkpt lat="43.23313" lon="6.35148">
        <ele>376.01</ele>
        <time>2010-10-10T08:39:35Z</time>
      </trkpt>
      <trkpt lat="43.23313" lon="6.35143">
        <ele>376.49</ele>
        <time>2010-10-10T08:39:36Z</time>
      </trkpt>
      <trkpt lat="43.23309" lon="6.35115">
        <ele>375.05</ele>
        <time>2010-10-10T08:39:41Z</time>
      </trkpt>
      <trkpt lat="43.23309" lon="6.3511">
        <ele>375.05</ele>
        <time>2010-10-10T08:39:42Z</time>
      </trkpt>
      <trkpt lat="43.23316" lon="6.35074">
        <ele>373.61</ele>
        <time>2010-10-10T08:39:48Z</time>
      </trkpt>
      <trkpt lat="43.23325" lon="6.35053">
        <ele>371.21</ele>
        <time>2010-10-10T08:39:52Z</time>
      </trkpt>
      <trkpt lat="43.23327" lon="6.35049">
        <ele>370.73</ele>
        <time>2010-10-10T08:39:53Z</time>
      </trkpt>
      <trkpt lat="43.2333" lon="6.35044">
        <ele>369.76</ele>
        <time>2010-10-10T08:39:54Z</time>
      </trkpt>
      <trkpt lat="43.23333" lon="6.35039">
        <ele>368.8</ele>
        <time>2010-10-10T08:39:55Z</time>
      </trkpt>
      <trkpt lat="43.23337" lon="6.35034">
        <ele>368.8</ele>
        <time>2010-10-10T08:39:56Z</time>
      </trkpt>
      <trkpt lat="43.23342" lon="6.3503">
        <ele>367.84</ele>
        <time>2010-10-10T08:39:57Z</time>
      </trkpt>
      <trkpt lat="43.23346" lon="6.35026">
        <ele>367.36</ele>
        <time>2010-10-10T08:39:58Z</time>
      </trkpt>
      <trkpt lat="43.23349" lon="6.35022">
        <ele>366.88</ele>
        <time>2010-10-10T08:39:59Z</time>
      </trkpt>
      <trkpt lat="43.23353" lon="6.35016">
        <ele>366.4</ele>
        <time>2010-10-10T08:40:00Z</time>
      </trkpt>
      <trkpt lat="43.23357" lon="6.35012">
        <ele>366.4</ele>
        <time>2010-10-10T08:40:01Z</time>
      </trkpt>
      <trkpt lat="43.23358" lon="6.35008">
        <ele>366.4</ele>
        <time>2010-10-10T08:40:02Z</time>
      </trkpt>
      <trkpt lat="43.23357" lon="6.35005">
        <ele>366.4</ele>
        <time>2010-10-10T08:40:03Z</time>
      </trkpt>
      <trkpt lat="43.23355" lon="6.35">
        <ele>366.4</ele>
        <time>2010-10-10T08:40:04Z</time>
      </trkpt>
      <trkpt lat="43.23354" lon="6.34996">
        <ele>366.4</ele>
        <time>2010-10-10T08:40:05Z</time>
      </trkpt>
      <trkpt lat="43.2335" lon="6.3497">
        <ele>365.44</ele>
        <time>2010-10-10T08:40:11Z</time>
      </trkpt>
      <trkpt lat="43.23355" lon="6.34947">
        <ele>365.44</ele>
        <time>2010-10-10T08:40:17Z</time>
      </trkpt>
      <trkpt lat="43.23357" lon="6.34929">
        <ele>364.96</ele>
        <time>2010-10-10T08:40:21Z</time>
      </trkpt>
      <trkpt lat="43.23358" lon="6.34927">
        <ele>365.44</ele>
        <time>2010-10-10T08:40:22Z</time>
      </trkpt>
      <trkpt lat="43.2336" lon="6.34927">
        <ele>364.96</ele>
        <time>2010-10-10T08:40:23Z</time>
      </trkpt>
      <trkpt lat="43.23362" lon="6.34925">
        <ele>364.96</ele>
        <time>2010-10-10T08:40:24Z</time>
      </trkpt>
      <trkpt lat="43.23383" lon="6.34912">
        <ele>363.52</ele>
        <time>2010-10-10T08:40:29Z</time>
      </trkpt>
      <trkpt lat="43.23392" lon="6.34907">
        <ele>363.04</ele>
        <time>2010-10-10T08:40:31Z</time>
      </trkpt>
      <trkpt lat="43.23397" lon="6.34903">
        <ele>363.04</ele>
        <time>2010-10-10T08:40:32Z</time>
      </trkpt>
      <trkpt lat="43.23406" lon="6.34895">
        <ele>362.55</ele>
        <time>2010-10-10T08:40:34Z</time>
      </trkpt>
      <trkpt lat="43.23418" lon="6.34878">
        <ele>361.59</ele>
        <time>2010-10-10T08:40:37Z</time>
      </trkpt>
      <trkpt lat="43.23427" lon="6.34862">
        <ele>361.11</ele>
        <time>2010-10-10T08:40:40Z</time>
      </trkpt>
      <trkpt lat="43.23435" lon="6.3485">
        <ele>360.63</ele>
        <time>2010-10-10T08:40:42Z</time>
      </trkpt>
      <trkpt lat="43.23439" lon="6.34843">
        <ele>360.15</ele>
        <time>2010-10-10T08:40:43Z</time>
      </trkpt>
      <trkpt lat="43.23443" lon="6.34837">
        <ele>360.15</ele>
        <time>2010-10-10T08:40:44Z</time>
      </trkpt>
      <trkpt lat="43.2345" lon="6.34827">
        <ele>359.67</ele>
        <time>2010-10-10T08:40:46Z</time>
      </trkpt>
      <trkpt lat="43.23454" lon="6.34824">
        <ele>359.67</ele>
        <time>2010-10-10T08:40:47Z</time>
      </trkpt>
      <trkpt lat="43.23458" lon="6.3482">
        <ele>359.67</ele>
        <time>2010-10-10T08:40:48Z</time>
      </trkpt>
      <trkpt lat="43.23461" lon="6.34818">
        <ele>359.67</ele>
        <time>2010-10-10T08:40:49Z</time>
      </trkpt>
      <trkpt lat="43.23466" lon="6.34815">
        <ele>359.67</ele>
        <time>2010-10-10T08:40:50Z</time>
      </trkpt>
      <trkpt lat="43.23489" lon="6.34811">
        <ele>361.59</ele>
        <time>2010-10-10T08:40:56Z</time>
      </trkpt>
      <trkpt lat="43.23501" lon="6.34813">
        <ele>363.04</ele>
        <time>2010-10-10T08:40:59Z</time>
      </trkpt>
      <trkpt lat="43.23509" lon="6.34814">
        <ele>363.52</ele>
        <time>2010-10-10T08:41:01Z</time>
      </trkpt>
      <trkpt lat="43.23512" lon="6.34812">
        <ele>364</ele>
        <time>2010-10-10T08:41:02Z</time>
      </trkpt>
      <trkpt lat="43.23516" lon="6.34801">
        <ele>364.48</ele>
        <time>2010-10-10T08:41:05Z</time>
      </trkpt>
      <trkpt lat="43.23512" lon="6.34767">
        <ele>363.52</ele>
        <time>2010-10-10T08:41:12Z</time>
      </trkpt>
      <trkpt lat="43.23512" lon="6.34762">
        <ele>364</ele>
        <time>2010-10-10T08:41:13Z</time>
      </trkpt>
      <trkpt lat="43.23518" lon="6.34757">
        <ele>364</ele>
        <time>2010-10-10T08:41:18Z</time>
      </trkpt>
      <trkpt lat="43.23521" lon="6.34763">
        <ele>362.55</ele>
        <time>2010-10-10T08:41:20Z</time>
      </trkpt>
      <trkpt lat="43.23531" lon="6.34778">
        <ele>363.52</ele>
        <time>2010-10-10T08:41:25Z</time>
      </trkpt>
      <trkpt lat="43.23545" lon="6.34796">
        <ele>363.52</ele>
        <time>2010-10-10T08:41:31Z</time>
      </trkpt>
      <trkpt lat="43.2356" lon="6.34815">
        <ele>363.04</ele>
        <time>2010-10-10T08:41:37Z</time>
      </trkpt>
      <trkpt lat="43.23566" lon="6.34818">
        <ele>362.55</ele>
        <time>2010-10-10T08:41:39Z</time>
      </trkpt>
      <trkpt lat="43.23573" lon="6.3482">
        <ele>363.52</ele>
        <time>2010-10-10T08:41:41Z</time>
      </trkpt>
      <trkpt lat="43.23584" lon="6.34826">
        <ele>365.44</ele>
        <time>2010-10-10T08:41:45Z</time>
      </trkpt>
      <trkpt lat="43.23603" lon="6.34841">
        <ele>364.96</ele>
        <time>2010-10-10T08:41:51Z</time>
      </trkpt>
      <trkpt lat="43.23615" lon="6.34854">
        <ele>366.4</ele>
        <time>2010-10-10T08:41:57Z</time>
      </trkpt>
      <trkpt lat="43.23627" lon="6.34864">
        <ele>367.84</ele>
        <time>2010-10-10T08:42:02Z</time>
      </trkpt>
      <trkpt lat="43.2364" lon="6.34873">
        <ele>367.84</ele>
        <time>2010-10-10T08:42:07Z</time>
      </trkpt>
      <trkpt lat="43.2365" lon="6.34881">
        <ele>368.32</ele>
        <time>2010-10-10T08:42:12Z</time>
      </trkpt>
      <trkpt lat="43.23659" lon="6.34889">
        <ele>369.76</ele>
        <time>2010-10-10T08:42:16Z</time>
      </trkpt>
      <trkpt lat="43.23676" lon="6.34903">
        <ele>368.8</ele>
        <time>2010-10-10T08:42:23Z</time>
      </trkpt>
      <trkpt lat="43.23691" lon="6.34919">
        <ele>370.73</ele>
        <time>2010-10-10T08:42:28Z</time>
      </trkpt>
      <trkpt lat="43.23693" lon="6.34936">
        <ele>370.24</ele>
        <time>2010-10-10T08:42:33Z</time>
      </trkpt>
      <trkpt lat="43.23685" lon="6.34966">
        <ele>370.73</ele>
        <time>2010-10-10T08:42:41Z</time>
      </trkpt>
      <trkpt lat="43.23686" lon="6.34973">
        <ele>369.76</ele>
        <time>2010-10-10T08:42:47Z</time>
      </trkpt>
      <trkpt lat="43.23685" lon="6.34979">
        <ele>371.21</ele>
        <time>2010-10-10T08:42:49Z</time>
      </trkpt>
      <trkpt lat="43.23681" lon="6.34989">
        <ele>371.21</ele>
        <time>2010-10-10T08:42:53Z</time>
      </trkpt>
      <trkpt lat="43.23678" lon="6.3502">
        <ele>371.21</ele>
        <time>2010-10-10T08:42:59Z</time>
      </trkpt>
      <trkpt lat="43.23677" lon="6.35042">
        <ele>371.69</ele>
        <time>2010-10-10T08:43:03Z</time>
      </trkpt>
      <trkpt lat="43.23678" lon="6.35048">
        <ele>371.21</ele>
        <time>2010-10-10T08:43:04Z</time>
      </trkpt>
      <trkpt lat="43.2368" lon="6.35054">
        <ele>370.24</ele>
        <time>2010-10-10T08:43:05Z</time>
      </trkpt>
      <trkpt lat="43.23682" lon="6.3506">
        <ele>370.24</ele>
        <time>2010-10-10T08:43:06Z</time>
      </trkpt>
      <trkpt lat="43.23695" lon="6.35103">
        <ele>368.8</ele>
        <time>2010-10-10T08:43:13Z</time>
      </trkpt>
      <trkpt lat="43.23699" lon="6.35132">
        <ele>368.32</ele>
        <time>2010-10-10T08:43:18Z</time>
      </trkpt>
      <trkpt lat="43.23698" lon="6.35139">
        <ele>368.32</ele>
        <time>2010-10-10T08:43:19Z</time>
      </trkpt>
      <trkpt lat="43.23697" lon="6.35146">
        <ele>369.28</ele>
        <time>2010-10-10T08:43:20Z</time>
      </trkpt>
      <trkpt lat="43.23691" lon="6.35186">
        <ele>370.73</ele>
        <time>2010-10-10T08:43:27Z</time>
      </trkpt>
      <trkpt lat="43.23682" lon="6.35227">
        <ele>371.21</ele>
        <time>2010-10-10T08:43:34Z</time>
      </trkpt>
      <trkpt lat="43.23675" lon="6.3527">
        <ele>370.73</ele>
        <time>2010-10-10T08:43:42Z</time>
      </trkpt>
      <trkpt lat="43.23663" lon="6.35295">
        <ele>371.21</ele>
        <time>2010-10-10T08:43:48Z</time>
      </trkpt>
      <trkpt lat="43.2366" lon="6.35306">
        <ele>370.24</ele>
        <time>2010-10-10T08:43:50Z</time>
      </trkpt>
      <trkpt lat="43.2366" lon="6.35312">
        <ele>370.24</ele>
        <time>2010-10-10T08:43:51Z</time>
      </trkpt>
      <trkpt lat="43.2366" lon="6.35318">
        <ele>370.24</ele>
        <time>2010-10-10T08:43:52Z</time>
      </trkpt>
      <trkpt lat="43.23663" lon="6.35365">
        <ele>367.36</ele>
        <time>2010-10-10T08:43:59Z</time>
      </trkpt>
      <trkpt lat="43.23664" lon="6.35378">
        <ele>366.4</ele>
        <time>2010-10-10T08:44:01Z</time>
      </trkpt>
      <trkpt lat="43.23664" lon="6.35385">
        <ele>367.36</ele>
        <time>2010-10-10T08:44:02Z</time>
      </trkpt>
      <trkpt lat="43.23665" lon="6.35392">
        <ele>366.88</ele>
        <time>2010-10-10T08:44:03Z</time>
      </trkpt>
      <trkpt lat="43.23667" lon="6.35399">
        <ele>365.44</ele>
        <time>2010-10-10T08:44:04Z</time>
      </trkpt>
      <trkpt lat="43.23668" lon="6.35406">
        <ele>365.44</ele>
        <time>2010-10-10T08:44:05Z</time>
      </trkpt>
      <trkpt lat="43.23671" lon="6.3542">
        <ele>364.48</ele>
        <time>2010-10-10T08:44:07Z</time>
      </trkpt>
      <trkpt lat="43.23687" lon="6.35482">
        <ele>363.04</ele>
        <time>2010-10-10T08:44:15Z</time>
      </trkpt>
      <trkpt lat="43.23692" lon="6.35515">
        <ele>361.59</ele>
        <time>2010-10-10T08:44:19Z</time>
      </trkpt>
      <trkpt lat="43.23696" lon="6.35567">
        <ele>361.11</ele>
        <time>2010-10-10T08:44:25Z</time>
      </trkpt>
      <trkpt lat="43.23695" lon="6.35575">
        <ele>361.59</ele>
        <time>2010-10-10T08:44:26Z</time>
      </trkpt>
      <trkpt lat="43.23692" lon="6.35605">
        <ele>360.15</ele>
        <time>2010-10-10T08:44:31Z</time>
      </trkpt>
      <trkpt lat="43.23695" lon="6.35617">
        <ele>360.15</ele>
        <time>2010-10-10T08:44:35Z</time>
      </trkpt>
      <trkpt lat="43.23694" lon="6.3562">
        <ele>360.15</ele>
        <time>2010-10-10T08:44:36Z</time>
      </trkpt>
      <trkpt lat="43.23692" lon="6.35621">
        <ele>359.19</ele>
        <time>2010-10-10T08:44:37Z</time>
      </trkpt>
      <trkpt lat="43.23689" lon="6.35623">
        <ele>358.23</ele>
        <time>2010-10-10T08:44:38Z</time>
      </trkpt>
      <trkpt lat="43.23686" lon="6.35626">
        <ele>357.75</ele>
        <time>2010-10-10T08:44:39Z</time>
      </trkpt>
      <trkpt lat="43.23683" lon="6.3563">
        <ele>357.27</ele>
        <time>2010-10-10T08:44:40Z</time>
      </trkpt>
      <trkpt lat="43.23682" lon="6.35634">
        <ele>356.79</ele>
        <time>2010-10-10T08:44:41Z</time>
      </trkpt>
      <trkpt lat="43.23683" lon="6.35638">
        <ele>355.34</ele>
        <time>2010-10-10T08:44:42Z</time>
      </trkpt>
      <trkpt lat="43.23686" lon="6.3564">
        <ele>355.34</ele>
        <time>2010-10-10T08:44:43Z</time>
      </trkpt>
      <trkpt lat="43.23688" lon="6.35641">
        <ele>354.86</ele>
        <time>2010-10-10T08:44:44Z</time>
      </trkpt>
      <trkpt lat="43.23702" lon="6.35641">
        <ele>354.86</ele>
        <time>2010-10-10T08:44:48Z</time>
      </trkpt>
      <trkpt lat="43.23706" lon="6.35639">
        <ele>354.86</ele>
        <time>2010-10-10T08:44:49Z</time>
      </trkpt>
      <trkpt lat="43.2371" lon="6.35637">
        <ele>354.38</ele>
        <time>2010-10-10T08:44:50Z</time>
      </trkpt>
      <trkpt lat="43.23714" lon="6.35634">
        <ele>354.38</ele>
        <time>2010-10-10T08:44:51Z</time>
      </trkpt>
      <trkpt lat="43.23717" lon="6.35633">
        <ele>353.9</ele>
        <time>2010-10-10T08:44:52Z</time>
      </trkpt>
      <trkpt lat="43.23721" lon="6.3563">
        <ele>354.38</ele>
        <time>2010-10-10T08:44:53Z</time>
      </trkpt>
      <trkpt lat="43.23729" lon="6.35624">
        <ele>353.42</ele>
        <time>2010-10-10T08:44:55Z</time>
      </trkpt>
      <trkpt lat="43.23734" lon="6.35621">
        <ele>352.94</ele>
        <time>2010-10-10T08:44:56Z</time>
      </trkpt>
      <trkpt lat="43.23739" lon="6.35617">
        <ele>353.42</ele>
        <time>2010-10-10T08:44:57Z</time>
      </trkpt>
      <trkpt lat="43.23747" lon="6.35609">
        <ele>352.94</ele>
        <time>2010-10-10T08:44:59Z</time>
      </trkpt>
      <trkpt lat="43.23751" lon="6.35607">
        <ele>352.94</ele>
        <time>2010-10-10T08:45:00Z</time>
      </trkpt>
      <trkpt lat="43.23762" lon="6.356">
        <ele>353.42</ele>
        <time>2010-10-10T08:45:04Z</time>
      </trkpt>
      <trkpt lat="43.23762" lon="6.356">
        <ele>351.98</ele>
        <time>2010-10-10T08:45:13Z</time>
      </trkpt>
      <trkpt lat="43.23762" lon="6.356">
        <ele>351.5</ele>
        <time>2010-10-10T08:45:32Z</time>
      </trkpt>
      <trkpt lat="43.23763" lon="6.356">
        <ele>352.46</ele>
        <time>2010-10-10T08:45:51Z</time>
      </trkpt>
      <trkpt lat="43.23763" lon="6.356">
        <ele>352.46</ele>
        <time>2010-10-10T08:46:09Z</time>
      </trkpt>
      <trkpt lat="43.23763" lon="6.356">
        <ele>351.5</ele>
        <time>2010-10-10T08:46:29Z</time>
      </trkpt>
      <trkpt lat="43.23763" lon="6.356">
        <ele>351.02</ele>
        <time>2010-10-10T08:46:49Z</time>
      </trkpt>
      <trkpt lat="43.23763" lon="6.35599">
        <ele>351.98</ele>
        <time>2010-10-10T08:47:11Z</time>
      </trkpt>
      <trkpt lat="43.23763" lon="6.35599">
        <ele>351.98</ele>
        <time>2010-10-10T08:47:31Z</time>
      </trkpt>
      <trkpt lat="43.23762" lon="6.35599">
        <ele>351.02</ele>
        <time>2010-10-10T08:47:50Z</time>
      </trkpt>
      <trkpt lat="43.23762" lon="6.35599">
        <ele>351.98</ele>
        <time>2010-10-10T08:48:12Z</time>
      </trkpt>
      <trkpt lat="43.23762" lon="6.35599">
        <ele>351.02</ele>
        <time>2010-10-10T08:48:32Z</time>
      </trkpt>
      <trkpt lat="43.23762" lon="6.35599">
        <ele>350.54</ele>
        <time>2010-10-10T08:48:38Z</time>
      </trkpt>
      <trkpt lat="43.23762" lon="6.35599">
        <ele>352.94</ele>
        <time>2010-10-10T08:48:55Z</time>
      </trkpt>
      <trkpt lat="43.23762" lon="6.35599">
        <ele>352.46</ele>
        <time>2010-10-10T08:49:12Z</time>
      </trkpt>
      <trkpt lat="43.23762" lon="6.35599">
        <ele>351.5</ele>
        <time>2010-10-10T08:49:28Z</time>
      </trkpt>
      <trkpt lat="43.23762" lon="6.35598">
        <ele>351.5</ele>
        <time>2010-10-10T08:49:49Z</time>
      </trkpt>
      <trkpt lat="43.23762" lon="6.35598">
        <ele>350.54</ele>
        <time>2010-10-10T08:50:07Z</time>
      </trkpt>
      <trkpt lat="43.23763" lon="6.35598">
        <ele>352.46</ele>
        <time>2010-10-10T08:50:28Z</time>
      </trkpt>
      <trkpt lat="43.23763" lon="6.35598">
        <ele>352.94</ele>
        <time>2010-10-10T08:50:45Z</time>
      </trkpt>
      <trkpt lat="43.23763" lon="6.35598">
        <ele>351.02</ele>
        <time>2010-10-10T08:51:05Z</time>
      </trkpt>
      <trkpt lat="43.23763" lon="6.35598">
        <ele>351.5</ele>
        <time>2010-10-10T08:51:23Z</time>
      </trkpt>
      <trkpt lat="43.23763" lon="6.35598">
        <ele>351.98</ele>
        <time>2010-10-10T08:51:47Z</time>
      </trkpt>
      <trkpt lat="43.23763" lon="6.35598">
        <ele>352.46</ele>
        <time>2010-10-10T08:52:06Z</time>
      </trkpt>
      <trkpt lat="43.23763" lon="6.35598">
        <ele>351.5</ele>
        <time>2010-10-10T08:52:28Z</time>
      </trkpt>
      <trkpt lat="43.23763" lon="6.35598">
        <ele>351.98</ele>
        <time>2010-10-10T08:52:46Z</time>
      </trkpt>
      <trkpt lat="43.23763" lon="6.35598">
        <ele>351.98</ele>
        <time>2010-10-10T08:53:06Z</time>
      </trkpt>
      <trkpt lat="43.23763" lon="6.35598">
        <ele>352.46</ele>
        <time>2010-10-10T08:53:25Z</time>
      </trkpt>
      <trkpt lat="43.23763" lon="6.35598">
        <ele>351.5</ele>
        <time>2010-10-10T08:53:44Z</time>
      </trkpt>
      <trkpt lat="43.23763" lon="6.35597">
        <ele>351.98</ele>
        <time>2010-10-10T08:53:57Z</time>
      </trkpt>
      <trkpt lat="43.23763" lon="6.35597">
        <ele>351.98</ele>
        <time>2010-10-10T08:54:09Z</time>
      </trkpt>
      <trkpt lat="43.23765" lon="6.35597">
        <ele>352.46</ele>
        <time>2010-10-10T08:54:17Z</time>
      </trkpt>
      <trkpt lat="43.23767" lon="6.35599">
        <ele>352.46</ele>
        <time>2010-10-10T08:54:18Z</time>
      </trkpt>
      <trkpt lat="43.23778" lon="6.35607">
        <ele>351.98</ele>
        <time>2010-10-10T08:54:23Z</time>
      </trkpt>
      <trkpt lat="43.23785" lon="6.35616">
        <ele>351.98</ele>
        <time>2010-10-10T08:54:26Z</time>
      </trkpt>
      <trkpt lat="43.23785" lon="6.3562">
        <ele>351.5</ele>
        <time>2010-10-10T08:54:27Z</time>
      </trkpt>
      <trkpt lat="43.23783" lon="6.35623">
        <ele>350.54</ele>
        <time>2010-10-10T08:54:28Z</time>
      </trkpt>
      <trkpt lat="43.23782" lon="6.35626">
        <ele>350.06</ele>
        <time>2010-10-10T08:54:29Z</time>
      </trkpt>
      <trkpt lat="43.23781" lon="6.3563">
        <ele>349.58</ele>
        <time>2010-10-10T08:54:30Z</time>
      </trkpt>
      <trkpt lat="43.23779" lon="6.35635">
        <ele>348.62</ele>
        <time>2010-10-10T08:54:31Z</time>
      </trkpt>
      <trkpt lat="43.23779" lon="6.35642">
        <ele>348.13</ele>
        <time>2010-10-10T08:54:32Z</time>
      </trkpt>
      <trkpt lat="43.23778" lon="6.35649">
        <ele>347.17</ele>
        <time>2010-10-10T08:54:33Z</time>
      </trkpt>
      <trkpt lat="43.23778" lon="6.35655">
        <ele>346.69</ele>
        <time>2010-10-10T08:54:34Z</time>
      </trkpt>
      <trkpt lat="43.23779" lon="6.35661">
        <ele>346.69</ele>
        <time>2010-10-10T08:54:35Z</time>
      </trkpt>
      <trkpt lat="43.2378" lon="6.35666">
        <ele>346.21</ele>
        <time>2010-10-10T08:54:36Z</time>
      </trkpt>
      <trkpt lat="43.23782" lon="6.35671">
        <ele>345.73</ele>
        <time>2010-10-10T08:54:37Z</time>
      </trkpt>
      <trkpt lat="43.23785" lon="6.35677">
        <ele>345.25</ele>
        <time>2010-10-10T08:54:38Z</time>
      </trkpt>
      <trkpt lat="43.23789" lon="6.35682">
        <ele>345.25</ele>
        <time>2010-10-10T08:54:39Z</time>
      </trkpt>
      <trkpt lat="43.23797" lon="6.35691">
        <ele>343.81</ele>
        <time>2010-10-10T08:54:41Z</time>
      </trkpt>
      <trkpt lat="43.23801" lon="6.35695">
        <ele>344.29</ele>
        <time>2010-10-10T08:54:42Z</time>
      </trkpt>
      <trkpt lat="43.23805" lon="6.35699">
        <ele>343.81</ele>
        <time>2010-10-10T08:54:43Z</time>
      </trkpt>
      <trkpt lat="43.23808" lon="6.35703">
        <ele>343.81</ele>
        <time>2010-10-10T08:54:44Z</time>
      </trkpt>
      <trkpt lat="43.2381" lon="6.35706">
        <ele>343.81</ele>
        <time>2010-10-10T08:54:45Z</time>
      </trkpt>
      <trkpt lat="43.2381" lon="6.35709">
        <ele>343.81</ele>
        <time>2010-10-10T08:54:46Z</time>
      </trkpt>
      <trkpt lat="43.23807" lon="6.35716">
        <ele>343.33</ele>
        <time>2010-10-10T08:54:49Z</time>
      </trkpt>
      <trkpt lat="43.2379" lon="6.3573">
        <ele>341.89</ele>
        <time>2010-10-10T08:54:55Z</time>
      </trkpt>
      <trkpt lat="43.23772" lon="6.35741">
        <ele>338.52</ele>
        <time>2010-10-10T08:55:00Z</time>
      </trkpt>
      <trkpt lat="43.23756" lon="6.35765">
        <ele>336.12</ele>
        <time>2010-10-10T08:55:06Z</time>
      </trkpt>
      <trkpt lat="43.23749" lon="6.35781">
        <ele>335.16</ele>
        <time>2010-10-10T08:55:10Z</time>
      </trkpt>
      <trkpt lat="43.23749" lon="6.35786">
        <ele>334.68</ele>
        <time>2010-10-10T08:55:11Z</time>
      </trkpt>
      <trkpt lat="43.23748" lon="6.35792">
        <ele>334.2</ele>
        <time>2010-10-10T08:55:12Z</time>
      </trkpt>
      <trkpt lat="43.23748" lon="6.35797">
        <ele>334.2</ele>
        <time>2010-10-10T08:55:13Z</time>
      </trkpt>
      <trkpt lat="43.23748" lon="6.35803">
        <ele>334.2</ele>
        <time>2010-10-10T08:55:14Z</time>
      </trkpt>
      <trkpt lat="43.23748" lon="6.35809">
        <ele>333.71</ele>
        <time>2010-10-10T08:55:15Z</time>
      </trkpt>
      <trkpt lat="43.23747" lon="6.35815">
        <ele>333.23</ele>
        <time>2010-10-10T08:55:16Z</time>
      </trkpt>
      <trkpt lat="43.23746" lon="6.35822">
        <ele>332.27</ele>
        <time>2010-10-10T08:55:17Z</time>
      </trkpt>
      <trkpt lat="43.23745" lon="6.35828">
        <ele>331.79</ele>
        <time>2010-10-10T08:55:18Z</time>
      </trkpt>
      <trkpt lat="43.23745" lon="6.35834">
        <ele>330.35</ele>
        <time>2010-10-10T08:55:19Z</time>
      </trkpt>
      <trkpt lat="43.23735" lon="6.35856">
        <ele>327.95</ele>
        <time>2010-10-10T08:55:24Z</time>
      </trkpt>
      <trkpt lat="43.23734" lon="6.35858">
        <ele>327.47</ele>
        <time>2010-10-10T08:55:25Z</time>
      </trkpt>
      <trkpt lat="43.23732" lon="6.35871">
        <ele>326.02</ele>
        <time>2010-10-10T08:55:29Z</time>
      </trkpt>
      <trkpt lat="43.23725" lon="6.3589">
        <ele>324.58</ele>
        <time>2010-10-10T08:55:33Z</time>
      </trkpt>
      <trkpt lat="43.23719" lon="6.35913">
        <ele>323.62</ele>
        <time>2010-10-10T08:55:38Z</time>
      </trkpt>
      <trkpt lat="43.2371" lon="6.35923">
        <ele>322.66</ele>
        <time>2010-10-10T08:55:42Z</time>
      </trkpt>
      <trkpt lat="43.23708" lon="6.35924">
        <ele>322.18</ele>
        <time>2010-10-10T08:55:43Z</time>
      </trkpt>
      <trkpt lat="43.23706" lon="6.35927">
        <ele>321.7</ele>
        <time>2010-10-10T08:55:44Z</time>
      </trkpt>
      <trkpt lat="43.23691" lon="6.35945">
        <ele>321.7</ele>
        <time>2010-10-10T08:55:50Z</time>
      </trkpt>
      <trkpt lat="43.23677" lon="6.35965">
        <ele>321.22</ele>
        <time>2010-10-10T08:55:56Z</time>
      </trkpt>
      <trkpt lat="43.23667" lon="6.35974">
        <ele>320.26</ele>
        <time>2010-10-10T08:56:01Z</time>
      </trkpt>
      <trkpt lat="43.23651" lon="6.35985">
        <ele>319.78</ele>
        <time>2010-10-10T08:56:06Z</time>
      </trkpt>
      <trkpt lat="43.23632" lon="6.35991">
        <ele>320.26</ele>
        <time>2010-10-10T08:56:12Z</time>
      </trkpt>
      <trkpt lat="43.23612" lon="6.35998">
        <ele>319.3</ele>
        <time>2010-10-10T08:56:17Z</time>
      </trkpt>
      <trkpt lat="43.23608" lon="6.35999">
        <ele>319.3</ele>
        <time>2010-10-10T08:56:18Z</time>
      </trkpt>
      <trkpt lat="43.23588" lon="6.36003">
        <ele>318.33</ele>
        <time>2010-10-10T08:56:22Z</time>
      </trkpt>
      <trkpt lat="43.23583" lon="6.36005">
        <ele>318.81</ele>
        <time>2010-10-10T08:56:23Z</time>
      </trkpt>
      <trkpt lat="43.23571" lon="6.36008">
        <ele>318.33</ele>
        <time>2010-10-10T08:56:25Z</time>
      </trkpt>
      <trkpt lat="43.23524" lon="6.36036">
        <ele>315.93</ele>
        <time>2010-10-10T08:56:33Z</time>
      </trkpt>
      <trkpt lat="43.23517" lon="6.36042">
        <ele>315.45</ele>
        <time>2010-10-10T08:56:34Z</time>
      </trkpt>
      <trkpt lat="43.23511" lon="6.36048">
        <ele>315.45</ele>
        <time>2010-10-10T08:56:35Z</time>
      </trkpt>
      <trkpt lat="43.23505" lon="6.36056">
        <ele>314.97</ele>
        <time>2010-10-10T08:56:36Z</time>
      </trkpt>
      <trkpt lat="43.235" lon="6.36064">
        <ele>314.49</ele>
        <time>2010-10-10T08:56:37Z</time>
      </trkpt>
      <trkpt lat="43.23495" lon="6.36072">
        <ele>314.01</ele>
        <time>2010-10-10T08:56:38Z</time>
      </trkpt>
      <trkpt lat="43.23491" lon="6.36082">
        <ele>313.53</ele>
        <time>2010-10-10T08:56:39Z</time>
      </trkpt>
      <trkpt lat="43.23488" lon="6.36091">
        <ele>313.53</ele>
        <time>2010-10-10T08:56:40Z</time>
      </trkpt>
      <trkpt lat="43.23455" lon="6.36174">
        <ele>311.12</ele>
        <time>2010-10-10T08:56:49Z</time>
      </trkpt>
      <trkpt lat="43.23432" lon="6.36254">
        <ele>309.68</ele>
        <time>2010-10-10T08:56:58Z</time>
      </trkpt>
      <trkpt lat="43.23426" lon="6.3628">
        <ele>309.2</ele>
        <time>2010-10-10T08:57:01Z</time>
      </trkpt>
      <trkpt lat="43.23422" lon="6.36338">
        <ele>310.16</ele>
        <time>2010-10-10T08:57:08Z</time>
      </trkpt>
      <trkpt lat="43.23421" lon="6.36341">
        <ele>310.16</ele>
        <time>2010-10-10T08:57:09Z</time>
      </trkpt>
      <trkpt lat="43.23419" lon="6.36343">
        <ele>310.16</ele>
        <time>2010-10-10T08:57:10Z</time>
      </trkpt>
      <trkpt lat="43.23417" lon="6.36343">
        <ele>309.68</ele>
        <time>2010-10-10T08:57:11Z</time>
      </trkpt>
      <trkpt lat="43.23414" lon="6.36342">
        <ele>308.24</ele>
        <time>2010-10-10T08:57:12Z</time>
      </trkpt>
      <trkpt lat="43.23411" lon="6.36339">
        <ele>308.72</ele>
        <time>2010-10-10T08:57:13Z</time>
      </trkpt>
      <trkpt lat="43.23409" lon="6.36336">
        <ele>309.2</ele>
        <time>2010-10-10T08:57:14Z</time>
      </trkpt>
      <trkpt lat="43.23408" lon="6.36335">
        <ele>309.2</ele>
        <time>2010-10-10T08:57:15Z</time>
      </trkpt>
      <trkpt lat="43.23407" lon="6.36334">
        <ele>309.2</ele>
        <time>2010-10-10T08:57:16Z</time>
      </trkpt>
      <trkpt lat="43.23403" lon="6.36332">
        <ele>309.68</ele>
        <time>2010-10-10T08:57:21Z</time>
      </trkpt>
      <trkpt lat="43.23401" lon="6.36332">
        <ele>309.68</ele>
        <time>2010-10-10T08:57:25Z</time>
      </trkpt>
      <trkpt lat="43.234" lon="6.36331">
        <ele>309.2</ele>
        <time>2010-10-10T08:57:26Z</time>
      </trkpt>
      <trkpt lat="43.23399" lon="6.36331">
        <ele>309.68</ele>
        <time>2010-10-10T08:57:27Z</time>
      </trkpt>
      <trkpt lat="43.23398" lon="6.3633">
        <ele>309.68</ele>
        <time>2010-10-10T08:57:28Z</time>
      </trkpt>
      <trkpt lat="43.23397" lon="6.36329">
        <ele>309.68</ele>
        <time>2010-10-10T08:57:29Z</time>
      </trkpt>
      <trkpt lat="43.23394" lon="6.36326">
        <ele>310.16</ele>
        <time>2010-10-10T08:57:32Z</time>
      </trkpt>
      <trkpt lat="43.23392" lon="6.36326">
        <ele>311.12</ele>
        <time>2010-10-10T08:57:37Z</time>
      </trkpt>
      <trkpt lat="43.23392" lon="6.36326">
        <ele>311.12</ele>
        <time>2010-10-10T08:57:58Z</time>
      </trkpt>
      <trkpt lat="43.23392" lon="6.36326">
        <ele>311.12</ele>
        <time>2010-10-10T08:58:16Z</time>
      </trkpt>
      <trkpt lat="43.23392" lon="6.36326">
        <ele>310.64</ele>
        <time>2010-10-10T08:58:23Z</time>
      </trkpt>
      <trkpt lat="43.23392" lon="6.36326">
        <ele>310.64</ele>
        <time>2010-10-10T08:58:31Z</time>
      </trkpt>
      <trkpt lat="43.23392" lon="6.36326">
        <ele>311.12</ele>
        <time>2010-10-10T08:58:44Z</time>
      </trkpt>
      <trkpt lat="43.23392" lon="6.36326">
        <ele>310.16</ele>
        <time>2010-10-10T08:58:45Z</time>
      </trkpt>
      <trkpt lat="43.23391" lon="6.36325">
        <ele>311.12</ele>
        <time>2010-10-10T08:58:46Z</time>
      </trkpt>
      <trkpt lat="43.23389" lon="6.36325">
        <ele>311.12</ele>
        <time>2010-10-10T08:58:47Z</time>
      </trkpt>
      <trkpt lat="43.23388" lon="6.36324">
        <ele>311.12</ele>
        <time>2010-10-10T08:58:48Z</time>
      </trkpt>
      <trkpt lat="43.23386" lon="6.36323">
        <ele>311.6</ele>
        <time>2010-10-10T08:58:49Z</time>
      </trkpt>
      <trkpt lat="43.23384" lon="6.36322">
        <ele>311.6</ele>
        <time>2010-10-10T08:58:50Z</time>
      </trkpt>
      <trkpt lat="43.23382" lon="6.36321">
        <ele>312.09</ele>
        <time>2010-10-10T08:58:51Z</time>
      </trkpt>
      <trkpt lat="43.2338" lon="6.3632">
        <ele>312.09</ele>
        <time>2010-10-10T08:58:52Z</time>
      </trkpt>
      <trkpt lat="43.23376" lon="6.36319">
        <ele>313.05</ele>
        <time>2010-10-10T08:58:54Z</time>
      </trkpt>
      <trkpt lat="43.23374" lon="6.36318">
        <ele>312.57</ele>
        <time>2010-10-10T08:58:55Z</time>
      </trkpt>
      <trkpt lat="43.23356" lon="6.36313">
        <ele>314.01</ele>
        <time>2010-10-10T08:59:02Z</time>
      </trkpt>
      <trkpt lat="43.23354" lon="6.36313">
        <ele>314.01</ele>
        <time>2010-10-10T08:59:03Z</time>
      </trkpt>
      <trkpt lat="43.23352" lon="6.36314">
        <ele>314.01</ele>
        <time>2010-10-10T08:59:04Z</time>
      </trkpt>
      <trkpt lat="43.2335" lon="6.36315">
        <ele>314.01</ele>
        <time>2010-10-10T08:59:05Z</time>
      </trkpt>
      <trkpt lat="43.23348" lon="6.36316">
        <ele>314.01</ele>
        <time>2010-10-10T08:59:06Z</time>
      </trkpt>
      <trkpt lat="43.23346" lon="6.36316">
        <ele>314.49</ele>
        <time>2010-10-10T08:59:07Z</time>
      </trkpt>
      <trkpt lat="43.23344" lon="6.36317">
        <ele>314.49</ele>
        <time>2010-10-10T08:59:08Z</time>
      </trkpt>
      <trkpt lat="43.23329" lon="6.36319">
        <ele>316.89</ele>
        <time>2010-10-10T08:59:15Z</time>
      </trkpt>
      <trkpt lat="43.23314" lon="6.36321">
        <ele>319.78</ele>
        <time>2010-10-10T08:59:23Z</time>
      </trkpt>
      <trkpt lat="43.23299" lon="6.36326">
        <ele>321.7</ele>
        <time>2010-10-10T08:59:31Z</time>
      </trkpt>
      <trkpt lat="43.23284" lon="6.36329">
        <ele>323.14</ele>
        <time>2010-10-10T08:59:39Z</time>
      </trkpt>
      <trkpt lat="43.2327" lon="6.36334">
        <ele>325.06</ele>
        <time>2010-10-10T08:59:47Z</time>
      </trkpt>
      <trkpt lat="43.23258" lon="6.36351">
        <ele>326.5</ele>
        <time>2010-10-10T08:59:56Z</time>
      </trkpt>
      <trkpt lat="43.23254" lon="6.3636">
        <ele>328.43</ele>
        <time>2010-10-10T09:00:00Z</time>
      </trkpt>
      <trkpt lat="43.23254" lon="6.36362">
        <ele>329.39</ele>
        <time>2010-10-10T09:00:01Z</time>
      </trkpt>
      <trkpt lat="43.23255" lon="6.36364">
        <ele>329.87</ele>
        <time>2010-10-10T09:00:02Z</time>
      </trkpt>
      <trkpt lat="43.23256" lon="6.36367">
        <ele>329.87</ele>
        <time>2010-10-10T09:00:03Z</time>
      </trkpt>
      <trkpt lat="43.23257" lon="6.36367">
        <ele>330.35</ele>
        <time>2010-10-10T09:00:04Z</time>
      </trkpt>
      <trkpt lat="43.23259" lon="6.36368">
        <ele>328.43</ele>
        <time>2010-10-10T09:00:05Z</time>
      </trkpt>
      <trkpt lat="43.23261" lon="6.36368">
        <ele>330.83</ele>
        <time>2010-10-10T09:00:06Z</time>
      </trkpt>
      <trkpt lat="43.23263" lon="6.36368">
        <ele>329.87</ele>
        <time>2010-10-10T09:00:07Z</time>
      </trkpt>
      <trkpt lat="43.23266" lon="6.36368">
        <ele>330.35</ele>
        <time>2010-10-10T09:00:08Z</time>
      </trkpt>
      <trkpt lat="43.23268" lon="6.36369">
        <ele>330.35</ele>
        <time>2010-10-10T09:00:09Z</time>
      </trkpt>
      <trkpt lat="43.23285" lon="6.3637">
        <ele>331.79</ele>
        <time>2010-10-10T09:00:18Z</time>
      </trkpt>
      <trkpt lat="43.23298" lon="6.36372">
        <ele>332.75</ele>
        <time>2010-10-10T09:00:25Z</time>
      </trkpt>
      <trkpt lat="43.23308" lon="6.36381">
        <ele>334.2</ele>
        <time>2010-10-10T09:00:31Z</time>
      </trkpt>
      <trkpt lat="43.23308" lon="6.36384">
        <ele>334.68</ele>
        <time>2010-10-10T09:00:32Z</time>
      </trkpt>
      <trkpt lat="43.23307" lon="6.36386">
        <ele>335.16</ele>
        <time>2010-10-10T09:00:33Z</time>
      </trkpt>
      <trkpt lat="43.23305" lon="6.36387">
        <ele>334.68</ele>
        <time>2010-10-10T09:00:34Z</time>
      </trkpt>
      <trkpt lat="43.23302" lon="6.36387">
        <ele>335.16</ele>
        <time>2010-10-10T09:00:35Z</time>
      </trkpt>
      <trkpt lat="43.233" lon="6.36387">
        <ele>335.16</ele>
        <time>2010-10-10T09:00:36Z</time>
      </trkpt>
      <trkpt lat="43.23298" lon="6.36387">
        <ele>335.16</ele>
        <time>2010-10-10T09:00:37Z</time>
      </trkpt>
      <trkpt lat="43.23296" lon="6.36387">
        <ele>335.64</ele>
        <time>2010-10-10T09:00:38Z</time>
      </trkpt>
      <trkpt lat="43.23294" lon="6.36387">
        <ele>335.64</ele>
        <time>2010-10-10T09:00:39Z</time>
      </trkpt>
      <trkpt lat="43.23279" lon="6.36393">
        <ele>337.56</ele>
        <time>2010-10-10T09:00:47Z</time>
      </trkpt>
      <trkpt lat="43.23263" lon="6.36406">
        <ele>339</ele>
        <time>2010-10-10T09:00:56Z</time>
      </trkpt>
      <trkpt lat="43.23248" lon="6.36424">
        <ele>340.44</ele>
        <time>2010-10-10T09:01:05Z</time>
      </trkpt>
      <trkpt lat="43.23238" lon="6.36451">
        <ele>342.85</ele>
        <time>2010-10-10T09:01:15Z</time>
      </trkpt>
      <trkpt lat="43.23231" lon="6.36474">
        <ele>343.81</ele>
        <time>2010-10-10T09:01:23Z</time>
      </trkpt>
      <trkpt lat="43.23217" lon="6.36497">
        <ele>346.21</ele>
        <time>2010-10-10T09:01:32Z</time>
      </trkpt>
      <trkpt lat="43.23215" lon="6.36498">
        <ele>346.21</ele>
        <time>2010-10-10T09:01:33Z</time>
      </trkpt>
      <trkpt lat="43.23202" lon="6.36501">
        <ele>346.69</ele>
        <time>2010-10-10T09:01:38Z</time>
      </trkpt>
      <trkpt lat="43.232" lon="6.36503">
        <ele>346.69</ele>
        <time>2010-10-10T09:01:39Z</time>
      </trkpt>
      <trkpt lat="43.23199" lon="6.36506">
        <ele>347.17</ele>
        <time>2010-10-10T09:01:40Z</time>
      </trkpt>
      <trkpt lat="43.232" lon="6.36509">
        <ele>347.65</ele>
        <time>2010-10-10T09:01:41Z</time>
      </trkpt>
      <trkpt lat="43.23201" lon="6.36511">
        <ele>348.13</ele>
        <time>2010-10-10T09:01:42Z</time>
      </trkpt>
      <trkpt lat="43.23203" lon="6.36511">
        <ele>348.13</ele>
        <time>2010-10-10T09:01:43Z</time>
      </trkpt>
      <trkpt lat="43.23206" lon="6.36511">
        <ele>348.62</ele>
        <time>2010-10-10T09:01:44Z</time>
      </trkpt>
      <trkpt lat="43.23208" lon="6.36512">
        <ele>348.62</ele>
        <time>2010-10-10T09:01:45Z</time>
      </trkpt>
      <trkpt lat="43.2321" lon="6.36512">
        <ele>348.62</ele>
        <time>2010-10-10T09:01:46Z</time>
      </trkpt>
      <trkpt lat="43.23224" lon="6.36509">
        <ele>350.06</ele>
        <time>2010-10-10T09:01:52Z</time>
      </trkpt>
      <trkpt lat="43.23237" lon="6.36503">
        <ele>351.5</ele>
        <time>2010-10-10T09:01:58Z</time>
      </trkpt>
      <trkpt lat="43.23239" lon="6.36501">
        <ele>351.5</ele>
        <time>2010-10-10T09:01:59Z</time>
      </trkpt>
      <trkpt lat="43.23249" lon="6.36481">
        <ele>352.46</ele>
        <time>2010-10-10T09:02:07Z</time>
      </trkpt>
      <trkpt lat="43.23256" lon="6.36469">
        <ele>352.94</ele>
        <time>2010-10-10T09:02:12Z</time>
      </trkpt>
      <trkpt lat="43.23258" lon="6.36467">
        <ele>352.94</ele>
        <time>2010-10-10T09:02:13Z</time>
      </trkpt>
      <trkpt lat="43.23272" lon="6.36457">
        <ele>354.86</ele>
        <time>2010-10-10T09:02:20Z</time>
      </trkpt>
      <trkpt lat="43.23287" lon="6.36453">
        <ele>356.79</ele>
        <time>2010-10-10T09:02:27Z</time>
      </trkpt>
      <trkpt lat="43.23301" lon="6.36455">
        <ele>357.75</ele>
        <time>2010-10-10T09:02:33Z</time>
      </trkpt>
      <trkpt lat="43.2331" lon="6.36457">
        <ele>358.71</ele>
        <time>2010-10-10T09:02:37Z</time>
      </trkpt>
      <trkpt lat="43.23324" lon="6.36468">
        <ele>359.67</ele>
        <time>2010-10-10T09:02:44Z</time>
      </trkpt>
      <trkpt lat="43.23325" lon="6.36492">
        <ele>361.59</ele>
        <time>2010-10-10T09:02:51Z</time>
      </trkpt>
      <trkpt lat="43.23323" lon="6.36518">
        <ele>361.59</ele>
        <time>2010-10-10T09:02:57Z</time>
      </trkpt>
      <trkpt lat="43.2331" lon="6.3654">
        <ele>361.11</ele>
        <time>2010-10-10T09:03:03Z</time>
      </trkpt>
      <trkpt lat="43.23291" lon="6.36561">
        <ele>360.15</ele>
        <time>2010-10-10T09:03:09Z</time>
      </trkpt>
      <trkpt lat="43.23273" lon="6.36589">
        <ele>360.15</ele>
        <time>2010-10-10T09:03:16Z</time>
      </trkpt>
      <trkpt lat="43.23266" lon="6.36613">
        <ele>360.15</ele>
        <time>2010-10-10T09:03:21Z</time>
      </trkpt>
      <trkpt lat="43.23265" lon="6.36618">
        <ele>359.67</ele>
        <time>2010-10-10T09:03:22Z</time>
      </trkpt>
      <trkpt lat="43.23263" lon="6.36624">
        <ele>359.67</ele>
        <time>2010-10-10T09:03:23Z</time>
      </trkpt>
      <trkpt lat="43.23262" lon="6.3663">
        <ele>361.11</ele>
        <time>2010-10-10T09:03:24Z</time>
      </trkpt>
      <trkpt lat="43.2326" lon="6.36635">
        <ele>359.67</ele>
        <time>2010-10-10T09:03:25Z</time>
      </trkpt>
      <trkpt lat="43.23257" lon="6.3664">
        <ele>359.19</ele>
        <time>2010-10-10T09:03:26Z</time>
      </trkpt>
      <trkpt lat="43.23255" lon="6.36645">
        <ele>359.19</ele>
        <time>2010-10-10T09:03:27Z</time>
      </trkpt>
      <trkpt lat="43.23251" lon="6.36651">
        <ele>359.19</ele>
        <time>2010-10-10T09:03:28Z</time>
      </trkpt>
      <trkpt lat="43.23235" lon="6.36677">
        <ele>358.23</ele>
        <time>2010-10-10T09:03:33Z</time>
      </trkpt>
      <trkpt lat="43.23233" lon="6.36684">
        <ele>358.23</ele>
        <time>2010-10-10T09:03:34Z</time>
      </trkpt>
      <trkpt lat="43.2323" lon="6.36709">
        <ele>357.75</ele>
        <time>2010-10-10T09:03:37Z</time>
      </trkpt>
      <trkpt lat="43.23227" lon="6.36717">
        <ele>356.79</ele>
        <time>2010-10-10T09:03:38Z</time>
      </trkpt>
      <trkpt lat="43.23224" lon="6.36724">
        <ele>356.31</ele>
        <time>2010-10-10T09:03:39Z</time>
      </trkpt>
      <trkpt lat="43.23219" lon="6.36731">
        <ele>355.83</ele>
        <time>2010-10-10T09:03:40Z</time>
      </trkpt>
      <trkpt lat="43.23215" lon="6.36737">
        <ele>355.83</ele>
        <time>2010-10-10T09:03:41Z</time>
      </trkpt>
      <trkpt lat="43.2321" lon="6.36743">
        <ele>355.34</ele>
        <time>2010-10-10T09:03:42Z</time>
      </trkpt>
      <trkpt lat="43.23204" lon="6.36748">
        <ele>355.34</ele>
        <time>2010-10-10T09:03:43Z</time>
      </trkpt>
      <trkpt lat="43.23199" lon="6.36752">
        <ele>354.86</ele>
        <time>2010-10-10T09:03:44Z</time>
      </trkpt>
      <trkpt lat="43.23193" lon="6.36755">
        <ele>355.34</ele>
        <time>2010-10-10T09:03:45Z</time>
      </trkpt>
      <trkpt lat="43.23187" lon="6.36758">
        <ele>354.86</ele>
        <time>2010-10-10T09:03:46Z</time>
      </trkpt>
      <trkpt lat="43.2318" lon="6.36762">
        <ele>354.38</ele>
        <time>2010-10-10T09:03:47Z</time>
      </trkpt>
      <trkpt lat="43.23175" lon="6.36766">
        <ele>354.38</ele>
        <time>2010-10-10T09:03:48Z</time>
      </trkpt>
      <trkpt lat="43.2317" lon="6.36771">
        <ele>354.38</ele>
        <time>2010-10-10T09:03:49Z</time>
      </trkpt>
      <trkpt lat="43.23165" lon="6.36776">
        <ele>354.38</ele>
        <time>2010-10-10T09:03:50Z</time>
      </trkpt>
      <trkpt lat="43.2316" lon="6.36782">
        <ele>353.9</ele>
        <time>2010-10-10T09:03:51Z</time>
      </trkpt>
      <trkpt lat="43.23155" lon="6.36787">
        <ele>353.42</ele>
        <time>2010-10-10T09:03:52Z</time>
      </trkpt>
      <trkpt lat="43.23149" lon="6.36792">
        <ele>352.94</ele>
        <time>2010-10-10T09:03:53Z</time>
      </trkpt>
      <trkpt lat="43.23143" lon="6.36795">
        <ele>353.42</ele>
        <time>2010-10-10T09:03:54Z</time>
      </trkpt>
      <trkpt lat="43.23138" lon="6.36798">
        <ele>352.94</ele>
        <time>2010-10-10T09:03:55Z</time>
      </trkpt>
      <trkpt lat="43.23132" lon="6.36803">
        <ele>352.46</ele>
        <time>2010-10-10T09:03:56Z</time>
      </trkpt>
      <trkpt lat="43.23127" lon="6.36808">
        <ele>352.94</ele>
        <time>2010-10-10T09:03:57Z</time>
      </trkpt>
      <trkpt lat="43.23104" lon="6.36831">
        <ele>351.98</ele>
        <time>2010-10-10T09:04:01Z</time>
      </trkpt>
      <trkpt lat="43.231" lon="6.36839">
        <ele>352.46</ele>
        <time>2010-10-10T09:04:02Z</time>
      </trkpt>
      <trkpt lat="43.23097" lon="6.36848">
        <ele>352.94</ele>
        <time>2010-10-10T09:04:03Z</time>
      </trkpt>
      <trkpt lat="43.23092" lon="6.36855">
        <ele>352.46</ele>
        <time>2010-10-10T09:04:04Z</time>
      </trkpt>
      <trkpt lat="43.23087" lon="6.3686">
        <ele>352.46</ele>
        <time>2010-10-10T09:04:05Z</time>
      </trkpt>
      <trkpt lat="43.23081" lon="6.36865">
        <ele>352.46</ele>
        <time>2010-10-10T09:04:06Z</time>
      </trkpt>
      <trkpt lat="43.23075" lon="6.36871">
        <ele>351.98</ele>
        <time>2010-10-10T09:04:07Z</time>
      </trkpt>
      <trkpt lat="43.23071" lon="6.36877">
        <ele>351.98</ele>
        <time>2010-10-10T09:04:08Z</time>
      </trkpt>
      <trkpt lat="43.23068" lon="6.36885">
        <ele>352.46</ele>
        <time>2010-10-10T09:04:09Z</time>
      </trkpt>
      <trkpt lat="43.23064" lon="6.36893">
        <ele>352.46</ele>
        <time>2010-10-10T09:04:10Z</time>
      </trkpt>
      <trkpt lat="43.23048" lon="6.36923">
        <ele>351.02</ele>
        <time>2010-10-10T09:04:14Z</time>
      </trkpt>
      <trkpt lat="43.23039" lon="6.36936">
        <ele>350.54</ele>
        <time>2010-10-10T09:04:16Z</time>
      </trkpt>
      <trkpt lat="43.23033" lon="6.36942">
        <ele>351.02</ele>
        <time>2010-10-10T09:04:17Z</time>
      </trkpt>
      <trkpt lat="43.23027" lon="6.36947">
        <ele>350.06</ele>
        <time>2010-10-10T09:04:18Z</time>
      </trkpt>
      <trkpt lat="43.23023" lon="6.36953">
        <ele>349.58</ele>
        <time>2010-10-10T09:04:19Z</time>
      </trkpt>
      <trkpt lat="43.23018" lon="6.3696">
        <ele>349.58</ele>
        <time>2010-10-10T09:04:20Z</time>
      </trkpt>
      <trkpt lat="43.23008" lon="6.36971">
        <ele>348.62</ele>
        <time>2010-10-10T09:04:22Z</time>
      </trkpt>
      <trkpt lat="43.22997" lon="6.3698">
        <ele>348.62</ele>
        <time>2010-10-10T09:04:24Z</time>
      </trkpt>
      <trkpt lat="43.22985" lon="6.36987">
        <ele>348.62</ele>
        <time>2010-10-10T09:04:26Z</time>
      </trkpt>
      <trkpt lat="43.2298" lon="6.36989">
        <ele>348.13</ele>
        <time>2010-10-10T09:04:27Z</time>
      </trkpt>
      <trkpt lat="43.22974" lon="6.36992">
        <ele>347.17</ele>
        <time>2010-10-10T09:04:28Z</time>
      </trkpt>
      <trkpt lat="43.22969" lon="6.36996">
        <ele>346.69</ele>
        <time>2010-10-10T09:04:29Z</time>
      </trkpt>
      <trkpt lat="43.22965" lon="6.37001">
        <ele>346.21</ele>
        <time>2010-10-10T09:04:30Z</time>
      </trkpt>
      <trkpt lat="43.2296" lon="6.37007">
        <ele>345.73</ele>
        <time>2010-10-10T09:04:31Z</time>
      </trkpt>
      <trkpt lat="43.22956" lon="6.37012">
        <ele>345.25</ele>
        <time>2010-10-10T09:04:32Z</time>
      </trkpt>
      <trkpt lat="43.22952" lon="6.37018">
        <ele>344.77</ele>
        <time>2010-10-10T09:04:33Z</time>
      </trkpt>
      <trkpt lat="43.22951" lon="6.37025">
        <ele>345.25</ele>
        <time>2010-10-10T09:04:34Z</time>
      </trkpt>
      <trkpt lat="43.2295" lon="6.37033">
        <ele>345.73</ele>
        <time>2010-10-10T09:04:35Z</time>
      </trkpt>
      <trkpt lat="43.22949" lon="6.37041">
        <ele>345.25</ele>
        <time>2010-10-10T09:04:36Z</time>
      </trkpt>
      <trkpt lat="43.22947" lon="6.37049">
        <ele>345.73</ele>
        <time>2010-10-10T09:04:37Z</time>
      </trkpt>
      <trkpt lat="43.22944" lon="6.37056">
        <ele>345.25</ele>
        <time>2010-10-10T09:04:38Z</time>
      </trkpt>
      <trkpt lat="43.2294" lon="6.37063">
        <ele>344.29</ele>
        <time>2010-10-10T09:04:39Z</time>
      </trkpt>
      <trkpt lat="43.22936" lon="6.37068">
        <ele>344.29</ele>
        <time>2010-10-10T09:04:40Z</time>
      </trkpt>
      <trkpt lat="43.22931" lon="6.37074">
        <ele>343.81</ele>
        <time>2010-10-10T09:04:41Z</time>
      </trkpt>
      <trkpt lat="43.22928" lon="6.3708">
        <ele>343.81</ele>
        <time>2010-10-10T09:04:42Z</time>
      </trkpt>
      <trkpt lat="43.2291" lon="6.37113">
        <ele>343.33</ele>
        <time>2010-10-10T09:04:47Z</time>
      </trkpt>
      <trkpt lat="43.22905" lon="6.37119">
        <ele>342.85</ele>
        <time>2010-10-10T09:04:48Z</time>
      </trkpt>
      <trkpt lat="43.229" lon="6.37124">
        <ele>342.37</ele>
        <time>2010-10-10T09:04:49Z</time>
      </trkpt>
      <trkpt lat="43.22894" lon="6.37128">
        <ele>342.37</ele>
        <time>2010-10-10T09:04:50Z</time>
      </trkpt>
      <trkpt lat="43.2289" lon="6.37132">
        <ele>342.37</ele>
        <time>2010-10-10T09:04:51Z</time>
      </trkpt>
      <trkpt lat="43.22888" lon="6.37137">
        <ele>341.89</ele>
        <time>2010-10-10T09:04:52Z</time>
      </trkpt>
      <trkpt lat="43.22886" lon="6.37143">
        <ele>342.37</ele>
        <time>2010-10-10T09:04:53Z</time>
      </trkpt>
      <trkpt lat="43.22886" lon="6.37149">
        <ele>343.33</ele>
        <time>2010-10-10T09:04:54Z</time>
      </trkpt>
      <trkpt lat="43.22887" lon="6.37154">
        <ele>343.81</ele>
        <time>2010-10-10T09:04:55Z</time>
      </trkpt>
      <trkpt lat="43.22892" lon="6.37191">
        <ele>342.37</ele>
        <time>2010-10-10T09:05:00Z</time>
      </trkpt>
      <trkpt lat="43.22893" lon="6.37214">
        <ele>341.89</ele>
        <time>2010-10-10T09:05:03Z</time>
      </trkpt>
      <trkpt lat="43.22893" lon="6.37222">
        <ele>341.41</ele>
        <time>2010-10-10T09:05:04Z</time>
      </trkpt>
      <trkpt lat="43.22891" lon="6.3723">
        <ele>341.41</ele>
        <time>2010-10-10T09:05:05Z</time>
      </trkpt>
      <trkpt lat="43.22888" lon="6.37237">
        <ele>341.41</ele>
        <time>2010-10-10T09:05:06Z</time>
      </trkpt>
      <trkpt lat="43.22883" lon="6.37241">
        <ele>340.92</ele>
        <time>2010-10-10T09:05:07Z</time>
      </trkpt>
      <trkpt lat="43.22879" lon="6.37246">
        <ele>340.44</ele>
        <time>2010-10-10T09:05:08Z</time>
      </trkpt>
      <trkpt lat="43.22877" lon="6.37251">
        <ele>340.92</ele>
        <time>2010-10-10T09:05:09Z</time>
      </trkpt>
      <trkpt lat="43.22876" lon="6.37258">
        <ele>340.92</ele>
        <time>2010-10-10T09:05:10Z</time>
      </trkpt>
      <trkpt lat="43.22877" lon="6.37266">
        <ele>340.92</ele>
        <time>2010-10-10T09:05:11Z</time>
      </trkpt>
      <trkpt lat="43.22879" lon="6.37274">
        <ele>340.92</ele>
        <time>2010-10-10T09:05:12Z</time>
      </trkpt>
      <trkpt lat="43.22881" lon="6.37282">
        <ele>340.92</ele>
        <time>2010-10-10T09:05:13Z</time>
      </trkpt>
      <trkpt lat="43.22883" lon="6.3729">
        <ele>340.44</ele>
        <time>2010-10-10T09:05:14Z</time>
      </trkpt>
      <trkpt lat="43.22884" lon="6.37298">
        <ele>340.44</ele>
        <time>2010-10-10T09:05:15Z</time>
      </trkpt>
      <trkpt lat="43.22884" lon="6.37307">
        <ele>340.44</ele>
        <time>2010-10-10T09:05:16Z</time>
      </trkpt>
      <trkpt lat="43.22884" lon="6.37316">
        <ele>339.96</ele>
        <time>2010-10-10T09:05:17Z</time>
      </trkpt>
      <trkpt lat="43.22884" lon="6.37323">
        <ele>339.96</ele>
        <time>2010-10-10T09:05:18Z</time>
      </trkpt>
      <trkpt lat="43.22883" lon="6.37331">
        <ele>339.96</ele>
        <time>2010-10-10T09:05:19Z</time>
      </trkpt>
      <trkpt lat="43.22879" lon="6.37356">
        <ele>339.48</ele>
        <time>2010-10-10T09:05:22Z</time>
      </trkpt>
      <trkpt lat="43.22878" lon="6.37363">
        <ele>339.48</ele>
        <time>2010-10-10T09:05:23Z</time>
      </trkpt>
      <trkpt lat="43.22876" lon="6.37371">
        <ele>339</ele>
        <time>2010-10-10T09:05:24Z</time>
      </trkpt>
      <trkpt lat="43.22871" lon="6.37388">
        <ele>339.48</ele>
        <time>2010-10-10T09:05:26Z</time>
      </trkpt>
      <trkpt lat="43.22867" lon="6.37396">
        <ele>339</ele>
        <time>2010-10-10T09:05:27Z</time>
      </trkpt>
      <trkpt lat="43.22863" lon="6.37404">
        <ele>339</ele>
        <time>2010-10-10T09:05:28Z</time>
      </trkpt>
      <trkpt lat="43.2284" lon="6.3745">
        <ele>338.04</ele>
        <time>2010-10-10T09:05:34Z</time>
      </trkpt>
      <trkpt lat="43.22836" lon="6.37457">
        <ele>337.56</ele>
        <time>2010-10-10T09:05:35Z</time>
      </trkpt>
      <trkpt lat="43.22832" lon="6.37465">
        <ele>337.08</ele>
        <time>2010-10-10T09:05:36Z</time>
      </trkpt>
      <trkpt lat="43.22828" lon="6.37473">
        <ele>337.08</ele>
        <time>2010-10-10T09:05:37Z</time>
      </trkpt>
      <trkpt lat="43.22826" lon="6.37483">
        <ele>337.08</ele>
        <time>2010-10-10T09:05:38Z</time>
      </trkpt>
      <trkpt lat="43.22826" lon="6.37493">
        <ele>337.08</ele>
        <time>2010-10-10T09:05:39Z</time>
      </trkpt>
      <trkpt lat="43.22825" lon="6.37503">
        <ele>336.6</ele>
        <time>2010-10-10T09:05:40Z</time>
      </trkpt>
      <trkpt lat="43.22824" lon="6.37513">
        <ele>336.6</ele>
        <time>2010-10-10T09:05:41Z</time>
      </trkpt>
      <trkpt lat="43.22823" lon="6.37522">
        <ele>336.6</ele>
        <time>2010-10-10T09:05:42Z</time>
      </trkpt>
      <trkpt lat="43.22821" lon="6.37531">
        <ele>336.6</ele>
        <time>2010-10-10T09:05:43Z</time>
      </trkpt>
      <trkpt lat="43.22819" lon="6.37541">
        <ele>336.6</ele>
        <time>2010-10-10T09:05:44Z</time>
      </trkpt>
      <trkpt lat="43.22817" lon="6.3755">
        <ele>336.12</ele>
        <time>2010-10-10T09:05:45Z</time>
      </trkpt>
      <trkpt lat="43.22814" lon="6.37559">
        <ele>336.6</ele>
        <time>2010-10-10T09:05:46Z</time>
      </trkpt>
      <trkpt lat="43.2281" lon="6.37567">
        <ele>337.08</ele>
        <time>2010-10-10T09:05:47Z</time>
      </trkpt>
      <trkpt lat="43.22807" lon="6.37575">
        <ele>336.6</ele>
        <time>2010-10-10T09:05:48Z</time>
      </trkpt>
      <trkpt lat="43.22805" lon="6.37584">
        <ele>335.64</ele>
        <time>2010-10-10T09:05:49Z</time>
      </trkpt>
      <trkpt lat="43.22805" lon="6.37593">
        <ele>335.16</ele>
        <time>2010-10-10T09:05:50Z</time>
      </trkpt>
      <trkpt lat="43.22805" lon="6.37602">
        <ele>335.64</ele>
        <time>2010-10-10T09:05:51Z</time>
      </trkpt>
      <trkpt lat="43.22804" lon="6.37611">
        <ele>335.64</ele>
        <time>2010-10-10T09:05:52Z</time>
      </trkpt>
      <trkpt lat="43.22802" lon="6.3762">
        <ele>335.64</ele>
        <time>2010-10-10T09:05:53Z</time>
      </trkpt>
      <trkpt lat="43.228" lon="6.37628">
        <ele>336.12</ele>
        <time>2010-10-10T09:05:54Z</time>
      </trkpt>
      <trkpt lat="43.22794" lon="6.37652">
        <ele>335.64</ele>
        <time>2010-10-10T09:05:57Z</time>
      </trkpt>
      <trkpt lat="43.22792" lon="6.37658">
        <ele>335.16</ele>
        <time>2010-10-10T09:05:58Z</time>
      </trkpt>
      <trkpt lat="43.22789" lon="6.37665">
        <ele>335.16</ele>
        <time>2010-10-10T09:05:59Z</time>
      </trkpt>
      <trkpt lat="43.22776" lon="6.37701">
        <ele>335.64</ele>
        <time>2010-10-10T09:06:04Z</time>
      </trkpt>
      <trkpt lat="43.22774" lon="6.37708">
        <ele>335.16</ele>
        <time>2010-10-10T09:06:05Z</time>
      </trkpt>
      <trkpt lat="43.22772" lon="6.37714">
        <ele>335.16</ele>
        <time>2010-10-10T09:06:06Z</time>
      </trkpt>
      <trkpt lat="43.22769" lon="6.3772">
        <ele>334.68</ele>
        <time>2010-10-10T09:06:07Z</time>
      </trkpt>
      <trkpt lat="43.22766" lon="6.37727">
        <ele>334.2</ele>
        <time>2010-10-10T09:06:08Z</time>
      </trkpt>
      <trkpt lat="43.22763" lon="6.37735">
        <ele>333.71</ele>
        <time>2010-10-10T09:06:09Z</time>
      </trkpt>
      <trkpt lat="43.22761" lon="6.37742">
        <ele>333.71</ele>
        <time>2010-10-10T09:06:10Z</time>
      </trkpt>
      <trkpt lat="43.22757" lon="6.37749">
        <ele>334.2</ele>
        <time>2010-10-10T09:06:11Z</time>
      </trkpt>
      <trkpt lat="43.22753" lon="6.37755">
        <ele>334.2</ele>
        <time>2010-10-10T09:06:12Z</time>
      </trkpt>
      <trkpt lat="43.22749" lon="6.37761">
        <ele>333.71</ele>
        <time>2010-10-10T09:06:13Z</time>
      </trkpt>
      <trkpt lat="43.22746" lon="6.37767">
        <ele>334.2</ele>
        <time>2010-10-10T09:06:14Z</time>
      </trkpt>
      <trkpt lat="43.22744" lon="6.37773">
        <ele>333.71</ele>
        <time>2010-10-10T09:06:15Z</time>
      </trkpt>
      <trkpt lat="43.22744" lon="6.3778">
        <ele>334.2</ele>
        <time>2010-10-10T09:06:16Z</time>
      </trkpt>
      <trkpt lat="43.22747" lon="6.37785">
        <ele>333.71</ele>
        <time>2010-10-10T09:06:17Z</time>
      </trkpt>
      <trkpt lat="43.2275" lon="6.37789">
        <ele>333.71</ele>
        <time>2010-10-10T09:06:18Z</time>
      </trkpt>
      <trkpt lat="43.22754" lon="6.37791">
        <ele>333.71</ele>
        <time>2010-10-10T09:06:19Z</time>
      </trkpt>
      <trkpt lat="43.22758" lon="6.37791">
        <ele>333.71</ele>
        <time>2010-10-10T09:06:20Z</time>
      </trkpt>
      <trkpt lat="43.22762" lon="6.37788">
        <ele>333.71</ele>
        <time>2010-10-10T09:06:21Z</time>
      </trkpt>
      <trkpt lat="43.22766" lon="6.37784">
        <ele>333.71</ele>
        <time>2010-10-10T09:06:22Z</time>
      </trkpt>
      <trkpt lat="43.22769" lon="6.3778">
        <ele>334.68</ele>
        <time>2010-10-10T09:06:23Z</time>
      </trkpt>
      <trkpt lat="43.22773" lon="6.37775">
        <ele>334.2</ele>
        <time>2010-10-10T09:06:24Z</time>
      </trkpt>
      <trkpt lat="43.22777" lon="6.37771">
        <ele>334.2</ele>
        <time>2010-10-10T09:06:25Z</time>
      </trkpt>
      <trkpt lat="43.2278" lon="6.37767">
        <ele>334.68</ele>
        <time>2010-10-10T09:06:26Z</time>
      </trkpt>
      <trkpt lat="43.22789" lon="6.37758">
        <ele>334.68</ele>
        <time>2010-10-10T09:06:28Z</time>
      </trkpt>
      <trkpt lat="43.22806" lon="6.3774">
        <ele>331.31</ele>
        <time>2010-10-10T09:06:32Z</time>
      </trkpt>
      <trkpt lat="43.2281" lon="6.37736">
        <ele>334.2</ele>
        <time>2010-10-10T09:06:33Z</time>
      </trkpt>
      <trkpt lat="43.22814" lon="6.37732">
        <ele>334.68</ele>
        <time>2010-10-10T09:06:34Z</time>
      </trkpt>
      <trkpt lat="43.22818" lon="6.37728">
        <ele>334.68</ele>
        <time>2010-10-10T09:06:35Z</time>
      </trkpt>
      <trkpt lat="43.22828" lon="6.3771">
        <ele>335.64</ele>
        <time>2010-10-10T09:06:40Z</time>
      </trkpt>
      <trkpt lat="43.22832" lon="6.37699">
        <ele>335.64</ele>
        <time>2010-10-10T09:06:43Z</time>
      </trkpt>
      <trkpt lat="43.22847" lon="6.37687">
        <ele>336.6</ele>
        <time>2010-10-10T09:06:49Z</time>
      </trkpt>
      <trkpt lat="43.22862" lon="6.37687">
        <ele>337.08</ele>
        <time>2010-10-10T09:06:55Z</time>
      </trkpt>
      <trkpt lat="43.22865" lon="6.37685">
        <ele>337.08</ele>
        <time>2010-10-10T09:06:56Z</time>
      </trkpt>
      <trkpt lat="43.22867" lon="6.37683">
        <ele>337.56</ele>
        <time>2010-10-10T09:06:57Z</time>
      </trkpt>
      <trkpt lat="43.22869" lon="6.37679">
        <ele>337.56</ele>
        <time>2010-10-10T09:06:58Z</time>
      </trkpt>
      <trkpt lat="43.22869" lon="6.37676">
        <ele>337.56</ele>
        <time>2010-10-10T09:06:59Z</time>
      </trkpt>
      <trkpt lat="43.22869" lon="6.37672">
        <ele>337.56</ele>
        <time>2010-10-10T09:07:00Z</time>
      </trkpt>
      <trkpt lat="43.2287" lon="6.37668">
        <ele>338.04</ele>
        <time>2010-10-10T09:07:01Z</time>
      </trkpt>
      <trkpt lat="43.22871" lon="6.37664">
        <ele>338.04</ele>
        <time>2010-10-10T09:07:02Z</time>
      </trkpt>
      <trkpt lat="43.22872" lon="6.37661">
        <ele>338.52</ele>
        <time>2010-10-10T09:07:03Z</time>
      </trkpt>
      <trkpt lat="43.22873" lon="6.37658">
        <ele>338.04</ele>
        <time>2010-10-10T09:07:04Z</time>
      </trkpt>
      <trkpt lat="43.22875" lon="6.37656">
        <ele>338.52</ele>
        <time>2010-10-10T09:07:05Z</time>
      </trkpt>
      <trkpt lat="43.22877" lon="6.37653">
        <ele>339.96</ele>
        <time>2010-10-10T09:07:06Z</time>
      </trkpt>
      <trkpt lat="43.22879" lon="6.3765">
        <ele>339</ele>
        <time>2010-10-10T09:07:07Z</time>
      </trkpt>
      <trkpt lat="43.22882" lon="6.37648">
        <ele>339</ele>
        <time>2010-10-10T09:07:08Z</time>
      </trkpt>
      <trkpt lat="43.22884" lon="6.37646">
        <ele>339</ele>
        <time>2010-10-10T09:07:09Z</time>
      </trkpt>
      <trkpt lat="43.22887" lon="6.37644">
        <ele>339</ele>
        <time>2010-10-10T09:07:10Z</time>
      </trkpt>
      <trkpt lat="43.22897" lon="6.37642">
        <ele>343.33</ele>
        <time>2010-10-10T09:07:14Z</time>
      </trkpt>
      <trkpt lat="43.229" lon="6.37642">
        <ele>340.44</ele>
        <time>2010-10-10T09:07:15Z</time>
      </trkpt>
      <trkpt lat="43.22904" lon="6.37642">
        <ele>340.44</ele>
        <time>2010-10-10T09:07:17Z</time>
      </trkpt>
      <trkpt lat="43.22907" lon="6.37639">
        <ele>340.44</ele>
        <time>2010-10-10T09:07:18Z</time>
      </trkpt>
      <trkpt lat="43.22908" lon="6.37635">
        <ele>340.44</ele>
        <time>2010-10-10T09:07:19Z</time>
      </trkpt>
      <trkpt lat="43.22909" lon="6.37631">
        <ele>340.44</ele>
        <time>2010-10-10T09:07:20Z</time>
      </trkpt>
      <trkpt lat="43.2291" lon="6.37627">
        <ele>340.92</ele>
        <time>2010-10-10T09:07:21Z</time>
      </trkpt>
      <trkpt lat="43.22909" lon="6.37623">
        <ele>340.92</ele>
        <time>2010-10-10T09:07:22Z</time>
      </trkpt>
      <trkpt lat="43.22907" lon="6.37607">
        <ele>341.41</ele>
        <time>2010-10-10T09:07:26Z</time>
      </trkpt>
      <trkpt lat="43.22918" lon="6.37574">
        <ele>343.33</ele>
        <time>2010-10-10T09:07:35Z</time>
      </trkpt>
      <trkpt lat="43.22928" lon="6.37552">
        <ele>343.33</ele>
        <time>2010-10-10T09:07:41Z</time>
      </trkpt>
      <trkpt lat="43.22942" lon="6.37524">
        <ele>344.77</ele>
        <time>2010-10-10T09:07:49Z</time>
      </trkpt>
      <trkpt lat="43.22953" lon="6.37496">
        <ele>345.73</ele>
        <time>2010-10-10T09:07:57Z</time>
      </trkpt>
      <trkpt lat="43.22964" lon="6.37477">
        <ele>346.69</ele>
        <time>2010-10-10T09:08:03Z</time>
      </trkpt>
      <trkpt lat="43.22976" lon="6.3745">
        <ele>348.13</ele>
        <time>2010-10-10T09:08:11Z</time>
      </trkpt>
      <trkpt lat="43.22982" lon="6.37425">
        <ele>348.62</ele>
        <time>2010-10-10T09:08:17Z</time>
      </trkpt>
      <trkpt lat="43.22987" lon="6.374">
        <ele>349.1</ele>
        <time>2010-10-10T09:08:23Z</time>
      </trkpt>
      <trkpt lat="43.22999" lon="6.37358">
        <ele>350.54</ele>
        <time>2010-10-10T09:08:32Z</time>
      </trkpt>
      <trkpt lat="43.23013" lon="6.37316">
        <ele>351.5</ele>
        <time>2010-10-10T09:08:41Z</time>
      </trkpt>
      <trkpt lat="43.2303" lon="6.37279">
        <ele>351.98</ele>
        <time>2010-10-10T09:08:49Z</time>
      </trkpt>
      <trkpt lat="43.23051" lon="6.37244">
        <ele>353.42</ele>
        <time>2010-10-10T09:08:58Z</time>
      </trkpt>
      <trkpt lat="43.23072" lon="6.37213">
        <ele>355.34</ele>
        <time>2010-10-10T09:09:06Z</time>
      </trkpt>
      <trkpt lat="43.23092" lon="6.372">
        <ele>355.83</ele>
        <time>2010-10-10T09:09:12Z</time>
      </trkpt>
      <trkpt lat="43.23116" lon="6.37192">
        <ele>356.79</ele>
        <time>2010-10-10T09:09:19Z</time>
      </trkpt>
      <trkpt lat="43.23134" lon="6.37199">
        <ele>357.75</ele>
        <time>2010-10-10T09:09:25Z</time>
      </trkpt>
      <trkpt lat="43.23148" lon="6.37214">
        <ele>359.19</ele>
        <time>2010-10-10T09:09:32Z</time>
      </trkpt>
      <trkpt lat="43.2316" lon="6.37233">
        <ele>360.63</ele>
        <time>2010-10-10T09:09:39Z</time>
      </trkpt>
      <trkpt lat="43.23175" lon="6.37242">
        <ele>361.11</ele>
        <time>2010-10-10T09:09:46Z</time>
      </trkpt>
      <trkpt lat="43.23197" lon="6.37235">
        <ele>362.07</ele>
        <time>2010-10-10T09:09:54Z</time>
      </trkpt>
      <trkpt lat="43.23217" lon="6.37224">
        <ele>362.55</ele>
        <time>2010-10-10T09:10:01Z</time>
      </trkpt>
      <trkpt lat="43.23221" lon="6.3721">
        <ele>364</ele>
        <time>2010-10-10T09:10:05Z</time>
      </trkpt>
      <trkpt lat="43.23228" lon="6.37195">
        <ele>364.48</ele>
        <time>2010-10-10T09:10:10Z</time>
      </trkpt>
      <trkpt lat="43.23233" lon="6.37206">
        <ele>365.44</ele>
        <time>2010-10-10T09:10:15Z</time>
      </trkpt>
      <trkpt lat="43.2323" lon="6.37232">
        <ele>366.88</ele>
        <time>2010-10-10T09:10:24Z</time>
      </trkpt>
      <trkpt lat="43.23219" lon="6.37245">
        <ele>367.84</ele>
        <time>2010-10-10T09:10:30Z</time>
      </trkpt>
      <trkpt lat="43.23209" lon="6.3725">
        <ele>368.8</ele>
        <time>2010-10-10T09:10:35Z</time>
      </trkpt>
      <trkpt lat="43.23199" lon="6.37254">
        <ele>369.28</ele>
        <time>2010-10-10T09:10:40Z</time>
      </trkpt>
      <trkpt lat="43.2318" lon="6.37265">
        <ele>370.24</ele>
        <time>2010-10-10T09:10:47Z</time>
      </trkpt>
      <trkpt lat="43.23158" lon="6.37273">
        <ele>371.69</ele>
        <time>2010-10-10T09:10:55Z</time>
      </trkpt>
      <trkpt lat="43.23143" lon="6.37265">
        <ele>372.65</ele>
        <time>2010-10-10T09:11:01Z</time>
      </trkpt>
      <trkpt lat="43.23123" lon="6.37248">
        <ele>374.57</ele>
        <time>2010-10-10T09:11:10Z</time>
      </trkpt>
      <trkpt lat="43.2311" lon="6.37251">
        <ele>375.53</ele>
        <time>2010-10-10T09:11:15Z</time>
      </trkpt>
      <trkpt lat="43.23091" lon="6.37267">
        <ele>376.01</ele>
        <time>2010-10-10T09:11:23Z</time>
      </trkpt>
      <trkpt lat="43.23077" lon="6.37293">
        <ele>376.97</ele>
        <time>2010-10-10T09:11:32Z</time>
      </trkpt>
      <trkpt lat="43.23067" lon="6.37319">
        <ele>378.42</ele>
        <time>2010-10-10T09:11:41Z</time>
      </trkpt>
      <trkpt lat="43.23058" lon="6.3734">
        <ele>380.34</ele>
        <time>2010-10-10T09:11:48Z</time>
      </trkpt>
      <trkpt lat="43.23051" lon="6.37362">
        <ele>381.78</ele>
        <time>2010-10-10T09:11:55Z</time>
      </trkpt>
      <trkpt lat="43.23045" lon="6.37386">
        <ele>382.26</ele>
        <time>2010-10-10T09:12:02Z</time>
      </trkpt>
      <trkpt lat="43.23044" lon="6.3741">
        <ele>382.74</ele>
        <time>2010-10-10T09:12:08Z</time>
      </trkpt>
      <trkpt lat="43.23041" lon="6.37441">
        <ele>383.7</ele>
        <time>2010-10-10T09:12:16Z</time>
      </trkpt>
      <trkpt lat="43.23044" lon="6.37467">
        <ele>384.66</ele>
        <time>2010-10-10T09:12:22Z</time>
      </trkpt>
      <trkpt lat="43.23045" lon="6.37498">
        <ele>385.63</ele>
        <time>2010-10-10T09:12:29Z</time>
      </trkpt>
      <trkpt lat="43.23038" lon="6.37525">
        <ele>387.07</ele>
        <time>2010-10-10T09:12:36Z</time>
      </trkpt>
      <trkpt lat="43.23029" lon="6.37548">
        <ele>388.03</ele>
        <time>2010-10-10T09:12:43Z</time>
      </trkpt>
      <trkpt lat="43.23026" lon="6.37554">
        <ele>388.51</ele>
        <time>2010-10-10T09:12:45Z</time>
      </trkpt>
      <trkpt lat="43.23026" lon="6.37562">
        <ele>388.99</ele>
        <time>2010-10-10T09:12:47Z</time>
      </trkpt>
      <trkpt lat="43.23031" lon="6.37566">
        <ele>389.47</ele>
        <time>2010-10-10T09:12:50Z</time>
      </trkpt>
      <trkpt lat="43.23039" lon="6.37552">
        <ele>390.43</ele>
        <time>2010-10-10T09:12:55Z</time>
      </trkpt>
      <trkpt lat="43.2304" lon="6.37549">
        <ele>389.95</ele>
        <time>2010-10-10T09:12:56Z</time>
      </trkpt>
      <trkpt lat="43.23049" lon="6.37527">
        <ele>391.39</ele>
        <time>2010-10-10T09:13:03Z</time>
      </trkpt>
      <trkpt lat="43.23054" lon="6.37514">
        <ele>397.16</ele>
        <time>2010-10-10T09:13:07Z</time>
      </trkpt>
      <trkpt lat="43.23055" lon="6.37511">
        <ele>391.87</ele>
        <time>2010-10-10T09:13:08Z</time>
      </trkpt>
      <trkpt lat="43.23064" lon="6.37491">
        <ele>393.32</ele>
        <time>2010-10-10T09:13:15Z</time>
      </trkpt>
      <trkpt lat="43.23067" lon="6.37467">
        <ele>394.76</ele>
        <time>2010-10-10T09:13:22Z</time>
      </trkpt>
      <trkpt lat="43.23068" lon="6.37443">
        <ele>396.68</ele>
        <time>2010-10-10T09:13:29Z</time>
      </trkpt>
      <trkpt lat="43.23076" lon="6.37413">
        <ele>398.6</ele>
        <time>2010-10-10T09:13:38Z</time>
      </trkpt>
      <trkpt lat="43.23085" lon="6.3739">
        <ele>399.57</ele>
        <time>2010-10-10T09:13:46Z</time>
      </trkpt>
      <trkpt lat="43.23094" lon="6.37374">
        <ele>401.01</ele>
        <time>2010-10-10T09:13:52Z</time>
      </trkpt>
      <trkpt lat="43.23103" lon="6.37364">
        <ele>401.97</ele>
        <time>2010-10-10T09:13:57Z</time>
      </trkpt>
      <trkpt lat="43.23119" lon="6.37369">
        <ele>403.41</ele>
        <time>2010-10-10T09:14:03Z</time>
      </trkpt>
      <trkpt lat="43.23135" lon="6.37377">
        <ele>404.37</ele>
        <time>2010-10-10T09:14:10Z</time>
      </trkpt>
      <trkpt lat="43.23148" lon="6.37368">
        <ele>404.85</ele>
        <time>2010-10-10T09:14:16Z</time>
      </trkpt>
      <trkpt lat="43.23164" lon="6.37358">
        <ele>405.33</ele>
        <time>2010-10-10T09:14:23Z</time>
      </trkpt>
      <trkpt lat="43.23183" lon="6.37359">
        <ele>407.26</ele>
        <time>2010-10-10T09:14:31Z</time>
      </trkpt>
      <trkpt lat="43.23196" lon="6.37358">
        <ele>407.74</ele>
        <time>2010-10-10T09:14:37Z</time>
      </trkpt>
      <trkpt lat="43.23209" lon="6.37358">
        <ele>409.18</ele>
        <time>2010-10-10T09:14:43Z</time>
      </trkpt>
      <trkpt lat="43.23228" lon="6.37362">
        <ele>410.62</ele>
        <time>2010-10-10T09:14:51Z</time>
      </trkpt>
      <trkpt lat="43.23245" lon="6.37366">
        <ele>412.06</ele>
        <time>2010-10-10T09:14:58Z</time>
      </trkpt>
      <trkpt lat="43.23262" lon="6.37362">
        <ele>413.5</ele>
        <time>2010-10-10T09:15:05Z</time>
      </trkpt>
      <trkpt lat="43.23281" lon="6.37348">
        <ele>415.43</ele>
        <time>2010-10-10T09:15:14Z</time>
      </trkpt>
      <trkpt lat="43.23296" lon="6.37341">
        <ele>416.39</ele>
        <time>2010-10-10T09:15:21Z</time>
      </trkpt>
      <trkpt lat="43.23313" lon="6.37338">
        <ele>416.87</ele>
        <time>2010-10-10T09:15:28Z</time>
      </trkpt>
      <trkpt lat="43.23332" lon="6.37343">
        <ele>417.35</ele>
        <time>2010-10-10T09:15:35Z</time>
      </trkpt>
      <trkpt lat="43.2333" lon="6.37352">
        <ele>418.31</ele>
        <time>2010-10-10T09:15:39Z</time>
      </trkpt>
      <trkpt lat="43.23318" lon="6.37346">
        <ele>418.79</ele>
        <time>2010-10-10T09:15:45Z</time>
      </trkpt>
      <trkpt lat="43.23312" lon="6.37346">
        <ele>419.27</ele>
        <time>2010-10-10T09:15:47Z</time>
      </trkpt>
      <trkpt lat="43.23289" lon="6.37361">
        <ele>420.71</ele>
        <time>2010-10-10T09:15:56Z</time>
      </trkpt>
      <trkpt lat="43.23275" lon="6.37378">
        <ele>421.19</ele>
        <time>2010-10-10T09:16:03Z</time>
      </trkpt>
      <trkpt lat="43.23261" lon="6.37392">
        <ele>422.16</ele>
        <time>2010-10-10T09:16:11Z</time>
      </trkpt>
      <trkpt lat="43.23256" lon="6.37394">
        <ele>422.16</ele>
        <time>2010-10-10T09:16:13Z</time>
      </trkpt>
      <trkpt lat="43.2323" lon="6.37391">
        <ele>423.12</ele>
        <time>2010-10-10T09:16:22Z</time>
      </trkpt>
      <trkpt lat="43.23209" lon="6.37392">
        <ele>424.08</ele>
        <time>2010-10-10T09:16:29Z</time>
      </trkpt>
      <trkpt lat="43.23185" lon="6.37405">
        <ele>425.04</ele>
        <time>2010-10-10T09:16:38Z</time>
      </trkpt>
      <trkpt lat="43.23173" lon="6.37423">
        <ele>426.48</ele>
        <time>2010-10-10T09:16:45Z</time>
      </trkpt>
      <trkpt lat="43.23163" lon="6.3745">
        <ele>427.92</ele>
        <time>2010-10-10T09:16:53Z</time>
      </trkpt>
      <trkpt lat="43.23147" lon="6.37461">
        <ele>429.85</ele>
        <time>2010-10-10T09:17:00Z</time>
      </trkpt>
      <trkpt lat="43.23133" lon="6.37477">
        <ele>430.33</ele>
        <time>2010-10-10T09:17:07Z</time>
      </trkpt>
      <trkpt lat="43.23125" lon="6.37507">
        <ele>430.33</ele>
        <time>2010-10-10T09:17:15Z</time>
      </trkpt>
      <trkpt lat="43.2312" lon="6.37528">
        <ele>432.25</ele>
        <time>2010-10-10T09:17:22Z</time>
      </trkpt>
      <trkpt lat="43.23118" lon="6.37553">
        <ele>432.73</ele>
        <time>2010-10-10T09:17:30Z</time>
      </trkpt>
      <trkpt lat="43.23116" lon="6.37574">
        <ele>433.21</ele>
        <time>2010-10-10T09:17:36Z</time>
      </trkpt>
      <trkpt lat="43.23115" lon="6.37587">
        <ele>433.69</ele>
        <time>2010-10-10T09:17:40Z</time>
      </trkpt>
      <trkpt lat="43.23115" lon="6.37615">
        <ele>434.65</ele>
        <time>2010-10-10T09:17:48Z</time>
      </trkpt>
      <trkpt lat="43.23116" lon="6.37647">
        <ele>437.06</ele>
        <time>2010-10-10T09:17:57Z</time>
      </trkpt>
      <trkpt lat="43.23114" lon="6.37673">
        <ele>437.54</ele>
        <time>2010-10-10T09:18:04Z</time>
      </trkpt>
      <trkpt lat="43.23116" lon="6.37696">
        <ele>438.02</ele>
        <time>2010-10-10T09:18:10Z</time>
      </trkpt>
      <trkpt lat="43.23123" lon="6.37717">
        <ele>438.5</ele>
        <time>2010-10-10T09:18:17Z</time>
      </trkpt>
      <trkpt lat="43.23128" lon="6.37742">
        <ele>438.5</ele>
        <time>2010-10-10T09:18:24Z</time>
      </trkpt>
      <trkpt lat="43.23129" lon="6.37762">
        <ele>439.94</ele>
        <time>2010-10-10T09:18:30Z</time>
      </trkpt>
      <trkpt lat="43.23127" lon="6.37788">
        <ele>440.9</ele>
        <time>2010-10-10T09:18:37Z</time>
      </trkpt>
      <trkpt lat="43.23127" lon="6.37818">
        <ele>441.38</ele>
        <time>2010-10-10T09:18:44Z</time>
      </trkpt>
      <trkpt lat="43.23128" lon="6.37846">
        <ele>442.34</ele>
        <time>2010-10-10T09:18:51Z</time>
      </trkpt>
      <trkpt lat="43.23126" lon="6.37859">
        <ele>443.31</ele>
        <time>2010-10-10T09:18:55Z</time>
      </trkpt>
      <trkpt lat="43.2312" lon="6.37864">
        <ele>444.75</ele>
        <time>2010-10-10T09:18:58Z</time>
      </trkpt>
      <trkpt lat="43.23115" lon="6.37867">
        <ele>445.23</ele>
        <time>2010-10-10T09:19:01Z</time>
      </trkpt>
      <trkpt lat="43.23099" lon="6.37876">
        <ele>446.19</ele>
        <time>2010-10-10T09:19:08Z</time>
      </trkpt>
      <trkpt lat="43.23084" lon="6.37892">
        <ele>446.67</ele>
        <time>2010-10-10T09:19:15Z</time>
      </trkpt>
      <trkpt lat="43.2308" lon="6.3791">
        <ele>448.59</ele>
        <time>2010-10-10T09:19:21Z</time>
      </trkpt>
      <trkpt lat="43.23077" lon="6.37936">
        <ele>449.55</ele>
        <time>2010-10-10T09:19:29Z</time>
      </trkpt>
      <trkpt lat="43.23073" lon="6.37956">
        <ele>450.03</ele>
        <time>2010-10-10T09:19:35Z</time>
      </trkpt>
      <trkpt lat="43.23067" lon="6.37982">
        <ele>451.96</ele>
        <time>2010-10-10T09:19:43Z</time>
      </trkpt>
      <trkpt lat="43.23074" lon="6.38004">
        <ele>453.4</ele>
        <time>2010-10-10T09:19:50Z</time>
      </trkpt>
      <trkpt lat="43.23077" lon="6.38019">
        <ele>453.4</ele>
        <time>2010-10-10T09:19:55Z</time>
      </trkpt>
      <trkpt lat="43.23071" lon="6.3803">
        <ele>454.36</ele>
        <time>2010-10-10T09:19:59Z</time>
      </trkpt>
      <trkpt lat="43.23053" lon="6.38052">
        <ele>455.32</ele>
        <time>2010-10-10T09:20:09Z</time>
      </trkpt>
      <trkpt lat="43.23042" lon="6.38074">
        <ele>457.24</ele>
        <time>2010-10-10T09:20:17Z</time>
      </trkpt>
      <trkpt lat="43.23036" lon="6.38094">
        <ele>457.24</ele>
        <time>2010-10-10T09:20:23Z</time>
      </trkpt>
      <trkpt lat="43.2303" lon="6.38115">
        <ele>459.17</ele>
        <time>2010-10-10T09:20:30Z</time>
      </trkpt>
      <trkpt lat="43.23029" lon="6.3814">
        <ele>459.65</ele>
        <time>2010-10-10T09:20:37Z</time>
      </trkpt>
      <trkpt lat="43.23025" lon="6.38159">
        <ele>460.13</ele>
        <time>2010-10-10T09:20:43Z</time>
      </trkpt>
      <trkpt lat="43.23015" lon="6.38173">
        <ele>461.57</ele>
        <time>2010-10-10T09:20:49Z</time>
      </trkpt>
      <trkpt lat="43.23009" lon="6.38185">
        <ele>463.01</ele>
        <time>2010-10-10T09:20:55Z</time>
      </trkpt>
      <trkpt lat="43.23008" lon="6.38198">
        <ele>463.97</ele>
        <time>2010-10-10T09:21:00Z</time>
      </trkpt>
      <trkpt lat="43.23008" lon="6.38224">
        <ele>464.93</ele>
        <time>2010-10-10T09:21:08Z</time>
      </trkpt>
      <trkpt lat="43.23002" lon="6.38248">
        <ele>466.38</ele>
        <time>2010-10-10T09:21:16Z</time>
      </trkpt>
      <trkpt lat="43.22999" lon="6.3826">
        <ele>467.34</ele>
        <time>2010-10-10T09:21:21Z</time>
      </trkpt>
      <trkpt lat="43.22998" lon="6.38261">
        <ele>468.78</ele>
        <time>2010-10-10T09:21:22Z</time>
      </trkpt>
      <trkpt lat="43.22989" lon="6.38272">
        <ele>468.3</ele>
        <time>2010-10-10T09:21:28Z</time>
      </trkpt>
      <trkpt lat="43.22971" lon="6.38283">
        <ele>468.78</ele>
        <time>2010-10-10T09:21:37Z</time>
      </trkpt>
      <trkpt lat="43.22963" lon="6.38299">
        <ele>470.7</ele>
        <time>2010-10-10T09:21:44Z</time>
      </trkpt>
      <trkpt lat="43.22956" lon="6.38312">
        <ele>471.66</ele>
        <time>2010-10-10T09:21:50Z</time>
      </trkpt>
      <trkpt lat="43.22952" lon="6.38319">
        <ele>472.14</ele>
        <time>2010-10-10T09:21:54Z</time>
      </trkpt>
      <trkpt lat="43.22943" lon="6.38342">
        <ele>473.59</ele>
        <time>2010-10-10T09:22:02Z</time>
      </trkpt>
      <trkpt lat="43.22936" lon="6.38367">
        <ele>474.55</ele>
        <time>2010-10-10T09:22:11Z</time>
      </trkpt>
      <trkpt lat="43.22935" lon="6.38388">
        <ele>477.43</ele>
        <time>2010-10-10T09:22:18Z</time>
      </trkpt>
      <trkpt lat="43.22925" lon="6.38404">
        <ele>477.91</ele>
        <time>2010-10-10T09:22:25Z</time>
      </trkpt>
      <trkpt lat="43.2291" lon="6.38403">
        <ele>478.87</ele>
        <time>2010-10-10T09:22:31Z</time>
      </trkpt>
      <trkpt lat="43.22893" lon="6.38417">
        <ele>480.32</ele>
        <time>2010-10-10T09:22:39Z</time>
      </trkpt>
      <trkpt lat="43.22885" lon="6.38445">
        <ele>481.28</ele>
        <time>2010-10-10T09:22:48Z</time>
      </trkpt>
      <trkpt lat="43.22893" lon="6.38465">
        <ele>481.76</ele>
        <time>2010-10-10T09:22:55Z</time>
      </trkpt>
      <trkpt lat="43.22904" lon="6.38484">
        <ele>483.2</ele>
        <time>2010-10-10T09:23:02Z</time>
      </trkpt>
      <trkpt lat="43.22917" lon="6.38507">
        <ele>483.2</ele>
        <time>2010-10-10T09:23:10Z</time>
      </trkpt>
      <trkpt lat="43.22923" lon="6.38526">
        <ele>484.64</ele>
        <time>2010-10-10T09:23:16Z</time>
      </trkpt>
      <trkpt lat="43.22932" lon="6.38546">
        <ele>485.12</ele>
        <time>2010-10-10T09:23:23Z</time>
      </trkpt>
      <trkpt lat="43.22936" lon="6.38557">
        <ele>487.05</ele>
        <time>2010-10-10T09:23:26Z</time>
      </trkpt>
      <trkpt lat="43.2294" lon="6.38577">
        <ele>485.6</ele>
        <time>2010-10-10T09:23:31Z</time>
      </trkpt>
      <trkpt lat="43.22941" lon="6.38604">
        <ele>487.05</ele>
        <time>2010-10-10T09:23:38Z</time>
      </trkpt>
      <trkpt lat="43.22943" lon="6.38633">
        <ele>488.97</ele>
        <time>2010-10-10T09:23:46Z</time>
      </trkpt>
      <trkpt lat="43.22947" lon="6.38664">
        <ele>490.89</ele>
        <time>2010-10-10T09:23:55Z</time>
      </trkpt>
      <trkpt lat="43.22951" lon="6.3869">
        <ele>492.33</ele>
        <time>2010-10-10T09:24:03Z</time>
      </trkpt>
      <trkpt lat="43.22955" lon="6.38713">
        <ele>493.77</ele>
        <time>2010-10-10T09:24:10Z</time>
      </trkpt>
      <trkpt lat="43.22964" lon="6.38736">
        <ele>493.29</ele>
        <time>2010-10-10T09:24:17Z</time>
      </trkpt>
      <trkpt lat="43.22975" lon="6.38754">
        <ele>493.77</ele>
        <time>2010-10-10T09:24:23Z</time>
      </trkpt>
      <trkpt lat="43.22995" lon="6.3878">
        <ele>493.77</ele>
        <time>2010-10-10T09:24:33Z</time>
      </trkpt>
      <trkpt lat="43.23013" lon="6.38803">
        <ele>493.29</ele>
        <time>2010-10-10T09:24:42Z</time>
      </trkpt>
      <trkpt lat="43.23026" lon="6.3882">
        <ele>494.26</ele>
        <time>2010-10-10T09:24:49Z</time>
      </trkpt>
      <trkpt lat="43.23034" lon="6.38843">
        <ele>495.7</ele>
        <time>2010-10-10T09:24:56Z</time>
      </trkpt>
      <trkpt lat="43.23036" lon="6.38869">
        <ele>498.58</ele>
        <time>2010-10-10T09:25:03Z</time>
      </trkpt>
      <trkpt lat="43.23039" lon="6.389">
        <ele>498.58</ele>
        <time>2010-10-10T09:25:12Z</time>
      </trkpt>
      <trkpt lat="43.23041" lon="6.38921">
        <ele>494.74</ele>
        <time>2010-10-10T09:25:18Z</time>
      </trkpt>
      <trkpt lat="43.23041" lon="6.38924">
        <ele>501.95</ele>
        <time>2010-10-10T09:25:19Z</time>
      </trkpt>
      <trkpt lat="43.23043" lon="6.38947">
        <ele>502.43</ele>
        <time>2010-10-10T09:25:26Z</time>
      </trkpt>
      <trkpt lat="43.23042" lon="6.38975">
        <ele>502.43</ele>
        <time>2010-10-10T09:25:34Z</time>
      </trkpt>
      <trkpt lat="43.23047" lon="6.39">
        <ele>503.87</ele>
        <time>2010-10-10T09:25:41Z</time>
      </trkpt>
      <trkpt lat="43.23052" lon="6.39024">
        <ele>503.87</ele>
        <time>2010-10-10T09:25:48Z</time>
      </trkpt>
      <trkpt lat="43.23055" lon="6.39037">
        <ele>507.23</ele>
        <time>2010-10-10T09:25:52Z</time>
      </trkpt>
      <trkpt lat="43.23056" lon="6.39041">
        <ele>507.23</ele>
        <time>2010-10-10T09:25:53Z</time>
      </trkpt>
      <trkpt lat="43.23063" lon="6.39071">
        <ele>507.23</ele>
        <time>2010-10-10T09:26:02Z</time>
      </trkpt>
      <trkpt lat="43.23068" lon="6.39093">
        <ele>508.67</ele>
        <time>2010-10-10T09:26:08Z</time>
      </trkpt>
      <trkpt lat="43.23077" lon="6.39126">
        <ele>508.67</ele>
        <time>2010-10-10T09:26:16Z</time>
      </trkpt>
      <trkpt lat="43.23081" lon="6.39145">
        <ele>509.64</ele>
        <time>2010-10-10T09:26:22Z</time>
      </trkpt>
      <trkpt lat="43.23082" lon="6.39146">
        <ele>509.64</ele>
        <time>2010-10-10T09:26:23Z</time>
      </trkpt>
      <trkpt lat="43.23091" lon="6.39157">
        <ele>510.12</ele>
        <time>2010-10-10T09:26:31Z</time>
      </trkpt>
      <trkpt lat="43.23098" lon="6.3917">
        <ele>507.71</ele>
        <time>2010-10-10T09:26:36Z</time>
      </trkpt>
      <trkpt lat="43.23103" lon="6.3919">
        <ele>504.83</ele>
        <time>2010-10-10T09:26:39Z</time>
      </trkpt>
      <trkpt lat="43.23104" lon="6.39198">
        <ele>503.39</ele>
        <time>2010-10-10T09:26:40Z</time>
      </trkpt>
      <trkpt lat="43.23105" lon="6.39206">
        <ele>503.87</ele>
        <time>2010-10-10T09:26:41Z</time>
      </trkpt>
      <trkpt lat="43.23109" lon="6.39235">
        <ele>500.98</ele>
        <time>2010-10-10T09:26:45Z</time>
      </trkpt>
      <trkpt lat="43.23111" lon="6.3924">
        <ele>500.5</ele>
        <time>2010-10-10T09:26:46Z</time>
      </trkpt>
      <trkpt lat="43.23112" lon="6.39245">
        <ele>499.54</ele>
        <time>2010-10-10T09:26:47Z</time>
      </trkpt>
      <trkpt lat="43.23112" lon="6.39249">
        <ele>499.06</ele>
        <time>2010-10-10T09:26:48Z</time>
      </trkpt>
      <trkpt lat="43.23112" lon="6.39254">
        <ele>498.1</ele>
        <time>2010-10-10T09:26:49Z</time>
      </trkpt>
      <trkpt lat="43.23112" lon="6.39285">
        <ele>495.7</ele>
        <time>2010-10-10T09:26:55Z</time>
      </trkpt>
      <trkpt lat="43.23116" lon="6.393">
        <ele>495.22</ele>
        <time>2010-10-10T09:26:58Z</time>
      </trkpt>
      <trkpt lat="43.23118" lon="6.39306">
        <ele>494.74</ele>
        <time>2010-10-10T09:26:59Z</time>
      </trkpt>
      <trkpt lat="43.23119" lon="6.39312">
        <ele>494.26</ele>
        <time>2010-10-10T09:27:00Z</time>
      </trkpt>
      <trkpt lat="43.2312" lon="6.39318">
        <ele>493.77</ele>
        <time>2010-10-10T09:27:01Z</time>
      </trkpt>
      <trkpt lat="43.23122" lon="6.39322">
        <ele>492.33</ele>
        <time>2010-10-10T09:27:02Z</time>
      </trkpt>
      <trkpt lat="43.23124" lon="6.39324">
        <ele>491.85</ele>
        <time>2010-10-10T09:27:03Z</time>
      </trkpt>
      <trkpt lat="43.23125" lon="6.39326">
        <ele>490.89</ele>
        <time>2010-10-10T09:27:04Z</time>
      </trkpt>
      <trkpt lat="43.23128" lon="6.39326">
        <ele>489.45</ele>
        <time>2010-10-10T09:27:05Z</time>
      </trkpt>
      <trkpt lat="43.23132" lon="6.39328">
        <ele>488.97</ele>
        <time>2010-10-10T09:27:06Z</time>
      </trkpt>
      <trkpt lat="43.23137" lon="6.39332">
        <ele>488.01</ele>
        <time>2010-10-10T09:27:07Z</time>
      </trkpt>
      <trkpt lat="43.23141" lon="6.39337">
        <ele>488.01</ele>
        <time>2010-10-10T09:27:08Z</time>
      </trkpt>
      <trkpt lat="43.23145" lon="6.39343">
        <ele>487.05</ele>
        <time>2010-10-10T09:27:09Z</time>
      </trkpt>
      <trkpt lat="43.23147" lon="6.39349">
        <ele>486.56</ele>
        <time>2010-10-10T09:27:10Z</time>
      </trkpt>
      <trkpt lat="43.23149" lon="6.39355">
        <ele>486.08</ele>
        <time>2010-10-10T09:27:11Z</time>
      </trkpt>
      <trkpt lat="43.23157" lon="6.39365">
        <ele>486.08</ele>
        <time>2010-10-10T09:27:13Z</time>
      </trkpt>
      <trkpt lat="43.23176" lon="6.39379">
        <ele>485.6</ele>
        <time>2010-10-10T09:27:18Z</time>
      </trkpt>
      <trkpt lat="43.23195" lon="6.39396">
        <ele>482.72</ele>
        <time>2010-10-10T09:27:22Z</time>
      </trkpt>
      <trkpt lat="43.23199" lon="6.394">
        <ele>482.24</ele>
        <time>2010-10-10T09:27:23Z</time>
      </trkpt>
      <trkpt lat="43.23202" lon="6.39407">
        <ele>481.76</ele>
        <time>2010-10-10T09:27:24Z</time>
      </trkpt>
      <trkpt lat="43.23205" lon="6.39415">
        <ele>480.8</ele>
        <time>2010-10-10T09:27:25Z</time>
      </trkpt>
      <trkpt lat="43.23206" lon="6.39423">
        <ele>480.32</ele>
        <time>2010-10-10T09:27:26Z</time>
      </trkpt>
      <trkpt lat="43.23206" lon="6.39431">
        <ele>480.32</ele>
        <time>2010-10-10T09:27:27Z</time>
      </trkpt>
      <trkpt lat="43.23206" lon="6.39446">
        <ele>479.35</ele>
        <time>2010-10-10T09:27:29Z</time>
      </trkpt>
      <trkpt lat="43.23206" lon="6.39451">
        <ele>479.35</ele>
        <time>2010-10-10T09:27:30Z</time>
      </trkpt>
      <trkpt lat="43.23209" lon="6.39453">
        <ele>479.35</ele>
        <time>2010-10-10T09:27:31Z</time>
      </trkpt>
      <trkpt lat="43.23221" lon="6.39451">
        <ele>478.39</ele>
        <time>2010-10-10T09:27:35Z</time>
      </trkpt>
      <trkpt lat="43.23232" lon="6.39451">
        <ele>477.43</ele>
        <time>2010-10-10T09:27:37Z</time>
      </trkpt>
      <trkpt lat="43.23237" lon="6.39453">
        <ele>476.95</ele>
        <time>2010-10-10T09:27:38Z</time>
      </trkpt>
      <trkpt lat="43.23241" lon="6.39456">
        <ele>475.99</ele>
        <time>2010-10-10T09:27:39Z</time>
      </trkpt>
      <trkpt lat="43.23245" lon="6.39461">
        <ele>475.51</ele>
        <time>2010-10-10T09:27:40Z</time>
      </trkpt>
      <trkpt lat="43.23248" lon="6.39467">
        <ele>473.59</ele>
        <time>2010-10-10T09:27:41Z</time>
      </trkpt>
      <trkpt lat="43.23255" lon="6.39478">
        <ele>471.66</ele>
        <time>2010-10-10T09:27:43Z</time>
      </trkpt>
      <trkpt lat="43.23268" lon="6.39492">
        <ele>468.78</ele>
        <time>2010-10-10T09:27:46Z</time>
      </trkpt>
      <trkpt lat="43.23273" lon="6.39495">
        <ele>468.78</ele>
        <time>2010-10-10T09:27:47Z</time>
      </trkpt>
      <trkpt lat="43.23282" lon="6.39502">
        <ele>468.3</ele>
        <time>2010-10-10T09:27:49Z</time>
      </trkpt>
      <trkpt lat="43.23287" lon="6.39506">
        <ele>467.82</ele>
        <time>2010-10-10T09:27:50Z</time>
      </trkpt>
      <trkpt lat="43.23303" lon="6.39518">
        <ele>466.38</ele>
        <time>2010-10-10T09:27:53Z</time>
      </trkpt>
      <trkpt lat="43.2331" lon="6.39522">
        <ele>465.42</ele>
        <time>2010-10-10T09:27:54Z</time>
      </trkpt>
      <trkpt lat="43.23314" lon="6.39526">
        <ele>464.93</ele>
        <time>2010-10-10T09:27:55Z</time>
      </trkpt>
      <trkpt lat="43.23323" lon="6.39538">
        <ele>463.01</ele>
        <time>2010-10-10T09:27:57Z</time>
      </trkpt>
      <trkpt lat="43.23326" lon="6.39545">
        <ele>462.53</ele>
        <time>2010-10-10T09:27:58Z</time>
      </trkpt>
      <trkpt lat="43.23332" lon="6.39559">
        <ele>460.61</ele>
        <time>2010-10-10T09:28:00Z</time>
      </trkpt>
      <trkpt lat="43.2334" lon="6.39578">
        <ele>459.17</ele>
        <time>2010-10-10T09:28:02Z</time>
      </trkpt>
      <trkpt lat="43.23345" lon="6.39588">
        <ele>458.21</ele>
        <time>2010-10-10T09:28:03Z</time>
      </trkpt>
      <trkpt lat="43.2335" lon="6.39598">
        <ele>456.76</ele>
        <time>2010-10-10T09:28:04Z</time>
      </trkpt>
      <trkpt lat="43.2336" lon="6.39619">
        <ele>453.88</ele>
        <time>2010-10-10T09:28:06Z</time>
      </trkpt>
      <trkpt lat="43.2337" lon="6.39653">
        <ele>450.03</ele>
        <time>2010-10-10T09:28:10Z</time>
      </trkpt>
      <trkpt lat="43.23372" lon="6.39662">
        <ele>449.55</ele>
        <time>2010-10-10T09:28:11Z</time>
      </trkpt>
      <trkpt lat="43.23374" lon="6.3967">
        <ele>449.07</ele>
        <time>2010-10-10T09:28:12Z</time>
      </trkpt>
      <trkpt lat="43.23377" lon="6.39676">
        <ele>449.07</ele>
        <time>2010-10-10T09:28:13Z</time>
      </trkpt>
      <trkpt lat="43.2338" lon="6.39682">
        <ele>448.11</ele>
        <time>2010-10-10T09:28:14Z</time>
      </trkpt>
      <trkpt lat="43.23382" lon="6.39686">
        <ele>447.63</ele>
        <time>2010-10-10T09:28:15Z</time>
      </trkpt>
      <trkpt lat="43.23385" lon="6.39694">
        <ele>446.67</ele>
        <time>2010-10-10T09:28:17Z</time>
      </trkpt>
      <trkpt lat="43.23384" lon="6.39714">
        <ele>443.79</ele>
        <time>2010-10-10T09:28:22Z</time>
      </trkpt>
      <trkpt lat="43.23385" lon="6.39724">
        <ele>442.82</ele>
        <time>2010-10-10T09:28:26Z</time>
      </trkpt>
      <trkpt lat="43.23386" lon="6.39727">
        <ele>442.34</ele>
        <time>2010-10-10T09:28:28Z</time>
      </trkpt>
      <trkpt lat="43.23402" lon="6.39736">
        <ele>439.94</ele>
        <time>2010-10-10T09:28:34Z</time>
      </trkpt>
      <trkpt lat="43.23408" lon="6.3974">
        <ele>439.46</ele>
        <time>2010-10-10T09:28:35Z</time>
      </trkpt>
      <trkpt lat="43.23412" lon="6.39746">
        <ele>438.98</ele>
        <time>2010-10-10T09:28:36Z</time>
      </trkpt>
      <trkpt lat="43.23415" lon="6.39752">
        <ele>438.5</ele>
        <time>2010-10-10T09:28:37Z</time>
      </trkpt>
      <trkpt lat="43.23419" lon="6.39759">
        <ele>437.54</ele>
        <time>2010-10-10T09:28:38Z</time>
      </trkpt>
      <trkpt lat="43.23421" lon="6.39764">
        <ele>437.54</ele>
        <time>2010-10-10T09:28:39Z</time>
      </trkpt>
      <trkpt lat="43.23424" lon="6.39771">
        <ele>436.58</ele>
        <time>2010-10-10T09:28:40Z</time>
      </trkpt>
      <trkpt lat="43.23425" lon="6.39778">
        <ele>436.1</ele>
        <time>2010-10-10T09:28:41Z</time>
      </trkpt>
      <trkpt lat="43.23426" lon="6.39784">
        <ele>435.13</ele>
        <time>2010-10-10T09:28:42Z</time>
      </trkpt>
      <trkpt lat="43.23427" lon="6.3979">
        <ele>434.65</ele>
        <time>2010-10-10T09:28:43Z</time>
      </trkpt>
      <trkpt lat="43.23427" lon="6.39796">
        <ele>433.69</ele>
        <time>2010-10-10T09:28:44Z</time>
      </trkpt>
      <trkpt lat="43.23427" lon="6.39802">
        <ele>433.69</ele>
        <time>2010-10-10T09:28:45Z</time>
      </trkpt>
      <trkpt lat="43.23426" lon="6.39817">
        <ele>433.21</ele>
        <time>2010-10-10T09:28:47Z</time>
      </trkpt>
      <trkpt lat="43.23427" lon="6.39825">
        <ele>432.73</ele>
        <time>2010-10-10T09:28:48Z</time>
      </trkpt>
      <trkpt lat="43.23428" lon="6.3984">
        <ele>432.25</ele>
        <time>2010-10-10T09:28:50Z</time>
      </trkpt>
      <trkpt lat="43.23429" lon="6.39847">
        <ele>431.77</ele>
        <time>2010-10-10T09:28:51Z</time>
      </trkpt>
      <trkpt lat="43.23431" lon="6.39853">
        <ele>431.77</ele>
        <time>2010-10-10T09:28:52Z</time>
      </trkpt>
      <trkpt lat="43.23434" lon="6.39873">
        <ele>428.89</ele>
        <time>2010-10-10T09:28:55Z</time>
      </trkpt>
      <trkpt lat="43.23434" lon="6.39879">
        <ele>427.44</ele>
        <time>2010-10-10T09:28:56Z</time>
      </trkpt>
      <trkpt lat="43.23433" lon="6.39884">
        <ele>427.92</ele>
        <time>2010-10-10T09:28:57Z</time>
      </trkpt>
      <trkpt lat="43.23431" lon="6.39889">
        <ele>427.92</ele>
        <time>2010-10-10T09:28:58Z</time>
      </trkpt>
      <trkpt lat="43.23429" lon="6.39894">
        <ele>428.89</ele>
        <time>2010-10-10T09:28:59Z</time>
      </trkpt>
      <trkpt lat="43.23428" lon="6.39898">
        <ele>428.89</ele>
        <time>2010-10-10T09:29:00Z</time>
      </trkpt>
      <trkpt lat="43.23416" lon="6.39923">
        <ele>429.85</ele>
        <time>2010-10-10T09:29:07Z</time>
      </trkpt>
      <trkpt lat="43.23412" lon="6.39937">
        <ele>431.29</ele>
        <time>2010-10-10T09:29:12Z</time>
      </trkpt>
      <trkpt lat="43.23412" lon="6.39939">
        <ele>431.29</ele>
        <time>2010-10-10T09:29:13Z</time>
      </trkpt>
      <trkpt lat="43.23415" lon="6.39941">
        <ele>431.29</ele>
        <time>2010-10-10T09:29:14Z</time>
      </trkpt>
      <trkpt lat="43.23418" lon="6.39943">
        <ele>431.29</ele>
        <time>2010-10-10T09:29:15Z</time>
      </trkpt>
      <trkpt lat="43.23424" lon="6.39945">
        <ele>430.33</ele>
        <time>2010-10-10T09:29:18Z</time>
      </trkpt>
      <trkpt lat="43.23436" lon="6.39955">
        <ele>429.37</ele>
        <time>2010-10-10T09:29:23Z</time>
      </trkpt>
      <trkpt lat="43.23443" lon="6.39966">
        <ele>426.96</ele>
        <time>2010-10-10T09:29:29Z</time>
      </trkpt>
      <trkpt lat="43.23455" lon="6.39984">
        <ele>425.52</ele>
        <time>2010-10-10T09:29:37Z</time>
      </trkpt>
      <trkpt lat="43.23456" lon="6.39985">
        <ele>425.52</ele>
        <time>2010-10-10T09:29:38Z</time>
      </trkpt>
      <trkpt lat="43.2346" lon="6.39991">
        <ele>425.04</ele>
        <time>2010-10-10T09:29:42Z</time>
      </trkpt>
      <trkpt lat="43.23461" lon="6.39993">
        <ele>424.56</ele>
        <time>2010-10-10T09:29:43Z</time>
      </trkpt>
      <trkpt lat="43.23461" lon="6.39995">
        <ele>424.56</ele>
        <time>2010-10-10T09:29:44Z</time>
      </trkpt>
      <trkpt lat="43.23464" lon="6.39998">
        <ele>424.08</ele>
        <time>2010-10-10T09:29:46Z</time>
      </trkpt>
      <trkpt lat="43.23465" lon="6.39999">
        <ele>424.08</ele>
        <time>2010-10-10T09:29:47Z</time>
      </trkpt>
      <trkpt lat="43.23467" lon="6.40001">
        <ele>423.6</ele>
        <time>2010-10-10T09:29:53Z</time>
      </trkpt>
      <trkpt lat="43.2347" lon="6.40006">
        <ele>423.12</ele>
        <time>2010-10-10T09:29:56Z</time>
      </trkpt>
      <trkpt lat="43.23476" lon="6.40021">
        <ele>424.08</ele>
        <time>2010-10-10T09:30:02Z</time>
      </trkpt>
      <trkpt lat="43.23478" lon="6.40026">
        <ele>422.64</ele>
        <time>2010-10-10T09:30:05Z</time>
      </trkpt>
      <trkpt lat="43.23483" lon="6.40038">
        <ele>424.08</ele>
        <time>2010-10-10T09:30:12Z</time>
      </trkpt>
      <trkpt lat="43.23495" lon="6.40044">
        <ele>425.04</ele>
        <time>2010-10-10T09:30:19Z</time>
      </trkpt>
      <trkpt lat="43.23499" lon="6.40045">
        <ele>424.08</ele>
        <time>2010-10-10T09:30:21Z</time>
      </trkpt>
      <trkpt lat="43.23499" lon="6.40043">
        <ele>423.6</ele>
        <time>2010-10-10T09:30:28Z</time>
      </trkpt>
      <trkpt lat="43.23498" lon="6.4004">
        <ele>424.56</ele>
        <time>2010-10-10T09:30:37Z</time>
      </trkpt>
      <trkpt lat="43.23498" lon="6.4004">
        <ele>424.08</ele>
        <time>2010-10-10T09:30:46Z</time>
      </trkpt>
      <trkpt lat="43.23498" lon="6.4004">
        <ele>423.6</ele>
        <time>2010-10-10T09:30:56Z</time>
      </trkpt>
      <trkpt lat="43.23498" lon="6.4004">
        <ele>423.12</ele>
        <time>2010-10-10T09:30:57Z</time>
      </trkpt>
      <trkpt lat="43.23496" lon="6.40044">
        <ele>423.6</ele>
        <time>2010-10-10T09:30:59Z</time>
      </trkpt>
      <trkpt lat="43.23496" lon="6.40048">
        <ele>423.6</ele>
        <time>2010-10-10T09:31:00Z</time>
      </trkpt>
      <trkpt lat="43.23496" lon="6.40053">
        <ele>424.08</ele>
        <time>2010-10-10T09:31:01Z</time>
      </trkpt>
      <trkpt lat="43.23497" lon="6.40058">
        <ele>424.08</ele>
        <time>2010-10-10T09:31:02Z</time>
      </trkpt>
      <trkpt lat="43.23498" lon="6.40063">
        <ele>424.56</ele>
        <time>2010-10-10T09:31:03Z</time>
      </trkpt>
      <trkpt lat="43.235" lon="6.40068">
        <ele>424.08</ele>
        <time>2010-10-10T09:31:04Z</time>
      </trkpt>
      <trkpt lat="43.235" lon="6.40072">
        <ele>423.6</ele>
        <time>2010-10-10T09:31:05Z</time>
      </trkpt>
      <trkpt lat="43.23504" lon="6.40105">
        <ele>422.64</ele>
        <time>2010-10-10T09:31:13Z</time>
      </trkpt>
      <trkpt lat="43.23503" lon="6.40124">
        <ele>422.64</ele>
        <time>2010-10-10T09:31:19Z</time>
      </trkpt>
      <trkpt lat="43.23498" lon="6.40148">
        <ele>423.12</ele>
        <time>2010-10-10T09:31:26Z</time>
      </trkpt>
      <trkpt lat="43.23495" lon="6.40154">
        <ele>421.19</ele>
        <time>2010-10-10T09:31:29Z</time>
      </trkpt>
      <trkpt lat="43.23494" lon="6.40154">
        <ele>424.56</ele>
        <time>2010-10-10T09:31:30Z</time>
      </trkpt>
      <trkpt lat="43.23493" lon="6.40154">
        <ele>421.19</ele>
        <time>2010-10-10T09:31:33Z</time>
      </trkpt>
      <trkpt lat="43.23493" lon="6.40154">
        <ele>421.68</ele>
        <time>2010-10-10T09:31:34Z</time>
      </trkpt>
      <trkpt lat="43.23493" lon="6.40154">
        <ele>424.56</ele>
        <time>2010-10-10T09:31:37Z</time>
      </trkpt>
      <trkpt lat="43.23493" lon="6.40154">
        <ele>425.52</ele>
        <time>2010-10-10T09:31:39Z</time>
      </trkpt>
      <trkpt lat="43.23493" lon="6.40153">
        <ele>421.19</ele>
        <time>2010-10-10T09:31:41Z</time>
      </trkpt>
      <trkpt lat="43.23494" lon="6.4015">
        <ele>421.68</ele>
        <time>2010-10-10T09:31:43Z</time>
      </trkpt>
      <trkpt lat="43.23496" lon="6.40145">
        <ele>424.56</ele>
        <time>2010-10-10T09:31:46Z</time>
      </trkpt>
      <trkpt lat="43.235" lon="6.40134">
        <ele>423.12</ele>
        <time>2010-10-10T09:31:49Z</time>
      </trkpt>
      <trkpt lat="43.235" lon="6.40131">
        <ele>424.56</ele>
        <time>2010-10-10T09:31:50Z</time>
      </trkpt>
      <trkpt lat="43.23501" lon="6.40127">
        <ele>424.56</ele>
        <time>2010-10-10T09:31:51Z</time>
      </trkpt>
      <trkpt lat="43.23503" lon="6.40104">
        <ele>424.56</ele>
        <time>2010-10-10T09:31:58Z</time>
      </trkpt>
      <trkpt lat="43.23503" lon="6.40096">
        <ele>425.52</ele>
        <time>2010-10-10T09:32:00Z</time>
      </trkpt>
      <trkpt lat="43.23501" lon="6.40076">
        <ele>423.12</ele>
        <time>2010-10-10T09:32:05Z</time>
      </trkpt>
      <trkpt lat="43.23491" lon="6.40048">
        <ele>424.08</ele>
        <time>2010-10-10T09:32:13Z</time>
      </trkpt>
      <trkpt lat="43.2349" lon="6.40045">
        <ele>424.08</ele>
        <time>2010-10-10T09:32:14Z</time>
      </trkpt>
      <trkpt lat="43.23486" lon="6.40036">
        <ele>424.56</ele>
        <time>2010-10-10T09:32:20Z</time>
      </trkpt>
      <trkpt lat="43.23486" lon="6.40036">
        <ele>424.56</ele>
        <time>2010-10-10T09:32:31Z</time>
      </trkpt>
      <trkpt lat="43.23486" lon="6.40036">
        <ele>424.08</ele>
        <time>2010-10-10T09:32:39Z</time>
      </trkpt>
      <trkpt lat="43.23486" lon="6.40036">
        <ele>425.04</ele>
        <time>2010-10-10T09:32:50Z</time>
      </trkpt>
      <trkpt lat="43.23486" lon="6.40036">
        <ele>424.56</ele>
        <time>2010-10-10T09:33:00Z</time>
      </trkpt>
      <trkpt lat="43.23486" lon="6.40036">
        <ele>424.08</ele>
        <time>2010-10-10T09:33:16Z</time>
      </trkpt>
      <trkpt lat="43.23484" lon="6.40034">
        <ele>424.08</ele>
        <time>2010-10-10T09:33:21Z</time>
      </trkpt>
      <trkpt lat="43.23475" lon="6.40021">
        <ele>424.56</ele>
        <time>2010-10-10T09:33:27Z</time>
      </trkpt>
      <trkpt lat="43.23469" lon="6.4">
        <ele>424.56</ele>
        <time>2010-10-10T09:33:34Z</time>
      </trkpt>
      <trkpt lat="43.23468" lon="6.39992">
        <ele>423.6</ele>
        <time>2010-10-10T09:33:36Z</time>
      </trkpt>
      <trkpt lat="43.23466" lon="6.39984">
        <ele>423.6</ele>
        <time>2010-10-10T09:33:38Z</time>
      </trkpt>
      <trkpt lat="43.23466" lon="6.39982">
        <ele>423.12</ele>
        <time>2010-10-10T09:33:39Z</time>
      </trkpt>
      <trkpt lat="43.23468" lon="6.39981">
        <ele>422.16</ele>
        <time>2010-10-10T09:33:40Z</time>
      </trkpt>
      <trkpt lat="43.23469" lon="6.39983">
        <ele>421.68</ele>
        <time>2010-10-10T09:33:41Z</time>
      </trkpt>
      <trkpt lat="43.23471" lon="6.39986">
        <ele>421.68</ele>
        <time>2010-10-10T09:33:42Z</time>
      </trkpt>
      <trkpt lat="43.23479" lon="6.40006">
        <ele>416.87</ele>
        <time>2010-10-10T09:33:46Z</time>
      </trkpt>
      <trkpt lat="43.23483" lon="6.40009">
        <ele>414.95</ele>
        <time>2010-10-10T09:33:47Z</time>
      </trkpt>
      <trkpt lat="43.23488" lon="6.40011">
        <ele>413.5</ele>
        <time>2010-10-10T09:33:48Z</time>
      </trkpt>
      <trkpt lat="43.23497" lon="6.40012">
        <ele>412.06</ele>
        <time>2010-10-10T09:33:52Z</time>
      </trkpt>
      <trkpt lat="43.23504" lon="6.40011">
        <ele>411.58</ele>
        <time>2010-10-10T09:33:58Z</time>
      </trkpt>
      <trkpt lat="43.23504" lon="6.40009">
        <ele>411.1</ele>
        <time>2010-10-10T09:33:59Z</time>
      </trkpt>
      <trkpt lat="43.23504" lon="6.40007">
        <ele>410.62</ele>
        <time>2010-10-10T09:34:00Z</time>
      </trkpt>
      <trkpt lat="43.23503" lon="6.39993">
        <ele>407.74</ele>
        <time>2010-10-10T09:34:04Z</time>
      </trkpt>
      <trkpt lat="43.23502" lon="6.3999">
        <ele>407.26</ele>
        <time>2010-10-10T09:34:05Z</time>
      </trkpt>
      <trkpt lat="43.235" lon="6.39986">
        <ele>407.26</ele>
        <time>2010-10-10T09:34:07Z</time>
      </trkpt>
      <trkpt lat="43.23501" lon="6.39982">
        <ele>406.29</ele>
        <time>2010-10-10T09:34:08Z</time>
      </trkpt>
      <trkpt lat="43.23501" lon="6.39979">
        <ele>405.81</ele>
        <time>2010-10-10T09:34:09Z</time>
      </trkpt>
      <trkpt lat="43.235" lon="6.39976">
        <ele>404.85</ele>
        <time>2010-10-10T09:34:10Z</time>
      </trkpt>
      <trkpt lat="43.235" lon="6.39973">
        <ele>404.37</ele>
        <time>2010-10-10T09:34:11Z</time>
      </trkpt>
      <trkpt lat="43.235" lon="6.39971">
        <ele>403.41</ele>
        <time>2010-10-10T09:34:12Z</time>
      </trkpt>
      <trkpt lat="43.23499" lon="6.39969">
        <ele>402.93</ele>
        <time>2010-10-10T09:34:13Z</time>
      </trkpt>
      <trkpt lat="43.23499" lon="6.39965">
        <ele>401.97</ele>
        <time>2010-10-10T09:34:15Z</time>
      </trkpt>
      <trkpt lat="43.23499" lon="6.39964">
        <ele>401.49</ele>
        <time>2010-10-10T09:34:16Z</time>
      </trkpt>
      <trkpt lat="43.23497" lon="6.39963">
        <ele>401.01</ele>
        <time>2010-10-10T09:34:22Z</time>
      </trkpt>
      <trkpt lat="43.23497" lon="6.3996">
        <ele>400.53</ele>
        <time>2010-10-10T09:34:29Z</time>
      </trkpt>
      <trkpt lat="43.23497" lon="6.39957">
        <ele>400.53</ele>
        <time>2010-10-10T09:34:37Z</time>
      </trkpt>
      <trkpt lat="43.23497" lon="6.39949">
        <ele>399.08</ele>
        <time>2010-10-10T09:34:42Z</time>
      </trkpt>
      <trkpt lat="43.23496" lon="6.39947">
        <ele>398.6</ele>
        <time>2010-10-10T09:34:45Z</time>
      </trkpt>
      <trkpt lat="43.23496" lon="6.39945">
        <ele>398.12</ele>
        <time>2010-10-10T09:34:46Z</time>
      </trkpt>
      <trkpt lat="43.23495" lon="6.39944">
        <ele>398.12</ele>
        <time>2010-10-10T09:34:47Z</time>
      </trkpt>
      <trkpt lat="43.23494" lon="6.3994">
        <ele>397.64</ele>
        <time>2010-10-10T09:34:50Z</time>
      </trkpt>
      <trkpt lat="43.23493" lon="6.39939">
        <ele>397.16</ele>
        <time>2010-10-10T09:34:51Z</time>
      </trkpt>
      <trkpt lat="43.2349" lon="6.39935">
        <ele>396.68</ele>
        <time>2010-10-10T09:34:58Z</time>
      </trkpt>
      <trkpt lat="43.23489" lon="6.39929">
        <ele>394.76</ele>
        <time>2010-10-10T09:35:04Z</time>
      </trkpt>
      <trkpt lat="43.23489" lon="6.39928">
        <ele>391.87</ele>
        <time>2010-10-10T09:35:08Z</time>
      </trkpt>
      <trkpt lat="43.23489" lon="6.39928">
        <ele>394.28</ele>
        <time>2010-10-10T09:35:10Z</time>
      </trkpt>
      <trkpt lat="43.23491" lon="6.39922">
        <ele>391.39</ele>
        <time>2010-10-10T09:35:18Z</time>
      </trkpt>
      <trkpt lat="43.23493" lon="6.39919">
        <ele>392.36</ele>
        <time>2010-10-10T09:35:21Z</time>
      </trkpt>
      <trkpt lat="43.23499" lon="6.39914">
        <ele>392.84</ele>
        <time>2010-10-10T09:35:29Z</time>
      </trkpt>
      <trkpt lat="43.23501" lon="6.39914">
        <ele>392.36</ele>
        <time>2010-10-10T09:35:36Z</time>
      </trkpt>
      <trkpt lat="43.23501" lon="6.39908">
        <ele>391.39</ele>
        <time>2010-10-10T09:35:43Z</time>
      </trkpt>
      <trkpt lat="43.23504" lon="6.39906">
        <ele>390.91</ele>
        <time>2010-10-10T09:35:53Z</time>
      </trkpt>
      <trkpt lat="43.23506" lon="6.39905">
        <ele>390.43</ele>
        <time>2010-10-10T09:35:54Z</time>
      </trkpt>
      <trkpt lat="43.23508" lon="6.39903">
        <ele>389.47</ele>
        <time>2010-10-10T09:35:55Z</time>
      </trkpt>
      <trkpt lat="43.23509" lon="6.39902">
        <ele>388.99</ele>
        <time>2010-10-10T09:35:56Z</time>
      </trkpt>
      <trkpt lat="43.23511" lon="6.399">
        <ele>388.51</ele>
        <time>2010-10-10T09:35:57Z</time>
      </trkpt>
      <trkpt lat="43.23513" lon="6.39899">
        <ele>387.07</ele>
        <time>2010-10-10T09:35:58Z</time>
      </trkpt>
      <trkpt lat="43.23514" lon="6.39899">
        <ele>387.07</ele>
        <time>2010-10-10T09:35:59Z</time>
      </trkpt>
      <trkpt lat="43.23517" lon="6.39896">
        <ele>385.63</ele>
        <time>2010-10-10T09:36:06Z</time>
      </trkpt>
      <trkpt lat="43.23521" lon="6.39893">
        <ele>384.66</ele>
        <time>2010-10-10T09:36:13Z</time>
      </trkpt>
      <trkpt lat="43.23525" lon="6.39893">
        <ele>384.66</ele>
        <time>2010-10-10T09:36:20Z</time>
      </trkpt>
      <trkpt lat="43.23527" lon="6.39893">
        <ele>385.15</ele>
        <time>2010-10-10T09:36:22Z</time>
      </trkpt>
      <trkpt lat="43.23528" lon="6.39894">
        <ele>385.15</ele>
        <time>2010-10-10T09:36:23Z</time>
      </trkpt>
      <trkpt lat="43.23533" lon="6.39901">
        <ele>385.63</ele>
        <time>2010-10-10T09:36:29Z</time>
      </trkpt>
      <trkpt lat="43.23534" lon="6.39901">
        <ele>385.63</ele>
        <time>2010-10-10T09:36:30Z</time>
      </trkpt>
      <trkpt lat="43.23539" lon="6.39905">
        <ele>387.55</ele>
        <time>2010-10-10T09:36:36Z</time>
      </trkpt>
      <trkpt lat="43.23543" lon="6.39906">
        <ele>387.07</ele>
        <time>2010-10-10T09:36:44Z</time>
      </trkpt>
      <trkpt lat="43.23551" lon="6.39908">
        <ele>388.51</ele>
        <time>2010-10-10T09:36:50Z</time>
      </trkpt>
      <trkpt lat="43.23556" lon="6.39909">
        <ele>389.95</ele>
        <time>2010-10-10T09:36:56Z</time>
      </trkpt>
      <trkpt lat="43.23561" lon="6.39913">
        <ele>390.43</ele>
        <time>2010-10-10T09:37:02Z</time>
      </trkpt>
      <trkpt lat="43.23564" lon="6.39915">
        <ele>390.43</ele>
        <time>2010-10-10T09:37:04Z</time>
      </trkpt>
      <trkpt lat="43.23571" lon="6.39918">
        <ele>393.32</ele>
        <time>2010-10-10T09:37:10Z</time>
      </trkpt>
      <trkpt lat="43.23574" lon="6.3992">
        <ele>393.8</ele>
        <time>2010-10-10T09:37:12Z</time>
      </trkpt>
      <trkpt lat="43.23578" lon="6.39921">
        <ele>393.8</ele>
        <time>2010-10-10T09:37:19Z</time>
      </trkpt>
      <trkpt lat="43.23585" lon="6.39918">
        <ele>393.32</ele>
        <time>2010-10-10T09:37:27Z</time>
      </trkpt>
      <trkpt lat="43.23591" lon="6.39918">
        <ele>395.72</ele>
        <time>2010-10-10T09:37:33Z</time>
      </trkpt>
      <trkpt lat="43.23597" lon="6.39919">
        <ele>395.72</ele>
        <time>2010-10-10T09:37:40Z</time>
      </trkpt>
      <trkpt lat="43.23599" lon="6.39921">
        <ele>394.28</ele>
        <time>2010-10-10T09:37:45Z</time>
      </trkpt>
      <trkpt lat="43.23599" lon="6.39921">
        <ele>392.84</ele>
        <time>2010-10-10T09:37:48Z</time>
      </trkpt>
      <trkpt lat="43.236" lon="6.39922">
        <ele>393.8</ele>
        <time>2010-10-10T09:37:57Z</time>
      </trkpt>
      <trkpt lat="43.23602" lon="6.39923">
        <ele>395.72</ele>
        <time>2010-10-10T09:38:11Z</time>
      </trkpt>
      <trkpt lat="43.23604" lon="6.39923">
        <ele>394.28</ele>
        <time>2010-10-10T09:38:14Z</time>
      </trkpt>
      <trkpt lat="43.23607" lon="6.39924">
        <ele>393.8</ele>
        <time>2010-10-10T09:38:19Z</time>
      </trkpt>
      <trkpt lat="43.23612" lon="6.39924">
        <ele>391.87</ele>
        <time>2010-10-10T09:38:24Z</time>
      </trkpt>
      <trkpt lat="43.23613" lon="6.39923">
        <ele>392.36</ele>
        <time>2010-10-10T09:38:25Z</time>
      </trkpt>
      <trkpt lat="43.23615" lon="6.39921">
        <ele>391.87</ele>
        <time>2010-10-10T09:38:26Z</time>
      </trkpt>
      <trkpt lat="43.23617" lon="6.39919">
        <ele>392.36</ele>
        <time>2010-10-10T09:38:27Z</time>
      </trkpt>
      <trkpt lat="43.23619" lon="6.39917">
        <ele>391.87</ele>
        <time>2010-10-10T09:38:28Z</time>
      </trkpt>
      <trkpt lat="43.23628" lon="6.39901">
        <ele>388.99</ele>
        <time>2010-10-10T09:38:33Z</time>
      </trkpt>
      <trkpt lat="43.23638" lon="6.39884">
        <ele>387.55</ele>
        <time>2010-10-10T09:38:39Z</time>
      </trkpt>
      <trkpt lat="43.2364" lon="6.3988">
        <ele>389.95</ele>
        <time>2010-10-10T09:38:46Z</time>
      </trkpt>
      <trkpt lat="43.23644" lon="6.39876">
        <ele>388.03</ele>
        <time>2010-10-10T09:38:52Z</time>
      </trkpt>
      <trkpt lat="43.23646" lon="6.39875">
        <ele>388.03</ele>
        <time>2010-10-10T09:38:53Z</time>
      </trkpt>
      <trkpt lat="43.23656" lon="6.39866">
        <ele>386.59</ele>
        <time>2010-10-10T09:38:58Z</time>
      </trkpt>
      <trkpt lat="43.23657" lon="6.39865">
        <ele>386.59</ele>
        <time>2010-10-10T09:39:04Z</time>
      </trkpt>
      <trkpt lat="43.23664" lon="6.3986">
        <ele>385.15</ele>
        <time>2010-10-10T09:39:10Z</time>
      </trkpt>
      <trkpt lat="43.23672" lon="6.39854">
        <ele>383.7</ele>
        <time>2010-10-10T09:39:14Z</time>
      </trkpt>
      <trkpt lat="43.23682" lon="6.39852">
        <ele>380.82</ele>
        <time>2010-10-10T09:39:19Z</time>
      </trkpt>
      <trkpt lat="43.23693" lon="6.3985">
        <ele>380.34</ele>
        <time>2010-10-10T09:39:24Z</time>
      </trkpt>
      <trkpt lat="43.23695" lon="6.39849">
        <ele>382.26</ele>
        <time>2010-10-10T09:39:29Z</time>
      </trkpt>
      <trkpt lat="43.23703" lon="6.39845">
        <ele>382.26</ele>
        <time>2010-10-10T09:39:36Z</time>
      </trkpt>
      <trkpt lat="43.23709" lon="6.39841">
        <ele>382.26</ele>
        <time>2010-10-10T09:39:42Z</time>
      </trkpt>
      <trkpt lat="43.23712" lon="6.39839">
        <ele>382.26</ele>
        <time>2010-10-10T09:39:49Z</time>
      </trkpt>
      <trkpt lat="43.23713" lon="6.39838">
        <ele>382.26</ele>
        <time>2010-10-10T09:39:50Z</time>
      </trkpt>
      <trkpt lat="43.23715" lon="6.39838">
        <ele>381.78</ele>
        <time>2010-10-10T09:39:51Z</time>
      </trkpt>
      <trkpt lat="43.23717" lon="6.39838">
        <ele>381.78</ele>
        <time>2010-10-10T09:39:52Z</time>
      </trkpt>
      <trkpt lat="43.23719" lon="6.39837">
        <ele>381.3</ele>
        <time>2010-10-10T09:39:53Z</time>
      </trkpt>
      <trkpt lat="43.23721" lon="6.39836">
        <ele>380.82</ele>
        <time>2010-10-10T09:39:54Z</time>
      </trkpt>
      <trkpt lat="43.23723" lon="6.39835">
        <ele>379.86</ele>
        <time>2010-10-10T09:39:55Z</time>
      </trkpt>
      <trkpt lat="43.23725" lon="6.39834">
        <ele>379.86</ele>
        <time>2010-10-10T09:39:56Z</time>
      </trkpt>
      <trkpt lat="43.23727" lon="6.39833">
        <ele>379.86</ele>
        <time>2010-10-10T09:39:57Z</time>
      </trkpt>
      <trkpt lat="43.23729" lon="6.39832">
        <ele>379.38</ele>
        <time>2010-10-10T09:39:58Z</time>
      </trkpt>
      <trkpt lat="43.23739" lon="6.39828">
        <ele>378.42</ele>
        <time>2010-10-10T09:40:03Z</time>
      </trkpt>
      <trkpt lat="43.23743" lon="6.39826">
        <ele>377.45</ele>
        <time>2010-10-10T09:40:08Z</time>
      </trkpt>
      <trkpt lat="43.23749" lon="6.39823">
        <ele>375.53</ele>
        <time>2010-10-10T09:40:14Z</time>
      </trkpt>
      <trkpt lat="43.23753" lon="6.39821">
        <ele>375.05</ele>
        <time>2010-10-10T09:40:20Z</time>
      </trkpt>
      <trkpt lat="43.23756" lon="6.39819">
        <ele>377.45</ele>
        <time>2010-10-10T09:40:25Z</time>
      </trkpt>
      <trkpt lat="43.2376" lon="6.39816">
        <ele>378.9</ele>
        <time>2010-10-10T09:40:31Z</time>
      </trkpt>
      <trkpt lat="43.23763" lon="6.39815">
        <ele>380.34</ele>
        <time>2010-10-10T09:40:37Z</time>
      </trkpt>
      <trkpt lat="43.23764" lon="6.39814">
        <ele>379.86</ele>
        <time>2010-10-10T09:40:46Z</time>
      </trkpt>
      <trkpt lat="43.23768" lon="6.3981">
        <ele>379.86</ele>
        <time>2010-10-10T09:40:51Z</time>
      </trkpt>
      <trkpt lat="43.23769" lon="6.39808">
        <ele>379.86</ele>
        <time>2010-10-10T09:40:52Z</time>
      </trkpt>
      <trkpt lat="43.23771" lon="6.39807">
        <ele>379.86</ele>
        <time>2010-10-10T09:40:54Z</time>
      </trkpt>
      <trkpt lat="43.23773" lon="6.39806">
        <ele>380.34</ele>
        <time>2010-10-10T09:41:00Z</time>
      </trkpt>
      <trkpt lat="43.23776" lon="6.39807">
        <ele>379.38</ele>
        <time>2010-10-10T09:41:05Z</time>
      </trkpt>
      <trkpt lat="43.23778" lon="6.39807">
        <ele>378.9</ele>
        <time>2010-10-10T09:41:06Z</time>
      </trkpt>
      <trkpt lat="43.23779" lon="6.39807">
        <ele>378.42</ele>
        <time>2010-10-10T09:41:07Z</time>
      </trkpt>
      <trkpt lat="43.23781" lon="6.39806">
        <ele>377.94</ele>
        <time>2010-10-10T09:41:08Z</time>
      </trkpt>
      <trkpt lat="43.23787" lon="6.39805">
        <ele>376.97</ele>
        <time>2010-10-10T09:41:13Z</time>
      </trkpt>
      <trkpt lat="43.23798" lon="6.39802">
        <ele>376.49</ele>
        <time>2010-10-10T09:41:19Z</time>
      </trkpt>
      <trkpt lat="43.23803" lon="6.39804">
        <ele>375.53</ele>
        <time>2010-10-10T09:41:22Z</time>
      </trkpt>
      <trkpt lat="43.23805" lon="6.39806">
        <ele>374.57</ele>
        <time>2010-10-10T09:41:23Z</time>
      </trkpt>
      <trkpt lat="43.23807" lon="6.39808">
        <ele>373.13</ele>
        <time>2010-10-10T09:41:24Z</time>
      </trkpt>
      <trkpt lat="43.23809" lon="6.3981">
        <ele>372.17</ele>
        <time>2010-10-10T09:41:25Z</time>
      </trkpt>
      <trkpt lat="43.23811" lon="6.39811">
        <ele>370.73</ele>
        <time>2010-10-10T09:41:26Z</time>
      </trkpt>
      <trkpt lat="43.23814" lon="6.39811">
        <ele>369.28</ele>
        <time>2010-10-10T09:41:27Z</time>
      </trkpt>
      <trkpt lat="43.23815" lon="6.39812">
        <ele>369.76</ele>
        <time>2010-10-10T09:41:28Z</time>
      </trkpt>
      <trkpt lat="43.23827" lon="6.39808">
        <ele>372.65</ele>
        <time>2010-10-10T09:41:34Z</time>
      </trkpt>
      <trkpt lat="43.23831" lon="6.39807">
        <ele>373.61</ele>
        <time>2010-10-10T09:41:36Z</time>
      </trkpt>
      <trkpt lat="43.23836" lon="6.39803">
        <ele>373.13</ele>
        <time>2010-10-10T09:41:39Z</time>
      </trkpt>
      <trkpt lat="43.23844" lon="6.39795">
        <ele>374.09</ele>
        <time>2010-10-10T09:41:44Z</time>
      </trkpt>
      <trkpt lat="43.23848" lon="6.39793">
        <ele>374.57</ele>
        <time>2010-10-10T09:41:47Z</time>
      </trkpt>
      <trkpt lat="43.23862" lon="6.39784">
        <ele>374.09</ele>
        <time>2010-10-10T09:41:54Z</time>
      </trkpt>
      <trkpt lat="43.23874" lon="6.39775">
        <ele>374.57</ele>
        <time>2010-10-10T09:42:00Z</time>
      </trkpt>
      <trkpt lat="43.23879" lon="6.39766">
        <ele>376.01</ele>
        <time>2010-10-10T09:42:06Z</time>
      </trkpt>
      <trkpt lat="43.23879" lon="6.39765">
        <ele>376.49</ele>
        <time>2010-10-10T09:42:14Z</time>
      </trkpt>
      <trkpt lat="43.23879" lon="6.39765">
        <ele>376.49</ele>
        <time>2010-10-10T09:42:30Z</time>
      </trkpt>
      <trkpt lat="43.23879" lon="6.39765">
        <ele>378.42</ele>
        <time>2010-10-10T09:42:43Z</time>
      </trkpt>
      <trkpt lat="43.23885" lon="6.39754">
        <ele>377.94</ele>
        <time>2010-10-10T09:42:49Z</time>
      </trkpt>
      <trkpt lat="43.23886" lon="6.39751">
        <ele>377.94</ele>
        <time>2010-10-10T09:42:57Z</time>
      </trkpt>
      <trkpt lat="43.23888" lon="6.39746">
        <ele>376.97</ele>
        <time>2010-10-10T09:43:05Z</time>
      </trkpt>
      <trkpt lat="43.2389" lon="6.39744">
        <ele>379.38</ele>
        <time>2010-10-10T09:43:14Z</time>
      </trkpt>
      <trkpt lat="43.2389" lon="6.39744">
        <ele>377.45</ele>
        <time>2010-10-10T09:43:22Z</time>
      </trkpt>
      <trkpt lat="43.23898" lon="6.39734">
        <ele>375.53</ele>
        <time>2010-10-10T09:43:27Z</time>
      </trkpt>
      <trkpt lat="43.23907" lon="6.39718">
        <ele>377.45</ele>
        <time>2010-10-10T09:43:33Z</time>
      </trkpt>
      <trkpt lat="43.2391" lon="6.39704">
        <ele>380.34</ele>
        <time>2010-10-10T09:43:38Z</time>
      </trkpt>
      <trkpt lat="43.23911" lon="6.397">
        <ele>381.78</ele>
        <time>2010-10-10T09:43:40Z</time>
      </trkpt>
      <trkpt lat="43.23921" lon="6.39684">
        <ele>383.22</ele>
        <time>2010-10-10T09:43:47Z</time>
      </trkpt>
      <trkpt lat="43.23924" lon="6.3968">
        <ele>383.22</ele>
        <time>2010-10-10T09:43:49Z</time>
      </trkpt>
      <trkpt lat="43.23939" lon="6.39667">
        <ele>382.26</ele>
        <time>2010-10-10T09:43:57Z</time>
      </trkpt>
      <trkpt lat="43.23941" lon="6.39666">
        <ele>382.26</ele>
        <time>2010-10-10T09:43:58Z</time>
      </trkpt>
      <trkpt lat="43.23949" lon="6.39657">
        <ele>381.3</ele>
        <time>2010-10-10T09:44:03Z</time>
      </trkpt>
      <trkpt lat="43.23954" lon="6.39656">
        <ele>377.45</ele>
        <time>2010-10-10T09:44:06Z</time>
      </trkpt>
      <trkpt lat="43.2396" lon="6.39655">
        <ele>378.9</ele>
        <time>2010-10-10T09:44:09Z</time>
      </trkpt>
      <trkpt lat="43.23977" lon="6.39645">
        <ele>377.94</ele>
        <time>2010-10-10T09:44:14Z</time>
      </trkpt>
      <trkpt lat="43.23984" lon="6.39647">
        <ele>377.94</ele>
        <time>2010-10-10T09:44:17Z</time>
      </trkpt>
      <trkpt lat="43.23994" lon="6.39645">
        <ele>376.97</ele>
        <time>2010-10-10T09:44:23Z</time>
      </trkpt>
      <trkpt lat="43.24004" lon="6.39637">
        <ele>378.9</ele>
        <time>2010-10-10T09:44:28Z</time>
      </trkpt>
      <trkpt lat="43.24006" lon="6.39634">
        <ele>378.9</ele>
        <time>2010-10-10T09:44:29Z</time>
      </trkpt>
      <trkpt lat="43.24007" lon="6.39632">
        <ele>378.9</ele>
        <time>2010-10-10T09:44:30Z</time>
      </trkpt>
      <trkpt lat="43.24018" lon="6.39628">
        <ele>376.01</ele>
        <time>2010-10-10T09:44:35Z</time>
      </trkpt>
      <trkpt lat="43.24024" lon="6.39621">
        <ele>374.57</ele>
        <time>2010-10-10T09:44:38Z</time>
      </trkpt>
      <trkpt lat="43.24026" lon="6.39601">
        <ele>370.24</ele>
        <time>2010-10-10T09:44:43Z</time>
      </trkpt>
      <trkpt lat="43.24024" lon="6.39593">
        <ele>368.32</ele>
        <time>2010-10-10T09:44:45Z</time>
      </trkpt>
      <trkpt lat="43.24014" lon="6.39573">
        <ele>364</ele>
        <time>2010-10-10T09:44:50Z</time>
      </trkpt>
      <trkpt lat="43.24005" lon="6.3956">
        <ele>361.11</ele>
        <time>2010-10-10T09:44:54Z</time>
      </trkpt>
      <trkpt lat="43.24001" lon="6.39556">
        <ele>360.15</ele>
        <time>2010-10-10T09:44:55Z</time>
      </trkpt>
      <trkpt lat="43.23995" lon="6.39549">
        <ele>358.71</ele>
        <time>2010-10-10T09:44:57Z</time>
      </trkpt>
      <trkpt lat="43.23989" lon="6.39541">
        <ele>356.79</ele>
        <time>2010-10-10T09:44:59Z</time>
      </trkpt>
      <trkpt lat="43.23989" lon="6.39539">
        <ele>356.79</ele>
        <time>2010-10-10T09:45:00Z</time>
      </trkpt>
      <trkpt lat="43.2399" lon="6.39533">
        <ele>357.27</ele>
        <time>2010-10-10T09:45:01Z</time>
      </trkpt>
      <trkpt lat="43.24" lon="6.39524">
        <ele>355.34</ele>
        <time>2010-10-10T09:45:06Z</time>
      </trkpt>
      <trkpt lat="43.24002" lon="6.3952">
        <ele>354.38</ele>
        <time>2010-10-10T09:45:07Z</time>
      </trkpt>
      <trkpt lat="43.24007" lon="6.39498">
        <ele>351.98</ele>
        <time>2010-10-10T09:45:10Z</time>
      </trkpt>
      <trkpt lat="43.24006" lon="6.39475">
        <ele>349.1</ele>
        <time>2010-10-10T09:45:14Z</time>
      </trkpt>
      <trkpt lat="43.24" lon="6.39461">
        <ele>346.69</ele>
        <time>2010-10-10T09:45:19Z</time>
      </trkpt>
      <trkpt lat="43.23997" lon="6.39456">
        <ele>345.73</ele>
        <time>2010-10-10T09:45:21Z</time>
      </trkpt>
      <trkpt lat="43.23988" lon="6.39446">
        <ele>342.37</ele>
        <time>2010-10-10T09:45:26Z</time>
      </trkpt>
      <trkpt lat="43.23982" lon="6.39445">
        <ele>342.37</ele>
        <time>2010-10-10T09:45:29Z</time>
      </trkpt>
      <trkpt lat="43.2398" lon="6.39438">
        <ele>339.96</ele>
        <time>2010-10-10T09:45:33Z</time>
      </trkpt>
      <trkpt lat="43.23982" lon="6.39435">
        <ele>339.48</ele>
        <time>2010-10-10T09:45:35Z</time>
      </trkpt>
      <trkpt lat="43.23976" lon="6.39425">
        <ele>337.08</ele>
        <time>2010-10-10T09:45:40Z</time>
      </trkpt>
      <trkpt lat="43.2397" lon="6.3942">
        <ele>334.68</ele>
        <time>2010-10-10T09:45:44Z</time>
      </trkpt>
      <trkpt lat="43.23965" lon="6.39404">
        <ele>330.83</ele>
        <time>2010-10-10T09:45:48Z</time>
      </trkpt>
      <trkpt lat="43.23963" lon="6.39389">
        <ele>327.47</ele>
        <time>2010-10-10T09:45:51Z</time>
      </trkpt>
      <trkpt lat="43.23962" lon="6.39378">
        <ele>324.58</ele>
        <time>2010-10-10T09:45:53Z</time>
      </trkpt>
      <trkpt lat="43.23959" lon="6.39367">
        <ele>322.18</ele>
        <time>2010-10-10T09:45:56Z</time>
      </trkpt>
      <trkpt lat="43.23961" lon="6.39351">
        <ele>318.33</ele>
        <time>2010-10-10T09:46:01Z</time>
      </trkpt>
      <trkpt lat="43.23962" lon="6.39338">
        <ele>315.93</ele>
        <time>2010-10-10T09:46:04Z</time>
      </trkpt>
      <trkpt lat="43.23962" lon="6.39332">
        <ele>313.53</ele>
        <time>2010-10-10T09:46:07Z</time>
      </trkpt>
      <trkpt lat="43.23956" lon="6.39328">
        <ele>311.6</ele>
        <time>2010-10-10T09:46:10Z</time>
      </trkpt>
      <trkpt lat="43.2395" lon="6.39321">
        <ele>306.8</ele>
        <time>2010-10-10T09:46:13Z</time>
      </trkpt>
      <trkpt lat="43.23949" lon="6.3932">
        <ele>306.32</ele>
        <time>2010-10-10T09:46:14Z</time>
      </trkpt>
      <trkpt lat="43.23947" lon="6.39315">
        <ele>304.88</ele>
        <time>2010-10-10T09:46:20Z</time>
      </trkpt>
      <trkpt lat="43.23946" lon="6.39309">
        <ele>305.36</ele>
        <time>2010-10-10T09:46:31Z</time>
      </trkpt>
      <trkpt lat="43.23946" lon="6.39304">
        <ele>303.91</ele>
        <time>2010-10-10T09:46:33Z</time>
      </trkpt>
      <trkpt lat="43.23947" lon="6.39297">
        <ele>303.43</ele>
        <time>2010-10-10T09:46:35Z</time>
      </trkpt>
      <trkpt lat="43.23946" lon="6.39293">
        <ele>301.51</ele>
        <time>2010-10-10T09:46:37Z</time>
      </trkpt>
      <trkpt lat="43.23947" lon="6.39287">
        <ele>300.07</ele>
        <time>2010-10-10T09:46:39Z</time>
      </trkpt>
      <trkpt lat="43.23945" lon="6.39281">
        <ele>299.59</ele>
        <time>2010-10-10T09:46:42Z</time>
      </trkpt>
      <trkpt lat="43.23938" lon="6.39276">
        <ele>296.7</ele>
        <time>2010-10-10T09:46:46Z</time>
      </trkpt>
      <trkpt lat="43.23934" lon="6.39265">
        <ele>295.26</ele>
        <time>2010-10-10T09:46:51Z</time>
      </trkpt>
      <trkpt lat="43.23937" lon="6.3925">
        <ele>293.82</ele>
        <time>2010-10-10T09:46:56Z</time>
      </trkpt>
      <trkpt lat="43.23933" lon="6.39231">
        <ele>292.38</ele>
        <time>2010-10-10T09:47:00Z</time>
      </trkpt>
      <trkpt lat="43.23933" lon="6.39223">
        <ele>290.46</ele>
        <time>2010-10-10T09:47:02Z</time>
      </trkpt>
      <trkpt lat="43.2393" lon="6.39217">
        <ele>289.49</ele>
        <time>2010-10-10T09:47:04Z</time>
      </trkpt>
      <trkpt lat="43.23935" lon="6.39174">
        <ele>288.53</ele>
        <time>2010-10-10T09:47:10Z</time>
      </trkpt>
      <trkpt lat="43.23943" lon="6.39144">
        <ele>289.49</ele>
        <time>2010-10-10T09:47:17Z</time>
      </trkpt>
      <trkpt lat="43.23945" lon="6.39128">
        <ele>289.49</ele>
        <time>2010-10-10T09:47:21Z</time>
      </trkpt>
      <trkpt lat="43.23945" lon="6.39123">
        <ele>289.49</ele>
        <time>2010-10-10T09:47:22Z</time>
      </trkpt>
      <trkpt lat="43.23934" lon="6.391">
        <ele>287.57</ele>
        <time>2010-10-10T09:47:28Z</time>
      </trkpt>
      <trkpt lat="43.23937" lon="6.3909">
        <ele>288.53</ele>
        <time>2010-10-10T09:47:32Z</time>
      </trkpt>
      <trkpt lat="43.23938" lon="6.39087">
        <ele>288.05</ele>
        <time>2010-10-10T09:47:33Z</time>
      </trkpt>
      <trkpt lat="43.23955" lon="6.39071">
        <ele>285.65</ele>
        <time>2010-10-10T09:47:39Z</time>
      </trkpt>
      <trkpt lat="43.23971" lon="6.39063">
        <ele>284.69</ele>
        <time>2010-10-10T09:47:44Z</time>
      </trkpt>
      <trkpt lat="43.2398" lon="6.39054">
        <ele>282.28</ele>
        <time>2010-10-10T09:47:48Z</time>
      </trkpt>
      <trkpt lat="43.2399" lon="6.39043">
        <ele>280.36</ele>
        <time>2010-10-10T09:47:52Z</time>
      </trkpt>
      <trkpt lat="43.24002" lon="6.39024">
        <ele>278.44</ele>
        <time>2010-10-10T09:47:57Z</time>
      </trkpt>
      <trkpt lat="43.24023" lon="6.38998">
        <ele>275.07</ele>
        <time>2010-10-10T09:48:04Z</time>
      </trkpt>
      <trkpt lat="43.24021" lon="6.38977">
        <ele>272.67</ele>
        <time>2010-10-10T09:48:10Z</time>
      </trkpt>
      <trkpt lat="43.24023" lon="6.38967">
        <ele>273.15</ele>
        <time>2010-10-10T09:48:13Z</time>
      </trkpt>
      <trkpt lat="43.2404" lon="6.3895">
        <ele>272.19</ele>
        <time>2010-10-10T09:48:18Z</time>
      </trkpt>
      <trkpt lat="43.24043" lon="6.38948">
        <ele>270.75</ele>
        <time>2010-10-10T09:48:19Z</time>
      </trkpt>
      <trkpt lat="43.24049" lon="6.38945">
        <ele>269.79</ele>
        <time>2010-10-10T09:48:21Z</time>
      </trkpt>
      <trkpt lat="43.24063" lon="6.38937">
        <ele>266.42</ele>
        <time>2010-10-10T09:48:27Z</time>
      </trkpt>
      <trkpt lat="43.24071" lon="6.38932">
        <ele>264.98</ele>
        <time>2010-10-10T09:48:30Z</time>
      </trkpt>
      <trkpt lat="43.2409" lon="6.3892">
        <ele>263.54</ele>
        <time>2010-10-10T09:48:36Z</time>
      </trkpt>
      <trkpt lat="43.24103" lon="6.38903">
        <ele>263.54</ele>
        <time>2010-10-10T09:48:42Z</time>
      </trkpt>
      <trkpt lat="43.24102" lon="6.38886">
        <ele>262.1</ele>
        <time>2010-10-10T09:48:48Z</time>
      </trkpt>
      <trkpt lat="43.24101" lon="6.38864">
        <ele>260.17</ele>
        <time>2010-10-10T09:48:52Z</time>
      </trkpt>
      <trkpt lat="43.241" lon="6.3884">
        <ele>258.73</ele>
        <time>2010-10-10T09:48:56Z</time>
      </trkpt>
      <trkpt lat="43.24099" lon="6.38826">
        <ele>256.33</ele>
        <time>2010-10-10T09:48:58Z</time>
      </trkpt>
      <trkpt lat="43.24098" lon="6.38819">
        <ele>255.37</ele>
        <time>2010-10-10T09:48:59Z</time>
      </trkpt>
      <trkpt lat="43.24095" lon="6.38807">
        <ele>253.93</ele>
        <time>2010-10-10T09:49:01Z</time>
      </trkpt>
      <trkpt lat="43.24093" lon="6.388">
        <ele>253.44</ele>
        <time>2010-10-10T09:49:02Z</time>
      </trkpt>
      <trkpt lat="43.24092" lon="6.38793">
        <ele>252.48</ele>
        <time>2010-10-10T09:49:03Z</time>
      </trkpt>
      <trkpt lat="43.2409" lon="6.38786">
        <ele>251.52</ele>
        <time>2010-10-10T09:49:04Z</time>
      </trkpt>
      <trkpt lat="43.24088" lon="6.38779">
        <ele>250.56</ele>
        <time>2010-10-10T09:49:05Z</time>
      </trkpt>
      <trkpt lat="43.24078" lon="6.38754">
        <ele>247.2</ele>
        <time>2010-10-10T09:49:10Z</time>
      </trkpt>
      <trkpt lat="43.24071" lon="6.38732">
        <ele>244.31</ele>
        <time>2010-10-10T09:49:15Z</time>
      </trkpt>
      <trkpt lat="43.24062" lon="6.38715">
        <ele>240.95</ele>
        <time>2010-10-10T09:49:21Z</time>
      </trkpt>
      <trkpt lat="43.24052" lon="6.38703">
        <ele>237.58</ele>
        <time>2010-10-10T09:49:26Z</time>
      </trkpt>
      <trkpt lat="43.2405" lon="6.38701">
        <ele>238.06</ele>
        <time>2010-10-10T09:49:27Z</time>
      </trkpt>
      <trkpt lat="43.24048" lon="6.387">
        <ele>237.58</ele>
        <time>2010-10-10T09:49:28Z</time>
      </trkpt>
      <trkpt lat="43.24046" lon="6.38698">
        <ele>239.51</ele>
        <time>2010-10-10T09:49:29Z</time>
      </trkpt>
      <trkpt lat="43.2403" lon="6.38696">
        <ele>239.51</ele>
        <time>2010-10-10T09:49:35Z</time>
      </trkpt>
      <trkpt lat="43.24015" lon="6.38695">
        <ele>241.43</ele>
        <time>2010-10-10T09:49:40Z</time>
      </trkpt>
      <trkpt lat="43.24" lon="6.38699">
        <ele>242.39</ele>
        <time>2010-10-10T09:49:46Z</time>
      </trkpt>
      <trkpt lat="43.23998" lon="6.38699">
        <ele>242.39</ele>
        <time>2010-10-10T09:49:47Z</time>
      </trkpt>
      <trkpt lat="43.23977" lon="6.38706">
        <ele>243.35</ele>
        <time>2010-10-10T09:49:55Z</time>
      </trkpt>
      <trkpt lat="43.23969" lon="6.38705">
        <ele>243.35</ele>
        <time>2010-10-10T09:50:01Z</time>
      </trkpt>
      <trkpt lat="43.23961" lon="6.38703">
        <ele>244.79</ele>
        <time>2010-10-10T09:50:10Z</time>
      </trkpt>
      <trkpt lat="43.23961" lon="6.38703">
        <ele>244.79</ele>
        <time>2010-10-10T09:50:19Z</time>
      </trkpt>
      <trkpt lat="43.23961" lon="6.38703">
        <ele>243.83</ele>
        <time>2010-10-10T09:50:28Z</time>
      </trkpt>
      <trkpt lat="43.23965" lon="6.38698">
        <ele>244.31</ele>
        <time>2010-10-10T09:50:35Z</time>
      </trkpt>
      <trkpt lat="43.23968" lon="6.38691">
        <ele>245.27</ele>
        <time>2010-10-10T09:50:42Z</time>
      </trkpt>
      <trkpt lat="43.2397" lon="6.38685">
        <ele>246.72</ele>
        <time>2010-10-10T09:50:47Z</time>
      </trkpt>
      <trkpt lat="43.2398" lon="6.38675">
        <ele>248.16</ele>
        <time>2010-10-10T09:50:55Z</time>
      </trkpt>
      <trkpt lat="43.23981" lon="6.38673">
        <ele>248.16</ele>
        <time>2010-10-10T09:50:56Z</time>
      </trkpt>
      <trkpt lat="43.23982" lon="6.3867">
        <ele>248.64</ele>
        <time>2010-10-10T09:50:58Z</time>
      </trkpt>
      <trkpt lat="43.23983" lon="6.38668">
        <ele>248.64</ele>
        <time>2010-10-10T09:50:59Z</time>
      </trkpt>
      <trkpt lat="43.2399" lon="6.38665">
        <ele>248.64</ele>
        <time>2010-10-10T09:51:07Z</time>
      </trkpt>
      <trkpt lat="43.23995" lon="6.38659">
        <ele>248.16</ele>
        <time>2010-10-10T09:51:15Z</time>
      </trkpt>
      <trkpt lat="43.23996" lon="6.38655">
        <ele>248.64</ele>
        <time>2010-10-10T09:51:23Z</time>
      </trkpt>
      <trkpt lat="43.23998" lon="6.38652">
        <ele>249.12</ele>
        <time>2010-10-10T09:51:27Z</time>
      </trkpt>
      <trkpt lat="43.23999" lon="6.38649">
        <ele>248.64</ele>
        <time>2010-10-10T09:51:28Z</time>
      </trkpt>
      <trkpt lat="43.23999" lon="6.38646">
        <ele>249.12</ele>
        <time>2010-10-10T09:51:29Z</time>
      </trkpt>
      <trkpt lat="43.23999" lon="6.38644">
        <ele>249.12</ele>
        <time>2010-10-10T09:51:30Z</time>
      </trkpt>
      <trkpt lat="43.23996" lon="6.38636">
        <ele>253.93</ele>
        <time>2010-10-10T09:51:33Z</time>
      </trkpt>
      <trkpt lat="43.23996" lon="6.38634">
        <ele>250.08</ele>
        <time>2010-10-10T09:51:34Z</time>
      </trkpt>
      <trkpt lat="43.2399" lon="6.38621">
        <ele>251.04</ele>
        <time>2010-10-10T09:51:40Z</time>
      </trkpt>
      <trkpt lat="43.2399" lon="6.38618">
        <ele>251.52</ele>
        <time>2010-10-10T09:51:41Z</time>
      </trkpt>
      <trkpt lat="43.23989" lon="6.3861">
        <ele>252</ele>
        <time>2010-10-10T09:51:44Z</time>
      </trkpt>
      <trkpt lat="43.2399" lon="6.38601">
        <ele>252.96</ele>
        <time>2010-10-10T09:51:48Z</time>
      </trkpt>
      <trkpt lat="43.23991" lon="6.38589">
        <ele>252.96</ele>
        <time>2010-10-10T09:51:52Z</time>
      </trkpt>
      <trkpt lat="43.23987" lon="6.38565">
        <ele>254.89</ele>
        <time>2010-10-10T09:52:00Z</time>
      </trkpt>
      <trkpt lat="43.23984" lon="6.3855">
        <ele>255.85</ele>
        <time>2010-10-10T09:52:06Z</time>
      </trkpt>
      <trkpt lat="43.23979" lon="6.38533">
        <ele>256.81</ele>
        <time>2010-10-10T09:52:12Z</time>
      </trkpt>
      <trkpt lat="43.23977" lon="6.38517">
        <ele>258.73</ele>
        <time>2010-10-10T09:52:18Z</time>
      </trkpt>
      <trkpt lat="43.23976" lon="6.38516">
        <ele>259.21</ele>
        <time>2010-10-10T09:52:19Z</time>
      </trkpt>
      <trkpt lat="43.23979" lon="6.38504">
        <ele>259.69</ele>
        <time>2010-10-10T09:52:22Z</time>
      </trkpt>
      <trkpt lat="43.2398" lon="6.38482">
        <ele>260.65</ele>
        <time>2010-10-10T09:52:29Z</time>
      </trkpt>
      <trkpt lat="43.23977" lon="6.38473">
        <ele>261.14</ele>
        <time>2010-10-10T09:52:32Z</time>
      </trkpt>
      <trkpt lat="43.23967" lon="6.38449">
        <ele>262.58</ele>
        <time>2010-10-10T09:52:39Z</time>
      </trkpt>
      <trkpt lat="43.23954" lon="6.38435">
        <ele>264.5</ele>
        <time>2010-10-10T09:52:45Z</time>
      </trkpt>
      <trkpt lat="43.23939" lon="6.38416">
        <ele>263.54</ele>
        <time>2010-10-10T09:52:52Z</time>
      </trkpt>
      <trkpt lat="43.2393" lon="6.38407">
        <ele>264.02</ele>
        <time>2010-10-10T09:52:56Z</time>
      </trkpt>
      <trkpt lat="43.23924" lon="6.38396">
        <ele>264.02</ele>
        <time>2010-10-10T09:53:00Z</time>
      </trkpt>
      <trkpt lat="43.23922" lon="6.38391">
        <ele>260.17</ele>
        <time>2010-10-10T09:53:02Z</time>
      </trkpt>
      <trkpt lat="43.23921" lon="6.38389">
        <ele>264.5</ele>
        <time>2010-10-10T09:53:03Z</time>
      </trkpt>
      <trkpt lat="43.23919" lon="6.38386">
        <ele>264.02</ele>
        <time>2010-10-10T09:53:04Z</time>
      </trkpt>
      <trkpt lat="43.23908" lon="6.38369">
        <ele>267.86</ele>
        <time>2010-10-10T09:53:10Z</time>
      </trkpt>
      <trkpt lat="43.2389" lon="6.38356">
        <ele>264.98</ele>
        <time>2010-10-10T09:53:18Z</time>
      </trkpt>
      <trkpt lat="43.23877" lon="6.3836">
        <ele>265.94</ele>
        <time>2010-10-10T09:53:24Z</time>
      </trkpt>
      <trkpt lat="43.23868" lon="6.38362">
        <ele>267.38</ele>
        <time>2010-10-10T09:53:30Z</time>
      </trkpt>
      <trkpt lat="43.23866" lon="6.38361">
        <ele>266.9</ele>
        <time>2010-10-10T09:53:35Z</time>
      </trkpt>
      <trkpt lat="43.23865" lon="6.38361">
        <ele>266.9</ele>
        <time>2010-10-10T09:53:37Z</time>
      </trkpt>
      <trkpt lat="43.23863" lon="6.38357">
        <ele>266.9</ele>
        <time>2010-10-10T09:53:44Z</time>
      </trkpt>
      <trkpt lat="43.23863" lon="6.38354">
        <ele>267.38</ele>
        <time>2010-10-10T09:53:46Z</time>
      </trkpt>
      <trkpt lat="43.23866" lon="6.38341">
        <ele>266.9</ele>
        <time>2010-10-10T09:53:55Z</time>
      </trkpt>
      <trkpt lat="43.23865" lon="6.38337">
        <ele>267.38</ele>
        <time>2010-10-10T09:53:58Z</time>
      </trkpt>
      <trkpt lat="43.23866" lon="6.38323">
        <ele>267.38</ele>
        <time>2010-10-10T09:54:05Z</time>
      </trkpt>
      <trkpt lat="43.23871" lon="6.38304">
        <ele>268.35</ele>
        <time>2010-10-10T09:54:11Z</time>
      </trkpt>
      <trkpt lat="43.23873" lon="6.38287">
        <ele>268.35</ele>
        <time>2010-10-10T09:54:16Z</time>
      </trkpt>
      <trkpt lat="43.23865" lon="6.38263">
        <ele>269.31</ele>
        <time>2010-10-10T09:54:24Z</time>
      </trkpt>
      <trkpt lat="43.23862" lon="6.38258">
        <ele>263.06</ele>
        <time>2010-10-10T09:54:26Z</time>
      </trkpt>
      <trkpt lat="43.23853" lon="6.38243">
        <ele>269.31</ele>
        <time>2010-10-10T09:54:32Z</time>
      </trkpt>
      <trkpt lat="43.23845" lon="6.38224">
        <ele>270.27</ele>
        <time>2010-10-10T09:54:38Z</time>
      </trkpt>
      <trkpt lat="43.23836" lon="6.38208">
        <ele>271.23</ele>
        <time>2010-10-10T09:54:45Z</time>
      </trkpt>
      <trkpt lat="43.23825" lon="6.38184">
        <ele>272.67</ele>
        <time>2010-10-10T09:54:54Z</time>
      </trkpt>
      <trkpt lat="43.23819" lon="6.38161">
        <ele>273.63</ele>
        <time>2010-10-10T09:55:01Z</time>
      </trkpt>
      <trkpt lat="43.23814" lon="6.38145">
        <ele>276.04</ele>
        <time>2010-10-10T09:55:08Z</time>
      </trkpt>
      <trkpt lat="43.2381" lon="6.3813">
        <ele>277.48</ele>
        <time>2010-10-10T09:55:15Z</time>
      </trkpt>
      <trkpt lat="43.23805" lon="6.38114">
        <ele>277.48</ele>
        <time>2010-10-10T09:55:21Z</time>
      </trkpt>
      <trkpt lat="43.23804" lon="6.3811">
        <ele>279.4</ele>
        <time>2010-10-10T09:55:23Z</time>
      </trkpt>
      <trkpt lat="43.23803" lon="6.38107">
        <ele>277.96</ele>
        <time>2010-10-10T09:55:24Z</time>
      </trkpt>
      <trkpt lat="43.23799" lon="6.38098">
        <ele>277.96</ele>
        <time>2010-10-10T09:55:30Z</time>
      </trkpt>
      <trkpt lat="43.23793" lon="6.3808">
        <ele>280.36</ele>
        <time>2010-10-10T09:55:37Z</time>
      </trkpt>
      <trkpt lat="43.23793" lon="6.38069">
        <ele>280.36</ele>
        <time>2010-10-10T09:55:43Z</time>
      </trkpt>
      <trkpt lat="43.23793" lon="6.38068">
        <ele>280.36</ele>
        <time>2010-10-10T09:55:44Z</time>
      </trkpt>
      <trkpt lat="43.23795" lon="6.38053">
        <ele>280.84</ele>
        <time>2010-10-10T09:55:48Z</time>
      </trkpt>
      <trkpt lat="43.23794" lon="6.38049">
        <ele>281.8</ele>
        <time>2010-10-10T09:55:50Z</time>
      </trkpt>
      <trkpt lat="43.2379" lon="6.38036">
        <ele>283.25</ele>
        <time>2010-10-10T09:55:56Z</time>
      </trkpt>
      <trkpt lat="43.23787" lon="6.38031">
        <ele>283.73</ele>
        <time>2010-10-10T09:56:04Z</time>
      </trkpt>
      <trkpt lat="43.23787" lon="6.38023">
        <ele>283.73</ele>
        <time>2010-10-10T09:56:08Z</time>
      </trkpt>
      <trkpt lat="43.23788" lon="6.38005">
        <ele>284.69</ele>
        <time>2010-10-10T09:56:14Z</time>
      </trkpt>
      <trkpt lat="43.23788" lon="6.37989">
        <ele>285.17</ele>
        <time>2010-10-10T09:56:20Z</time>
      </trkpt>
      <trkpt lat="43.23785" lon="6.37964">
        <ele>285.65</ele>
        <time>2010-10-10T09:56:28Z</time>
      </trkpt>
      <trkpt lat="43.23768" lon="6.37947">
        <ele>285.65</ele>
        <time>2010-10-10T09:56:35Z</time>
      </trkpt>
      <trkpt lat="43.23751" lon="6.37926">
        <ele>286.61</ele>
        <time>2010-10-10T09:56:43Z</time>
      </trkpt>
      <trkpt lat="43.23742" lon="6.37907">
        <ele>287.57</ele>
        <time>2010-10-10T09:56:49Z</time>
      </trkpt>
      <trkpt lat="43.23726" lon="6.37891">
        <ele>289.01</ele>
        <time>2010-10-10T09:56:56Z</time>
      </trkpt>
      <trkpt lat="43.23711" lon="6.37878">
        <ele>289.01</ele>
        <time>2010-10-10T09:57:01Z</time>
      </trkpt>
      <trkpt lat="43.23705" lon="6.37873">
        <ele>289.97</ele>
        <time>2010-10-10T09:57:03Z</time>
      </trkpt>
      <trkpt lat="43.23706" lon="6.37862">
        <ele>290.46</ele>
        <time>2010-10-10T09:57:08Z</time>
      </trkpt>
      <trkpt lat="43.23709" lon="6.37857">
        <ele>290.94</ele>
        <time>2010-10-10T09:57:11Z</time>
      </trkpt>
      <trkpt lat="43.2371" lon="6.3785">
        <ele>290.94</ele>
        <time>2010-10-10T09:57:14Z</time>
      </trkpt>
      <trkpt lat="43.23698" lon="6.37837">
        <ele>291.42</ele>
        <time>2010-10-10T09:57:20Z</time>
      </trkpt>
      <trkpt lat="43.23685" lon="6.37821">
        <ele>291.9</ele>
        <time>2010-10-10T09:57:27Z</time>
      </trkpt>
      <trkpt lat="43.23684" lon="6.37818">
        <ele>291.9</ele>
        <time>2010-10-10T09:57:28Z</time>
      </trkpt>
      <trkpt lat="43.23681" lon="6.3781">
        <ele>291.9</ele>
        <time>2010-10-10T09:57:31Z</time>
      </trkpt>
      <trkpt lat="43.23666" lon="6.37795">
        <ele>292.38</ele>
        <time>2010-10-10T09:57:37Z</time>
      </trkpt>
      <trkpt lat="43.23654" lon="6.37782">
        <ele>292.38</ele>
        <time>2010-10-10T09:57:43Z</time>
      </trkpt>
      <trkpt lat="43.23648" lon="6.37777">
        <ele>292.38</ele>
        <time>2010-10-10T09:57:48Z</time>
      </trkpt>
      <trkpt lat="43.23645" lon="6.37774">
        <ele>293.34</ele>
        <time>2010-10-10T09:57:54Z</time>
      </trkpt>
      <trkpt lat="43.23644" lon="6.37773">
        <ele>293.34</ele>
        <time>2010-10-10T09:57:55Z</time>
      </trkpt>
      <trkpt lat="43.23649" lon="6.37754">
        <ele>294.78</ele>
        <time>2010-10-10T09:58:02Z</time>
      </trkpt>
      <trkpt lat="43.23655" lon="6.37742">
        <ele>296.22</ele>
        <time>2010-10-10T09:58:06Z</time>
      </trkpt>
      <trkpt lat="43.2366" lon="6.37725">
        <ele>298.15</ele>
        <time>2010-10-10T09:58:12Z</time>
      </trkpt>
      <trkpt lat="43.23661" lon="6.37717">
        <ele>298.63</ele>
        <time>2010-10-10T09:58:16Z</time>
      </trkpt>
      <trkpt lat="43.23664" lon="6.37699">
        <ele>299.59</ele>
        <time>2010-10-10T09:58:24Z</time>
      </trkpt>
      <trkpt lat="43.23665" lon="6.37683">
        <ele>301.51</ele>
        <time>2010-10-10T09:58:30Z</time>
      </trkpt>
      <trkpt lat="43.23668" lon="6.37652">
        <ele>301.99</ele>
        <time>2010-10-10T09:58:37Z</time>
      </trkpt>
      <trkpt lat="43.23665" lon="6.37645">
        <ele>299.11</ele>
        <time>2010-10-10T09:58:39Z</time>
      </trkpt>
      <trkpt lat="43.23664" lon="6.37641">
        <ele>303.43</ele>
        <time>2010-10-10T09:58:40Z</time>
      </trkpt>
      <trkpt lat="43.23662" lon="6.37639">
        <ele>303.43</ele>
        <time>2010-10-10T09:58:41Z</time>
      </trkpt>
      <trkpt lat="43.23659" lon="6.37634">
        <ele>303.43</ele>
        <time>2010-10-10T09:58:43Z</time>
      </trkpt>
      <trkpt lat="43.2365" lon="6.3762">
        <ele>302.95</ele>
        <time>2010-10-10T09:58:48Z</time>
      </trkpt>
      <trkpt lat="43.23634" lon="6.37602">
        <ele>303.91</ele>
        <time>2010-10-10T09:58:56Z</time>
      </trkpt>
      <trkpt lat="43.23622" lon="6.3759">
        <ele>303.91</ele>
        <time>2010-10-10T09:59:03Z</time>
      </trkpt>
      <trkpt lat="43.23621" lon="6.37587">
        <ele>302.95</ele>
        <time>2010-10-10T09:59:08Z</time>
      </trkpt>
      <trkpt lat="43.23619" lon="6.37584">
        <ele>302.95</ele>
        <time>2010-10-10T09:59:12Z</time>
      </trkpt>
      <trkpt lat="43.23612" lon="6.37578">
        <ele>302.47</ele>
        <time>2010-10-10T09:59:16Z</time>
      </trkpt>
      <trkpt lat="43.23601" lon="6.37566">
        <ele>302.47</ele>
        <time>2010-10-10T09:59:21Z</time>
      </trkpt>
      <trkpt lat="43.23593" lon="6.37552">
        <ele>303.91</ele>
        <time>2010-10-10T09:59:29Z</time>
      </trkpt>
      <trkpt lat="43.23579" lon="6.37535">
        <ele>305.84</ele>
        <time>2010-10-10T09:59:36Z</time>
      </trkpt>
      <trkpt lat="43.2357" lon="6.37528">
        <ele>305.84</ele>
        <time>2010-10-10T09:59:40Z</time>
      </trkpt>
      <trkpt lat="43.23551" lon="6.37521">
        <ele>306.32</ele>
        <time>2010-10-10T09:59:47Z</time>
      </trkpt>
      <trkpt lat="43.2354" lon="6.37517">
        <ele>307.28</ele>
        <time>2010-10-10T09:59:52Z</time>
      </trkpt>
      <trkpt lat="43.23542" lon="6.37495">
        <ele>307.28</ele>
        <time>2010-10-10T09:59:58Z</time>
      </trkpt>
      <trkpt lat="43.23538" lon="6.37485">
        <ele>307.28</ele>
        <time>2010-10-10T10:00:01Z</time>
      </trkpt>
      <trkpt lat="43.23529" lon="6.37469">
        <ele>308.24</ele>
        <time>2010-10-10T10:00:06Z</time>
      </trkpt>
      <trkpt lat="43.23527" lon="6.37443">
        <ele>308.72</ele>
        <time>2010-10-10T10:00:13Z</time>
      </trkpt>
      <trkpt lat="43.23524" lon="6.3742">
        <ele>309.2</ele>
        <time>2010-10-10T10:00:18Z</time>
      </trkpt>
      <trkpt lat="43.23512" lon="6.37403">
        <ele>309.68</ele>
        <time>2010-10-10T10:00:24Z</time>
      </trkpt>
      <trkpt lat="43.2351" lon="6.37388">
        <ele>310.16</ele>
        <time>2010-10-10T10:00:28Z</time>
      </trkpt>
      <trkpt lat="43.23508" lon="6.37362">
        <ele>310.64</ele>
        <time>2010-10-10T10:00:34Z</time>
      </trkpt>
      <trkpt lat="43.23506" lon="6.37342">
        <ele>311.12</ele>
        <time>2010-10-10T10:00:40Z</time>
      </trkpt>
      <trkpt lat="43.23506" lon="6.37338">
        <ele>311.6</ele>
        <time>2010-10-10T10:00:42Z</time>
      </trkpt>
      <trkpt lat="43.23501" lon="6.37326">
        <ele>312.09</ele>
        <time>2010-10-10T10:00:47Z</time>
      </trkpt>
      <trkpt lat="43.23503" lon="6.37297">
        <ele>314.01</ele>
        <time>2010-10-10T10:00:55Z</time>
      </trkpt>
      <trkpt lat="43.23503" lon="6.37276">
        <ele>314.97</ele>
        <time>2010-10-10T10:01:01Z</time>
      </trkpt>
      <trkpt lat="43.23507" lon="6.37259">
        <ele>316.41</ele>
        <time>2010-10-10T10:01:07Z</time>
      </trkpt>
      <trkpt lat="43.23516" lon="6.37244">
        <ele>318.33</ele>
        <time>2010-10-10T10:01:13Z</time>
      </trkpt>
      <trkpt lat="43.23519" lon="6.37238">
        <ele>318.33</ele>
        <time>2010-10-10T10:01:15Z</time>
      </trkpt>
      <trkpt lat="43.23525" lon="6.3722">
        <ele>322.18</ele>
        <time>2010-10-10T10:01:22Z</time>
      </trkpt>
      <trkpt lat="43.2353" lon="6.37213">
        <ele>319.3</ele>
        <time>2010-10-10T10:01:26Z</time>
      </trkpt>
      <trkpt lat="43.23538" lon="6.37194">
        <ele>320.74</ele>
        <time>2010-10-10T10:01:34Z</time>
      </trkpt>
      <trkpt lat="43.23539" lon="6.37189">
        <ele>321.7</ele>
        <time>2010-10-10T10:01:36Z</time>
      </trkpt>
      <trkpt lat="43.23542" lon="6.37182">
        <ele>323.14</ele>
        <time>2010-10-10T10:01:39Z</time>
      </trkpt>
      <trkpt lat="43.23544" lon="6.37171">
        <ele>324.58</ele>
        <time>2010-10-10T10:01:44Z</time>
      </trkpt>
      <trkpt lat="43.23547" lon="6.3716">
        <ele>327.95</ele>
        <time>2010-10-10T10:01:48Z</time>
      </trkpt>
      <trkpt lat="43.23554" lon="6.37145">
        <ele>327.95</ele>
        <time>2010-10-10T10:01:53Z</time>
      </trkpt>
      <trkpt lat="43.23558" lon="6.37139">
        <ele>327.47</ele>
        <time>2010-10-10T10:01:55Z</time>
      </trkpt>
      <trkpt lat="43.2356" lon="6.37128">
        <ele>327.47</ele>
        <time>2010-10-10T10:02:00Z</time>
      </trkpt>
      <trkpt lat="43.23561" lon="6.37126">
        <ele>327.47</ele>
        <time>2010-10-10T10:02:02Z</time>
      </trkpt>
      <trkpt lat="43.23556" lon="6.3712">
        <ele>325.54</ele>
        <time>2010-10-10T10:02:06Z</time>
      </trkpt>
      <trkpt lat="43.23546" lon="6.37117">
        <ele>325.54</ele>
        <time>2010-10-10T10:02:09Z</time>
      </trkpt>
      <trkpt lat="43.23541" lon="6.37116">
        <ele>325.06</ele>
        <time>2010-10-10T10:02:10Z</time>
      </trkpt>
      <trkpt lat="43.23536" lon="6.37113">
        <ele>324.1</ele>
        <time>2010-10-10T10:02:11Z</time>
      </trkpt>
      <trkpt lat="43.23515" lon="6.37102">
        <ele>320.74</ele>
        <time>2010-10-10T10:02:14Z</time>
      </trkpt>
      <trkpt lat="43.23508" lon="6.37096">
        <ele>319.78</ele>
        <time>2010-10-10T10:02:15Z</time>
      </trkpt>
      <trkpt lat="43.235" lon="6.37089">
        <ele>318.81</ele>
        <time>2010-10-10T10:02:16Z</time>
      </trkpt>
      <trkpt lat="43.23493" lon="6.3708">
        <ele>317.37</ele>
        <time>2010-10-10T10:02:17Z</time>
      </trkpt>
      <trkpt lat="43.23485" lon="6.37069">
        <ele>316.41</ele>
        <time>2010-10-10T10:02:18Z</time>
      </trkpt>
      <trkpt lat="43.23479" lon="6.37058">
        <ele>314.97</ele>
        <time>2010-10-10T10:02:19Z</time>
      </trkpt>
      <trkpt lat="43.23472" lon="6.37047">
        <ele>313.53</ele>
        <time>2010-10-10T10:02:20Z</time>
      </trkpt>
      <trkpt lat="43.23467" lon="6.37034">
        <ele>313.05</ele>
        <time>2010-10-10T10:02:21Z</time>
      </trkpt>
      <trkpt lat="43.23463" lon="6.3702">
        <ele>312.57</ele>
        <time>2010-10-10T10:02:22Z</time>
      </trkpt>
      <trkpt lat="43.23453" lon="6.36995">
        <ele>311.12</ele>
        <time>2010-10-10T10:02:24Z</time>
      </trkpt>
      <trkpt lat="43.23447" lon="6.36986">
        <ele>311.12</ele>
        <time>2010-10-10T10:02:25Z</time>
      </trkpt>
      <trkpt lat="43.23439" lon="6.3698">
        <ele>309.68</ele>
        <time>2010-10-10T10:02:26Z</time>
      </trkpt>
      <trkpt lat="43.2343" lon="6.36976">
        <ele>308.72</ele>
        <time>2010-10-10T10:02:27Z</time>
      </trkpt>
      <trkpt lat="43.23419" lon="6.36974">
        <ele>307.76</ele>
        <time>2010-10-10T10:02:28Z</time>
      </trkpt>
      <trkpt lat="43.23409" lon="6.36974">
        <ele>306.32</ele>
        <time>2010-10-10T10:02:29Z</time>
      </trkpt>
      <trkpt lat="43.23387" lon="6.36971">
        <ele>304.39</ele>
        <time>2010-10-10T10:02:31Z</time>
      </trkpt>
      <trkpt lat="43.23376" lon="6.36968">
        <ele>303.43</ele>
        <time>2010-10-10T10:02:32Z</time>
      </trkpt>
      <trkpt lat="43.23355" lon="6.36958">
        <ele>301.03</ele>
        <time>2010-10-10T10:02:34Z</time>
      </trkpt>
      <trkpt lat="43.23345" lon="6.3695">
        <ele>300.55</ele>
        <time>2010-10-10T10:02:35Z</time>
      </trkpt>
      <trkpt lat="43.23337" lon="6.36941">
        <ele>300.55</ele>
        <time>2010-10-10T10:02:36Z</time>
      </trkpt>
      <trkpt lat="43.23318" lon="6.36911">
        <ele>301.03</ele>
        <time>2010-10-10T10:02:39Z</time>
      </trkpt>
      <trkpt lat="43.23311" lon="6.36903">
        <ele>301.03</ele>
        <time>2010-10-10T10:02:40Z</time>
      </trkpt>
      <trkpt lat="43.23287" lon="6.36876">
        <ele>303.43</ele>
        <time>2010-10-10T10:02:44Z</time>
      </trkpt>
      <trkpt lat="43.23282" lon="6.36873">
        <ele>303.43</ele>
        <time>2010-10-10T10:02:45Z</time>
      </trkpt>
      <trkpt lat="43.23268" lon="6.36865">
        <ele>302.95</ele>
        <time>2010-10-10T10:02:48Z</time>
      </trkpt>
      <trkpt lat="43.23267" lon="6.36859">
        <ele>302.95</ele>
        <time>2010-10-10T10:02:49Z</time>
      </trkpt>
      <trkpt lat="43.23268" lon="6.36853">
        <ele>302.47</ele>
        <time>2010-10-10T10:02:50Z</time>
      </trkpt>
      <trkpt lat="43.23272" lon="6.3685">
        <ele>302.47</ele>
        <time>2010-10-10T10:02:51Z</time>
      </trkpt>
      <trkpt lat="43.23277" lon="6.36849">
        <ele>302.47</ele>
        <time>2010-10-10T10:02:52Z</time>
      </trkpt>
      <trkpt lat="43.23282" lon="6.36848">
        <ele>302.95</ele>
        <time>2010-10-10T10:02:53Z</time>
      </trkpt>
      <trkpt lat="43.23287" lon="6.36848">
        <ele>303.43</ele>
        <time>2010-10-10T10:02:54Z</time>
      </trkpt>
      <trkpt lat="43.23295" lon="6.36852">
        <ele>303.91</ele>
        <time>2010-10-10T10:02:56Z</time>
      </trkpt>
      <trkpt lat="43.23298" lon="6.36855">
        <ele>304.88</ele>
        <time>2010-10-10T10:02:57Z</time>
      </trkpt>
      <trkpt lat="43.2331" lon="6.36866">
        <ele>305.84</ele>
        <time>2010-10-10T10:03:01Z</time>
      </trkpt>
      <trkpt lat="43.23314" lon="6.36867">
        <ele>305.84</ele>
        <time>2010-10-10T10:03:02Z</time>
      </trkpt>
      <trkpt lat="43.23318" lon="6.36866">
        <ele>305.84</ele>
        <time>2010-10-10T10:03:03Z</time>
      </trkpt>
      <trkpt lat="43.23322" lon="6.36863">
        <ele>306.32</ele>
        <time>2010-10-10T10:03:04Z</time>
      </trkpt>
      <trkpt lat="43.23325" lon="6.36859">
        <ele>306.32</ele>
        <time>2010-10-10T10:03:05Z</time>
      </trkpt>
      <trkpt lat="43.23328" lon="6.36854">
        <ele>306.32</ele>
        <time>2010-10-10T10:03:06Z</time>
      </trkpt>
      <trkpt lat="43.23331" lon="6.36849">
        <ele>306.32</ele>
        <time>2010-10-10T10:03:07Z</time>
      </trkpt>
      <trkpt lat="43.23333" lon="6.36843">
        <ele>305.84</ele>
        <time>2010-10-10T10:03:08Z</time>
      </trkpt>
      <trkpt lat="43.23335" lon="6.36837">
        <ele>306.32</ele>
        <time>2010-10-10T10:03:09Z</time>
      </trkpt>
      <trkpt lat="43.23337" lon="6.3683">
        <ele>306.32</ele>
        <time>2010-10-10T10:03:10Z</time>
      </trkpt>
      <trkpt lat="43.23338" lon="6.36822">
        <ele>305.84</ele>
        <time>2010-10-10T10:03:11Z</time>
      </trkpt>
      <trkpt lat="43.23339" lon="6.36814">
        <ele>305.36</ele>
        <time>2010-10-10T10:03:12Z</time>
      </trkpt>
      <trkpt lat="43.23342" lon="6.36805">
        <ele>304.88</ele>
        <time>2010-10-10T10:03:13Z</time>
      </trkpt>
      <trkpt lat="43.23345" lon="6.36797">
        <ele>304.88</ele>
        <time>2010-10-10T10:03:14Z</time>
      </trkpt>
      <trkpt lat="43.23349" lon="6.3679">
        <ele>304.88</ele>
        <time>2010-10-10T10:03:15Z</time>
      </trkpt>
      <trkpt lat="43.23356" lon="6.36776">
        <ele>304.88</ele>
        <time>2010-10-10T10:03:17Z</time>
      </trkpt>
      <trkpt lat="43.23392" lon="6.36723">
        <ele>305.36</ele>
        <time>2010-10-10T10:03:25Z</time>
      </trkpt>
      <trkpt lat="43.23405" lon="6.36704">
        <ele>305.84</ele>
        <time>2010-10-10T10:03:28Z</time>
      </trkpt>
      <trkpt lat="43.23411" lon="6.36692">
        <ele>305.84</ele>
        <time>2010-10-10T10:03:30Z</time>
      </trkpt>
      <trkpt lat="43.23434" lon="6.3666">
        <ele>305.84</ele>
        <time>2010-10-10T10:03:35Z</time>
      </trkpt>
      <trkpt lat="43.23448" lon="6.36641">
        <ele>306.32</ele>
        <time>2010-10-10T10:03:38Z</time>
      </trkpt>
      <trkpt lat="43.23459" lon="6.36621">
        <ele>306.32</ele>
        <time>2010-10-10T10:03:41Z</time>
      </trkpt>
      <trkpt lat="43.23462" lon="6.36614">
        <ele>306.32</ele>
        <time>2010-10-10T10:03:42Z</time>
      </trkpt>
      <trkpt lat="43.23466" lon="6.36607">
        <ele>306.32</ele>
        <time>2010-10-10T10:03:43Z</time>
      </trkpt>
      <trkpt lat="43.23469" lon="6.36601">
        <ele>307.28</ele>
        <time>2010-10-10T10:03:44Z</time>
      </trkpt>
      <trkpt lat="43.23473" lon="6.36595">
        <ele>307.28</ele>
        <time>2010-10-10T10:03:45Z</time>
      </trkpt>
      <trkpt lat="43.23494" lon="6.3655">
        <ele>312.09</ele>
        <time>2010-10-10T10:03:52Z</time>
      </trkpt>
      <trkpt lat="43.23497" lon="6.36545">
        <ele>307.76</ele>
        <time>2010-10-10T10:03:53Z</time>
      </trkpt>
      <trkpt lat="43.235" lon="6.36538">
        <ele>307.76</ele>
        <time>2010-10-10T10:03:54Z</time>
      </trkpt>
      <trkpt lat="43.235" lon="6.36531">
        <ele>307.76</ele>
        <time>2010-10-10T10:03:55Z</time>
      </trkpt>
      <trkpt lat="43.23499" lon="6.36525">
        <ele>308.24</ele>
        <time>2010-10-10T10:03:56Z</time>
      </trkpt>
      <trkpt lat="43.23496" lon="6.36518">
        <ele>308.72</ele>
        <time>2010-10-10T10:03:57Z</time>
      </trkpt>
      <trkpt lat="43.23493" lon="6.36512">
        <ele>307.76</ele>
        <time>2010-10-10T10:03:58Z</time>
      </trkpt>
      <trkpt lat="43.23483" lon="6.36495">
        <ele>308.72</ele>
        <time>2010-10-10T10:04:01Z</time>
      </trkpt>
      <trkpt lat="43.23471" lon="6.3648">
        <ele>308.72</ele>
        <time>2010-10-10T10:04:04Z</time>
      </trkpt>
      <trkpt lat="43.23458" lon="6.36463">
        <ele>309.2</ele>
        <time>2010-10-10T10:04:07Z</time>
      </trkpt>
      <trkpt lat="43.23433" lon="6.36422">
        <ele>309.68</ele>
        <time>2010-10-10T10:04:14Z</time>
      </trkpt>
      <trkpt lat="43.2343" lon="6.36415">
        <ele>309.68</ele>
        <time>2010-10-10T10:04:15Z</time>
      </trkpt>
      <trkpt lat="43.23429" lon="6.36408">
        <ele>309.68</ele>
        <time>2010-10-10T10:04:16Z</time>
      </trkpt>
      <trkpt lat="43.23428" lon="6.364">
        <ele>311.12</ele>
        <time>2010-10-10T10:04:17Z</time>
      </trkpt>
      <trkpt lat="43.23427" lon="6.36393">
        <ele>306.8</ele>
        <time>2010-10-10T10:04:18Z</time>
      </trkpt>
      <trkpt lat="43.23427" lon="6.36385">
        <ele>310.64</ele>
        <time>2010-10-10T10:04:19Z</time>
      </trkpt>
      <trkpt lat="43.23424" lon="6.36327">
        <ele>311.6</ele>
        <time>2010-10-10T10:04:27Z</time>
      </trkpt>
      <trkpt lat="43.23424" lon="6.3632">
        <ele>311.6</ele>
        <time>2010-10-10T10:04:28Z</time>
      </trkpt>
      <trkpt lat="43.23425" lon="6.36312">
        <ele>311.12</ele>
        <time>2010-10-10T10:04:29Z</time>
      </trkpt>
      <trkpt lat="43.23435" lon="6.36251">
        <ele>311.6</ele>
        <time>2010-10-10T10:04:37Z</time>
      </trkpt>
      <trkpt lat="43.23454" lon="6.36187">
        <ele>311.12</ele>
        <time>2010-10-10T10:04:46Z</time>
      </trkpt>
      <trkpt lat="43.23474" lon="6.36135">
        <ele>313.05</ele>
        <time>2010-10-10T10:04:54Z</time>
      </trkpt>
      <trkpt lat="43.23476" lon="6.36129">
        <ele>313.05</ele>
        <time>2010-10-10T10:04:55Z</time>
      </trkpt>
      <trkpt lat="43.23479" lon="6.36123">
        <ele>313.05</ele>
        <time>2010-10-10T10:04:56Z</time>
      </trkpt>
      <trkpt lat="43.23482" lon="6.36117">
        <ele>313.53</ele>
        <time>2010-10-10T10:04:57Z</time>
      </trkpt>
      <trkpt lat="43.23505" lon="6.36063">
        <ele>314.49</ele>
        <time>2010-10-10T10:05:06Z</time>
      </trkpt>
      <trkpt lat="43.23508" lon="6.36058">
        <ele>314.49</ele>
        <time>2010-10-10T10:05:07Z</time>
      </trkpt>
      <trkpt lat="43.23519" lon="6.36044">
        <ele>315.93</ele>
        <time>2010-10-10T10:05:10Z</time>
      </trkpt>
      <trkpt lat="43.23527" lon="6.36037">
        <ele>316.41</ele>
        <time>2010-10-10T10:05:12Z</time>
      </trkpt>
      <trkpt lat="43.23531" lon="6.36034">
        <ele>316.89</ele>
        <time>2010-10-10T10:05:13Z</time>
      </trkpt>
      <trkpt lat="43.23536" lon="6.36032">
        <ele>317.37</ele>
        <time>2010-10-10T10:05:14Z</time>
      </trkpt>
      <trkpt lat="43.23548" lon="6.36026">
        <ele>319.3</ele>
        <time>2010-10-10T10:05:17Z</time>
      </trkpt>
      <trkpt lat="43.23552" lon="6.36023">
        <ele>320.26</ele>
        <time>2010-10-10T10:05:18Z</time>
      </trkpt>
      <trkpt lat="43.23573" lon="6.36009">
        <ele>322.66</ele>
        <time>2010-10-10T10:05:23Z</time>
      </trkpt>
      <trkpt lat="43.23577" lon="6.36008">
        <ele>322.18</ele>
        <time>2010-10-10T10:05:24Z</time>
      </trkpt>
      <trkpt lat="43.23608" lon="6.36005">
        <ele>323.62</ele>
        <time>2010-10-10T10:05:32Z</time>
      </trkpt>
      <trkpt lat="43.23636" lon="6.36003">
        <ele>324.1</ele>
        <time>2010-10-10T10:05:40Z</time>
      </trkpt>
      <trkpt lat="43.23661" lon="6.35994">
        <ele>325.06</ele>
        <time>2010-10-10T10:05:48Z</time>
      </trkpt>
      <trkpt lat="43.23679" lon="6.35977">
        <ele>326.99</ele>
        <time>2010-10-10T10:05:55Z</time>
      </trkpt>
      <trkpt lat="43.23697" lon="6.35953">
        <ele>329.39</ele>
        <time>2010-10-10T10:06:03Z</time>
      </trkpt>
      <trkpt lat="43.23716" lon="6.35946">
        <ele>330.83</ele>
        <time>2010-10-10T10:06:09Z</time>
      </trkpt>
      <trkpt lat="43.23735" lon="6.35949">
        <ele>332.75</ele>
        <time>2010-10-10T10:06:14Z</time>
      </trkpt>
      <trkpt lat="43.2375" lon="6.3594">
        <ele>334.2</ele>
        <time>2010-10-10T10:06:20Z</time>
      </trkpt>
      <trkpt lat="43.23751" lon="6.35937">
        <ele>334.68</ele>
        <time>2010-10-10T10:06:21Z</time>
      </trkpt>
      <trkpt lat="43.2375" lon="6.35933">
        <ele>334.2</ele>
        <time>2010-10-10T10:06:22Z</time>
      </trkpt>
      <trkpt lat="43.23749" lon="6.35913">
        <ele>335.16</ele>
        <time>2010-10-10T10:06:27Z</time>
      </trkpt>
      <trkpt lat="43.2375" lon="6.3591">
        <ele>335.16</ele>
        <time>2010-10-10T10:06:28Z</time>
      </trkpt>
      <trkpt lat="43.23751" lon="6.35906">
        <ele>335.16</ele>
        <time>2010-10-10T10:06:29Z</time>
      </trkpt>
      <trkpt lat="43.23752" lon="6.35902">
        <ele>335.16</ele>
        <time>2010-10-10T10:06:30Z</time>
      </trkpt>
      <trkpt lat="43.23753" lon="6.35899">
        <ele>336.12</ele>
        <time>2010-10-10T10:06:31Z</time>
      </trkpt>
      <trkpt lat="43.23762" lon="6.35882">
        <ele>337.08</ele>
        <time>2010-10-10T10:06:37Z</time>
      </trkpt>
      <trkpt lat="43.23772" lon="6.35855">
        <ele>339.96</ele>
        <time>2010-10-10T10:06:45Z</time>
      </trkpt>
      <trkpt lat="43.23777" lon="6.35826">
        <ele>342.37</ele>
        <time>2010-10-10T10:06:53Z</time>
      </trkpt>
      <trkpt lat="43.23776" lon="6.35793">
        <ele>342.85</ele>
        <time>2010-10-10T10:07:01Z</time>
      </trkpt>
      <trkpt lat="43.23777" lon="6.3577">
        <ele>345.25</ele>
        <time>2010-10-10T10:07:07Z</time>
      </trkpt>
      <trkpt lat="43.23788" lon="6.35749">
        <ele>345.73</ele>
        <time>2010-10-10T10:07:13Z</time>
      </trkpt>
      <trkpt lat="43.23806" lon="6.35731">
        <ele>347.17</ele>
        <time>2010-10-10T10:07:20Z</time>
      </trkpt>
      <trkpt lat="43.23826" lon="6.35714">
        <ele>348.62</ele>
        <time>2010-10-10T10:07:28Z</time>
      </trkpt>
      <trkpt lat="43.23827" lon="6.35711">
        <ele>348.13</ele>
        <time>2010-10-10T10:07:29Z</time>
      </trkpt>
      <trkpt lat="43.23827" lon="6.35707">
        <ele>348.13</ele>
        <time>2010-10-10T10:07:30Z</time>
      </trkpt>
      <trkpt lat="43.23827" lon="6.35702">
        <ele>348.13</ele>
        <time>2010-10-10T10:07:31Z</time>
      </trkpt>
      <trkpt lat="43.23825" lon="6.35699">
        <ele>348.13</ele>
        <time>2010-10-10T10:07:32Z</time>
      </trkpt>
      <trkpt lat="43.23823" lon="6.35696">
        <ele>348.13</ele>
        <time>2010-10-10T10:07:33Z</time>
      </trkpt>
      <trkpt lat="43.2382" lon="6.35693">
        <ele>347.17</ele>
        <time>2010-10-10T10:07:34Z</time>
      </trkpt>
      <trkpt lat="43.23818" lon="6.35691">
        <ele>346.69</ele>
        <time>2010-10-10T10:07:35Z</time>
      </trkpt>
      <trkpt lat="43.23806" lon="6.35682">
        <ele>350.06</ele>
        <time>2010-10-10T10:07:39Z</time>
      </trkpt>
      <trkpt lat="43.23801" lon="6.35677">
        <ele>351.02</ele>
        <time>2010-10-10T10:07:41Z</time>
      </trkpt>
      <trkpt lat="43.23789" lon="6.35649">
        <ele>352.46</ele>
        <time>2010-10-10T10:07:48Z</time>
      </trkpt>
      <trkpt lat="43.23793" lon="6.35622">
        <ele>353.42</ele>
        <time>2010-10-10T10:07:54Z</time>
      </trkpt>
      <trkpt lat="43.23792" lon="6.35607">
        <ele>353.42</ele>
        <time>2010-10-10T10:07:58Z</time>
      </trkpt>
      <trkpt lat="43.23789" lon="6.35605">
        <ele>353.42</ele>
        <time>2010-10-10T10:07:59Z</time>
      </trkpt>
      <trkpt lat="43.2378" lon="6.356">
        <ele>352.46</ele>
        <time>2010-10-10T10:08:02Z</time>
      </trkpt>
      <trkpt lat="43.23778" lon="6.356">
        <ele>351.5</ele>
        <time>2010-10-10T10:08:03Z</time>
      </trkpt>
      <trkpt lat="43.23776" lon="6.356">
        <ele>351.02</ele>
        <time>2010-10-10T10:08:04Z</time>
      </trkpt>
      <trkpt lat="43.23774" lon="6.35599">
        <ele>351.5</ele>
        <time>2010-10-10T10:08:05Z</time>
      </trkpt>
      <trkpt lat="43.23773" lon="6.35598">
        <ele>352.94</ele>
        <time>2010-10-10T10:08:06Z</time>
      </trkpt>
      <trkpt lat="43.23771" lon="6.35599">
        <ele>353.42</ele>
        <time>2010-10-10T10:08:07Z</time>
      </trkpt>
      <trkpt lat="43.23769" lon="6.35599">
        <ele>354.86</ele>
        <time>2010-10-10T10:08:09Z</time>
      </trkpt>
      <trkpt lat="43.23769" lon="6.35598">
        <ele>355.83</ele>
        <time>2010-10-10T10:08:16Z</time>
      </trkpt>
      <trkpt lat="43.2377" lon="6.35597">
        <ele>353.9</ele>
        <time>2010-10-10T10:08:25Z</time>
      </trkpt>
      <trkpt lat="43.2377" lon="6.35597">
        <ele>354.38</ele>
        <time>2010-10-10T10:08:35Z</time>
      </trkpt>
      <trkpt lat="43.2377" lon="6.35597">
        <ele>352.94</ele>
        <time>2010-10-10T10:08:54Z</time>
      </trkpt>
      <trkpt lat="43.2377" lon="6.35597">
        <ele>353.42</ele>
        <time>2010-10-10T10:09:10Z</time>
      </trkpt>
      <trkpt lat="43.2377" lon="6.35597">
        <ele>354.86</ele>
        <time>2010-10-10T10:09:31Z</time>
      </trkpt>
      <trkpt lat="43.2377" lon="6.35597">
        <ele>353.42</ele>
        <time>2010-10-10T10:09:51Z</time>
      </trkpt>
      <trkpt lat="43.2377" lon="6.35597">
        <ele>354.38</ele>
        <time>2010-10-10T10:10:13Z</time>
      </trkpt>
      <trkpt lat="43.2377" lon="6.35597">
        <ele>355.34</ele>
        <time>2010-10-10T10:10:30Z</time>
      </trkpt>
      <trkpt lat="43.2377" lon="6.35597">
        <ele>356.79</ele>
        <time>2010-10-10T10:10:46Z</time>
      </trkpt>
      <trkpt lat="43.2377" lon="6.35597">
        <ele>355.83</ele>
        <time>2010-10-10T10:11:05Z</time>
      </trkpt>
      <trkpt lat="43.2377" lon="6.35597">
        <ele>354.86</ele>
        <time>2010-10-10T10:11:23Z</time>
      </trkpt>
      <trkpt lat="43.2377" lon="6.35597">
        <ele>354.86</ele>
        <time>2010-10-10T10:11:42Z</time>
      </trkpt>
      <trkpt lat="43.2377" lon="6.35597">
        <ele>354.86</ele>
        <time>2010-10-10T10:11:59Z</time>
      </trkpt>
      <trkpt lat="43.2377" lon="6.35597">
        <ele>353.42</ele>
        <time>2010-10-10T10:12:02Z</time>
      </trkpt>
      <trkpt lat="43.2377" lon="6.35597">
        <ele>353.9</ele>
        <time>2010-10-10T10:12:22Z</time>
      </trkpt>
      <trkpt lat="43.2377" lon="6.35597">
        <ele>354.86</ele>
        <time>2010-10-10T10:12:24Z</time>
      </trkpt>
      <trkpt lat="43.2377" lon="6.35597">
        <ele>352.94</ele>
        <time>2010-10-10T10:12:29Z</time>
      </trkpt>
      <trkpt lat="43.2377" lon="6.35597">
        <ele>356.31</ele>
        <time>2010-10-10T10:12:36Z</time>
      </trkpt>
      <trkpt lat="43.2377" lon="6.35597">
        <ele>356.31</ele>
        <time>2010-10-10T10:12:37Z</time>
      </trkpt>
      <trkpt lat="43.2377" lon="6.35597">
        <ele>354.86</ele>
        <time>2010-10-10T10:12:40Z</time>
      </trkpt>
      <trkpt lat="43.2377" lon="6.35597">
        <ele>354.86</ele>
        <time>2010-10-10T10:13:01Z</time>
      </trkpt>
      <trkpt lat="43.2377" lon="6.35597">
        <ele>355.34</ele>
        <time>2010-10-10T10:13:21Z</time>
      </trkpt>
      <trkpt lat="43.2377" lon="6.35597">
        <ele>353.42</ele>
        <time>2010-10-10T10:13:38Z</time>
      </trkpt>
      <trkpt lat="43.2377" lon="6.35597">
        <ele>352.46</ele>
        <time>2010-10-10T10:13:47Z</time>
      </trkpt>
      <trkpt lat="43.2377" lon="6.35597">
        <ele>354.38</ele>
        <time>2010-10-10T10:14:06Z</time>
      </trkpt>
      <trkpt lat="43.2377" lon="6.35597">
        <ele>355.34</ele>
        <time>2010-10-10T10:14:25Z</time>
      </trkpt>
      <trkpt lat="43.2377" lon="6.35597">
        <ele>354.38</ele>
        <time>2010-10-10T10:14:44Z</time>
      </trkpt>
      <trkpt lat="43.2377" lon="6.35597">
        <ele>355.83</ele>
        <time>2010-10-10T10:14:48Z</time>
      </trkpt>
      <trkpt lat="43.2377" lon="6.35597">
        <ele>352.94</ele>
        <time>2010-10-10T10:15:00Z</time>
      </trkpt>
      <trkpt lat="43.2377" lon="6.35597">
        <ele>354.38</ele>
        <time>2010-10-10T10:15:11Z</time>
      </trkpt>
      <trkpt lat="43.2377" lon="6.35597">
        <ele>354.38</ele>
        <time>2010-10-10T10:15:27Z</time>
      </trkpt>
      <trkpt lat="43.2377" lon="6.35596">
        <ele>353.42</ele>
        <time>2010-10-10T10:15:47Z</time>
      </trkpt>
      <trkpt lat="43.2377" lon="6.35596">
        <ele>355.83</ele>
        <time>2010-10-10T10:15:52Z</time>
      </trkpt>
      <trkpt lat="43.2377" lon="6.35596">
        <ele>354.38</ele>
        <time>2010-10-10T10:16:12Z</time>
      </trkpt>
      <trkpt lat="43.2377" lon="6.35597">
        <ele>354.38</ele>
        <time>2010-10-10T10:16:32Z</time>
      </trkpt>
      <trkpt lat="43.2377" lon="6.35597">
        <ele>352.94</ele>
        <time>2010-10-10T10:16:53Z</time>
      </trkpt>
      <trkpt lat="43.2377" lon="6.35597">
        <ele>354.38</ele>
        <time>2010-10-10T10:17:12Z</time>
      </trkpt>
      <trkpt lat="43.2377" lon="6.35597">
        <ele>354.86</ele>
        <time>2010-10-10T10:17:32Z</time>
      </trkpt>
      <trkpt lat="43.2377" lon="6.35596">
        <ele>354.86</ele>
        <time>2010-10-10T10:17:53Z</time>
      </trkpt>
      <trkpt lat="43.2377" lon="6.35596">
        <ele>353.9</ele>
        <time>2010-10-10T10:18:15Z</time>
      </trkpt>
      <trkpt lat="43.2377" lon="6.35596">
        <ele>354.86</ele>
        <time>2010-10-10T10:18:33Z</time>
      </trkpt>
      <trkpt lat="43.2377" lon="6.35596">
        <ele>353.9</ele>
        <time>2010-10-10T10:18:51Z</time>
      </trkpt>
      <trkpt lat="43.2377" lon="6.35596">
        <ele>354.38</ele>
        <time>2010-10-10T10:19:10Z</time>
      </trkpt>
      <trkpt lat="43.2377" lon="6.35597">
        <ele>354.86</ele>
        <time>2010-10-10T10:19:21Z</time>
      </trkpt>
      <trkpt lat="43.2377" lon="6.35597">
        <ele>354.86</ele>
        <time>2010-10-10T10:19:30Z</time>
      </trkpt>
      <trkpt lat="43.23771" lon="6.35598">
        <ele>353.9</ele>
        <time>2010-10-10T10:19:35Z</time>
      </trkpt>
      <trkpt lat="43.23772" lon="6.356">
        <ele>354.38</ele>
        <time>2010-10-10T10:19:36Z</time>
      </trkpt>
      <trkpt lat="43.23774" lon="6.35602">
        <ele>354.86</ele>
        <time>2010-10-10T10:19:37Z</time>
      </trkpt>
      <trkpt lat="43.23775" lon="6.35603">
        <ele>354.86</ele>
        <time>2010-10-10T10:19:38Z</time>
      </trkpt>
      <trkpt lat="43.23778" lon="6.35604">
        <ele>355.34</ele>
        <time>2010-10-10T10:19:39Z</time>
      </trkpt>
      <trkpt lat="43.23782" lon="6.35605">
        <ele>355.34</ele>
        <time>2010-10-10T10:19:40Z</time>
      </trkpt>
      <trkpt lat="43.23785" lon="6.35607">
        <ele>354.38</ele>
        <time>2010-10-10T10:19:41Z</time>
      </trkpt>
      <trkpt lat="43.23788" lon="6.35609">
        <ele>354.86</ele>
        <time>2010-10-10T10:19:42Z</time>
      </trkpt>
      <trkpt lat="43.2379" lon="6.35611">
        <ele>354.38</ele>
        <time>2010-10-10T10:19:43Z</time>
      </trkpt>
      <trkpt lat="43.23793" lon="6.35613">
        <ele>353.9</ele>
        <time>2010-10-10T10:19:44Z</time>
      </trkpt>
      <trkpt lat="43.23796" lon="6.35614">
        <ele>354.38</ele>
        <time>2010-10-10T10:19:45Z</time>
      </trkpt>
      <trkpt lat="43.23798" lon="6.35614">
        <ele>354.38</ele>
        <time>2010-10-10T10:19:46Z</time>
      </trkpt>
      <trkpt lat="43.238" lon="6.35612">
        <ele>354.86</ele>
        <time>2010-10-10T10:19:47Z</time>
      </trkpt>
      <trkpt lat="43.23801" lon="6.3561">
        <ele>354.86</ele>
        <time>2010-10-10T10:19:48Z</time>
      </trkpt>
      <trkpt lat="43.23803" lon="6.35608">
        <ele>354.86</ele>
        <time>2010-10-10T10:19:49Z</time>
      </trkpt>
      <trkpt lat="43.23803" lon="6.35605">
        <ele>355.34</ele>
        <time>2010-10-10T10:19:50Z</time>
      </trkpt>
      <trkpt lat="43.23803" lon="6.35602">
        <ele>355.34</ele>
        <time>2010-10-10T10:19:51Z</time>
      </trkpt>
      <trkpt lat="43.23802" lon="6.356">
        <ele>355.34</ele>
        <time>2010-10-10T10:19:52Z</time>
      </trkpt>
      <trkpt lat="43.23801" lon="6.35597">
        <ele>355.34</ele>
        <time>2010-10-10T10:19:53Z</time>
      </trkpt>
      <trkpt lat="43.238" lon="6.35594">
        <ele>355.83</ele>
        <time>2010-10-10T10:19:54Z</time>
      </trkpt>
      <trkpt lat="43.23792" lon="6.35572">
        <ele>357.75</ele>
        <time>2010-10-10T10:20:01Z</time>
      </trkpt>
      <trkpt lat="43.23782" lon="6.35559">
        <ele>359.67</ele>
        <time>2010-10-10T10:20:07Z</time>
      </trkpt>
      <trkpt lat="43.23769" lon="6.35561">
        <ele>360.15</ele>
        <time>2010-10-10T10:20:13Z</time>
      </trkpt>
      <trkpt lat="43.23753" lon="6.35574">
        <ele>359.19</ele>
        <time>2010-10-10T10:20:20Z</time>
      </trkpt>
      <trkpt lat="43.23735" lon="6.35591">
        <ele>361.11</ele>
        <time>2010-10-10T10:20:28Z</time>
      </trkpt>
      <trkpt lat="43.23731" lon="6.35596">
        <ele>362.07</ele>
        <time>2010-10-10T10:20:30Z</time>
      </trkpt>
      <trkpt lat="43.23712" lon="6.35611">
        <ele>362.55</ele>
        <time>2010-10-10T10:20:37Z</time>
      </trkpt>
      <trkpt lat="43.23698" lon="6.35616">
        <ele>363.52</ele>
        <time>2010-10-10T10:20:43Z</time>
      </trkpt>
      <trkpt lat="43.23693" lon="6.35618">
        <ele>363.52</ele>
        <time>2010-10-10T10:20:49Z</time>
      </trkpt>
      <trkpt lat="43.23694" lon="6.35615">
        <ele>363.04</ele>
        <time>2010-10-10T10:20:53Z</time>
      </trkpt>
      <trkpt lat="43.23694" lon="6.35613">
        <ele>363.04</ele>
        <time>2010-10-10T10:20:54Z</time>
      </trkpt>
      <trkpt lat="43.23694" lon="6.35611">
        <ele>363.04</ele>
        <time>2010-10-10T10:20:55Z</time>
      </trkpt>
      <trkpt lat="43.23693" lon="6.35608">
        <ele>362.55</ele>
        <time>2010-10-10T10:20:56Z</time>
      </trkpt>
      <trkpt lat="43.23692" lon="6.35605">
        <ele>362.55</ele>
        <time>2010-10-10T10:20:57Z</time>
      </trkpt>
      <trkpt lat="43.23694" lon="6.35584">
        <ele>363.04</ele>
        <time>2010-10-10T10:21:03Z</time>
      </trkpt>
      <trkpt lat="43.23697" lon="6.35549">
        <ele>363.52</ele>
        <time>2010-10-10T10:21:12Z</time>
      </trkpt>
      <trkpt lat="43.23695" lon="6.35525">
        <ele>361.11</ele>
        <time>2010-10-10T10:21:20Z</time>
      </trkpt>
      <trkpt lat="43.23694" lon="6.35524">
        <ele>362.07</ele>
        <time>2010-10-10T10:21:21Z</time>
      </trkpt>
      <trkpt lat="43.23694" lon="6.35522">
        <ele>363.52</ele>
        <time>2010-10-10T10:21:23Z</time>
      </trkpt>
      <trkpt lat="43.23692" lon="6.35509">
        <ele>364.48</ele>
        <time>2010-10-10T10:21:29Z</time>
      </trkpt>
      <trkpt lat="43.23691" lon="6.35499">
        <ele>365.44</ele>
        <time>2010-10-10T10:21:32Z</time>
      </trkpt>
      <trkpt lat="43.23683" lon="6.35465">
        <ele>366.4</ele>
        <time>2010-10-10T10:21:41Z</time>
      </trkpt>
      <trkpt lat="43.23672" lon="6.3542">
        <ele>368.32</ele>
        <time>2010-10-10T10:21:52Z</time>
      </trkpt>
      <trkpt lat="43.23664" lon="6.35385">
        <ele>368.8</ele>
        <time>2010-10-10T10:22:00Z</time>
      </trkpt>
      <trkpt lat="43.23662" lon="6.35343">
        <ele>371.69</ele>
        <time>2010-10-10T10:22:09Z</time>
      </trkpt>
      <trkpt lat="43.23662" lon="6.35309">
        <ele>371.69</ele>
        <time>2010-10-10T10:22:16Z</time>
      </trkpt>
      <trkpt lat="43.23672" lon="6.35273">
        <ele>372.65</ele>
        <time>2010-10-10T10:22:24Z</time>
      </trkpt>
      <trkpt lat="43.23677" lon="6.35263">
        <ele>372.65</ele>
        <time>2010-10-10T10:22:26Z</time>
      </trkpt>
      <trkpt lat="43.23678" lon="6.35258">
        <ele>373.13</ele>
        <time>2010-10-10T10:22:27Z</time>
      </trkpt>
      <trkpt lat="43.23679" lon="6.35253">
        <ele>373.13</ele>
        <time>2010-10-10T10:22:28Z</time>
      </trkpt>
      <trkpt lat="43.23682" lon="6.3523">
        <ele>372.65</ele>
        <time>2010-10-10T10:22:32Z</time>
      </trkpt>
      <trkpt lat="43.23683" lon="6.35225">
        <ele>372.65</ele>
        <time>2010-10-10T10:22:33Z</time>
      </trkpt>
      <trkpt lat="43.23687" lon="6.35202">
        <ele>372.17</ele>
        <time>2010-10-10T10:22:37Z</time>
      </trkpt>
      <trkpt lat="43.23702" lon="6.35165">
        <ele>372.65</ele>
        <time>2010-10-10T10:22:45Z</time>
      </trkpt>
      <trkpt lat="43.23708" lon="6.3513">
        <ele>373.61</ele>
        <time>2010-10-10T10:22:52Z</time>
      </trkpt>
      <trkpt lat="43.23706" lon="6.351">
        <ele>373.61</ele>
        <time>2010-10-10T10:22:58Z</time>
      </trkpt>
      <trkpt lat="43.23696" lon="6.35057">
        <ele>375.05</ele>
        <time>2010-10-10T10:23:07Z</time>
      </trkpt>
      <trkpt lat="43.23691" lon="6.35024">
        <ele>376.97</ele>
        <time>2010-10-10T10:23:14Z</time>
      </trkpt>
      <trkpt lat="43.237" lon="6.34996">
        <ele>376.97</ele>
        <time>2010-10-10T10:23:20Z</time>
      </trkpt>
      <trkpt lat="43.2371" lon="6.34978">
        <ele>376.97</ele>
        <time>2010-10-10T10:23:24Z</time>
      </trkpt>
      <trkpt lat="43.23727" lon="6.34941">
        <ele>377.45</ele>
        <time>2010-10-10T10:23:32Z</time>
      </trkpt>
      <trkpt lat="43.23734" lon="6.34905">
        <ele>378.42</ele>
        <time>2010-10-10T10:23:39Z</time>
      </trkpt>
      <trkpt lat="43.23729" lon="6.34877">
        <ele>378.9</ele>
        <time>2010-10-10T10:23:45Z</time>
      </trkpt>
      <trkpt lat="43.23716" lon="6.34859">
        <ele>380.34</ele>
        <time>2010-10-10T10:23:50Z</time>
      </trkpt>
      <trkpt lat="43.23697" lon="6.34843">
        <ele>381.3</ele>
        <time>2010-10-10T10:23:56Z</time>
      </trkpt>
      <trkpt lat="43.23688" lon="6.34831">
        <ele>381.78</ele>
        <time>2010-10-10T10:23:59Z</time>
      </trkpt>
      <trkpt lat="43.23686" lon="6.34826">
        <ele>381.78</ele>
        <time>2010-10-10T10:24:00Z</time>
      </trkpt>
      <trkpt lat="43.23684" lon="6.34821">
        <ele>381.78</ele>
        <time>2010-10-10T10:24:01Z</time>
      </trkpt>
      <trkpt lat="43.23682" lon="6.34817">
        <ele>381.78</ele>
        <time>2010-10-10T10:24:02Z</time>
      </trkpt>
      <trkpt lat="43.23681" lon="6.34812">
        <ele>381.78</ele>
        <time>2010-10-10T10:24:03Z</time>
      </trkpt>
      <trkpt lat="43.2368" lon="6.34806">
        <ele>381.78</ele>
        <time>2010-10-10T10:24:04Z</time>
      </trkpt>
      <trkpt lat="43.23678" lon="6.34801">
        <ele>382.74</ele>
        <time>2010-10-10T10:24:05Z</time>
      </trkpt>
      <trkpt lat="43.23664" lon="6.34776">
        <ele>384.18</ele>
        <time>2010-10-10T10:24:11Z</time>
      </trkpt>
      <trkpt lat="43.23646" lon="6.3475">
        <ele>385.63</ele>
        <time>2010-10-10T10:24:18Z</time>
      </trkpt>
      <trkpt lat="43.23629" lon="6.34732">
        <ele>386.11</ele>
        <time>2010-10-10T10:24:24Z</time>
      </trkpt>
      <trkpt lat="43.2361" lon="6.3472">
        <ele>386.59</ele>
        <time>2010-10-10T10:24:30Z</time>
      </trkpt>
      <trkpt lat="43.23602" lon="6.34718">
        <ele>386.59</ele>
        <time>2010-10-10T10:24:32Z</time>
      </trkpt>
      <trkpt lat="43.23598" lon="6.34718">
        <ele>386.59</ele>
        <time>2010-10-10T10:24:33Z</time>
      </trkpt>
      <trkpt lat="43.23594" lon="6.34717">
        <ele>386.59</ele>
        <time>2010-10-10T10:24:34Z</time>
      </trkpt>
      <trkpt lat="43.23572" lon="6.34708">
        <ele>388.99</ele>
        <time>2010-10-10T10:24:40Z</time>
      </trkpt>
      <trkpt lat="43.23569" lon="6.34704">
        <ele>389.47</ele>
        <time>2010-10-10T10:24:41Z</time>
      </trkpt>
      <trkpt lat="43.23566" lon="6.347">
        <ele>388.99</ele>
        <time>2010-10-10T10:24:42Z</time>
      </trkpt>
      <trkpt lat="43.23562" lon="6.34676">
        <ele>389.47</ele>
        <time>2010-10-10T10:24:47Z</time>
      </trkpt>
      <trkpt lat="43.23551" lon="6.34632">
        <ele>389.95</ele>
        <time>2010-10-10T10:24:56Z</time>
      </trkpt>
      <trkpt lat="43.23548" lon="6.34631">
        <ele>390.43</ele>
        <time>2010-10-10T10:24:57Z</time>
      </trkpt>
      <trkpt lat="43.23544" lon="6.34632">
        <ele>391.39</ele>
        <time>2010-10-10T10:24:58Z</time>
      </trkpt>
      <trkpt lat="43.23541" lon="6.34634">
        <ele>390.91</ele>
        <time>2010-10-10T10:24:59Z</time>
      </trkpt>
      <trkpt lat="43.23532" lon="6.34645">
        <ele>389.95</ele>
        <time>2010-10-10T10:25:03Z</time>
      </trkpt>
      <trkpt lat="43.23514" lon="6.34655">
        <ele>390.91</ele>
        <time>2010-10-10T10:25:08Z</time>
      </trkpt>
      <trkpt lat="43.23509" lon="6.34655">
        <ele>390.91</ele>
        <time>2010-10-10T10:25:09Z</time>
      </trkpt>
      <trkpt lat="43.23505" lon="6.34653">
        <ele>391.39</ele>
        <time>2010-10-10T10:25:10Z</time>
      </trkpt>
      <trkpt lat="43.23498" lon="6.34648">
        <ele>391.87</ele>
        <time>2010-10-10T10:25:12Z</time>
      </trkpt>
      <trkpt lat="43.23495" lon="6.34644">
        <ele>392.36</ele>
        <time>2010-10-10T10:25:13Z</time>
      </trkpt>
      <trkpt lat="43.23488" lon="6.34637">
        <ele>392.36</ele>
        <time>2010-10-10T10:25:15Z</time>
      </trkpt>
      <trkpt lat="43.23471" lon="6.3461">
        <ele>393.32</ele>
        <time>2010-10-10T10:25:22Z</time>
      </trkpt>
      <trkpt lat="43.23463" lon="6.34592">
        <ele>395.72</ele>
        <time>2010-10-10T10:25:26Z</time>
      </trkpt>
      <trkpt lat="43.23463" lon="6.34586">
        <ele>396.2</ele>
        <time>2010-10-10T10:25:28Z</time>
      </trkpt>
      <trkpt lat="43.23465" lon="6.34584">
        <ele>395.72</ele>
        <time>2010-10-10T10:25:29Z</time>
      </trkpt>
      <trkpt lat="43.23468" lon="6.34585">
        <ele>396.2</ele>
        <time>2010-10-10T10:25:30Z</time>
      </trkpt>
      <trkpt lat="43.23469" lon="6.34588">
        <ele>396.2</ele>
        <time>2010-10-10T10:25:31Z</time>
      </trkpt>
      <trkpt lat="43.2347" lon="6.34592">
        <ele>396.68</ele>
        <time>2010-10-10T10:25:32Z</time>
      </trkpt>
      <trkpt lat="43.23472" lon="6.34595">
        <ele>397.16</ele>
        <time>2010-10-10T10:25:33Z</time>
      </trkpt>
      <trkpt lat="43.23485" lon="6.34613">
        <ele>396.2</ele>
        <time>2010-10-10T10:25:40Z</time>
      </trkpt>
      <trkpt lat="43.23501" lon="6.34623">
        <ele>397.64</ele>
        <time>2010-10-10T10:25:46Z</time>
      </trkpt>
      <trkpt lat="43.23518" lon="6.34623">
        <ele>398.12</ele>
        <time>2010-10-10T10:25:52Z</time>
      </trkpt>
      <trkpt lat="43.23532" lon="6.34613">
        <ele>399.08</ele>
        <time>2010-10-10T10:25:58Z</time>
      </trkpt>
      <trkpt lat="43.23543" lon="6.34601">
        <ele>399.57</ele>
        <time>2010-10-10T10:26:04Z</time>
      </trkpt>
      <trkpt lat="43.23556" lon="6.34591">
        <ele>400.05</ele>
        <time>2010-10-10T10:26:10Z</time>
      </trkpt>
      <trkpt lat="43.23568" lon="6.34589">
        <ele>403.89</ele>
        <time>2010-10-10T10:26:14Z</time>
      </trkpt>
      <trkpt lat="43.23571" lon="6.3459">
        <ele>404.85</ele>
        <time>2010-10-10T10:26:15Z</time>
      </trkpt>
      <trkpt lat="43.23574" lon="6.34592">
        <ele>404.37</ele>
        <time>2010-10-10T10:26:16Z</time>
      </trkpt>
      <trkpt lat="43.23576" lon="6.34595">
        <ele>403.41</ele>
        <time>2010-10-10T10:26:17Z</time>
      </trkpt>
      <trkpt lat="43.23577" lon="6.34598">
        <ele>402.93</ele>
        <time>2010-10-10T10:26:18Z</time>
      </trkpt>
      <trkpt lat="43.23578" lon="6.34602">
        <ele>402.45</ele>
        <time>2010-10-10T10:26:19Z</time>
      </trkpt>
      <trkpt lat="43.23579" lon="6.34605">
        <ele>402.93</ele>
        <time>2010-10-10T10:26:20Z</time>
      </trkpt>
      <trkpt lat="43.2358" lon="6.34609">
        <ele>402.93</ele>
        <time>2010-10-10T10:26:21Z</time>
      </trkpt>
      <trkpt lat="43.23585" lon="6.3463">
        <ele>403.41</ele>
        <time>2010-10-10T10:26:28Z</time>
      </trkpt>
      <trkpt lat="43.23596" lon="6.34644">
        <ele>403.41</ele>
        <time>2010-10-10T10:26:34Z</time>
      </trkpt>
      <trkpt lat="43.23605" lon="6.34649">
        <ele>406.29</ele>
        <time>2010-10-10T10:26:37Z</time>
      </trkpt>
      <trkpt lat="43.23608" lon="6.3465">
        <ele>406.29</ele>
        <time>2010-10-10T10:26:38Z</time>
      </trkpt>
      <trkpt lat="43.23626" lon="6.34652">
        <ele>404.37</ele>
        <time>2010-10-10T10:26:44Z</time>
      </trkpt>
      <trkpt lat="43.23648" lon="6.34665">
        <ele>406.77</ele>
        <time>2010-10-10T10:26:52Z</time>
      </trkpt>
      <trkpt lat="43.23663" lon="6.34671">
        <ele>406.77</ele>
        <time>2010-10-10T10:26:58Z</time>
      </trkpt>
      <trkpt lat="43.2368" lon="6.34679">
        <ele>407.74</ele>
        <time>2010-10-10T10:27:04Z</time>
      </trkpt>
      <trkpt lat="43.23689" lon="6.34688">
        <ele>409.66</ele>
        <time>2010-10-10T10:27:08Z</time>
      </trkpt>
      <trkpt lat="43.23707" lon="6.34696">
        <ele>410.62</ele>
        <time>2010-10-10T10:27:15Z</time>
      </trkpt>
      <trkpt lat="43.23722" lon="6.34706">
        <ele>412.54</ele>
        <time>2010-10-10T10:27:21Z</time>
      </trkpt>
      <trkpt lat="43.23737" lon="6.3472">
        <ele>412.06</ele>
        <time>2010-10-10T10:27:28Z</time>
      </trkpt>
      <trkpt lat="43.23751" lon="6.34729">
        <ele>414.95</ele>
        <time>2010-10-10T10:27:34Z</time>
      </trkpt>
      <trkpt lat="43.23753" lon="6.34728">
        <ele>414.95</ele>
        <time>2010-10-10T10:27:35Z</time>
      </trkpt>
      <trkpt lat="43.23754" lon="6.34726">
        <ele>414.95</ele>
        <time>2010-10-10T10:27:36Z</time>
      </trkpt>
      <trkpt lat="43.23754" lon="6.34723">
        <ele>415.91</ele>
        <time>2010-10-10T10:27:37Z</time>
      </trkpt>
      <trkpt lat="43.23754" lon="6.34721">
        <ele>415.91</ele>
        <time>2010-10-10T10:27:38Z</time>
      </trkpt>
      <trkpt lat="43.23753" lon="6.34719">
        <ele>415.91</ele>
        <time>2010-10-10T10:27:39Z</time>
      </trkpt>
      <trkpt lat="43.23752" lon="6.34718">
        <ele>416.39</ele>
        <time>2010-10-10T10:27:40Z</time>
      </trkpt>
      <trkpt lat="43.23742" lon="6.34707">
        <ele>416.87</ele>
        <time>2010-10-10T10:27:46Z</time>
      </trkpt>
      <trkpt lat="43.23729" lon="6.3469">
        <ele>417.35</ele>
        <time>2010-10-10T10:27:53Z</time>
      </trkpt>
      <trkpt lat="43.23724" lon="6.3468">
        <ele>418.79</ele>
        <time>2010-10-10T10:27:56Z</time>
      </trkpt>
      <trkpt lat="43.23714" lon="6.34649">
        <ele>419.75</ele>
        <time>2010-10-10T10:28:05Z</time>
      </trkpt>
      <trkpt lat="43.23703" lon="6.34632">
        <ele>421.19</ele>
        <time>2010-10-10T10:28:11Z</time>
      </trkpt>
      <trkpt lat="43.23689" lon="6.34621">
        <ele>422.16</ele>
        <time>2010-10-10T10:28:17Z</time>
      </trkpt>
      <trkpt lat="43.23674" lon="6.3461">
        <ele>425.04</ele>
        <time>2010-10-10T10:28:24Z</time>
      </trkpt>
      <trkpt lat="43.23669" lon="6.34606">
        <ele>426</ele>
        <time>2010-10-10T10:28:26Z</time>
      </trkpt>
      <trkpt lat="43.23661" lon="6.34595">
        <ele>426.96</ele>
        <time>2010-10-10T10:28:31Z</time>
      </trkpt>
      <trkpt lat="43.23652" lon="6.34577">
        <ele>426.96</ele>
        <time>2010-10-10T10:28:37Z</time>
      </trkpt>
      <trkpt lat="43.2365" lon="6.34549">
        <ele>428.89</ele>
        <time>2010-10-10T10:28:45Z</time>
      </trkpt>
      <trkpt lat="43.23655" lon="6.34521">
        <ele>427.44</ele>
        <time>2010-10-10T10:28:52Z</time>
      </trkpt>
      <trkpt lat="43.23655" lon="6.34517">
        <ele>427.92</ele>
        <time>2010-10-10T10:28:53Z</time>
      </trkpt>
      <trkpt lat="43.23656" lon="6.34496">
        <ele>430.81</ele>
        <time>2010-10-10T10:28:59Z</time>
      </trkpt>
      <trkpt lat="43.23657" lon="6.3448">
        <ele>428.89</ele>
        <time>2010-10-10T10:29:03Z</time>
      </trkpt>
      <trkpt lat="43.23658" lon="6.3447">
        <ele>431.77</ele>
        <time>2010-10-10T10:29:06Z</time>
      </trkpt>
      <trkpt lat="43.23658" lon="6.34462">
        <ele>432.73</ele>
        <time>2010-10-10T10:29:08Z</time>
      </trkpt>
      <trkpt lat="43.23658" lon="6.34452">
        <ele>431.29</ele>
        <time>2010-10-10T10:29:11Z</time>
      </trkpt>
      <trkpt lat="43.23657" lon="6.34449">
        <ele>431.77</ele>
        <time>2010-10-10T10:29:12Z</time>
      </trkpt>
      <trkpt lat="43.23657" lon="6.34445">
        <ele>432.25</ele>
        <time>2010-10-10T10:29:13Z</time>
      </trkpt>
      <trkpt lat="43.23657" lon="6.34421">
        <ele>432.73</ele>
        <time>2010-10-10T10:29:20Z</time>
      </trkpt>
      <trkpt lat="43.23654" lon="6.34406">
        <ele>435.13</ele>
        <time>2010-10-10T10:29:25Z</time>
      </trkpt>
      <trkpt lat="43.23653" lon="6.34403">
        <ele>435.13</ele>
        <time>2010-10-10T10:29:26Z</time>
      </trkpt>
      <trkpt lat="43.23652" lon="6.344">
        <ele>435.13</ele>
        <time>2010-10-10T10:29:27Z</time>
      </trkpt>
      <trkpt lat="43.23651" lon="6.34398">
        <ele>435.13</ele>
        <time>2010-10-10T10:29:28Z</time>
      </trkpt>
      <trkpt lat="43.23649" lon="6.34396">
        <ele>435.13</ele>
        <time>2010-10-10T10:29:29Z</time>
      </trkpt>
      <trkpt lat="43.23634" lon="6.34388">
        <ele>436.1</ele>
        <time>2010-10-10T10:29:35Z</time>
      </trkpt>
      <trkpt lat="43.23629" lon="6.34387">
        <ele>437.54</ele>
        <time>2010-10-10T10:29:37Z</time>
      </trkpt>
      <trkpt lat="43.23611" lon="6.34389">
        <ele>437.54</ele>
        <time>2010-10-10T10:29:44Z</time>
      </trkpt>
      <trkpt lat="43.23594" lon="6.34392">
        <ele>438.02</ele>
        <time>2010-10-10T10:29:50Z</time>
      </trkpt>
      <trkpt lat="43.23582" lon="6.34397">
        <ele>439.46</ele>
        <time>2010-10-10T10:29:55Z</time>
      </trkpt>
      <trkpt lat="43.23568" lon="6.34402">
        <ele>440.42</ele>
        <time>2010-10-10T10:30:01Z</time>
      </trkpt>
      <trkpt lat="43.23548" lon="6.34402">
        <ele>441.38</ele>
        <time>2010-10-10T10:30:07Z</time>
      </trkpt>
      <trkpt lat="43.23546" lon="6.344">
        <ele>441.38</ele>
        <time>2010-10-10T10:30:08Z</time>
      </trkpt>
      <trkpt lat="43.23544" lon="6.34398">
        <ele>440.9</ele>
        <time>2010-10-10T10:30:09Z</time>
      </trkpt>
      <trkpt lat="43.23542" lon="6.34396">
        <ele>441.86</ele>
        <time>2010-10-10T10:30:10Z</time>
      </trkpt>
      <trkpt lat="43.23539" lon="6.34396">
        <ele>440.9</ele>
        <time>2010-10-10T10:30:11Z</time>
      </trkpt>
      <trkpt lat="43.23536" lon="6.34395">
        <ele>441.38</ele>
        <time>2010-10-10T10:30:12Z</time>
      </trkpt>
      <trkpt lat="43.23512" lon="6.34385">
        <ele>444.27</ele>
        <time>2010-10-10T10:30:20Z</time>
      </trkpt>
      <trkpt lat="43.23488" lon="6.34376">
        <ele>444.75</ele>
        <time>2010-10-10T10:30:28Z</time>
      </trkpt>
      <trkpt lat="43.23469" lon="6.3436">
        <ele>445.23</ele>
        <time>2010-10-10T10:30:35Z</time>
      </trkpt>
      <trkpt lat="43.23442" lon="6.34328">
        <ele>446.67</ele>
        <time>2010-10-10T10:30:45Z</time>
      </trkpt>
      <trkpt lat="43.2342" lon="6.34301">
        <ele>445.71</ele>
        <time>2010-10-10T10:30:53Z</time>
      </trkpt>
      <trkpt lat="43.23401" lon="6.34273">
        <ele>447.15</ele>
        <time>2010-10-10T10:31:00Z</time>
      </trkpt>
      <trkpt lat="43.23392" lon="6.34259">
        <ele>446.67</ele>
        <time>2010-10-10T10:31:03Z</time>
      </trkpt>
      <trkpt lat="43.2339" lon="6.34255">
        <ele>447.15</ele>
        <time>2010-10-10T10:31:04Z</time>
      </trkpt>
      <trkpt lat="43.23387" lon="6.3425">
        <ele>446.19</ele>
        <time>2010-10-10T10:31:05Z</time>
      </trkpt>
      <trkpt lat="43.23363" lon="6.34209">
        <ele>445.71</ele>
        <time>2010-10-10T10:31:13Z</time>
      </trkpt>
      <trkpt lat="43.23359" lon="6.34205">
        <ele>445.71</ele>
        <time>2010-10-10T10:31:14Z</time>
      </trkpt>
      <trkpt lat="43.23356" lon="6.34201">
        <ele>446.67</ele>
        <time>2010-10-10T10:31:15Z</time>
      </trkpt>
      <trkpt lat="43.23353" lon="6.34199">
        <ele>446.67</ele>
        <time>2010-10-10T10:31:16Z</time>
      </trkpt>
      <trkpt lat="43.2335" lon="6.34198">
        <ele>447.15</ele>
        <time>2010-10-10T10:31:17Z</time>
      </trkpt>
      <trkpt lat="43.23345" lon="6.34199">
        <ele>446.67</ele>
        <time>2010-10-10T10:31:18Z</time>
      </trkpt>
      <trkpt lat="43.23341" lon="6.34201">
        <ele>447.15</ele>
        <time>2010-10-10T10:31:19Z</time>
      </trkpt>
      <trkpt lat="43.23314" lon="6.342">
        <ele>446.67</ele>
        <time>2010-10-10T10:31:26Z</time>
      </trkpt>
      <trkpt lat="43.23293" lon="6.34193">
        <ele>449.55</ele>
        <time>2010-10-10T10:31:33Z</time>
      </trkpt>
      <trkpt lat="43.23274" lon="6.34186">
        <ele>450.52</ele>
        <time>2010-10-10T10:31:40Z</time>
      </trkpt>
      <trkpt lat="43.23257" lon="6.34183">
        <ele>451</ele>
        <time>2010-10-10T10:31:46Z</time>
      </trkpt>
      <trkpt lat="43.23238" lon="6.34178">
        <ele>452.44</ele>
        <time>2010-10-10T10:31:54Z</time>
      </trkpt>
      <trkpt lat="43.2322" lon="6.34183">
        <ele>454.36</ele>
        <time>2010-10-10T10:32:02Z</time>
      </trkpt>
      <trkpt lat="43.23207" lon="6.34196">
        <ele>454.36</ele>
        <time>2010-10-10T10:32:09Z</time>
      </trkpt>
      <trkpt lat="43.23197" lon="6.34213">
        <ele>456.28</ele>
        <time>2010-10-10T10:32:16Z</time>
      </trkpt>
      <trkpt lat="43.23186" lon="6.34214">
        <ele>457.24</ele>
        <time>2010-10-10T10:32:22Z</time>
      </trkpt>
      <trkpt lat="43.23183" lon="6.342">
        <ele>459.17</ele>
        <time>2010-10-10T10:32:28Z</time>
      </trkpt>
      <trkpt lat="43.23184" lon="6.34198">
        <ele>459.17</ele>
        <time>2010-10-10T10:32:29Z</time>
      </trkpt>
      <trkpt lat="43.23184" lon="6.34196">
        <ele>459.17</ele>
        <time>2010-10-10T10:32:30Z</time>
      </trkpt>
      <trkpt lat="43.23184" lon="6.34179">
        <ele>460.61</ele>
        <time>2010-10-10T10:32:37Z</time>
      </trkpt>
      <trkpt lat="43.23183" lon="6.34178">
        <ele>460.61</ele>
        <time>2010-10-10T10:32:38Z</time>
      </trkpt>
      <trkpt lat="43.23182" lon="6.34176">
        <ele>460.13</ele>
        <time>2010-10-10T10:32:39Z</time>
      </trkpt>
      <trkpt lat="43.23181" lon="6.34175">
        <ele>460.13</ele>
        <time>2010-10-10T10:32:40Z</time>
      </trkpt>
      <trkpt lat="43.23179" lon="6.34174">
        <ele>460.61</ele>
        <time>2010-10-10T10:32:41Z</time>
      </trkpt>
      <trkpt lat="43.23177" lon="6.34174">
        <ele>462.53</ele>
        <time>2010-10-10T10:32:42Z</time>
      </trkpt>
      <trkpt lat="43.23175" lon="6.34175">
        <ele>462.05</ele>
        <time>2010-10-10T10:32:43Z</time>
      </trkpt>
      <trkpt lat="43.23174" lon="6.34177">
        <ele>461.57</ele>
        <time>2010-10-10T10:32:44Z</time>
      </trkpt>
      <trkpt lat="43.23173" lon="6.34178">
        <ele>462.05</ele>
        <time>2010-10-10T10:32:45Z</time>
      </trkpt>
      <trkpt lat="43.23173" lon="6.3418">
        <ele>462.53</ele>
        <time>2010-10-10T10:32:46Z</time>
      </trkpt>
      <trkpt lat="43.23172" lon="6.34183">
        <ele>462.53</ele>
        <time>2010-10-10T10:32:47Z</time>
      </trkpt>
      <trkpt lat="43.23171" lon="6.34185">
        <ele>462.53</ele>
        <time>2010-10-10T10:32:48Z</time>
      </trkpt>
      <trkpt lat="43.23163" lon="6.342">
        <ele>463.97</ele>
        <time>2010-10-10T10:32:55Z</time>
      </trkpt>
      <trkpt lat="43.23151" lon="6.34214">
        <ele>463.97</ele>
        <time>2010-10-10T10:33:03Z</time>
      </trkpt>
      <trkpt lat="43.23148" lon="6.34218">
        <ele>464.93</ele>
        <time>2010-10-10T10:33:05Z</time>
      </trkpt>
      <trkpt lat="43.23147" lon="6.34219">
        <ele>464.93</ele>
        <time>2010-10-10T10:33:06Z</time>
      </trkpt>
      <trkpt lat="43.23131" lon="6.3423">
        <ele>466.38</ele>
        <time>2010-10-10T10:33:15Z</time>
      </trkpt>
      <trkpt lat="43.23123" lon="6.34231">
        <ele>467.34</ele>
        <time>2010-10-10T10:33:19Z</time>
      </trkpt>
      <trkpt lat="43.23119" lon="6.34226">
        <ele>468.3</ele>
        <time>2010-10-10T10:33:22Z</time>
      </trkpt>
      <trkpt lat="43.23118" lon="6.34224">
        <ele>468.3</ele>
        <time>2010-10-10T10:33:23Z</time>
      </trkpt>
      <trkpt lat="43.23117" lon="6.34219">
        <ele>468.3</ele>
        <time>2010-10-10T10:33:25Z</time>
      </trkpt>
      <trkpt lat="43.23118" lon="6.34216">
        <ele>468.78</ele>
        <time>2010-10-10T10:33:26Z</time>
      </trkpt>
      <trkpt lat="43.23119" lon="6.34214">
        <ele>469.26</ele>
        <time>2010-10-10T10:33:27Z</time>
      </trkpt>
      <trkpt lat="43.2312" lon="6.34212">
        <ele>469.74</ele>
        <time>2010-10-10T10:33:28Z</time>
      </trkpt>
      <trkpt lat="43.23121" lon="6.34209">
        <ele>469.74</ele>
        <time>2010-10-10T10:33:29Z</time>
      </trkpt>
      <trkpt lat="43.23122" lon="6.34208">
        <ele>470.22</ele>
        <time>2010-10-10T10:33:30Z</time>
      </trkpt>
      <trkpt lat="43.23123" lon="6.34205">
        <ele>470.7</ele>
        <time>2010-10-10T10:33:31Z</time>
      </trkpt>
      <trkpt lat="43.23125" lon="6.34203">
        <ele>471.66</ele>
        <time>2010-10-10T10:33:32Z</time>
      </trkpt>
      <trkpt lat="43.23125" lon="6.342">
        <ele>472.14</ele>
        <time>2010-10-10T10:33:33Z</time>
      </trkpt>
      <trkpt lat="43.23126" lon="6.34197">
        <ele>472.14</ele>
        <time>2010-10-10T10:33:34Z</time>
      </trkpt>
      <trkpt lat="43.23125" lon="6.34194">
        <ele>472.63</ele>
        <time>2010-10-10T10:33:35Z</time>
      </trkpt>
      <trkpt lat="43.23124" lon="6.34191">
        <ele>472.63</ele>
        <time>2010-10-10T10:33:36Z</time>
      </trkpt>
      <trkpt lat="43.23112" lon="6.34175">
        <ele>475.03</ele>
        <time>2010-10-10T10:33:44Z</time>
      </trkpt>
      <trkpt lat="43.23098" lon="6.34175">
        <ele>475.03</ele>
        <time>2010-10-10T10:33:50Z</time>
      </trkpt>
      <trkpt lat="43.23096" lon="6.34176">
        <ele>475.51</ele>
        <time>2010-10-10T10:33:51Z</time>
      </trkpt>
      <trkpt lat="43.23094" lon="6.34175">
        <ele>475.03</ele>
        <time>2010-10-10T10:33:52Z</time>
      </trkpt>
      <trkpt lat="43.23092" lon="6.34176">
        <ele>475.99</ele>
        <time>2010-10-10T10:33:53Z</time>
      </trkpt>
      <trkpt lat="43.2309" lon="6.34176">
        <ele>475.03</ele>
        <time>2010-10-10T10:33:54Z</time>
      </trkpt>
      <trkpt lat="43.23087" lon="6.34176">
        <ele>475.51</ele>
        <time>2010-10-10T10:33:55Z</time>
      </trkpt>
      <trkpt lat="43.23072" lon="6.34176">
        <ele>475.99</ele>
        <time>2010-10-10T10:34:00Z</time>
      </trkpt>
      <trkpt lat="43.23057" lon="6.34173">
        <ele>475.03</ele>
        <time>2010-10-10T10:34:05Z</time>
      </trkpt>
      <trkpt lat="43.23037" lon="6.34167">
        <ele>476.47</ele>
        <time>2010-10-10T10:34:12Z</time>
      </trkpt>
      <trkpt lat="43.23007" lon="6.34153">
        <ele>477.43</ele>
        <time>2010-10-10T10:34:22Z</time>
      </trkpt>
      <trkpt lat="43.22991" lon="6.34146">
        <ele>477.91</ele>
        <time>2010-10-10T10:34:28Z</time>
      </trkpt>
      <trkpt lat="43.22977" lon="6.34143">
        <ele>478.87</ele>
        <time>2010-10-10T10:34:34Z</time>
      </trkpt>
      <trkpt lat="43.22961" lon="6.34142">
        <ele>482.24</ele>
        <time>2010-10-10T10:34:41Z</time>
      </trkpt>
      <trkpt lat="43.22944" lon="6.34136">
        <ele>482.24</ele>
        <time>2010-10-10T10:34:48Z</time>
      </trkpt>
      <trkpt lat="43.22928" lon="6.34132">
        <ele>483.2</ele>
        <time>2010-10-10T10:34:54Z</time>
      </trkpt>
      <trkpt lat="43.22909" lon="6.34134">
        <ele>486.56</ele>
        <time>2010-10-10T10:35:01Z</time>
      </trkpt>
      <trkpt lat="43.22906" lon="6.34135">
        <ele>485.12</ele>
        <time>2010-10-10T10:35:02Z</time>
      </trkpt>
      <trkpt lat="43.22883" lon="6.34135">
        <ele>486.56</ele>
        <time>2010-10-10T10:35:11Z</time>
      </trkpt>
      <trkpt lat="43.22867" lon="6.34124">
        <ele>486.56</ele>
        <time>2010-10-10T10:35:17Z</time>
      </trkpt>
      <trkpt lat="43.22855" lon="6.34103">
        <ele>487.53</ele>
        <time>2010-10-10T10:35:24Z</time>
      </trkpt>
      <trkpt lat="43.22839" lon="6.34081">
        <ele>487.05</ele>
        <time>2010-10-10T10:35:32Z</time>
      </trkpt>
      <trkpt lat="43.22822" lon="6.34058">
        <ele>488.01</ele>
        <time>2010-10-10T10:35:39Z</time>
      </trkpt>
      <trkpt lat="43.2281" lon="6.34015">
        <ele>487.05</ele>
        <time>2010-10-10T10:35:47Z</time>
      </trkpt>
      <trkpt lat="43.22806" lon="6.34004">
        <ele>487.05</ele>
        <time>2010-10-10T10:35:49Z</time>
      </trkpt>
      <trkpt lat="43.22803" lon="6.34">
        <ele>487.53</ele>
        <time>2010-10-10T10:35:50Z</time>
      </trkpt>
      <trkpt lat="43.22779" lon="6.33963">
        <ele>486.08</ele>
        <time>2010-10-10T10:35:58Z</time>
      </trkpt>
      <trkpt lat="43.2277" lon="6.3395">
        <ele>487.53</ele>
        <time>2010-10-10T10:36:01Z</time>
      </trkpt>
      <trkpt lat="43.22765" lon="6.3394">
        <ele>488.01</ele>
        <time>2010-10-10T10:36:03Z</time>
      </trkpt>
      <trkpt lat="43.22763" lon="6.33935">
        <ele>488.01</ele>
        <time>2010-10-10T10:36:04Z</time>
      </trkpt>
      <trkpt lat="43.22742" lon="6.33901">
        <ele>488.01</ele>
        <time>2010-10-10T10:36:12Z</time>
      </trkpt>
      <trkpt lat="43.22722" lon="6.33892">
        <ele>490.41</ele>
        <time>2010-10-10T10:36:18Z</time>
      </trkpt>
      <trkpt lat="43.22716" lon="6.33892">
        <ele>490.89</ele>
        <time>2010-10-10T10:36:20Z</time>
      </trkpt>
      <trkpt lat="43.22713" lon="6.33893">
        <ele>490.41</ele>
        <time>2010-10-10T10:36:21Z</time>
      </trkpt>
      <trkpt lat="43.22711" lon="6.33892">
        <ele>490.89</ele>
        <time>2010-10-10T10:36:22Z</time>
      </trkpt>
      <trkpt lat="43.22709" lon="6.33891">
        <ele>490.89</ele>
        <time>2010-10-10T10:36:23Z</time>
      </trkpt>
      <trkpt lat="43.22706" lon="6.33889">
        <ele>491.85</ele>
        <time>2010-10-10T10:36:24Z</time>
      </trkpt>
      <trkpt lat="43.22694" lon="6.33879">
        <ele>493.29</ele>
        <time>2010-10-10T10:36:30Z</time>
      </trkpt>
      <trkpt lat="43.22694" lon="6.33868">
        <ele>493.29</ele>
        <time>2010-10-10T10:36:32Z</time>
      </trkpt>
      <trkpt lat="43.22696" lon="6.33849">
        <ele>495.7</ele>
        <time>2010-10-10T10:36:36Z</time>
      </trkpt>
      <trkpt lat="43.22695" lon="6.33847">
        <ele>496.18</ele>
        <time>2010-10-10T10:36:37Z</time>
      </trkpt>
      <trkpt lat="43.22685" lon="6.33851">
        <ele>496.18</ele>
        <time>2010-10-10T10:36:41Z</time>
      </trkpt>
      <trkpt lat="43.22684" lon="6.33853">
        <ele>496.18</ele>
        <time>2010-10-10T10:36:42Z</time>
      </trkpt>
      <trkpt lat="43.22683" lon="6.33862">
        <ele>497.14</ele>
        <time>2010-10-10T10:36:45Z</time>
      </trkpt>
      <trkpt lat="43.22673" lon="6.33887">
        <ele>498.58</ele>
        <time>2010-10-10T10:36:52Z</time>
      </trkpt>
      <trkpt lat="43.22666" lon="6.33918">
        <ele>497.62</ele>
        <time>2010-10-10T10:37:00Z</time>
      </trkpt>
      <trkpt lat="43.22661" lon="6.33944">
        <ele>500.02</ele>
        <time>2010-10-10T10:37:07Z</time>
      </trkpt>
      <trkpt lat="43.22661" lon="6.33947">
        <ele>500.02</ele>
        <time>2010-10-10T10:37:08Z</time>
      </trkpt>
      <trkpt lat="43.22653" lon="6.33978">
        <ele>499.54</ele>
        <time>2010-10-10T10:37:16Z</time>
      </trkpt>
      <trkpt lat="43.22646" lon="6.3401">
        <ele>501.46</ele>
        <time>2010-10-10T10:37:24Z</time>
      </trkpt>
      <trkpt lat="43.22642" lon="6.34037">
        <ele>503.87</ele>
        <time>2010-10-10T10:37:31Z</time>
      </trkpt>
      <trkpt lat="43.22638" lon="6.34059">
        <ele>505.79</ele>
        <time>2010-10-10T10:37:37Z</time>
      </trkpt>
      <trkpt lat="43.22647" lon="6.34079">
        <ele>504.83</ele>
        <time>2010-10-10T10:37:42Z</time>
      </trkpt>
      <trkpt lat="43.22655" lon="6.34109">
        <ele>505.79</ele>
        <time>2010-10-10T10:37:49Z</time>
      </trkpt>
      <trkpt lat="43.22656" lon="6.34139">
        <ele>506.27</ele>
        <time>2010-10-10T10:37:56Z</time>
      </trkpt>
      <trkpt lat="43.22647" lon="6.34157">
        <ele>506.27</ele>
        <time>2010-10-10T10:38:01Z</time>
      </trkpt>
      <trkpt lat="43.22628" lon="6.34168">
        <ele>506.27</ele>
        <time>2010-10-10T10:38:07Z</time>
      </trkpt>
      <trkpt lat="43.22604" lon="6.34172">
        <ele>506.75</ele>
        <time>2010-10-10T10:38:14Z</time>
      </trkpt>
      <trkpt lat="43.2258" lon="6.34176">
        <ele>507.71</ele>
        <time>2010-10-10T10:38:21Z</time>
      </trkpt>
      <trkpt lat="43.2256" lon="6.34182">
        <ele>507.71</ele>
        <time>2010-10-10T10:38:27Z</time>
      </trkpt>
      <trkpt lat="43.22545" lon="6.34202">
        <ele>507.71</ele>
        <time>2010-10-10T10:38:33Z</time>
      </trkpt>
      <trkpt lat="43.22536" lon="6.34213">
        <ele>507.71</ele>
        <time>2010-10-10T10:38:37Z</time>
      </trkpt>
      <trkpt lat="43.22524" lon="6.34205">
        <ele>508.19</ele>
        <time>2010-10-10T10:38:42Z</time>
      </trkpt>
      <trkpt lat="43.22523" lon="6.34201">
        <ele>508.67</ele>
        <time>2010-10-10T10:38:43Z</time>
      </trkpt>
      <trkpt lat="43.22522" lon="6.34189">
        <ele>510.12</ele>
        <time>2010-10-10T10:38:46Z</time>
      </trkpt>
      <trkpt lat="43.2252" lon="6.34167">
        <ele>510.6</ele>
        <time>2010-10-10T10:38:51Z</time>
      </trkpt>
      <trkpt lat="43.22519" lon="6.34131">
        <ele>512.04</ele>
        <time>2010-10-10T10:38:59Z</time>
      </trkpt>
      <trkpt lat="43.22518" lon="6.34112">
        <ele>513</ele>
        <time>2010-10-10T10:39:04Z</time>
      </trkpt>
      <trkpt lat="43.22515" lon="6.34104">
        <ele>513.48</ele>
        <time>2010-10-10T10:39:07Z</time>
      </trkpt>
      <trkpt lat="43.22502" lon="6.34091">
        <ele>514.92</ele>
        <time>2010-10-10T10:39:14Z</time>
      </trkpt>
      <trkpt lat="43.22474" lon="6.3408">
        <ele>516.37</ele>
        <time>2010-10-10T10:39:23Z</time>
      </trkpt>
      <trkpt lat="43.22463" lon="6.34073">
        <ele>517.33</ele>
        <time>2010-10-10T10:39:27Z</time>
      </trkpt>
      <trkpt lat="43.22459" lon="6.34072">
        <ele>518.29</ele>
        <time>2010-10-10T10:39:28Z</time>
      </trkpt>
      <trkpt lat="43.22456" lon="6.34071">
        <ele>518.29</ele>
        <time>2010-10-10T10:39:29Z</time>
      </trkpt>
      <trkpt lat="43.22454" lon="6.34068">
        <ele>518.77</ele>
        <time>2010-10-10T10:39:30Z</time>
      </trkpt>
      <trkpt lat="43.22453" lon="6.34066">
        <ele>518.77</ele>
        <time>2010-10-10T10:39:31Z</time>
      </trkpt>
      <trkpt lat="43.22452" lon="6.34063">
        <ele>518.77</ele>
        <time>2010-10-10T10:39:32Z</time>
      </trkpt>
      <trkpt lat="43.22452" lon="6.34059">
        <ele>519.73</ele>
        <time>2010-10-10T10:39:33Z</time>
      </trkpt>
      <trkpt lat="43.22453" lon="6.34055">
        <ele>519.25</ele>
        <time>2010-10-10T10:39:34Z</time>
      </trkpt>
      <trkpt lat="43.22455" lon="6.34052">
        <ele>519.73</ele>
        <time>2010-10-10T10:39:35Z</time>
      </trkpt>
      <trkpt lat="43.22457" lon="6.3405">
        <ele>519.25</ele>
        <time>2010-10-10T10:39:36Z</time>
      </trkpt>
      <trkpt lat="43.22459" lon="6.34048">
        <ele>519.25</ele>
        <time>2010-10-10T10:39:37Z</time>
      </trkpt>
      <trkpt lat="43.22461" lon="6.34047">
        <ele>518.77</ele>
        <time>2010-10-10T10:39:38Z</time>
      </trkpt>
      <trkpt lat="43.22462" lon="6.34047">
        <ele>518.77</ele>
        <time>2010-10-10T10:39:39Z</time>
      </trkpt>
      <trkpt lat="43.22464" lon="6.34045">
        <ele>519.25</ele>
        <time>2010-10-10T10:39:40Z</time>
      </trkpt>
      <trkpt lat="43.22466" lon="6.34044">
        <ele>519.25</ele>
        <time>2010-10-10T10:39:41Z</time>
      </trkpt>
      <trkpt lat="43.22469" lon="6.34043">
        <ele>519.25</ele>
        <time>2010-10-10T10:39:42Z</time>
      </trkpt>
      <trkpt lat="43.22471" lon="6.34042">
        <ele>522.61</ele>
        <time>2010-10-10T10:39:43Z</time>
      </trkpt>
      <trkpt lat="43.22474" lon="6.3404">
        <ele>520.69</ele>
        <time>2010-10-10T10:39:44Z</time>
      </trkpt>
      <trkpt lat="43.22479" lon="6.34037">
        <ele>520.21</ele>
        <time>2010-10-10T10:39:46Z</time>
      </trkpt>
      <trkpt lat="43.22499" lon="6.34026">
        <ele>516.85</ele>
        <time>2010-10-10T10:39:54Z</time>
      </trkpt>
      <trkpt lat="43.22501" lon="6.34025">
        <ele>522.61</ele>
        <time>2010-10-10T10:39:55Z</time>
      </trkpt>
      <trkpt lat="43.22511" lon="6.34016">
        <ele>523.58</ele>
        <time>2010-10-10T10:40:00Z</time>
      </trkpt>
      <trkpt lat="43.22527" lon="6.34007">
        <ele>524.06</ele>
        <time>2010-10-10T10:40:06Z</time>
      </trkpt>
      <trkpt lat="43.22543" lon="6.33997">
        <ele>525.5</ele>
        <time>2010-10-10T10:40:12Z</time>
      </trkpt>
      <trkpt lat="43.22553" lon="6.3398">
        <ele>526.46</ele>
        <time>2010-10-10T10:40:18Z</time>
      </trkpt>
      <trkpt lat="43.22555" lon="6.33955">
        <ele>525.98</ele>
        <time>2010-10-10T10:40:24Z</time>
      </trkpt>
      <trkpt lat="43.22551" lon="6.3394">
        <ele>526.46</ele>
        <time>2010-10-10T10:40:28Z</time>
      </trkpt>
      <trkpt lat="43.22539" lon="6.33922">
        <ele>527.9</ele>
        <time>2010-10-10T10:40:35Z</time>
      </trkpt>
      <trkpt lat="43.22526" lon="6.3391">
        <ele>529.82</ele>
        <time>2010-10-10T10:40:42Z</time>
      </trkpt>
      <trkpt lat="43.22519" lon="6.33909">
        <ele>531.75</ele>
        <time>2010-10-10T10:40:45Z</time>
      </trkpt>
      <trkpt lat="43.22506" lon="6.33912">
        <ele>532.23</ele>
        <time>2010-10-10T10:40:51Z</time>
      </trkpt>
      <trkpt lat="43.22484" lon="6.33914">
        <ele>533.67</ele>
        <time>2010-10-10T10:40:59Z</time>
      </trkpt>
      <trkpt lat="43.2247" lon="6.33908">
        <ele>533.67</ele>
        <time>2010-10-10T10:41:04Z</time>
      </trkpt>
      <trkpt lat="43.22455" lon="6.339">
        <ele>532.71</ele>
        <time>2010-10-10T10:41:11Z</time>
      </trkpt>
      <trkpt lat="43.22452" lon="6.33899">
        <ele>532.71</ele>
        <time>2010-10-10T10:41:13Z</time>
      </trkpt>
      <trkpt lat="43.2245" lon="6.33899">
        <ele>533.67</ele>
        <time>2010-10-10T10:41:14Z</time>
      </trkpt>
      <trkpt lat="43.22449" lon="6.33898">
        <ele>533.67</ele>
        <time>2010-10-10T10:41:15Z</time>
      </trkpt>
      <trkpt lat="43.22447" lon="6.33898">
        <ele>533.67</ele>
        <time>2010-10-10T10:41:16Z</time>
      </trkpt>
      <trkpt lat="43.22446" lon="6.33898">
        <ele>533.67</ele>
        <time>2010-10-10T10:41:17Z</time>
      </trkpt>
      <trkpt lat="43.22444" lon="6.33897">
        <ele>534.15</ele>
        <time>2010-10-10T10:41:19Z</time>
      </trkpt>
      <trkpt lat="43.22443" lon="6.33896">
        <ele>533.19</ele>
        <time>2010-10-10T10:41:20Z</time>
      </trkpt>
      <trkpt lat="43.22442" lon="6.33896">
        <ele>533.19</ele>
        <time>2010-10-10T10:41:21Z</time>
      </trkpt>
      <trkpt lat="43.2244" lon="6.33895">
        <ele>533.67</ele>
        <time>2010-10-10T10:41:27Z</time>
      </trkpt>
      <trkpt lat="43.2244" lon="6.33895">
        <ele>533.67</ele>
        <time>2010-10-10T10:41:42Z</time>
      </trkpt>
      <trkpt lat="43.2244" lon="6.33895">
        <ele>533.67</ele>
        <time>2010-10-10T10:41:58Z</time>
      </trkpt>
      <trkpt lat="43.2244" lon="6.33895">
        <ele>533.19</ele>
        <time>2010-10-10T10:42:16Z</time>
      </trkpt>
      <trkpt lat="43.2244" lon="6.33895">
        <ele>533.67</ele>
        <time>2010-10-10T10:42:31Z</time>
      </trkpt>
      <trkpt lat="43.22434" lon="6.33891">
        <ele>532.23</ele>
        <time>2010-10-10T10:42:33Z</time>
      </trkpt>
      <trkpt lat="43.2243" lon="6.33888">
        <ele>531.75</ele>
        <time>2010-10-10T10:42:34Z</time>
      </trkpt>
      <trkpt lat="43.2241" lon="6.33876">
        <ele>531.27</ele>
        <time>2010-10-10T10:42:38Z</time>
      </trkpt>
      <trkpt lat="43.22404" lon="6.33873">
        <ele>530.79</ele>
        <time>2010-10-10T10:42:39Z</time>
      </trkpt>
      <trkpt lat="43.22391" lon="6.33865">
        <ele>529.82</ele>
        <time>2010-10-10T10:42:41Z</time>
      </trkpt>
      <trkpt lat="43.22349" lon="6.33838">
        <ele>529.82</ele>
        <time>2010-10-10T10:42:48Z</time>
      </trkpt>
      <trkpt lat="43.22344" lon="6.33835">
        <ele>529.82</ele>
        <time>2010-10-10T10:42:49Z</time>
      </trkpt>
      <trkpt lat="43.22323" lon="6.33821">
        <ele>531.75</ele>
        <time>2010-10-10T10:42:55Z</time>
      </trkpt>
      <trkpt lat="43.22316" lon="6.33817">
        <ele>532.71</ele>
        <time>2010-10-10T10:42:57Z</time>
      </trkpt>
      <trkpt lat="43.2231" lon="6.33813">
        <ele>534.15</ele>
        <time>2010-10-10T10:42:59Z</time>
      </trkpt>
      <trkpt lat="43.22305" lon="6.33809">
        <ele>535.11</ele>
        <time>2010-10-10T10:43:01Z</time>
      </trkpt>
      <trkpt lat="43.22287" lon="6.33799">
        <ele>538.48</ele>
        <time>2010-10-10T10:43:08Z</time>
      </trkpt>
      <trkpt lat="43.22269" lon="6.3379">
        <ele>539.44</ele>
        <time>2010-10-10T10:43:15Z</time>
      </trkpt>
      <trkpt lat="43.22247" lon="6.33786">
        <ele>540.88</ele>
        <time>2010-10-10T10:43:22Z</time>
      </trkpt>
      <trkpt lat="43.22227" lon="6.33778">
        <ele>541.36</ele>
        <time>2010-10-10T10:43:29Z</time>
      </trkpt>
      <trkpt lat="43.22209" lon="6.33765">
        <ele>543.28</ele>
        <time>2010-10-10T10:43:36Z</time>
      </trkpt>
      <trkpt lat="43.22192" lon="6.33751">
        <ele>543.28</ele>
        <time>2010-10-10T10:43:43Z</time>
      </trkpt>
      <trkpt lat="43.22176" lon="6.33724">
        <ele>542.32</ele>
        <time>2010-10-10T10:43:49Z</time>
      </trkpt>
      <trkpt lat="43.22156" lon="6.3368">
        <ele>541.36</ele>
        <time>2010-10-10T10:43:56Z</time>
      </trkpt>
      <trkpt lat="43.22143" lon="6.33655">
        <ele>540.4</ele>
        <time>2010-10-10T10:44:00Z</time>
      </trkpt>
      <trkpt lat="43.2214" lon="6.33649">
        <ele>539.92</ele>
        <time>2010-10-10T10:44:01Z</time>
      </trkpt>
      <trkpt lat="43.22136" lon="6.33643">
        <ele>540.4</ele>
        <time>2010-10-10T10:44:02Z</time>
      </trkpt>
      <trkpt lat="43.22122" lon="6.33626">
        <ele>540.4</ele>
        <time>2010-10-10T10:44:05Z</time>
      </trkpt>
      <trkpt lat="43.22118" lon="6.33621">
        <ele>539.44</ele>
        <time>2010-10-10T10:44:06Z</time>
      </trkpt>
      <trkpt lat="43.221" lon="6.33602">
        <ele>539.92</ele>
        <time>2010-10-10T10:44:10Z</time>
      </trkpt>
      <trkpt lat="43.22064" lon="6.33572">
        <ele>537.03</ele>
        <time>2010-10-10T10:44:16Z</time>
      </trkpt>
      <trkpt lat="43.22041" lon="6.33554">
        <ele>533.67</ele>
        <time>2010-10-10T10:44:19Z</time>
      </trkpt>
      <trkpt lat="43.22011" lon="6.33537">
        <ele>530.3</ele>
        <time>2010-10-10T10:44:23Z</time>
      </trkpt>
      <trkpt lat="43.22003" lon="6.33534">
        <ele>529.82</ele>
        <time>2010-10-10T10:44:24Z</time>
      </trkpt>
      <trkpt lat="43.2198" lon="6.33524">
        <ele>526.46</ele>
        <time>2010-10-10T10:44:27Z</time>
      </trkpt>
      <trkpt lat="43.21968" lon="6.33518">
        <ele>525.98</ele>
        <time>2010-10-10T10:44:29Z</time>
      </trkpt>
      <trkpt lat="43.21965" lon="6.33515">
        <ele>526.46</ele>
        <time>2010-10-10T10:44:30Z</time>
      </trkpt>
      <trkpt lat="43.21964" lon="6.3351">
        <ele>526.46</ele>
        <time>2010-10-10T10:44:31Z</time>
      </trkpt>
      <trkpt lat="43.21965" lon="6.33506">
        <ele>525.98</ele>
        <time>2010-10-10T10:44:32Z</time>
      </trkpt>
      <trkpt lat="43.21966" lon="6.33502">
        <ele>525.5</ele>
        <time>2010-10-10T10:44:33Z</time>
      </trkpt>
      <trkpt lat="43.21968" lon="6.33499">
        <ele>525.98</ele>
        <time>2010-10-10T10:44:34Z</time>
      </trkpt>
      <trkpt lat="43.2197" lon="6.33496">
        <ele>525.98</ele>
        <time>2010-10-10T10:44:35Z</time>
      </trkpt>
      <trkpt lat="43.21972" lon="6.33494">
        <ele>525.98</ele>
        <time>2010-10-10T10:44:39Z</time>
      </trkpt>
      <trkpt lat="43.21972" lon="6.33494">
        <ele>525.02</ele>
        <time>2010-10-10T10:44:53Z</time>
      </trkpt>
      <trkpt lat="43.21973" lon="6.33493">
        <ele>524.54</ele>
        <time>2010-10-10T10:45:00Z</time>
      </trkpt>
      <trkpt lat="43.21974" lon="6.3349">
        <ele>524.06</ele>
        <time>2010-10-10T10:45:01Z</time>
      </trkpt>
      <trkpt lat="43.21975" lon="6.33486">
        <ele>523.58</ele>
        <time>2010-10-10T10:45:02Z</time>
      </trkpt>
      <trkpt lat="43.21975" lon="6.33481">
        <ele>522.61</ele>
        <time>2010-10-10T10:45:03Z</time>
      </trkpt>
      <trkpt lat="43.21975" lon="6.33476">
        <ele>522.13</ele>
        <time>2010-10-10T10:45:04Z</time>
      </trkpt>
      <trkpt lat="43.21976" lon="6.3347">
        <ele>521.17</ele>
        <time>2010-10-10T10:45:05Z</time>
      </trkpt>
      <trkpt lat="43.21977" lon="6.33465">
        <ele>519.73</ele>
        <time>2010-10-10T10:45:06Z</time>
      </trkpt>
      <trkpt lat="43.21978" lon="6.3346">
        <ele>518.77</ele>
        <time>2010-10-10T10:45:07Z</time>
      </trkpt>
      <trkpt lat="43.2198" lon="6.33456">
        <ele>517.81</ele>
        <time>2010-10-10T10:45:08Z</time>
      </trkpt>
      <trkpt lat="43.21984" lon="6.33453">
        <ele>517.33</ele>
        <time>2010-10-10T10:45:09Z</time>
      </trkpt>
      <trkpt lat="43.21988" lon="6.3345">
        <ele>516.37</ele>
        <time>2010-10-10T10:45:10Z</time>
      </trkpt>
      <trkpt lat="43.21992" lon="6.33448">
        <ele>515.88</ele>
        <time>2010-10-10T10:45:11Z</time>
      </trkpt>
      <trkpt lat="43.21997" lon="6.33447">
        <ele>515.4</ele>
        <time>2010-10-10T10:45:12Z</time>
      </trkpt>
      <trkpt lat="43.22002" lon="6.33447">
        <ele>514.44</ele>
        <time>2010-10-10T10:45:13Z</time>
      </trkpt>
      <trkpt lat="43.22008" lon="6.33447">
        <ele>513.48</ele>
        <time>2010-10-10T10:45:14Z</time>
      </trkpt>
      <trkpt lat="43.22014" lon="6.33447">
        <ele>512.52</ele>
        <time>2010-10-10T10:45:15Z</time>
      </trkpt>
      <trkpt lat="43.22021" lon="6.33448">
        <ele>511.56</ele>
        <time>2010-10-10T10:45:16Z</time>
      </trkpt>
      <trkpt lat="43.22045" lon="6.3345">
        <ele>508.19</ele>
        <time>2010-10-10T10:45:19Z</time>
      </trkpt>
      <trkpt lat="43.22053" lon="6.33449">
        <ele>507.23</ele>
        <time>2010-10-10T10:45:20Z</time>
      </trkpt>
      <trkpt lat="43.22062" lon="6.33446">
        <ele>506.27</ele>
        <time>2010-10-10T10:45:21Z</time>
      </trkpt>
      <trkpt lat="43.22071" lon="6.33441">
        <ele>505.79</ele>
        <time>2010-10-10T10:45:22Z</time>
      </trkpt>
      <trkpt lat="43.22077" lon="6.33435">
        <ele>505.31</ele>
        <time>2010-10-10T10:45:23Z</time>
      </trkpt>
      <trkpt lat="43.22082" lon="6.33428">
        <ele>503.87</ele>
        <time>2010-10-10T10:45:24Z</time>
      </trkpt>
      <trkpt lat="43.22086" lon="6.33422">
        <ele>503.39</ele>
        <time>2010-10-10T10:45:25Z</time>
      </trkpt>
      <trkpt lat="43.22096" lon="6.33412">
        <ele>501.95</ele>
        <time>2010-10-10T10:45:28Z</time>
      </trkpt>
      <trkpt lat="43.22109" lon="6.33405">
        <ele>500.98</ele>
        <time>2010-10-10T10:45:31Z</time>
      </trkpt>
      <trkpt lat="43.22115" lon="6.33402">
        <ele>500.98</ele>
        <time>2010-10-10T10:45:32Z</time>
      </trkpt>
      <trkpt lat="43.22121" lon="6.33398">
        <ele>500.98</ele>
        <time>2010-10-10T10:45:33Z</time>
      </trkpt>
      <trkpt lat="43.22127" lon="6.33394">
        <ele>500.5</ele>
        <time>2010-10-10T10:45:34Z</time>
      </trkpt>
      <trkpt lat="43.22132" lon="6.33389">
        <ele>500.02</ele>
        <time>2010-10-10T10:45:35Z</time>
      </trkpt>
      <trkpt lat="43.22137" lon="6.33384">
        <ele>499.06</ele>
        <time>2010-10-10T10:45:36Z</time>
      </trkpt>
      <trkpt lat="43.22156" lon="6.33362">
        <ele>496.18</ele>
        <time>2010-10-10T10:45:40Z</time>
      </trkpt>
      <trkpt lat="43.2216" lon="6.33355">
        <ele>495.22</ele>
        <time>2010-10-10T10:45:41Z</time>
      </trkpt>
      <trkpt lat="43.22173" lon="6.3333">
        <ele>491.37</ele>
        <time>2010-10-10T10:45:44Z</time>
      </trkpt>
      <trkpt lat="43.22195" lon="6.33299">
        <ele>486.56</ele>
        <time>2010-10-10T10:45:48Z</time>
      </trkpt>
      <trkpt lat="43.22201" lon="6.33293">
        <ele>485.12</ele>
        <time>2010-10-10T10:45:49Z</time>
      </trkpt>
      <trkpt lat="43.22208" lon="6.33288">
        <ele>484.16</ele>
        <time>2010-10-10T10:45:50Z</time>
      </trkpt>
      <trkpt lat="43.22215" lon="6.33283">
        <ele>483.68</ele>
        <time>2010-10-10T10:45:51Z</time>
      </trkpt>
      <trkpt lat="43.22227" lon="6.33276">
        <ele>481.76</ele>
        <time>2010-10-10T10:45:53Z</time>
      </trkpt>
      <trkpt lat="43.22248" lon="6.33271">
        <ele>477.91</ele>
        <time>2010-10-10T10:45:56Z</time>
      </trkpt>
      <trkpt lat="43.22257" lon="6.3327">
        <ele>477.91</ele>
        <time>2010-10-10T10:45:57Z</time>
      </trkpt>
      <trkpt lat="43.22273" lon="6.33263">
        <ele>475.51</ele>
        <time>2010-10-10T10:45:59Z</time>
      </trkpt>
      <trkpt lat="43.22287" lon="6.33256">
        <ele>473.59</ele>
        <time>2010-10-10T10:46:01Z</time>
      </trkpt>
      <trkpt lat="43.22298" lon="6.33251">
        <ele>471.18</ele>
        <time>2010-10-10T10:46:03Z</time>
      </trkpt>
      <trkpt lat="43.22302" lon="6.33248">
        <ele>470.7</ele>
        <time>2010-10-10T10:46:04Z</time>
      </trkpt>
      <trkpt lat="43.22304" lon="6.33243">
        <ele>470.7</ele>
        <time>2010-10-10T10:46:05Z</time>
      </trkpt>
      <trkpt lat="43.22306" lon="6.33239">
        <ele>469.26</ele>
        <time>2010-10-10T10:46:06Z</time>
      </trkpt>
      <trkpt lat="43.22306" lon="6.33237">
        <ele>468.3</ele>
        <time>2010-10-10T10:46:07Z</time>
      </trkpt>
      <trkpt lat="43.22301" lon="6.33229">
        <ele>466.86</ele>
        <time>2010-10-10T10:46:08Z</time>
      </trkpt>
      <trkpt lat="43.22292" lon="6.3322">
        <ele>464.93</ele>
        <time>2010-10-10T10:46:10Z</time>
      </trkpt>
      <trkpt lat="43.22283" lon="6.33212">
        <ele>463.49</ele>
        <time>2010-10-10T10:46:12Z</time>
      </trkpt>
      <trkpt lat="43.2228" lon="6.33208">
        <ele>462.05</ele>
        <time>2010-10-10T10:46:13Z</time>
      </trkpt>
      <trkpt lat="43.22277" lon="6.33203">
        <ele>461.09</ele>
        <time>2010-10-10T10:46:14Z</time>
      </trkpt>
      <trkpt lat="43.22276" lon="6.33198">
        <ele>460.61</ele>
        <time>2010-10-10T10:46:15Z</time>
      </trkpt>
      <trkpt lat="43.22275" lon="6.33192">
        <ele>459.65</ele>
        <time>2010-10-10T10:46:16Z</time>
      </trkpt>
      <trkpt lat="43.22274" lon="6.33176">
        <ele>457.72</ele>
        <time>2010-10-10T10:46:18Z</time>
      </trkpt>
      <trkpt lat="43.22275" lon="6.33168">
        <ele>457.24</ele>
        <time>2010-10-10T10:46:19Z</time>
      </trkpt>
      <trkpt lat="43.22277" lon="6.33162">
        <ele>456.28</ele>
        <time>2010-10-10T10:46:20Z</time>
      </trkpt>
      <trkpt lat="43.2228" lon="6.33156">
        <ele>455.8</ele>
        <time>2010-10-10T10:46:21Z</time>
      </trkpt>
      <trkpt lat="43.22284" lon="6.33151">
        <ele>454.36</ele>
        <time>2010-10-10T10:46:22Z</time>
      </trkpt>
      <trkpt lat="43.22288" lon="6.33146">
        <ele>453.4</ele>
        <time>2010-10-10T10:46:23Z</time>
      </trkpt>
      <trkpt lat="43.22299" lon="6.33132">
        <ele>450.03</ele>
        <time>2010-10-10T10:46:26Z</time>
      </trkpt>
      <trkpt lat="43.22302" lon="6.33126">
        <ele>449.07</ele>
        <time>2010-10-10T10:46:27Z</time>
      </trkpt>
      <trkpt lat="43.22305" lon="6.33119">
        <ele>448.59</ele>
        <time>2010-10-10T10:46:28Z</time>
      </trkpt>
      <trkpt lat="43.2231" lon="6.33105">
        <ele>446.19</ele>
        <time>2010-10-10T10:46:30Z</time>
      </trkpt>
      <trkpt lat="43.22314" lon="6.33098">
        <ele>445.71</ele>
        <time>2010-10-10T10:46:31Z</time>
      </trkpt>
      <trkpt lat="43.22318" lon="6.33093">
        <ele>444.27</ele>
        <time>2010-10-10T10:46:32Z</time>
      </trkpt>
      <trkpt lat="43.22322" lon="6.3309">
        <ele>443.31</ele>
        <time>2010-10-10T10:46:33Z</time>
      </trkpt>
      <trkpt lat="43.22326" lon="6.33088">
        <ele>442.34</ele>
        <time>2010-10-10T10:46:34Z</time>
      </trkpt>
      <trkpt lat="43.22329" lon="6.33085">
        <ele>441.38</ele>
        <time>2010-10-10T10:46:35Z</time>
      </trkpt>
      <trkpt lat="43.22337" lon="6.33081">
        <ele>439.94</ele>
        <time>2010-10-10T10:46:37Z</time>
      </trkpt>
      <trkpt lat="43.22348" lon="6.33073">
        <ele>435.61</ele>
        <time>2010-10-10T10:46:40Z</time>
      </trkpt>
      <trkpt lat="43.22352" lon="6.33068">
        <ele>434.65</ele>
        <time>2010-10-10T10:46:41Z</time>
      </trkpt>
      <trkpt lat="43.22355" lon="6.33061">
        <ele>433.69</ele>
        <time>2010-10-10T10:46:42Z</time>
      </trkpt>
      <trkpt lat="43.22358" lon="6.33054">
        <ele>433.21</ele>
        <time>2010-10-10T10:46:43Z</time>
      </trkpt>
      <trkpt lat="43.22359" lon="6.33046">
        <ele>431.77</ele>
        <time>2010-10-10T10:46:44Z</time>
      </trkpt>
      <trkpt lat="43.2236" lon="6.33038">
        <ele>431.29</ele>
        <time>2010-10-10T10:46:45Z</time>
      </trkpt>
      <trkpt lat="43.22361" lon="6.3303">
        <ele>430.33</ele>
        <time>2010-10-10T10:46:46Z</time>
      </trkpt>
      <trkpt lat="43.22362" lon="6.33022">
        <ele>428.89</ele>
        <time>2010-10-10T10:46:47Z</time>
      </trkpt>
      <trkpt lat="43.22364" lon="6.33003">
        <ele>425.52</ele>
        <time>2010-10-10T10:46:49Z</time>
      </trkpt>
      <trkpt lat="43.22364" lon="6.32992">
        <ele>424.56</ele>
        <time>2010-10-10T10:46:50Z</time>
      </trkpt>
      <trkpt lat="43.22363" lon="6.32964">
        <ele>421.68</ele>
        <time>2010-10-10T10:46:53Z</time>
      </trkpt>
      <trkpt lat="43.22361" lon="6.32957">
        <ele>420.71</ele>
        <time>2010-10-10T10:46:54Z</time>
      </trkpt>
      <trkpt lat="43.22359" lon="6.32953">
        <ele>420.71</ele>
        <time>2010-10-10T10:46:55Z</time>
      </trkpt>
      <trkpt lat="43.22357" lon="6.32951">
        <ele>420.23</ele>
        <time>2010-10-10T10:46:56Z</time>
      </trkpt>
      <trkpt lat="43.22355" lon="6.32951">
        <ele>420.71</ele>
        <time>2010-10-10T10:46:57Z</time>
      </trkpt>
      <trkpt lat="43.22349" lon="6.32947">
        <ele>421.19</ele>
        <time>2010-10-10T10:47:07Z</time>
      </trkpt>
      <trkpt lat="43.22348" lon="6.32945">
        <ele>420.23</ele>
        <time>2010-10-10T10:47:20Z</time>
      </trkpt>
      <trkpt lat="43.22348" lon="6.32942">
        <ele>420.23</ele>
        <time>2010-10-10T10:47:21Z</time>
      </trkpt>
      <trkpt lat="43.22348" lon="6.32939">
        <ele>420.23</ele>
        <time>2010-10-10T10:47:22Z</time>
      </trkpt>
      <trkpt lat="43.22347" lon="6.32934">
        <ele>419.75</ele>
        <time>2010-10-10T10:47:23Z</time>
      </trkpt>
      <trkpt lat="43.22348" lon="6.3293">
        <ele>419.27</ele>
        <time>2010-10-10T10:47:24Z</time>
      </trkpt>
      <trkpt lat="43.22348" lon="6.32924">
        <ele>418.31</ele>
        <time>2010-10-10T10:47:25Z</time>
      </trkpt>
      <trkpt lat="43.22347" lon="6.3291">
        <ele>416.87</ele>
        <time>2010-10-10T10:47:27Z</time>
      </trkpt>
      <trkpt lat="43.22346" lon="6.32902">
        <ele>415.91</ele>
        <time>2010-10-10T10:47:28Z</time>
      </trkpt>
      <trkpt lat="43.22344" lon="6.32885">
        <ele>413.98</ele>
        <time>2010-10-10T10:47:30Z</time>
      </trkpt>
      <trkpt lat="43.22343" lon="6.32876">
        <ele>412.06</ele>
        <time>2010-10-10T10:47:31Z</time>
      </trkpt>
      <trkpt lat="43.22334" lon="6.32868">
        <ele>410.62</ele>
        <time>2010-10-10T10:47:32Z</time>
      </trkpt>
      <trkpt lat="43.22328" lon="6.32862">
        <ele>410.14</ele>
        <time>2010-10-10T10:47:33Z</time>
      </trkpt>
      <trkpt lat="43.22323" lon="6.32857">
        <ele>409.18</ele>
        <time>2010-10-10T10:47:34Z</time>
      </trkpt>
      <trkpt lat="43.22318" lon="6.32852">
        <ele>409.18</ele>
        <time>2010-10-10T10:47:35Z</time>
      </trkpt>
      <trkpt lat="43.22314" lon="6.32846">
        <ele>408.22</ele>
        <time>2010-10-10T10:47:36Z</time>
      </trkpt>
      <trkpt lat="43.22312" lon="6.3284">
        <ele>407.74</ele>
        <time>2010-10-10T10:47:37Z</time>
      </trkpt>
      <trkpt lat="43.2231" lon="6.32834">
        <ele>405.81</ele>
        <time>2010-10-10T10:47:38Z</time>
      </trkpt>
      <trkpt lat="43.2231" lon="6.32829">
        <ele>405.33</ele>
        <time>2010-10-10T10:47:39Z</time>
      </trkpt>
      <trkpt lat="43.22311" lon="6.32826">
        <ele>404.37</ele>
        <time>2010-10-10T10:47:40Z</time>
      </trkpt>
      <trkpt lat="43.22313" lon="6.32825">
        <ele>403.41</ele>
        <time>2010-10-10T10:47:41Z</time>
      </trkpt>
      <trkpt lat="43.22315" lon="6.32826">
        <ele>403.41</ele>
        <time>2010-10-10T10:47:42Z</time>
      </trkpt>
      <trkpt lat="43.22318" lon="6.32826">
        <ele>402.45</ele>
        <time>2010-10-10T10:47:43Z</time>
      </trkpt>
      <trkpt lat="43.22323" lon="6.32824">
        <ele>401.49</ele>
        <time>2010-10-10T10:47:44Z</time>
      </trkpt>
      <trkpt lat="43.22329" lon="6.3282">
        <ele>399.57</ele>
        <time>2010-10-10T10:47:45Z</time>
      </trkpt>
      <trkpt lat="43.22335" lon="6.32815">
        <ele>398.12</ele>
        <time>2010-10-10T10:47:46Z</time>
      </trkpt>
      <trkpt lat="43.22342" lon="6.32813">
        <ele>397.16</ele>
        <time>2010-10-10T10:47:47Z</time>
      </trkpt>
      <trkpt lat="43.22349" lon="6.32812">
        <ele>396.68</ele>
        <time>2010-10-10T10:47:48Z</time>
      </trkpt>
      <trkpt lat="43.22357" lon="6.32814">
        <ele>395.72</ele>
        <time>2010-10-10T10:47:49Z</time>
      </trkpt>
      <trkpt lat="43.22365" lon="6.32816">
        <ele>395.24</ele>
        <time>2010-10-10T10:47:50Z</time>
      </trkpt>
      <trkpt lat="43.22388" lon="6.32821">
        <ele>391.39</ele>
        <time>2010-10-10T10:47:53Z</time>
      </trkpt>
      <trkpt lat="43.22395" lon="6.3282">
        <ele>390.91</ele>
        <time>2010-10-10T10:47:54Z</time>
      </trkpt>
      <trkpt lat="43.22403" lon="6.32818">
        <ele>388.99</ele>
        <time>2010-10-10T10:47:55Z</time>
      </trkpt>
      <trkpt lat="43.22411" lon="6.32816">
        <ele>387.07</ele>
        <time>2010-10-10T10:47:56Z</time>
      </trkpt>
      <trkpt lat="43.22418" lon="6.32816">
        <ele>386.59</ele>
        <time>2010-10-10T10:47:57Z</time>
      </trkpt>
      <trkpt lat="43.22427" lon="6.32816">
        <ele>385.15</ele>
        <time>2010-10-10T10:47:58Z</time>
      </trkpt>
      <trkpt lat="43.22435" lon="6.32815">
        <ele>382.74</ele>
        <time>2010-10-10T10:47:59Z</time>
      </trkpt>
      <trkpt lat="43.22442" lon="6.32813">
        <ele>382.26</ele>
        <time>2010-10-10T10:48:00Z</time>
      </trkpt>
      <trkpt lat="43.22457" lon="6.3281">
        <ele>378.42</ele>
        <time>2010-10-10T10:48:02Z</time>
      </trkpt>
      <trkpt lat="43.22464" lon="6.32806">
        <ele>377.94</ele>
        <time>2010-10-10T10:48:03Z</time>
      </trkpt>
      <trkpt lat="43.2247" lon="6.32802">
        <ele>377.45</ele>
        <time>2010-10-10T10:48:04Z</time>
      </trkpt>
      <trkpt lat="43.22489" lon="6.32794">
        <ele>373.13</ele>
        <time>2010-10-10T10:48:07Z</time>
      </trkpt>
      <trkpt lat="43.22501" lon="6.3279">
        <ele>370.24</ele>
        <time>2010-10-10T10:48:09Z</time>
      </trkpt>
      <trkpt lat="43.22506" lon="6.32792">
        <ele>368.32</ele>
        <time>2010-10-10T10:48:10Z</time>
      </trkpt>
      <trkpt lat="43.22513" lon="6.32794">
        <ele>365.92</ele>
        <time>2010-10-10T10:48:11Z</time>
      </trkpt>
      <trkpt lat="43.2252" lon="6.32794">
        <ele>364.96</ele>
        <time>2010-10-10T10:48:12Z</time>
      </trkpt>
      <trkpt lat="43.22526" lon="6.32792">
        <ele>364.48</ele>
        <time>2010-10-10T10:48:13Z</time>
      </trkpt>
      <trkpt lat="43.22532" lon="6.32788">
        <ele>364</ele>
        <time>2010-10-10T10:48:14Z</time>
      </trkpt>
      <trkpt lat="43.22545" lon="6.32782">
        <ele>363.52</ele>
        <time>2010-10-10T10:48:16Z</time>
      </trkpt>
      <trkpt lat="43.2255" lon="6.32777">
        <ele>364</ele>
        <time>2010-10-10T10:48:17Z</time>
      </trkpt>
      <trkpt lat="43.22556" lon="6.32773">
        <ele>364.48</ele>
        <time>2010-10-10T10:48:18Z</time>
      </trkpt>
      <trkpt lat="43.22566" lon="6.32758">
        <ele>364.96</ele>
        <time>2010-10-10T10:48:22Z</time>
      </trkpt>
      <trkpt lat="43.22575" lon="6.32746">
        <ele>364</ele>
        <time>2010-10-10T10:48:25Z</time>
      </trkpt>
      <trkpt lat="43.22578" lon="6.32741">
        <ele>363.52</ele>
        <time>2010-10-10T10:48:26Z</time>
      </trkpt>
      <trkpt lat="43.22588" lon="6.32725">
        <ele>363.04</ele>
        <time>2010-10-10T10:48:29Z</time>
      </trkpt>
      <trkpt lat="43.22591" lon="6.32719">
        <ele>362.07</ele>
        <time>2010-10-10T10:48:30Z</time>
      </trkpt>
      <trkpt lat="43.22594" lon="6.32713">
        <ele>362.55</ele>
        <time>2010-10-10T10:48:31Z</time>
      </trkpt>
      <trkpt lat="43.22597" lon="6.32708">
        <ele>362.55</ele>
        <time>2010-10-10T10:48:32Z</time>
      </trkpt>
      <trkpt lat="43.22599" lon="6.32704">
        <ele>362.07</ele>
        <time>2010-10-10T10:48:33Z</time>
      </trkpt>
      <trkpt lat="43.22601" lon="6.32702">
        <ele>361.59</ele>
        <time>2010-10-10T10:48:37Z</time>
      </trkpt>
      <trkpt lat="43.22604" lon="6.32699">
        <ele>361.59</ele>
        <time>2010-10-10T10:48:39Z</time>
      </trkpt>
      <trkpt lat="43.22605" lon="6.32697">
        <ele>361.59</ele>
        <time>2010-10-10T10:48:40Z</time>
      </trkpt>
      <trkpt lat="43.22608" lon="6.32695">
        <ele>361.11</ele>
        <time>2010-10-10T10:48:41Z</time>
      </trkpt>
      <trkpt lat="43.22611" lon="6.32692">
        <ele>361.11</ele>
        <time>2010-10-10T10:48:42Z</time>
      </trkpt>
      <trkpt lat="43.22615" lon="6.32689">
        <ele>361.11</ele>
        <time>2010-10-10T10:48:43Z</time>
      </trkpt>
      <trkpt lat="43.22618" lon="6.32685">
        <ele>360.15</ele>
        <time>2010-10-10T10:48:44Z</time>
      </trkpt>
      <trkpt lat="43.22621" lon="6.32681">
        <ele>360.15</ele>
        <time>2010-10-10T10:48:45Z</time>
      </trkpt>
      <trkpt lat="43.22624" lon="6.32677">
        <ele>360.15</ele>
        <time>2010-10-10T10:48:46Z</time>
      </trkpt>
      <trkpt lat="43.22627" lon="6.32672">
        <ele>360.63</ele>
        <time>2010-10-10T10:48:47Z</time>
      </trkpt>
      <trkpt lat="43.2263" lon="6.32667">
        <ele>360.63</ele>
        <time>2010-10-10T10:48:48Z</time>
      </trkpt>
      <trkpt lat="43.22647" lon="6.32629">
        <ele>361.59</ele>
        <time>2010-10-10T10:48:54Z</time>
      </trkpt>
      <trkpt lat="43.22655" lon="6.32611">
        <ele>362.07</ele>
        <time>2010-10-10T10:48:58Z</time>
      </trkpt>
      <trkpt lat="43.22664" lon="6.32591">
        <ele>363.04</ele>
        <time>2010-10-10T10:49:03Z</time>
      </trkpt>
      <trkpt lat="43.22673" lon="6.32569">
        <ele>364</ele>
        <time>2010-10-10T10:49:09Z</time>
      </trkpt>
      <trkpt lat="43.22679" lon="6.32556">
        <ele>364.48</ele>
        <time>2010-10-10T10:49:14Z</time>
      </trkpt>
      <trkpt lat="43.22686" lon="6.32545">
        <ele>365.92</ele>
        <time>2010-10-10T10:49:20Z</time>
      </trkpt>
      <trkpt lat="43.22692" lon="6.32537">
        <ele>367.36</ele>
        <time>2010-10-10T10:49:25Z</time>
      </trkpt>
      <trkpt lat="43.22694" lon="6.32535">
        <ele>367.84</ele>
        <time>2010-10-10T10:49:26Z</time>
      </trkpt>
      <trkpt lat="43.22699" lon="6.32524">
        <ele>370.24</ele>
        <time>2010-10-10T10:49:33Z</time>
      </trkpt>
      <trkpt lat="43.227" lon="6.32522">
        <ele>371.21</ele>
        <time>2010-10-10T10:49:34Z</time>
      </trkpt>
      <trkpt lat="43.22703" lon="6.32513">
        <ele>373.13</ele>
        <time>2010-10-10T10:49:39Z</time>
      </trkpt>
      <trkpt lat="43.22704" lon="6.32511">
        <ele>373.13</ele>
        <time>2010-10-10T10:49:40Z</time>
      </trkpt>
      <trkpt lat="43.22707" lon="6.32492">
        <ele>374.57</ele>
        <time>2010-10-10T10:49:48Z</time>
      </trkpt>
      <trkpt lat="43.22708" lon="6.3249">
        <ele>375.05</ele>
        <time>2010-10-10T10:49:49Z</time>
      </trkpt>
      <trkpt lat="43.22723" lon="6.32474">
        <ele>374.57</ele>
        <time>2010-10-10T10:49:57Z</time>
      </trkpt>
      <trkpt lat="43.22733" lon="6.32454">
        <ele>374.57</ele>
        <time>2010-10-10T10:50:04Z</time>
      </trkpt>
      <trkpt lat="43.22737" lon="6.32448">
        <ele>374.57</ele>
        <time>2010-10-10T10:50:07Z</time>
      </trkpt>
      <trkpt lat="43.22738" lon="6.32445">
        <ele>374.57</ele>
        <time>2010-10-10T10:50:08Z</time>
      </trkpt>
      <trkpt lat="43.22739" lon="6.32442">
        <ele>374.09</ele>
        <time>2010-10-10T10:50:09Z</time>
      </trkpt>
      <trkpt lat="43.22746" lon="6.32427">
        <ele>374.09</ele>
        <time>2010-10-10T10:50:13Z</time>
      </trkpt>
      <trkpt lat="43.22746" lon="6.32423">
        <ele>374.57</ele>
        <time>2010-10-10T10:50:14Z</time>
      </trkpt>
      <trkpt lat="43.22746" lon="6.32395">
        <ele>374.09</ele>
        <time>2010-10-10T10:50:20Z</time>
      </trkpt>
      <trkpt lat="43.2275" lon="6.32365">
        <ele>374.57</ele>
        <time>2010-10-10T10:50:26Z</time>
      </trkpt>
      <trkpt lat="43.22754" lon="6.32359">
        <ele>376.01</ele>
        <time>2010-10-10T10:50:28Z</time>
      </trkpt>
      <trkpt lat="43.22756" lon="6.32357">
        <ele>376.49</ele>
        <time>2010-10-10T10:50:29Z</time>
      </trkpt>
      <trkpt lat="43.22757" lon="6.32354">
        <ele>376.01</ele>
        <time>2010-10-10T10:50:30Z</time>
      </trkpt>
      <trkpt lat="43.22762" lon="6.32338">
        <ele>373.61</ele>
        <time>2010-10-10T10:50:35Z</time>
      </trkpt>
      <trkpt lat="43.22762" lon="6.32332">
        <ele>372.17</ele>
        <time>2010-10-10T10:50:37Z</time>
      </trkpt>
      <trkpt lat="43.22762" lon="6.32326">
        <ele>371.69</ele>
        <time>2010-10-10T10:50:43Z</time>
      </trkpt>
      <trkpt lat="43.22762" lon="6.32325">
        <ele>372.17</ele>
        <time>2010-10-10T10:50:44Z</time>
      </trkpt>
      <trkpt lat="43.22763" lon="6.32324">
        <ele>372.17</ele>
        <time>2010-10-10T10:50:45Z</time>
      </trkpt>
      <trkpt lat="43.22764" lon="6.32322">
        <ele>372.17</ele>
        <time>2010-10-10T10:50:46Z</time>
      </trkpt>
      <trkpt lat="43.22766" lon="6.32318">
        <ele>373.13</ele>
        <time>2010-10-10T10:50:49Z</time>
      </trkpt>
      <trkpt lat="43.22764" lon="6.32294">
        <ele>372.17</ele>
        <time>2010-10-10T10:50:55Z</time>
      </trkpt>
      <trkpt lat="43.22763" lon="6.32274">
        <ele>371.21</ele>
        <time>2010-10-10T10:50:59Z</time>
      </trkpt>
      <trkpt lat="43.22765" lon="6.32267">
        <ele>372.65</ele>
        <time>2010-10-10T10:51:03Z</time>
      </trkpt>
      <trkpt lat="43.22767" lon="6.32262">
        <ele>373.61</ele>
        <time>2010-10-10T10:51:09Z</time>
      </trkpt>
      <trkpt lat="43.22766" lon="6.3226">
        <ele>373.61</ele>
        <time>2010-10-10T10:51:11Z</time>
      </trkpt>
      <trkpt lat="43.22765" lon="6.32254">
        <ele>374.09</ele>
        <time>2010-10-10T10:51:16Z</time>
      </trkpt>
      <trkpt lat="43.22764" lon="6.32251">
        <ele>374.57</ele>
        <time>2010-10-10T10:51:17Z</time>
      </trkpt>
      <trkpt lat="43.22764" lon="6.32249">
        <ele>373.61</ele>
        <time>2010-10-10T10:51:18Z</time>
      </trkpt>
      <trkpt lat="43.22764" lon="6.32245">
        <ele>374.09</ele>
        <time>2010-10-10T10:51:19Z</time>
      </trkpt>
      <trkpt lat="43.22764" lon="6.32241">
        <ele>374.09</ele>
        <time>2010-10-10T10:51:20Z</time>
      </trkpt>
      <trkpt lat="43.22764" lon="6.32237">
        <ele>374.09</ele>
        <time>2010-10-10T10:51:21Z</time>
      </trkpt>
      <trkpt lat="43.22764" lon="6.32232">
        <ele>373.61</ele>
        <time>2010-10-10T10:51:22Z</time>
      </trkpt>
      <trkpt lat="43.22764" lon="6.32227">
        <ele>373.61</ele>
        <time>2010-10-10T10:51:23Z</time>
      </trkpt>
      <trkpt lat="43.22763" lon="6.32222">
        <ele>372.65</ele>
        <time>2010-10-10T10:51:24Z</time>
      </trkpt>
      <trkpt lat="43.22763" lon="6.32217">
        <ele>373.13</ele>
        <time>2010-10-10T10:51:25Z</time>
      </trkpt>
      <trkpt lat="43.22763" lon="6.32203">
        <ele>372.65</ele>
        <time>2010-10-10T10:51:29Z</time>
      </trkpt>
      <trkpt lat="43.22762" lon="6.322">
        <ele>372.17</ele>
        <time>2010-10-10T10:51:30Z</time>
      </trkpt>
      <trkpt lat="43.22761" lon="6.32196">
        <ele>371.69</ele>
        <time>2010-10-10T10:51:31Z</time>
      </trkpt>
      <trkpt lat="43.2276" lon="6.32193">
        <ele>371.21</ele>
        <time>2010-10-10T10:51:32Z</time>
      </trkpt>
      <trkpt lat="43.2276" lon="6.32191">
        <ele>370.73</ele>
        <time>2010-10-10T10:51:36Z</time>
      </trkpt>
      <trkpt lat="43.22759" lon="6.32189">
        <ele>370.24</ele>
        <time>2010-10-10T10:51:40Z</time>
      </trkpt>
      <trkpt lat="43.22759" lon="6.32186">
        <ele>370.24</ele>
        <time>2010-10-10T10:51:41Z</time>
      </trkpt>
      <trkpt lat="43.22758" lon="6.32182">
        <ele>369.76</ele>
        <time>2010-10-10T10:51:42Z</time>
      </trkpt>
      <trkpt lat="43.22757" lon="6.32179">
        <ele>370.24</ele>
        <time>2010-10-10T10:51:43Z</time>
      </trkpt>
      <trkpt lat="43.22755" lon="6.32175">
        <ele>369.28</ele>
        <time>2010-10-10T10:51:44Z</time>
      </trkpt>
      <trkpt lat="43.22754" lon="6.32171">
        <ele>368.8</ele>
        <time>2010-10-10T10:51:45Z</time>
      </trkpt>
      <trkpt lat="43.22753" lon="6.32167">
        <ele>369.28</ele>
        <time>2010-10-10T10:51:46Z</time>
      </trkpt>
      <trkpt lat="43.22747" lon="6.32151">
        <ele>370.24</ele>
        <time>2010-10-10T10:51:51Z</time>
      </trkpt>
      <trkpt lat="43.22743" lon="6.32141">
        <ele>370.24</ele>
        <time>2010-10-10T10:51:54Z</time>
      </trkpt>
      <trkpt lat="43.22741" lon="6.32139">
        <ele>370.24</ele>
        <time>2010-10-10T10:51:55Z</time>
      </trkpt>
      <trkpt lat="43.22739" lon="6.32136">
        <ele>370.24</ele>
        <time>2010-10-10T10:51:56Z</time>
      </trkpt>
      <trkpt lat="43.22728" lon="6.32116">
        <ele>369.28</ele>
        <time>2010-10-10T10:52:01Z</time>
      </trkpt>
      <trkpt lat="43.22722" lon="6.32107">
        <ele>368.8</ele>
        <time>2010-10-10T10:52:03Z</time>
      </trkpt>
      <trkpt lat="43.2272" lon="6.32102">
        <ele>368.32</ele>
        <time>2010-10-10T10:52:04Z</time>
      </trkpt>
      <trkpt lat="43.22719" lon="6.32097">
        <ele>367.36</ele>
        <time>2010-10-10T10:52:05Z</time>
      </trkpt>
      <trkpt lat="43.22717" lon="6.32092">
        <ele>367.36</ele>
        <time>2010-10-10T10:52:06Z</time>
      </trkpt>
      <trkpt lat="43.22717" lon="6.32087">
        <ele>367.36</ele>
        <time>2010-10-10T10:52:07Z</time>
      </trkpt>
      <trkpt lat="43.22717" lon="6.32082">
        <ele>366.88</ele>
        <time>2010-10-10T10:52:08Z</time>
      </trkpt>
      <trkpt lat="43.22718" lon="6.32078">
        <ele>366.4</ele>
        <time>2010-10-10T10:52:09Z</time>
      </trkpt>
      <trkpt lat="43.22729" lon="6.32061">
        <ele>366.4</ele>
        <time>2010-10-10T10:52:14Z</time>
      </trkpt>
      <trkpt lat="43.22741" lon="6.32043">
        <ele>366.88</ele>
        <time>2010-10-10T10:52:19Z</time>
      </trkpt>
      <trkpt lat="43.22751" lon="6.32027">
        <ele>366.4</ele>
        <time>2010-10-10T10:52:24Z</time>
      </trkpt>
      <trkpt lat="43.22761" lon="6.32007">
        <ele>367.84</ele>
        <time>2010-10-10T10:52:31Z</time>
      </trkpt>
      <trkpt lat="43.22763" lon="6.31999">
        <ele>369.28</ele>
        <time>2010-10-10T10:52:37Z</time>
      </trkpt>
      <trkpt lat="43.22764" lon="6.31999">
        <ele>368.8</ele>
        <time>2010-10-10T10:52:46Z</time>
      </trkpt>
      <trkpt lat="43.22767" lon="6.31992">
        <ele>368.32</ele>
        <time>2010-10-10T10:52:52Z</time>
      </trkpt>
      <trkpt lat="43.22768" lon="6.3199">
        <ele>367.36</ele>
        <time>2010-10-10T10:52:53Z</time>
      </trkpt>
      <trkpt lat="43.22769" lon="6.31989">
        <ele>367.84</ele>
        <time>2010-10-10T10:52:54Z</time>
      </trkpt>
      <trkpt lat="43.2277" lon="6.31987">
        <ele>367.84</ele>
        <time>2010-10-10T10:52:55Z</time>
      </trkpt>
      <trkpt lat="43.22771" lon="6.31985">
        <ele>367.84</ele>
        <time>2010-10-10T10:52:56Z</time>
      </trkpt>
      <trkpt lat="43.22782" lon="6.31975">
        <ele>369.28</ele>
        <time>2010-10-10T10:53:02Z</time>
      </trkpt>
      <trkpt lat="43.22788" lon="6.31972">
        <ele>370.24</ele>
        <time>2010-10-10T10:53:05Z</time>
      </trkpt>
      <trkpt lat="43.2279" lon="6.31972">
        <ele>370.73</ele>
        <time>2010-10-10T10:53:06Z</time>
      </trkpt>
      <trkpt lat="43.22791" lon="6.31972">
        <ele>370.73</ele>
        <time>2010-10-10T10:53:07Z</time>
      </trkpt>
      <trkpt lat="43.22792" lon="6.31971">
        <ele>370.73</ele>
        <time>2010-10-10T10:53:08Z</time>
      </trkpt>
      <trkpt lat="43.22793" lon="6.31969">
        <ele>371.21</ele>
        <time>2010-10-10T10:53:09Z</time>
      </trkpt>
      <trkpt lat="43.22795" lon="6.31968">
        <ele>371.21</ele>
        <time>2010-10-10T10:53:10Z</time>
      </trkpt>
      <trkpt lat="43.22796" lon="6.31966">
        <ele>371.21</ele>
        <time>2010-10-10T10:53:11Z</time>
      </trkpt>
      <trkpt lat="43.22805" lon="6.31954">
        <ele>371.21</ele>
        <time>2010-10-10T10:53:16Z</time>
      </trkpt>
      <trkpt lat="43.22816" lon="6.31942">
        <ele>369.28</ele>
        <time>2010-10-10T10:53:20Z</time>
      </trkpt>
      <trkpt lat="43.22822" lon="6.31933">
        <ele>368.8</ele>
        <time>2010-10-10T10:53:22Z</time>
      </trkpt>
      <trkpt lat="43.22824" lon="6.31928">
        <ele>368.8</ele>
        <time>2010-10-10T10:53:23Z</time>
      </trkpt>
      <trkpt lat="43.22825" lon="6.31924">
        <ele>368.8</ele>
        <time>2010-10-10T10:53:24Z</time>
      </trkpt>
      <trkpt lat="43.22825" lon="6.3192">
        <ele>369.28</ele>
        <time>2010-10-10T10:53:25Z</time>
      </trkpt>
      <trkpt lat="43.22824" lon="6.31918">
        <ele>368.8</ele>
        <time>2010-10-10T10:53:30Z</time>
      </trkpt>
      <trkpt lat="43.22821" lon="6.31914">
        <ele>368.32</ele>
        <time>2010-10-10T10:53:32Z</time>
      </trkpt>
      <trkpt lat="43.22819" lon="6.3191">
        <ele>368.32</ele>
        <time>2010-10-10T10:53:37Z</time>
      </trkpt>
      <trkpt lat="43.22821" lon="6.31904">
        <ele>369.28</ele>
        <time>2010-10-10T10:53:45Z</time>
      </trkpt>
      <trkpt lat="43.22822" lon="6.31901">
        <ele>369.28</ele>
        <time>2010-10-10T10:53:51Z</time>
      </trkpt>
      <trkpt lat="43.22822" lon="6.31899">
        <ele>369.28</ele>
        <time>2010-10-10T10:53:53Z</time>
      </trkpt>
      <trkpt lat="43.2282" lon="6.31893">
        <ele>368.8</ele>
        <time>2010-10-10T10:53:55Z</time>
      </trkpt>
      <trkpt lat="43.22819" lon="6.3189">
        <ele>367.84</ele>
        <time>2010-10-10T10:53:56Z</time>
      </trkpt>
      <trkpt lat="43.22819" lon="6.31886">
        <ele>367.36</ele>
        <time>2010-10-10T10:53:57Z</time>
      </trkpt>
      <trkpt lat="43.22819" lon="6.31882">
        <ele>367.36</ele>
        <time>2010-10-10T10:53:58Z</time>
      </trkpt>
      <trkpt lat="43.2282" lon="6.31865">
        <ele>364.96</ele>
        <time>2010-10-10T10:54:03Z</time>
      </trkpt>
      <trkpt lat="43.2282" lon="6.31863">
        <ele>364</ele>
        <time>2010-10-10T10:54:04Z</time>
      </trkpt>
      <trkpt lat="43.22821" lon="6.31862">
        <ele>364.48</ele>
        <time>2010-10-10T10:54:09Z</time>
      </trkpt>
      <trkpt lat="43.22821" lon="6.31858">
        <ele>363.52</ele>
        <time>2010-10-10T10:54:17Z</time>
      </trkpt>
      <trkpt lat="43.22821" lon="6.31854">
        <ele>363.04</ele>
        <time>2010-10-10T10:54:18Z</time>
      </trkpt>
      <trkpt lat="43.22821" lon="6.31851">
        <ele>363.04</ele>
        <time>2010-10-10T10:54:19Z</time>
      </trkpt>
      <trkpt lat="43.22822" lon="6.31847">
        <ele>362.55</ele>
        <time>2010-10-10T10:54:20Z</time>
      </trkpt>
      <trkpt lat="43.22821" lon="6.31842">
        <ele>362.07</ele>
        <time>2010-10-10T10:54:21Z</time>
      </trkpt>
      <trkpt lat="43.22821" lon="6.31838">
        <ele>361.59</ele>
        <time>2010-10-10T10:54:22Z</time>
      </trkpt>
      <trkpt lat="43.22821" lon="6.31834">
        <ele>361.11</ele>
        <time>2010-10-10T10:54:23Z</time>
      </trkpt>
      <trkpt lat="43.22822" lon="6.31828">
        <ele>360.15</ele>
        <time>2010-10-10T10:54:24Z</time>
      </trkpt>
      <trkpt lat="43.22822" lon="6.31822">
        <ele>360.15</ele>
        <time>2010-10-10T10:54:25Z</time>
      </trkpt>
      <trkpt lat="43.22824" lon="6.31816">
        <ele>360.15</ele>
        <time>2010-10-10T10:54:26Z</time>
      </trkpt>
      <trkpt lat="43.22825" lon="6.31812">
        <ele>360.63</ele>
        <time>2010-10-10T10:54:27Z</time>
      </trkpt>
      <trkpt lat="43.22826" lon="6.31809">
        <ele>361.11</ele>
        <time>2010-10-10T10:54:28Z</time>
      </trkpt>
      <trkpt lat="43.22827" lon="6.31806">
        <ele>361.11</ele>
        <time>2010-10-10T10:54:29Z</time>
      </trkpt>
      <trkpt lat="43.22829" lon="6.31784">
        <ele>361.59</ele>
        <time>2010-10-10T10:54:35Z</time>
      </trkpt>
      <trkpt lat="43.2283" lon="6.3177">
        <ele>359.67</ele>
        <time>2010-10-10T10:54:38Z</time>
      </trkpt>
      <trkpt lat="43.22832" lon="6.31765">
        <ele>359.19</ele>
        <time>2010-10-10T10:54:39Z</time>
      </trkpt>
      <trkpt lat="43.22835" lon="6.3176">
        <ele>359.19</ele>
        <time>2010-10-10T10:54:40Z</time>
      </trkpt>
      <trkpt lat="43.22837" lon="6.31756">
        <ele>358.71</ele>
        <time>2010-10-10T10:54:41Z</time>
      </trkpt>
      <trkpt lat="43.2284" lon="6.31754">
        <ele>359.19</ele>
        <time>2010-10-10T10:54:42Z</time>
      </trkpt>
      <trkpt lat="43.22842" lon="6.31754">
        <ele>359.19</ele>
        <time>2010-10-10T10:54:43Z</time>
      </trkpt>
      <trkpt lat="43.22844" lon="6.31754">
        <ele>359.67</ele>
        <time>2010-10-10T10:54:44Z</time>
      </trkpt>
      <trkpt lat="43.22847" lon="6.31752">
        <ele>359.67</ele>
        <time>2010-10-10T10:54:45Z</time>
      </trkpt>
      <trkpt lat="43.22849" lon="6.3175">
        <ele>359.67</ele>
        <time>2010-10-10T10:54:46Z</time>
      </trkpt>
      <trkpt lat="43.22865" lon="6.31737">
        <ele>357.27</ele>
        <time>2010-10-10T10:54:51Z</time>
      </trkpt>
      <trkpt lat="43.22867" lon="6.31737">
        <ele>356.79</ele>
        <time>2010-10-10T10:54:53Z</time>
      </trkpt>
      <trkpt lat="43.22869" lon="6.31738">
        <ele>358.23</ele>
        <time>2010-10-10T10:55:01Z</time>
      </trkpt>
      <trkpt lat="43.22869" lon="6.31738">
        <ele>357.75</ele>
        <time>2010-10-10T10:55:19Z</time>
      </trkpt>
      <trkpt lat="43.22869" lon="6.31738">
        <ele>357.27</ele>
        <time>2010-10-10T10:55:36Z</time>
      </trkpt>
      <trkpt lat="43.22871" lon="6.31738">
        <ele>357.75</ele>
        <time>2010-10-10T10:55:43Z</time>
      </trkpt>
      <trkpt lat="43.22872" lon="6.31738">
        <ele>357.27</ele>
        <time>2010-10-10T10:55:44Z</time>
      </trkpt>
      <trkpt lat="43.22874" lon="6.31738">
        <ele>356.79</ele>
        <time>2010-10-10T10:55:45Z</time>
      </trkpt>
      <trkpt lat="43.22877" lon="6.31736">
        <ele>356.31</ele>
        <time>2010-10-10T10:55:46Z</time>
      </trkpt>
      <trkpt lat="43.22879" lon="6.31734">
        <ele>355.34</ele>
        <time>2010-10-10T10:55:47Z</time>
      </trkpt>
      <trkpt lat="43.2288" lon="6.31731">
        <ele>354.38</ele>
        <time>2010-10-10T10:55:48Z</time>
      </trkpt>
      <trkpt lat="43.22882" lon="6.31729">
        <ele>353.42</ele>
        <time>2010-10-10T10:55:49Z</time>
      </trkpt>
      <trkpt lat="43.22884" lon="6.31727">
        <ele>352.46</ele>
        <time>2010-10-10T10:55:50Z</time>
      </trkpt>
      <trkpt lat="43.22885" lon="6.31725">
        <ele>351.5</ele>
        <time>2010-10-10T10:55:51Z</time>
      </trkpt>
      <trkpt lat="43.22887" lon="6.31722">
        <ele>351.5</ele>
        <time>2010-10-10T10:55:52Z</time>
      </trkpt>
      <trkpt lat="43.22889" lon="6.31719">
        <ele>351.5</ele>
        <time>2010-10-10T10:55:53Z</time>
      </trkpt>
      <trkpt lat="43.22891" lon="6.31715">
        <ele>351.5</ele>
        <time>2010-10-10T10:55:54Z</time>
      </trkpt>
      <trkpt lat="43.22893" lon="6.31713">
        <ele>351.02</ele>
        <time>2010-10-10T10:55:55Z</time>
      </trkpt>
      <trkpt lat="43.22896" lon="6.31712">
        <ele>350.54</ele>
        <time>2010-10-10T10:55:56Z</time>
      </trkpt>
      <trkpt lat="43.22898" lon="6.31709">
        <ele>350.06</ele>
        <time>2010-10-10T10:55:57Z</time>
      </trkpt>
      <trkpt lat="43.22901" lon="6.31707">
        <ele>349.58</ele>
        <time>2010-10-10T10:55:58Z</time>
      </trkpt>
      <trkpt lat="43.22903" lon="6.31704">
        <ele>348.62</ele>
        <time>2010-10-10T10:55:59Z</time>
      </trkpt>
      <trkpt lat="43.22904" lon="6.31699">
        <ele>348.13</ele>
        <time>2010-10-10T10:56:00Z</time>
      </trkpt>
      <trkpt lat="43.22905" lon="6.31694">
        <ele>347.65</ele>
        <time>2010-10-10T10:56:01Z</time>
      </trkpt>
      <trkpt lat="43.22908" lon="6.31677">
        <ele>346.21</ele>
        <time>2010-10-10T10:56:04Z</time>
      </trkpt>
      <trkpt lat="43.22908" lon="6.31672">
        <ele>345.73</ele>
        <time>2010-10-10T10:56:05Z</time>
      </trkpt>
      <trkpt lat="43.2291" lon="6.31666">
        <ele>344.29</ele>
        <time>2010-10-10T10:56:06Z</time>
      </trkpt>
      <trkpt lat="43.22914" lon="6.31653">
        <ele>342.37</ele>
        <time>2010-10-10T10:56:08Z</time>
      </trkpt>
      <trkpt lat="43.22916" lon="6.31646">
        <ele>341.41</ele>
        <time>2010-10-10T10:56:09Z</time>
      </trkpt>
      <trkpt lat="43.22922" lon="6.31633">
        <ele>339</ele>
        <time>2010-10-10T10:56:11Z</time>
      </trkpt>
      <trkpt lat="43.22925" lon="6.31626">
        <ele>338.52</ele>
        <time>2010-10-10T10:56:12Z</time>
      </trkpt>
      <trkpt lat="43.22929" lon="6.31613">
        <ele>337.08</ele>
        <time>2010-10-10T10:56:14Z</time>
      </trkpt>
      <trkpt lat="43.22931" lon="6.31608">
        <ele>337.08</ele>
        <time>2010-10-10T10:56:15Z</time>
      </trkpt>
      <trkpt lat="43.22934" lon="6.31605">
        <ele>336.6</ele>
        <time>2010-10-10T10:56:16Z</time>
      </trkpt>
      <trkpt lat="43.22937" lon="6.31601">
        <ele>336.12</ele>
        <time>2010-10-10T10:56:17Z</time>
      </trkpt>
      <trkpt lat="43.2294" lon="6.316">
        <ele>336.12</ele>
        <time>2010-10-10T10:56:18Z</time>
      </trkpt>
      <trkpt lat="43.22942" lon="6.316">
        <ele>335.64</ele>
        <time>2010-10-10T10:56:19Z</time>
      </trkpt>
      <trkpt lat="43.22949" lon="6.31605">
        <ele>333.23</ele>
        <time>2010-10-10T10:56:23Z</time>
      </trkpt>
      <trkpt lat="43.22952" lon="6.31609">
        <ele>330.83</ele>
        <time>2010-10-10T10:56:26Z</time>
      </trkpt>
      <trkpt lat="43.22955" lon="6.31609">
        <ele>330.35</ele>
        <time>2010-10-10T10:56:27Z</time>
      </trkpt>
      <trkpt lat="43.22962" lon="6.31607">
        <ele>328.91</ele>
        <time>2010-10-10T10:56:30Z</time>
      </trkpt>
      <trkpt lat="43.22967" lon="6.31606">
        <ele>327.47</ele>
        <time>2010-10-10T10:56:33Z</time>
      </trkpt>
      <trkpt lat="43.22969" lon="6.31607">
        <ele>326.5</ele>
        <time>2010-10-10T10:56:34Z</time>
      </trkpt>
      <trkpt lat="43.22971" lon="6.31607">
        <ele>326.5</ele>
        <time>2010-10-10T10:56:35Z</time>
      </trkpt>
      <trkpt lat="43.22972" lon="6.31606">
        <ele>326.5</ele>
        <time>2010-10-10T10:56:36Z</time>
      </trkpt>
      <trkpt lat="43.22974" lon="6.31605">
        <ele>326.02</ele>
        <time>2010-10-10T10:56:37Z</time>
      </trkpt>
      <trkpt lat="43.22981" lon="6.31598">
        <ele>324.1</ele>
        <time>2010-10-10T10:56:42Z</time>
      </trkpt>
      <trkpt lat="43.22983" lon="6.31598">
        <ele>323.62</ele>
        <time>2010-10-10T10:56:43Z</time>
      </trkpt>
      <trkpt lat="43.22988" lon="6.31595">
        <ele>322.18</ele>
        <time>2010-10-10T10:56:46Z</time>
      </trkpt>
      <trkpt lat="43.22992" lon="6.31593">
        <ele>320.26</ele>
        <time>2010-10-10T10:56:48Z</time>
      </trkpt>
      <trkpt lat="43.22993" lon="6.31592">
        <ele>319.78</ele>
        <time>2010-10-10T10:56:49Z</time>
      </trkpt>
      <trkpt lat="43.22995" lon="6.3159">
        <ele>319.78</ele>
        <time>2010-10-10T10:56:50Z</time>
      </trkpt>
      <trkpt lat="43.22997" lon="6.31587">
        <ele>318.33</ele>
        <time>2010-10-10T10:56:51Z</time>
      </trkpt>
      <trkpt lat="43.22999" lon="6.31584">
        <ele>317.37</ele>
        <time>2010-10-10T10:56:52Z</time>
      </trkpt>
      <trkpt lat="43.23001" lon="6.31582">
        <ele>316.89</ele>
        <time>2010-10-10T10:56:53Z</time>
      </trkpt>
      <trkpt lat="43.23005" lon="6.31574">
        <ele>318.33</ele>
        <time>2010-10-10T10:56:56Z</time>
      </trkpt>
      <trkpt lat="43.23013" lon="6.31561">
        <ele>314.49</ele>
        <time>2010-10-10T10:57:01Z</time>
      </trkpt>
      <trkpt lat="43.2302" lon="6.31556">
        <ele>312.09</ele>
        <time>2010-10-10T10:57:04Z</time>
      </trkpt>
      <trkpt lat="43.23021" lon="6.31553">
        <ele>312.09</ele>
        <time>2010-10-10T10:57:05Z</time>
      </trkpt>
      <trkpt lat="43.23024" lon="6.3155">
        <ele>312.57</ele>
        <time>2010-10-10T10:57:06Z</time>
      </trkpt>
      <trkpt lat="43.23032" lon="6.3154">
        <ele>313.05</ele>
        <time>2010-10-10T10:57:09Z</time>
      </trkpt>
      <trkpt lat="43.23036" lon="6.31538">
        <ele>313.05</ele>
        <time>2010-10-10T10:57:10Z</time>
      </trkpt>
      <trkpt lat="43.2304" lon="6.31537">
        <ele>312.57</ele>
        <time>2010-10-10T10:57:11Z</time>
      </trkpt>
      <trkpt lat="43.23044" lon="6.31534">
        <ele>311.12</ele>
        <time>2010-10-10T10:57:12Z</time>
      </trkpt>
      <trkpt lat="43.23048" lon="6.31532">
        <ele>312.09</ele>
        <time>2010-10-10T10:57:13Z</time>
      </trkpt>
      <trkpt lat="43.23051" lon="6.3153">
        <ele>311.12</ele>
        <time>2010-10-10T10:57:14Z</time>
      </trkpt>
      <trkpt lat="43.23055" lon="6.31528">
        <ele>310.64</ele>
        <time>2010-10-10T10:57:15Z</time>
      </trkpt>
      <trkpt lat="43.23058" lon="6.31526">
        <ele>310.64</ele>
        <time>2010-10-10T10:57:16Z</time>
      </trkpt>
      <trkpt lat="43.23062" lon="6.31525">
        <ele>309.68</ele>
        <time>2010-10-10T10:57:17Z</time>
      </trkpt>
      <trkpt lat="43.23066" lon="6.31525">
        <ele>309.2</ele>
        <time>2010-10-10T10:57:18Z</time>
      </trkpt>
      <trkpt lat="43.23085" lon="6.31525">
        <ele>308.24</ele>
        <time>2010-10-10T10:57:23Z</time>
      </trkpt>
      <trkpt lat="43.23088" lon="6.31523">
        <ele>308.72</ele>
        <time>2010-10-10T10:57:24Z</time>
      </trkpt>
      <trkpt lat="43.23091" lon="6.31522">
        <ele>308.24</ele>
        <time>2010-10-10T10:57:25Z</time>
      </trkpt>
      <trkpt lat="43.23094" lon="6.31523">
        <ele>307.76</ele>
        <time>2010-10-10T10:57:26Z</time>
      </trkpt>
      <trkpt lat="43.23096" lon="6.31524">
        <ele>307.76</ele>
        <time>2010-10-10T10:57:27Z</time>
      </trkpt>
      <trkpt lat="43.23099" lon="6.31525">
        <ele>307.28</ele>
        <time>2010-10-10T10:57:28Z</time>
      </trkpt>
      <trkpt lat="43.23112" lon="6.31534">
        <ele>306.8</ele>
        <time>2010-10-10T10:57:32Z</time>
      </trkpt>
      <trkpt lat="43.23127" lon="6.31535">
        <ele>303.91</ele>
        <time>2010-10-10T10:57:37Z</time>
      </trkpt>
      <trkpt lat="43.23129" lon="6.31536">
        <ele>303.91</ele>
        <time>2010-10-10T10:57:38Z</time>
      </trkpt>
      <trkpt lat="43.2314" lon="6.31537">
        <ele>300.55</ele>
        <time>2010-10-10T10:57:43Z</time>
      </trkpt>
      <trkpt lat="43.2315" lon="6.31533">
        <ele>296.7</ele>
        <time>2010-10-10T10:57:49Z</time>
      </trkpt>
      <trkpt lat="43.23151" lon="6.31533">
        <ele>296.22</ele>
        <time>2010-10-10T10:57:50Z</time>
      </trkpt>
      <trkpt lat="43.23153" lon="6.31532">
        <ele>295.74</ele>
        <time>2010-10-10T10:57:51Z</time>
      </trkpt>
      <trkpt lat="43.23154" lon="6.31532">
        <ele>294.78</ele>
        <time>2010-10-10T10:57:52Z</time>
      </trkpt>
      <trkpt lat="43.23155" lon="6.31532">
        <ele>294.3</ele>
        <time>2010-10-10T10:57:53Z</time>
      </trkpt>
      <trkpt lat="43.23156" lon="6.31533">
        <ele>293.82</ele>
        <time>2010-10-10T10:57:54Z</time>
      </trkpt>
      <trkpt lat="43.23159" lon="6.31533">
        <ele>294.78</ele>
        <time>2010-10-10T10:57:57Z</time>
      </trkpt>
      <trkpt lat="43.23161" lon="6.31532">
        <ele>293.82</ele>
        <time>2010-10-10T10:57:58Z</time>
      </trkpt>
      <trkpt lat="43.23162" lon="6.31531">
        <ele>293.34</ele>
        <time>2010-10-10T10:57:59Z</time>
      </trkpt>
      <trkpt lat="43.23163" lon="6.31529">
        <ele>292.86</ele>
        <time>2010-10-10T10:58:00Z</time>
      </trkpt>
      <trkpt lat="43.23164" lon="6.31527">
        <ele>292.38</ele>
        <time>2010-10-10T10:58:01Z</time>
      </trkpt>
      <trkpt lat="43.23165" lon="6.31525">
        <ele>291.9</ele>
        <time>2010-10-10T10:58:02Z</time>
      </trkpt>
      <trkpt lat="43.23166" lon="6.31523">
        <ele>291.42</ele>
        <time>2010-10-10T10:58:03Z</time>
      </trkpt>
      <trkpt lat="43.23168" lon="6.31521">
        <ele>290.94</ele>
        <time>2010-10-10T10:58:04Z</time>
      </trkpt>
      <trkpt lat="43.23169" lon="6.3152">
        <ele>290.94</ele>
        <time>2010-10-10T10:58:05Z</time>
      </trkpt>
      <trkpt lat="43.2317" lon="6.3152">
        <ele>290.46</ele>
        <time>2010-10-10T10:58:06Z</time>
      </trkpt>
      <trkpt lat="43.23171" lon="6.31519">
        <ele>289.97</ele>
        <time>2010-10-10T10:58:07Z</time>
      </trkpt>
      <trkpt lat="43.23177" lon="6.31516">
        <ele>287.57</ele>
        <time>2010-10-10T10:58:11Z</time>
      </trkpt>
      <trkpt lat="43.2318" lon="6.31512">
        <ele>286.61</ele>
        <time>2010-10-10T10:58:13Z</time>
      </trkpt>
      <trkpt lat="43.23181" lon="6.31509">
        <ele>286.61</ele>
        <time>2010-10-10T10:58:14Z</time>
      </trkpt>
      <trkpt lat="43.23181" lon="6.31507">
        <ele>286.61</ele>
        <time>2010-10-10T10:58:15Z</time>
      </trkpt>
      <trkpt lat="43.23186" lon="6.31497">
        <ele>284.69</ele>
        <time>2010-10-10T10:58:19Z</time>
      </trkpt>
      <trkpt lat="43.23195" lon="6.31482">
        <ele>282.28</ele>
        <time>2010-10-10T10:58:24Z</time>
      </trkpt>
      <trkpt lat="43.23197" lon="6.31474">
        <ele>281.8</ele>
        <time>2010-10-10T10:58:26Z</time>
      </trkpt>
      <trkpt lat="43.23213" lon="6.31459">
        <ele>278.92</ele>
        <time>2010-10-10T10:58:32Z</time>
      </trkpt>
      <trkpt lat="43.23229" lon="6.31447">
        <ele>277.96</ele>
        <time>2010-10-10T10:58:37Z</time>
      </trkpt>
      <trkpt lat="43.23232" lon="6.31444">
        <ele>277.96</ele>
        <time>2010-10-10T10:58:38Z</time>
      </trkpt>
      <trkpt lat="43.23242" lon="6.31434">
        <ele>278.44</ele>
        <time>2010-10-10T10:58:41Z</time>
      </trkpt>
      <trkpt lat="43.23245" lon="6.31435">
        <ele>277.96</ele>
        <time>2010-10-10T10:58:42Z</time>
      </trkpt>
      <trkpt lat="43.23247" lon="6.31436">
        <ele>277.48</ele>
        <time>2010-10-10T10:58:43Z</time>
      </trkpt>
      <trkpt lat="43.2325" lon="6.31436">
        <ele>277.96</ele>
        <time>2010-10-10T10:58:44Z</time>
      </trkpt>
      <trkpt lat="43.23252" lon="6.31439">
        <ele>277.48</ele>
        <time>2010-10-10T10:58:45Z</time>
      </trkpt>
      <trkpt lat="43.23254" lon="6.31442">
        <ele>277</ele>
        <time>2010-10-10T10:58:46Z</time>
      </trkpt>
      <trkpt lat="43.23257" lon="6.31444">
        <ele>277.48</ele>
        <time>2010-10-10T10:58:47Z</time>
      </trkpt>
      <trkpt lat="43.2326" lon="6.31446">
        <ele>277.48</ele>
        <time>2010-10-10T10:58:48Z</time>
      </trkpt>
      <trkpt lat="43.23267" lon="6.31447">
        <ele>276.04</ele>
        <time>2010-10-10T10:58:50Z</time>
      </trkpt>
      <trkpt lat="43.23283" lon="6.31439">
        <ele>275.07</ele>
        <time>2010-10-10T10:58:55Z</time>
      </trkpt>
      <trkpt lat="43.23286" lon="6.3144">
        <ele>275.07</ele>
        <time>2010-10-10T10:58:56Z</time>
      </trkpt>
      <trkpt lat="43.23289" lon="6.3144">
        <ele>275.07</ele>
        <time>2010-10-10T10:58:57Z</time>
      </trkpt>
      <trkpt lat="43.23292" lon="6.3144">
        <ele>275.07</ele>
        <time>2010-10-10T10:58:58Z</time>
      </trkpt>
      <trkpt lat="43.23295" lon="6.31438">
        <ele>274.59</ele>
        <time>2010-10-10T10:58:59Z</time>
      </trkpt>
      <trkpt lat="43.23297" lon="6.31437">
        <ele>275.07</ele>
        <time>2010-10-10T10:59:00Z</time>
      </trkpt>
      <trkpt lat="43.23299" lon="6.31435">
        <ele>274.11</ele>
        <time>2010-10-10T10:59:01Z</time>
      </trkpt>
      <trkpt lat="43.23301" lon="6.31435">
        <ele>274.11</ele>
        <time>2010-10-10T10:59:02Z</time>
      </trkpt>
      <trkpt lat="43.23304" lon="6.31435">
        <ele>274.59</ele>
        <time>2010-10-10T10:59:03Z</time>
      </trkpt>
      <trkpt lat="43.23306" lon="6.31436">
        <ele>273.15</ele>
        <time>2010-10-10T10:59:04Z</time>
      </trkpt>
      <trkpt lat="43.23309" lon="6.31436">
        <ele>273.15</ele>
        <time>2010-10-10T10:59:05Z</time>
      </trkpt>
      <trkpt lat="43.23311" lon="6.31435">
        <ele>272.19</ele>
        <time>2010-10-10T10:59:06Z</time>
      </trkpt>
      <trkpt lat="43.23312" lon="6.31434">
        <ele>271.71</ele>
        <time>2010-10-10T10:59:07Z</time>
      </trkpt>
      <trkpt lat="43.23313" lon="6.31432">
        <ele>271.23</ele>
        <time>2010-10-10T10:59:08Z</time>
      </trkpt>
      <trkpt lat="43.23314" lon="6.31431">
        <ele>270.27</ele>
        <time>2010-10-10T10:59:09Z</time>
      </trkpt>
      <trkpt lat="43.23315" lon="6.31429">
        <ele>270.27</ele>
        <time>2010-10-10T10:59:10Z</time>
      </trkpt>
      <trkpt lat="43.23319" lon="6.31421">
        <ele>267.86</ele>
        <time>2010-10-10T10:59:15Z</time>
      </trkpt>
      <trkpt lat="43.23321" lon="6.3142">
        <ele>267.86</ele>
        <time>2010-10-10T10:59:21Z</time>
      </trkpt>
      <trkpt lat="43.23322" lon="6.31417">
        <ele>265.94</ele>
        <time>2010-10-10T10:59:27Z</time>
      </trkpt>
      <trkpt lat="43.23322" lon="6.31416">
        <ele>266.9</ele>
        <time>2010-10-10T10:59:34Z</time>
      </trkpt>
      <trkpt lat="43.23324" lon="6.31416">
        <ele>265.94</ele>
        <time>2010-10-10T10:59:39Z</time>
      </trkpt>
      <trkpt lat="43.23327" lon="6.31414">
        <ele>264.98</ele>
        <time>2010-10-10T10:59:42Z</time>
      </trkpt>
      <trkpt lat="43.23328" lon="6.31414">
        <ele>264.5</ele>
        <time>2010-10-10T10:59:43Z</time>
      </trkpt>
      <trkpt lat="43.2333" lon="6.31413">
        <ele>263.54</ele>
        <time>2010-10-10T10:59:44Z</time>
      </trkpt>
      <trkpt lat="43.23333" lon="6.31414">
        <ele>262.58</ele>
        <time>2010-10-10T10:59:48Z</time>
      </trkpt>
      <trkpt lat="43.23339" lon="6.31412">
        <ele>261.14</ele>
        <time>2010-10-10T10:59:51Z</time>
      </trkpt>
      <trkpt lat="43.2335" lon="6.31401">
        <ele>256.81</ele>
        <time>2010-10-10T10:59:55Z</time>
      </trkpt>
      <trkpt lat="43.23355" lon="6.31395">
        <ele>254.41</ele>
        <time>2010-10-10T10:59:57Z</time>
      </trkpt>
      <trkpt lat="43.23362" lon="6.3139">
        <ele>252</ele>
        <time>2010-10-10T11:00:00Z</time>
      </trkpt>
      <trkpt lat="43.23363" lon="6.31389">
        <ele>251.52</ele>
        <time>2010-10-10T11:00:01Z</time>
      </trkpt>
      <trkpt lat="43.23371" lon="6.31386">
        <ele>250.08</ele>
        <time>2010-10-10T11:00:03Z</time>
      </trkpt>
      <trkpt lat="43.23376" lon="6.31383">
        <ele>248.64</ele>
        <time>2010-10-10T11:00:05Z</time>
      </trkpt>
      <trkpt lat="43.23381" lon="6.31382">
        <ele>248.16</ele>
        <time>2010-10-10T11:00:07Z</time>
      </trkpt>
      <trkpt lat="43.23384" lon="6.31383">
        <ele>248.16</ele>
        <time>2010-10-10T11:00:09Z</time>
      </trkpt>
      <trkpt lat="43.23392" lon="6.3139">
        <ele>244.79</ele>
        <time>2010-10-10T11:00:16Z</time>
      </trkpt>
      <trkpt lat="43.23393" lon="6.31391">
        <ele>243.83</ele>
        <time>2010-10-10T11:00:17Z</time>
      </trkpt>
      <trkpt lat="43.234" lon="6.31396">
        <ele>239.51</ele>
        <time>2010-10-10T11:00:22Z</time>
      </trkpt>
      <trkpt lat="43.23401" lon="6.31397">
        <ele>239.02</ele>
        <time>2010-10-10T11:00:23Z</time>
      </trkpt>
      <trkpt lat="43.23405" lon="6.31397">
        <ele>238.06</ele>
        <time>2010-10-10T11:00:27Z</time>
      </trkpt>
      <trkpt lat="43.23406" lon="6.31394">
        <ele>237.58</ele>
        <time>2010-10-10T11:00:31Z</time>
      </trkpt>
      <trkpt lat="43.23411" lon="6.31395">
        <ele>235.18</ele>
        <time>2010-10-10T11:00:38Z</time>
      </trkpt>
      <trkpt lat="43.23413" lon="6.31394">
        <ele>233.74</ele>
        <time>2010-10-10T11:00:43Z</time>
      </trkpt>
      <trkpt lat="43.23417" lon="6.31394">
        <ele>231.81</ele>
        <time>2010-10-10T11:00:49Z</time>
      </trkpt>
      <trkpt lat="43.23419" lon="6.31391">
        <ele>231.81</ele>
        <time>2010-10-10T11:00:52Z</time>
      </trkpt>
      <trkpt lat="43.23424" lon="6.31384">
        <ele>229.89</ele>
        <time>2010-10-10T11:00:55Z</time>
      </trkpt>
      <trkpt lat="43.23432" lon="6.31372">
        <ele>226.53</ele>
        <time>2010-10-10T11:01:00Z</time>
      </trkpt>
      <trkpt lat="43.23435" lon="6.31367">
        <ele>224.61</ele>
        <time>2010-10-10T11:01:03Z</time>
      </trkpt>
      <trkpt lat="43.23435" lon="6.31364">
        <ele>224.61</ele>
        <time>2010-10-10T11:01:04Z</time>
      </trkpt>
      <trkpt lat="43.23442" lon="6.31357">
        <ele>221.72</ele>
        <time>2010-10-10T11:01:08Z</time>
      </trkpt>
      <trkpt lat="43.23445" lon="6.3135">
        <ele>220.28</ele>
        <time>2010-10-10T11:01:11Z</time>
      </trkpt>
      <trkpt lat="43.23449" lon="6.31347">
        <ele>219.32</ele>
        <time>2010-10-10T11:01:13Z</time>
      </trkpt>
      <trkpt lat="43.23455" lon="6.31337">
        <ele>218.84</ele>
        <time>2010-10-10T11:01:17Z</time>
      </trkpt>
      <trkpt lat="43.2347" lon="6.31331">
        <ele>215.47</ele>
        <time>2010-10-10T11:01:22Z</time>
      </trkpt>
      <trkpt lat="43.23482" lon="6.31308">
        <ele>214.03</ele>
        <time>2010-10-10T11:01:28Z</time>
      </trkpt>
      <trkpt lat="43.23492" lon="6.31295">
        <ele>213.55</ele>
        <time>2010-10-10T11:01:34Z</time>
      </trkpt>
      <trkpt lat="43.23492" lon="6.31295">
        <ele>213.55</ele>
        <time>2010-10-10T11:01:44Z</time>
      </trkpt>
      <trkpt lat="43.23492" lon="6.31295">
        <ele>214.03</ele>
        <time>2010-10-10T11:01:59Z</time>
      </trkpt>
      <trkpt lat="43.23493" lon="6.31294">
        <ele>213.07</ele>
        <time>2010-10-10T11:02:14Z</time>
      </trkpt>
      <trkpt lat="43.23504" lon="6.31291">
        <ele>211.15</ele>
        <time>2010-10-10T11:02:21Z</time>
      </trkpt>
      <trkpt lat="43.23511" lon="6.31286">
        <ele>210.19</ele>
        <time>2010-10-10T11:02:23Z</time>
      </trkpt>
      <trkpt lat="43.23526" lon="6.31272">
        <ele>208.26</ele>
        <time>2010-10-10T11:02:27Z</time>
      </trkpt>
      <trkpt lat="43.23529" lon="6.3127">
        <ele>207.3</ele>
        <time>2010-10-10T11:02:28Z</time>
      </trkpt>
      <trkpt lat="43.23531" lon="6.31266">
        <ele>205.86</ele>
        <time>2010-10-10T11:02:29Z</time>
      </trkpt>
      <trkpt lat="43.23535" lon="6.31262">
        <ele>205.38</ele>
        <time>2010-10-10T11:02:30Z</time>
      </trkpt>
      <trkpt lat="43.23538" lon="6.31257">
        <ele>204.42</ele>
        <time>2010-10-10T11:02:31Z</time>
      </trkpt>
      <trkpt lat="43.23541" lon="6.3125">
        <ele>203.46</ele>
        <time>2010-10-10T11:02:32Z</time>
      </trkpt>
      <trkpt lat="43.23543" lon="6.31245">
        <ele>202.49</ele>
        <time>2010-10-10T11:02:33Z</time>
      </trkpt>
      <trkpt lat="43.23546" lon="6.31241">
        <ele>202.49</ele>
        <time>2010-10-10T11:02:34Z</time>
      </trkpt>
      <trkpt lat="43.23549" lon="6.31237">
        <ele>201.53</ele>
        <time>2010-10-10T11:02:35Z</time>
      </trkpt>
      <trkpt lat="43.23553" lon="6.31233">
        <ele>200.57</ele>
        <time>2010-10-10T11:02:36Z</time>
      </trkpt>
      <trkpt lat="43.23556" lon="6.31229">
        <ele>200.09</ele>
        <time>2010-10-10T11:02:37Z</time>
      </trkpt>
      <trkpt lat="43.2356" lon="6.31226">
        <ele>199.61</ele>
        <time>2010-10-10T11:02:38Z</time>
      </trkpt>
      <trkpt lat="43.23563" lon="6.31226">
        <ele>198.17</ele>
        <time>2010-10-10T11:02:39Z</time>
      </trkpt>
      <trkpt lat="43.23567" lon="6.31226">
        <ele>197.21</ele>
        <time>2010-10-10T11:02:40Z</time>
      </trkpt>
      <trkpt lat="43.23572" lon="6.31226">
        <ele>194.8</ele>
        <time>2010-10-10T11:02:41Z</time>
      </trkpt>
      <trkpt lat="43.23577" lon="6.31224">
        <ele>193.84</ele>
        <time>2010-10-10T11:02:42Z</time>
      </trkpt>
      <trkpt lat="43.23582" lon="6.3122">
        <ele>193.36</ele>
        <time>2010-10-10T11:02:43Z</time>
      </trkpt>
      <trkpt lat="43.23587" lon="6.31217">
        <ele>191.92</ele>
        <time>2010-10-10T11:02:44Z</time>
      </trkpt>
      <trkpt lat="43.23593" lon="6.31213">
        <ele>191.92</ele>
        <time>2010-10-10T11:02:45Z</time>
      </trkpt>
      <trkpt lat="43.23599" lon="6.3121">
        <ele>191.44</ele>
        <time>2010-10-10T11:02:46Z</time>
      </trkpt>
      <trkpt lat="43.23605" lon="6.31207">
        <ele>190.96</ele>
        <time>2010-10-10T11:02:47Z</time>
      </trkpt>
      <trkpt lat="43.23618" lon="6.31202">
        <ele>190</ele>
        <time>2010-10-10T11:02:49Z</time>
      </trkpt>
      <trkpt lat="43.23633" lon="6.31199">
        <ele>187.11</ele>
        <time>2010-10-10T11:02:51Z</time>
      </trkpt>
      <trkpt lat="43.23645" lon="6.31195">
        <ele>186.63</ele>
        <time>2010-10-10T11:02:53Z</time>
      </trkpt>
      <trkpt lat="43.23662" lon="6.31192">
        <ele>186.15</ele>
        <time>2010-10-10T11:02:57Z</time>
      </trkpt>
      <trkpt lat="43.23667" lon="6.3119">
        <ele>185.67</ele>
        <time>2010-10-10T11:02:58Z</time>
      </trkpt>
      <trkpt lat="43.23671" lon="6.31186">
        <ele>186.15</ele>
        <time>2010-10-10T11:02:59Z</time>
      </trkpt>
      <trkpt lat="43.23675" lon="6.31182">
        <ele>185.67</ele>
        <time>2010-10-10T11:03:00Z</time>
      </trkpt>
      <trkpt lat="43.23678" lon="6.31178">
        <ele>185.67</ele>
        <time>2010-10-10T11:03:01Z</time>
      </trkpt>
      <trkpt lat="43.2368" lon="6.31173">
        <ele>186.15</ele>
        <time>2010-10-10T11:03:02Z</time>
      </trkpt>
      <trkpt lat="43.23681" lon="6.31168">
        <ele>185.67</ele>
        <time>2010-10-10T11:03:03Z</time>
      </trkpt>
      <trkpt lat="43.23681" lon="6.31163">
        <ele>185.19</ele>
        <time>2010-10-10T11:03:04Z</time>
      </trkpt>
      <trkpt lat="43.23679" lon="6.31158">
        <ele>184.71</ele>
        <time>2010-10-10T11:03:05Z</time>
      </trkpt>
      <trkpt lat="43.23676" lon="6.31154">
        <ele>184.71</ele>
        <time>2010-10-10T11:03:06Z</time>
      </trkpt>
      <trkpt lat="43.23672" lon="6.31149">
        <ele>184.23</ele>
        <time>2010-10-10T11:03:07Z</time>
      </trkpt>
      <trkpt lat="43.23669" lon="6.31145">
        <ele>183.75</ele>
        <time>2010-10-10T11:03:08Z</time>
      </trkpt>
      <trkpt lat="43.23665" lon="6.31142">
        <ele>184.23</ele>
        <time>2010-10-10T11:03:09Z</time>
      </trkpt>
      <trkpt lat="43.23662" lon="6.31137">
        <ele>183.75</ele>
        <time>2010-10-10T11:03:10Z</time>
      </trkpt>
      <trkpt lat="43.23659" lon="6.31133">
        <ele>183.27</ele>
        <time>2010-10-10T11:03:11Z</time>
      </trkpt>
      <trkpt lat="43.23656" lon="6.31128">
        <ele>182.31</ele>
        <time>2010-10-10T11:03:12Z</time>
      </trkpt>
      <trkpt lat="43.23651" lon="6.31125">
        <ele>182.31</ele>
        <time>2010-10-10T11:03:13Z</time>
      </trkpt>
      <trkpt lat="43.23646" lon="6.31122">
        <ele>181.83</ele>
        <time>2010-10-10T11:03:14Z</time>
      </trkpt>
      <trkpt lat="43.23641" lon="6.31117">
        <ele>181.35</ele>
        <time>2010-10-10T11:03:15Z</time>
      </trkpt>
      <trkpt lat="43.23625" lon="6.31104">
        <ele>178.94</ele>
        <time>2010-10-10T11:03:18Z</time>
      </trkpt>
      <trkpt lat="43.23599" lon="6.3109">
        <ele>175.1</ele>
        <time>2010-10-10T11:03:23Z</time>
      </trkpt>
      <trkpt lat="43.23592" lon="6.31081">
        <ele>174.14</ele>
        <time>2010-10-10T11:03:26Z</time>
      </trkpt>
      <trkpt lat="43.23593" lon="6.31077">
        <ele>173.17</ele>
        <time>2010-10-10T11:03:27Z</time>
      </trkpt>
      <trkpt lat="43.23596" lon="6.31074">
        <ele>173.17</ele>
        <time>2010-10-10T11:03:28Z</time>
      </trkpt>
      <trkpt lat="43.23599" lon="6.31073">
        <ele>172.69</ele>
        <time>2010-10-10T11:03:29Z</time>
      </trkpt>
      <trkpt lat="43.23602" lon="6.31072">
        <ele>172.69</ele>
        <time>2010-10-10T11:03:30Z</time>
      </trkpt>
      <trkpt lat="43.23617" lon="6.31069">
        <ele>170.77</ele>
        <time>2010-10-10T11:03:35Z</time>
      </trkpt>
      <trkpt lat="43.23626" lon="6.31061">
        <ele>169.33</ele>
        <time>2010-10-10T11:03:38Z</time>
      </trkpt>
      <trkpt lat="43.23632" lon="6.31051">
        <ele>167.89</ele>
        <time>2010-10-10T11:03:41Z</time>
      </trkpt>
      <trkpt lat="43.23647" lon="6.31033">
        <ele>165.48</ele>
        <time>2010-10-10T11:03:48Z</time>
      </trkpt>
      <trkpt lat="43.2365" lon="6.31028">
        <ele>165</ele>
        <time>2010-10-10T11:03:49Z</time>
      </trkpt>
      <trkpt lat="43.23656" lon="6.31015">
        <ele>164.52</ele>
        <time>2010-10-10T11:03:51Z</time>
      </trkpt>
      <trkpt lat="43.23664" lon="6.31001">
        <ele>163.08</ele>
        <time>2010-10-10T11:03:54Z</time>
      </trkpt>
      <trkpt lat="43.23671" lon="6.30998">
        <ele>162.6</ele>
        <time>2010-10-10T11:03:59Z</time>
      </trkpt>
      <trkpt lat="43.23673" lon="6.30998">
        <ele>161.16</ele>
        <time>2010-10-10T11:04:09Z</time>
      </trkpt>
      <trkpt lat="43.23679" lon="6.31">
        <ele>160.68</ele>
        <time>2010-10-10T11:04:10Z</time>
      </trkpt>
      <trkpt lat="43.23683" lon="6.31001">
        <ele>160.68</ele>
        <time>2010-10-10T11:04:11Z</time>
      </trkpt>
      <trkpt lat="43.23686" lon="6.31002">
        <ele>161.16</ele>
        <time>2010-10-10T11:04:16Z</time>
      </trkpt>
      <trkpt lat="43.23685" lon="6.31002">
        <ele>162.12</ele>
        <time>2010-10-10T11:04:24Z</time>
      </trkpt>
      <trkpt lat="43.23684" lon="6.31001">
        <ele>161.64</ele>
        <time>2010-10-10T11:04:25Z</time>
      </trkpt>
      <trkpt lat="43.23678" lon="6.31001">
        <ele>161.64</ele>
        <time>2010-10-10T11:04:32Z</time>
      </trkpt>
      <trkpt lat="43.23678" lon="6.31006">
        <ele>162.12</ele>
        <time>2010-10-10T11:04:38Z</time>
      </trkpt>
      <trkpt lat="43.23677" lon="6.3101">
        <ele>162.6</ele>
        <time>2010-10-10T11:04:44Z</time>
      </trkpt>
      <trkpt lat="43.23677" lon="6.3101">
        <ele>162.12</ele>
        <time>2010-10-10T11:04:53Z</time>
      </trkpt>
      <trkpt lat="43.23677" lon="6.3101">
        <ele>162.6</ele>
        <time>2010-10-10T11:05:10Z</time>
      </trkpt>
      <trkpt lat="43.23677" lon="6.3101">
        <ele>162.6</ele>
        <time>2010-10-10T11:05:18Z</time>
      </trkpt>
      <trkpt lat="43.23678" lon="6.31009">
        <ele>162.6</ele>
        <time>2010-10-10T11:05:22Z</time>
      </trkpt>
      <trkpt lat="43.23678" lon="6.31006">
        <ele>162.6</ele>
        <time>2010-10-10T11:05:23Z</time>
      </trkpt>
      <trkpt lat="43.23678" lon="6.31004">
        <ele>162.6</ele>
        <time>2010-10-10T11:05:24Z</time>
      </trkpt>
      <trkpt lat="43.2368" lon="6.31002">
        <ele>162.12</ele>
        <time>2010-10-10T11:05:28Z</time>
      </trkpt>
      <trkpt lat="43.23683" lon="6.31002">
        <ele>162.12</ele>
        <time>2010-10-10T11:05:29Z</time>
      </trkpt>
      <trkpt lat="43.23687" lon="6.31002">
        <ele>161.64</ele>
        <time>2010-10-10T11:05:30Z</time>
      </trkpt>
      <trkpt lat="43.23691" lon="6.31003">
        <ele>161.16</ele>
        <time>2010-10-10T11:05:31Z</time>
      </trkpt>
      <trkpt lat="43.23694" lon="6.31003">
        <ele>161.16</ele>
        <time>2010-10-10T11:05:32Z</time>
      </trkpt>
      <trkpt lat="43.23697" lon="6.31003">
        <ele>161.16</ele>
        <time>2010-10-10T11:05:33Z</time>
      </trkpt>
      <trkpt lat="43.23701" lon="6.31003">
        <ele>161.16</ele>
        <time>2010-10-10T11:05:34Z</time>
      </trkpt>
      <trkpt lat="43.23731" lon="6.30996">
        <ele>159.72</ele>
        <time>2010-10-10T11:05:42Z</time>
      </trkpt>
      <trkpt lat="43.23741" lon="6.30985">
        <ele>158.75</ele>
        <time>2010-10-10T11:05:45Z</time>
      </trkpt>
      <trkpt lat="43.23748" lon="6.30974">
        <ele>157.79</ele>
        <time>2010-10-10T11:05:47Z</time>
      </trkpt>
      <trkpt lat="43.23766" lon="6.30945">
        <ele>156.35</ele>
        <time>2010-10-10T11:05:52Z</time>
      </trkpt>
      <trkpt lat="43.23771" lon="6.3094">
        <ele>155.87</ele>
        <time>2010-10-10T11:05:53Z</time>
      </trkpt>
      <trkpt lat="43.23785" lon="6.3093">
        <ele>154.91</ele>
        <time>2010-10-10T11:05:57Z</time>
      </trkpt>
      <trkpt lat="43.23788" lon="6.30929">
        <ele>155.39</ele>
        <time>2010-10-10T11:05:58Z</time>
      </trkpt>
      <trkpt lat="43.23795" lon="6.30926">
        <ele>155.39</ele>
        <time>2010-10-10T11:06:02Z</time>
      </trkpt>
      <trkpt lat="43.23795" lon="6.30924">
        <ele>155.39</ele>
        <time>2010-10-10T11:06:03Z</time>
      </trkpt>
      <trkpt lat="43.23795" lon="6.30921">
        <ele>154.91</ele>
        <time>2010-10-10T11:06:04Z</time>
      </trkpt>
      <trkpt lat="43.23795" lon="6.30919">
        <ele>154.91</ele>
        <time>2010-10-10T11:06:05Z</time>
      </trkpt>
      <trkpt lat="43.23795" lon="6.30917">
        <ele>154.91</ele>
        <time>2010-10-10T11:06:06Z</time>
      </trkpt>
      <trkpt lat="43.23794" lon="6.30914">
        <ele>154.91</ele>
        <time>2010-10-10T11:06:07Z</time>
      </trkpt>
      <trkpt lat="43.23793" lon="6.30912">
        <ele>155.39</ele>
        <time>2010-10-10T11:06:08Z</time>
      </trkpt>
      <trkpt lat="43.23792" lon="6.3091">
        <ele>155.39</ele>
        <time>2010-10-10T11:06:09Z</time>
      </trkpt>
      <trkpt lat="43.23791" lon="6.30908">
        <ele>155.39</ele>
        <time>2010-10-10T11:06:10Z</time>
      </trkpt>
      <trkpt lat="43.23787" lon="6.30907">
        <ele>155.39</ele>
        <time>2010-10-10T11:06:12Z</time>
      </trkpt>
      <trkpt lat="43.23785" lon="6.30909">
        <ele>155.39</ele>
        <time>2010-10-10T11:06:13Z</time>
      </trkpt>
      <trkpt lat="43.23773" lon="6.30933">
        <ele>156.35</ele>
        <time>2010-10-10T11:06:21Z</time>
      </trkpt>
      <trkpt lat="43.23758" lon="6.30946">
        <ele>157.31</ele>
        <time>2010-10-10T11:06:26Z</time>
      </trkpt>
      <trkpt lat="43.23749" lon="6.30949">
        <ele>157.79</ele>
        <time>2010-10-10T11:06:30Z</time>
      </trkpt>
      <trkpt lat="43.23731" lon="6.3093">
        <ele>157.79</ele>
        <time>2010-10-10T11:06:36Z</time>
      </trkpt>
      <trkpt lat="43.23726" lon="6.30922">
        <ele>157.31</ele>
        <time>2010-10-10T11:06:38Z</time>
      </trkpt>
      <trkpt lat="43.2372" lon="6.30902">
        <ele>157.31</ele>
        <time>2010-10-10T11:06:44Z</time>
      </trkpt>
      <trkpt lat="43.23725" lon="6.30898">
        <ele>156.83</ele>
        <time>2010-10-10T11:06:50Z</time>
      </trkpt>
      <trkpt lat="43.23726" lon="6.30898">
        <ele>152.03</ele>
        <time>2010-10-10T11:07:01Z</time>
      </trkpt>
      <trkpt lat="43.23726" lon="6.30898">
        <ele>157.79</ele>
        <time>2010-10-10T11:07:02Z</time>
      </trkpt>
    </trkseg>
  </trk>
</gpx>